<?xml version='1.0' encoding='UTF-8'?><gpx version="1.1" creator="JPX - https://github.com/jenetics/jpx" xmlns="http://www.topografix.com/GPX/1/1"><trk><trkseg><trkpt lat="43.49215699536601" lon="12.719902773290547"><ele>487.8</ele><time>2026-04-29T12:13:28Z</time></trkpt><trkpt lat="43.49208646222964" lon="12.719817100578936"><ele>488.6</ele><time>2026-04-29T12:13:29Z</time></trkpt><trkpt lat="43.49201789123574" lon="12.7197220285963"><ele>489.40000000000003</ele><time>2026-04-29T12:13:30Z</time></trkpt><trkpt lat="43.491957697435" lon="12.719620329972647"><ele>490.20000000000005</ele><time>2026-04-29T12:13:31Z</time></trkpt><trkpt lat="43.491910472472185" lon="12.719506098575266"><ele>491.0</ele><time>2026-04-29T12:13:32Z</time></trkpt><trkpt lat="43.491876048162545" lon="12.719381512153822"><ele>491.4</ele><time>2026-04-29T12:13:33Z</time></trkpt><trkpt lat="43.49184973105558" lon="12.719251327754195"><ele>491.8</ele><time>2026-04-29T12:13:34Z</time></trkpt><trkpt lat="43.49181978949589" lon="12.71911989651633"><ele>492.19999999999993</ele><time>2026-04-29T12:13:35Z</time></trkpt><trkpt lat="43.491781528124974" lon="12.718996536400757"><ele>492.59999999999997</ele><time>2026-04-29T12:13:36Z</time></trkpt><trkpt lat="43.49173477434168" lon="12.718863657821329"><ele>493.0</ele><time>2026-04-29T12:13:37Z</time></trkpt><trkpt lat="43.491676010212295" lon="12.718736413465415"><ele>493.0</ele><time>2026-04-29T12:13:38Z</time></trkpt><trkpt lat="43.49160594126996" lon="12.71860507032436"><ele>493.0</ele><time>2026-04-29T12:13:39Z</time></trkpt><trkpt lat="43.49154173286663" lon="12.718445244482082"><ele>493.0</ele><time>2026-04-29T12:13:40Z</time></trkpt><trkpt lat="43.491487386717274" lon="12.718265130916297"><ele>493.0</ele><time>2026-04-29T12:13:41Z</time></trkpt><trkpt lat="43.491431327652656" lon="12.718079804939823"><ele>495.0</ele><time>2026-04-29T12:13:42Z</time></trkpt><trkpt lat="43.49137777516783" lon="12.717895479425806"><ele>497.0</ele><time>2026-04-29T12:13:43Z</time></trkpt><trkpt lat="43.491330002600755" lon="12.717725097287113"><ele>499.0</ele><time>2026-04-29T12:13:44Z</time></trkpt><trkpt lat="43.491274434000914" lon="12.717548886208002"><ele>501.0</ele><time>2026-04-29T12:13:45Z</time></trkpt><trkpt lat="43.49121314279636" lon="12.717371288152433"><ele>501.0</ele><time>2026-04-29T12:13:46Z</time></trkpt><trkpt lat="43.49114667984692" lon="12.717189968844576"><ele>501.0</ele><time>2026-04-29T12:13:47Z</time></trkpt><trkpt lat="43.49107978497107" lon="12.717007624957846"><ele>501.0</ele><time>2026-04-29T12:13:48Z</time></trkpt><trkpt lat="43.49100989470675" lon="12.716830239180124"><ele>501.0</ele><time>2026-04-29T12:13:49Z</time></trkpt><trkpt lat="43.490936471786405" lon="12.716652889515318"><ele>502.5</ele><time>2026-04-29T12:13:50Z</time></trkpt><trkpt lat="43.490861484680586" lon="12.716479102047355"><ele>504.0</ele><time>2026-04-29T12:13:51Z</time></trkpt><trkpt lat="43.49078678694303" lon="12.716307455215244"><ele>505.5</ele><time>2026-04-29T12:13:52Z</time></trkpt><trkpt lat="43.49071803609254" lon="12.716143626460676"><ele>507.0</ele><time>2026-04-29T12:13:53Z</time></trkpt><trkpt lat="43.49065892054903" lon="12.715990058711942"><ele>509.6</ele><time>2026-04-29T12:13:54Z</time></trkpt><trkpt lat="43.49060292801038" lon="12.715849223982945"><ele>512.2</ele><time>2026-04-29T12:13:55Z</time></trkpt><trkpt lat="43.49055613400679" lon="12.715730564262621"><ele>514.8</ele><time>2026-04-29T12:13:56Z</time></trkpt><trkpt lat="43.490520294852274" lon="12.715628135404925"><ele>517.4</ele><time>2026-04-29T12:13:57Z</time></trkpt><trkpt lat="43.490487743870766" lon="12.715548238229431"><ele>520.0</ele><time>2026-04-29T12:13:57.999Z</time></trkpt><trkpt lat="43.490427494765" lon="12.715408810375928"><ele>517.6</ele><time>2026-04-29T12:13:59.999Z</time></trkpt><trkpt lat="43.490397139827074" lon="12.715303954559113"><ele>515.2</ele><time>2026-04-29T12:14:00.999Z</time></trkpt><trkpt lat="43.490354346512746" lon="12.715188481556975"><ele>512.8</ele><time>2026-04-29T12:14:01.999Z</time></trkpt><trkpt lat="43.49031190948751" lon="12.715076079792226"><ele>510.4</ele><time>2026-04-29T12:14:02.999Z</time></trkpt><trkpt lat="43.49026492406827" lon="12.714959555328727"><ele>508.0</ele><time>2026-04-29T12:14:03.999Z</time></trkpt><trkpt lat="43.49021822720392" lon="12.7148394421026"><ele>508.0</ele><time>2026-04-29T12:14:04.999Z</time></trkpt><trkpt lat="43.49017132166496" lon="12.714706641925675"><ele>508.0</ele><time>2026-04-29T12:14:05.999Z</time></trkpt><trkpt lat="43.49011441940549" lon="12.714566993136003"><ele>508.0</ele><time>2026-04-29T12:14:06.999Z</time></trkpt><trkpt lat="43.490041419244655" lon="12.71441696898692"><ele>508.0</ele><time>2026-04-29T12:14:07.999Z</time></trkpt><trkpt lat="43.48995655870448" lon="12.71425552823049"><ele>509.25</ele><time>2026-04-29T12:14:08.999Z</time></trkpt><trkpt lat="43.48986962146961" lon="12.714094046182858"><ele>510.5</ele><time>2026-04-29T12:14:09.999Z</time></trkpt><trkpt lat="43.48978786407757" lon="12.713940325951627"><ele>511.75</ele><time>2026-04-29T12:14:10.999Z</time></trkpt><trkpt lat="43.489697246713085" lon="12.713784192796751"><ele>513.0</ele><time>2026-04-29T12:14:11.999Z</time></trkpt><trkpt lat="43.489590789599625" lon="12.713631221298023"><ele>515.25</ele><time>2026-04-29T12:14:12.999Z</time></trkpt><trkpt lat="43.48947915538881" lon="12.713486103013043"><ele>517.5</ele><time>2026-04-29T12:14:13.999Z</time></trkpt><trkpt lat="43.489370324042405" lon="12.713349544812168"><ele>519.75</ele><time>2026-04-29T12:14:14.999Z</time></trkpt><trkpt lat="43.489261531550696" lon="12.713227982958717"><ele>522.0</ele><time>2026-04-29T12:14:15.999Z</time></trkpt><trkpt lat="43.489128432420586" lon="12.713137597779435"><ele>522.0</ele><time>2026-04-29T12:14:16.999Z</time></trkpt><trkpt lat="43.48897954055024" lon="12.71306916793061"><ele>522.0</ele><time>2026-04-29T12:14:17.999Z</time></trkpt><trkpt lat="43.48883100452094" lon="12.712988944250434"><ele>522.0</ele><time>2026-04-29T12:14:18.999Z</time></trkpt><trkpt lat="43.48868200476666" lon="12.712897245102546"><ele>521.6666666666666</ele><time>2026-04-29T12:14:19.999Z</time></trkpt><trkpt lat="43.48853158488626" lon="12.712810482587027"><ele>521.3333333333333</ele><time>2026-04-29T12:14:20.999Z</time></trkpt><trkpt lat="43.48838469733969" lon="12.712724971062855"><ele>521.0</ele><time>2026-04-29T12:14:21.999Z</time></trkpt><trkpt lat="43.488239627441246" lon="12.712637125875034"><ele>525.3333333333333</ele><time>2026-04-29T12:14:22.999Z</time></trkpt><trkpt lat="43.48809551598768" lon="12.712564482954901"><ele>529.6666666666666</ele><time>2026-04-29T12:14:23.999Z</time></trkpt><trkpt lat="43.48794547398125" lon="12.71252228213953"><ele>534.0</ele><time>2026-04-29T12:14:24.999Z</time></trkpt><trkpt lat="43.48778431110626" lon="12.712518924012606"><ele>534.0</ele><time>2026-04-29T12:14:25.999Z</time></trkpt><trkpt lat="43.487630325726784" lon="12.71255062973026"><ele>534.0</ele><time>2026-04-29T12:14:26.999Z</time></trkpt><trkpt lat="43.487488874698" lon="12.712569868659138"><ele>534.0</ele><time>2026-04-29T12:14:27.999Z</time></trkpt><trkpt lat="43.487339442993914" lon="12.712594616977535"><ele>534.0</ele><time>2026-04-29T12:14:28.999Z</time></trkpt><trkpt lat="43.48718707215612" lon="12.71261534267522"><ele>534.0</ele><time>2026-04-29T12:14:29.999Z</time></trkpt><trkpt lat="43.48702831204375" lon="12.712635055641226"><ele>534.0</ele><time>2026-04-29T12:14:30.999Z</time></trkpt><trkpt lat="43.48687874448853" lon="12.712650037459516"><ele>534.0</ele><time>2026-04-29T12:14:31.999Z</time></trkpt><trkpt lat="43.486724288394974" lon="12.712665319602857"><ele>534.0</ele><time>2026-04-29T12:14:32.999Z</time></trkpt><trkpt lat="43.48657762662523" lon="12.712674390283459"><ele>534.0</ele><time>2026-04-29T12:14:33.999Z</time></trkpt><trkpt lat="43.48643240504529" lon="12.712687987800615"><ele>534.0</ele><time>2026-04-29T12:14:34.999Z</time></trkpt><trkpt lat="43.48628357688653" lon="12.712698764231567"><ele>534.0</ele><time>2026-04-29T12:14:35.999Z</time></trkpt><trkpt lat="43.486136472163565" lon="12.712705469892134"><ele>535.0</ele><time>2026-04-29T12:14:36.999Z</time></trkpt><trkpt lat="43.48599334085495" lon="12.712714493680954"><ele>536.0</ele><time>2026-04-29T12:14:37.999Z</time></trkpt><trkpt lat="43.48585211132733" lon="12.712723944793279"><ele>537.0</ele><time>2026-04-29T12:14:38.999Z</time></trkpt><trkpt lat="43.48571094622614" lon="12.712736094515872"><ele>538.0</ele><time>2026-04-29T12:14:39.999Z</time></trkpt><trkpt lat="43.48556940727065" lon="12.712748891314348"><ele>544.25</ele><time>2026-04-29T12:14:40.999Z</time></trkpt><trkpt lat="43.485427154274234" lon="12.71277052370117"><ele>550.5</ele><time>2026-04-29T12:14:41.999Z</time></trkpt><trkpt lat="43.485288735229474" lon="12.712802720070476"><ele>556.75</ele><time>2026-04-29T12:14:42.999Z</time></trkpt><trkpt lat="43.485142815299014" lon="12.712842985364903"><ele>563.0</ele><time>2026-04-29T12:14:43.999Z</time></trkpt><trkpt lat="43.484982349286" lon="12.712885608845138"><ele>563.0</ele><time>2026-04-29T12:14:44.999Z</time></trkpt><trkpt lat="43.484832585567666" lon="12.712918404173932"><ele>563.0</ele><time>2026-04-29T12:14:45.999Z</time></trkpt><trkpt lat="43.48469259617443" lon="12.712943929556477"><ele>563.0</ele><time>2026-04-29T12:14:46.999Z</time></trkpt><trkpt lat="43.484563806365976" lon="12.712972865208897"><ele>563.0</ele><time>2026-04-29T12:14:47.999Z</time></trkpt><trkpt lat="43.48443469139277" lon="12.713016785150437"><ele>564.75</ele><time>2026-04-29T12:14:49Z</time></trkpt><trkpt lat="43.48431473568238" lon="12.713059519431237"><ele>566.5</ele><time>2026-04-29T12:14:50Z</time></trkpt><trkpt lat="43.48421191789557" lon="12.713099400951009"><ele>568.25</ele><time>2026-04-29T12:14:51Z</time></trkpt><trkpt lat="43.4841043383468" lon="12.713140069608272"><ele>570.0</ele><time>2026-04-29T12:14:52Z</time></trkpt><trkpt lat="43.48397417278945" lon="12.713192443136643"><ele>570.0</ele><time>2026-04-29T12:14:53Z</time></trkpt><trkpt lat="43.48385997215376" lon="12.713215337628869"><ele>570.0</ele><time>2026-04-29T12:14:54Z</time></trkpt><trkpt lat="43.483759837591464" lon="12.713225950690008"><ele>570.0</ele><time>2026-04-29T12:14:55Z</time></trkpt><trkpt lat="43.48365297299149" lon="12.713223425902612"><ele>570.0</ele><time>2026-04-29T12:14:56Z</time></trkpt><trkpt lat="43.48353796080504" lon="12.713201975995007"><ele>570.0</ele><time>2026-04-29T12:14:57Z</time></trkpt><trkpt lat="43.483433312112155" lon="12.713157488311253"><ele>571.3333333333334</ele><time>2026-04-29T12:14:58Z</time></trkpt><trkpt lat="43.483354401068205" lon="12.713121290608575"><ele>572.6666666666666</ele><time>2026-04-29T12:14:59Z</time></trkpt><trkpt lat="43.483287304338" lon="12.713114964537349"><ele>574.0</ele><time>2026-04-29T12:15:00Z</time></trkpt><trkpt lat="43.48321864152435" lon="12.713148854942444"><ele>575.3333333333333</ele><time>2026-04-29T12:15:01Z</time></trkpt><trkpt lat="43.48314466112334" lon="12.71321488760169"><ele>576.6666666666666</ele><time>2026-04-29T12:15:02Z</time></trkpt><trkpt lat="43.48307524500842" lon="12.713319268100559"><ele>578.0</ele><time>2026-04-29T12:15:03Z</time></trkpt><trkpt lat="43.48299649586431" lon="12.71345474953272"><ele>579.0</ele><time>2026-04-29T12:15:04Z</time></trkpt><trkpt lat="43.482928494312304" lon="12.71353834775271"><ele>580.0</ele><time>2026-04-29T12:15:05Z</time></trkpt><trkpt lat="43.482861425332096" lon="12.713562271751668"><ele>581.0</ele><time>2026-04-29T12:15:06Z</time></trkpt><trkpt lat="43.48278357813184" lon="12.713557614501402"><ele>582.0</ele><time>2026-04-29T12:15:07Z</time></trkpt><trkpt lat="43.48270640111463" lon="12.713513794531723"><ele>583.0</ele><time>2026-04-29T12:15:08Z</time></trkpt><trkpt lat="43.48261095511745" lon="12.713431855517431"><ele>584.0</ele><time>2026-04-29T12:15:09Z</time></trkpt><trkpt lat="43.482485743195724" lon="12.713326539969835"><ele>584.0</ele><time>2026-04-29T12:15:10Z</time></trkpt><trkpt lat="43.48237641067373" lon="12.713234146472562"><ele>584.0</ele><time>2026-04-29T12:15:11Z</time></trkpt><trkpt lat="43.482268568906804" lon="12.713157305794152"><ele>584.0</ele><time>2026-04-29T12:15:12Z</time></trkpt><trkpt lat="43.482164926400316" lon="12.713090357236775"><ele>584.0</ele><time>2026-04-29T12:15:13Z</time></trkpt><trkpt lat="43.48205972348002" lon="12.713016509721394"><ele>586.75</ele><time>2026-04-29T12:15:14Z</time></trkpt><trkpt lat="43.48195795623658" lon="12.712934341796187"><ele>589.5</ele><time>2026-04-29T12:15:15Z</time></trkpt><trkpt lat="43.481855884783904" lon="12.712856832139765"><ele>592.25</ele><time>2026-04-29T12:15:16Z</time></trkpt><trkpt lat="43.48175249180763" lon="12.712777701331389"><ele>595.0</ele><time>2026-04-29T12:15:17Z</time></trkpt><trkpt lat="43.481652506528114" lon="12.712701074713923"><ele>595.0</ele><time>2026-04-29T12:15:18Z</time></trkpt><trkpt lat="43.481548455797466" lon="12.712627630023121"><ele>595.0</ele><time>2026-04-29T12:15:19Z</time></trkpt><trkpt lat="43.48144588914849" lon="12.712551705486876"><ele>595.0</ele><time>2026-04-29T12:15:20Z</time></trkpt><trkpt lat="43.481346765661016" lon="12.712465794155952"><ele>595.0</ele><time>2026-04-29T12:15:21Z</time></trkpt><trkpt lat="43.4812529763512" lon="12.7123763171119"><ele>597.6666666666667</ele><time>2026-04-29T12:15:22Z</time></trkpt><trkpt lat="43.48116642365154" lon="12.712294625467537"><ele>600.3333333333334</ele><time>2026-04-29T12:15:23Z</time></trkpt><trkpt lat="43.48109187014079" lon="12.712220978181735"><ele>603.0</ele><time>2026-04-29T12:15:24Z</time></trkpt><trkpt lat="43.48101891950989" lon="12.712143646248618"><ele>605.6666666666666</ele><time>2026-04-29T12:15:25Z</time></trkpt><trkpt lat="43.480959174181876" lon="12.712089269657747"><ele>608.3333333333333</ele><time>2026-04-29T12:15:26Z</time></trkpt><trkpt lat="43.48089974807806" lon="12.712040550314107"><ele>611.0</ele><time>2026-04-29T12:15:27Z</time></trkpt><trkpt lat="43.480848042971886" lon="12.71198245242692"><ele>611.0</ele><time>2026-04-29T12:15:28Z</time></trkpt><trkpt lat="43.48080329318354" lon="12.711915079642768"><ele>611.0</ele><time>2026-04-29T12:15:29Z</time></trkpt><trkpt lat="43.48072647746742" lon="12.711809114030617"><ele>611.0</ele><time>2026-04-29T12:15:31Z</time></trkpt><trkpt lat="43.48065879855643" lon="12.711726550061561"><ele>611.0</ele><time>2026-04-29T12:15:34Z</time></trkpt><trkpt lat="43.48061367213877" lon="12.71181575198346"><ele>611.0</ele><time>2026-04-29T12:15:43.999Z</time></trkpt><trkpt lat="43.48064857864813" lon="12.711889522876044"><ele>611.0</ele><time>2026-04-29T12:15:45.999Z</time></trkpt><trkpt lat="43.48075036028405" lon="12.711953943970586"><ele>611.0</ele><time>2026-04-29T12:15:47.999Z</time></trkpt><trkpt lat="43.48085949145864" lon="12.712037221394985"><ele>611.0</ele><time>2026-04-29T12:15:49.999Z</time></trkpt><trkpt lat="43.48092479586045" lon="12.71208591036508"><ele>611.0</ele><time>2026-04-29T12:15:50.999Z</time></trkpt><trkpt lat="43.48100053081723" lon="12.71214196174049"><ele>611.0</ele><time>2026-04-29T12:15:51.999Z</time></trkpt><trkpt lat="43.48107070852394" lon="12.712203697212056"><ele>611.0</ele><time>2026-04-29T12:15:52.999Z</time></trkpt><trkpt lat="43.48113897739445" lon="12.71226564784693"><ele>611.0</ele><time>2026-04-29T12:15:53.999Z</time></trkpt><trkpt lat="43.48120282635447" lon="12.712317452179137"><ele>611.0</ele><time>2026-04-29T12:15:54.999Z</time></trkpt><trkpt lat="43.48127229073257" lon="12.71237213425012"><ele>611.0</ele><time>2026-04-29T12:15:55.999Z</time></trkpt><trkpt lat="43.48135148517034" lon="12.712434868383001"><ele>611.0</ele><time>2026-04-29T12:15:56.999Z</time></trkpt><trkpt lat="43.481428839628045" lon="12.712490207455653"><ele>611.0</ele><time>2026-04-29T12:15:57.999Z</time></trkpt><trkpt lat="43.48150287721361" lon="12.71254412884247"><ele>611.0</ele><time>2026-04-29T12:15:58.999Z</time></trkpt><trkpt lat="43.48158764611286" lon="12.712603679446943"><ele>610.1666666666666</ele><time>2026-04-29T12:15:59.999Z</time></trkpt><trkpt lat="43.48167193707981" lon="12.712663543110331"><ele>609.3333333333333</ele><time>2026-04-29T12:16:00.999Z</time></trkpt><trkpt lat="43.48175052477617" lon="12.712719418798622"><ele>608.5</ele><time>2026-04-29T12:16:01.999Z</time></trkpt><trkpt lat="43.48182492438079" lon="12.7127749032015"><ele>607.6666666666666</ele><time>2026-04-29T12:16:02.999Z</time></trkpt><trkpt lat="43.48189128977628" lon="12.71282538762793"><ele>606.8333333333334</ele><time>2026-04-29T12:16:03.999Z</time></trkpt><trkpt lat="43.481960892358096" lon="12.712875715970076"><ele>606.0</ele><time>2026-04-29T12:16:04.999Z</time></trkpt><trkpt lat="43.48204165332272" lon="12.71294023881084"><ele>602.3333333333334</ele><time>2026-04-29T12:16:05.999Z</time></trkpt><trkpt lat="43.48212453756047" lon="12.713009097562425"><ele>598.6666666666666</ele><time>2026-04-29T12:16:06.999Z</time></trkpt><trkpt lat="43.482197288627674" lon="12.713072666541686"><ele>595.0</ele><time>2026-04-29T12:16:07.999Z</time></trkpt><trkpt lat="43.482265559190054" lon="12.713130376110332"><ele>591.3333333333333</ele><time>2026-04-29T12:16:08.999Z</time></trkpt><trkpt lat="43.4823317402842" lon="12.71318497336065"><ele>587.6666666666666</ele><time>2026-04-29T12:16:09.999Z</time></trkpt><trkpt lat="43.48239500918495" lon="12.713234789235853"><ele>584.0</ele><time>2026-04-29T12:16:10.999Z</time></trkpt><trkpt lat="43.48245688121037" lon="12.713282693410035"><ele>584.0</ele><time>2026-04-29T12:16:11.999Z</time></trkpt><trkpt lat="43.48252604797809" lon="12.713334001037948"><ele>584.0</ele><time>2026-04-29T12:16:12.999Z</time></trkpt><trkpt lat="43.48259930389903" lon="12.713394552564397"><ele>584.0</ele><time>2026-04-29T12:16:13.999Z</time></trkpt><trkpt lat="43.482661807144574" lon="12.713449191093998"><ele>584.0</ele><time>2026-04-29T12:16:14.999Z</time></trkpt><trkpt lat="43.48272216740675" lon="12.713498611857966"><ele>584.0</ele><time>2026-04-29T12:16:15.999Z</time></trkpt><trkpt lat="43.48284184509908" lon="12.713536482939277"><ele>584.0</ele><time>2026-04-29T12:16:17.999Z</time></trkpt><trkpt lat="43.482959528742974" lon="12.713486159655211"><ele>583.0</ele><time>2026-04-29T12:16:19.999Z</time></trkpt><trkpt lat="43.4830171420905" lon="12.713422977490291"><ele>582.0</ele><time>2026-04-29T12:16:20.999Z</time></trkpt><trkpt lat="43.48307229079798" lon="12.713334170953743"><ele>581.0</ele><time>2026-04-29T12:16:21.999Z</time></trkpt><trkpt lat="43.48312419181904" lon="12.713244132496587"><ele>580.0</ele><time>2026-04-29T12:16:22.999Z</time></trkpt><trkpt lat="43.48317295286436" lon="12.71317952906665"><ele>579.0</ele><time>2026-04-29T12:16:23.999Z</time></trkpt><trkpt lat="43.483234172531084" lon="12.713126650323801"><ele>578.0</ele><time>2026-04-29T12:16:24.999Z</time></trkpt><trkpt lat="43.48335480846386" lon="12.713107489402656"><ele>578.0</ele><time>2026-04-29T12:16:26.999Z</time></trkpt><trkpt lat="43.48348574671528" lon="12.7131676431824"><ele>578.0</ele><time>2026-04-29T12:16:28.999Z</time></trkpt><trkpt lat="43.4835676905146" lon="12.713204661333897"><ele>578.0</ele><time>2026-04-29T12:16:29.999Z</time></trkpt><trkpt lat="43.483668040056195" lon="12.713224653107314"><ele>578.0</ele><time>2026-04-29T12:16:30.999Z</time></trkpt><trkpt lat="43.48377018817259" lon="12.71321164743981"><ele>578.0</ele><time>2026-04-29T12:16:31.999Z</time></trkpt><trkpt lat="43.483863875373515" lon="12.713188099724423"><ele>576.4</ele><time>2026-04-29T12:16:32.999Z</time></trkpt><trkpt lat="43.48397121049327" lon="12.71316586353054"><ele>574.8</ele><time>2026-04-29T12:16:33.999Z</time></trkpt><trkpt lat="43.48408065982808" lon="12.713137448065497"><ele>573.2</ele><time>2026-04-29T12:16:34.999Z</time></trkpt><trkpt lat="43.484185687841006" lon="12.713100830452218"><ele>571.6</ele><time>2026-04-29T12:16:35.999Z</time></trkpt><trkpt lat="43.4842844989027" lon="12.713062063220205"><ele>570.0</ele><time>2026-04-29T12:16:36.999Z</time></trkpt><trkpt lat="43.484386813882224" lon="12.71302524787267"><ele>570.0</ele><time>2026-04-29T12:16:37.999Z</time></trkpt><trkpt lat="43.484499658338926" lon="12.71299052239115"><ele>570.0</ele><time>2026-04-29T12:16:38.999Z</time></trkpt><trkpt lat="43.48461459899581" lon="12.712958088233984"><ele>570.0</ele><time>2026-04-29T12:16:39.999Z</time></trkpt><trkpt lat="43.48472226083086" lon="12.712932152007445"><ele>570.0</ele><time>2026-04-29T12:16:40.999Z</time></trkpt><trkpt lat="43.484832270120876" lon="12.712909104062991"><ele>568.25</ele><time>2026-04-29T12:16:41.999Z</time></trkpt><trkpt lat="43.484956778981186" lon="12.712877201413725"><ele>566.5</ele><time>2026-04-29T12:16:42.999Z</time></trkpt><trkpt lat="43.4850879833898" lon="12.712843889184365"><ele>564.75</ele><time>2026-04-29T12:16:43.999Z</time></trkpt><trkpt lat="43.485227521789334" lon="12.712805702268762"><ele>563.0</ele><time>2026-04-29T12:16:44.999Z</time></trkpt><trkpt lat="43.48535647203087" lon="12.71277945999217"><ele>562.25</ele><time>2026-04-29T12:16:45.999Z</time></trkpt><trkpt lat="43.485474963204105" lon="12.712761129938865"><ele>561.5</ele><time>2026-04-29T12:16:46.999Z</time></trkpt><trkpt lat="43.48559914103962" lon="12.712744425209364"><ele>560.75</ele><time>2026-04-29T12:16:47.999Z</time></trkpt><trkpt lat="43.48572270312962" lon="12.712736299975306"><ele>560.0</ele><time>2026-04-29T12:16:48.999Z</time></trkpt><trkpt lat="43.48583634926739" lon="12.712724527708136"><ele>554.5</ele><time>2026-04-29T12:16:49.999Z</time></trkpt><trkpt lat="43.48594737595623" lon="12.712717093474911"><ele>549.0</ele><time>2026-04-29T12:16:50.999Z</time></trkpt><trkpt lat="43.48606629331595" lon="12.712711797883685"><ele>543.5</ele><time>2026-04-29T12:16:51.999Z</time></trkpt><trkpt lat="43.486186912304404" lon="12.712694763284022"><ele>538.0</ele><time>2026-04-29T12:16:52.999Z</time></trkpt><trkpt lat="43.48630897269452" lon="12.712689646944247"><ele>537.0</ele><time>2026-04-29T12:16:53.999Z</time></trkpt><trkpt lat="43.48643206569783" lon="12.712677029580032"><ele>536.0</ele><time>2026-04-29T12:16:55Z</time></trkpt><trkpt lat="43.48654985971899" lon="12.712664961453369"><ele>535.0</ele><time>2026-04-29T12:16:56Z</time></trkpt><trkpt lat="43.486677028893894" lon="12.712652445076959"><ele>534.0</ele><time>2026-04-29T12:16:57Z</time></trkpt><trkpt lat="43.48680662209091" lon="12.712640066921084"><ele>534.0</ele><time>2026-04-29T12:16:58Z</time></trkpt><trkpt lat="43.48693440013493" lon="12.712630546221959"><ele>534.0</ele><time>2026-04-29T12:16:59Z</time></trkpt><trkpt lat="43.48705279544345" lon="12.71261794191115"><ele>534.0</ele><time>2026-04-29T12:17:00Z</time></trkpt><trkpt lat="43.487161465939145" lon="12.712606271068816"><ele>534.0</ele><time>2026-04-29T12:17:01Z</time></trkpt><trkpt lat="43.48726572249951" lon="12.71259106607629"><ele>534.0</ele><time>2026-04-29T12:17:02Z</time></trkpt><trkpt lat="43.48736607223734" lon="12.712578734363069"><ele>534.0</ele><time>2026-04-29T12:17:03Z</time></trkpt><trkpt lat="43.48746882568564" lon="12.712563172847506"><ele>534.0</ele><time>2026-04-29T12:17:04Z</time></trkpt><trkpt lat="43.487582094939334" lon="12.712547386689645"><ele>534.0</ele><time>2026-04-29T12:17:05Z</time></trkpt><trkpt lat="43.48770529246375" lon="12.712530862261382"><ele>534.0</ele><time>2026-04-29T12:17:06Z</time></trkpt><trkpt lat="43.48782734861613" lon="12.712504210772316"><ele>534.5</ele><time>2026-04-29T12:17:07Z</time></trkpt><trkpt lat="43.487958322505804" lon="12.712506356753106"><ele>535.0</ele><time>2026-04-29T12:17:08Z</time></trkpt><trkpt lat="43.488089162804854" lon="12.712562450096321"><ele>535.5</ele><time>2026-04-29T12:17:09Z</time></trkpt><trkpt lat="43.48821994152304" lon="12.71262081452128"><ele>536.0</ele><time>2026-04-29T12:17:10Z</time></trkpt><trkpt lat="43.488351145985575" lon="12.712709302561242"><ele>532.5</ele><time>2026-04-29T12:17:11Z</time></trkpt><trkpt lat="43.48848208885162" lon="12.712786820081448"><ele>529.0</ele><time>2026-04-29T12:17:12Z</time></trkpt><trkpt lat="43.4886153985035" lon="12.712860700548704"><ele>525.5</ele><time>2026-04-29T12:17:13Z</time></trkpt><trkpt lat="43.488745673182734" lon="12.712931530152318"><ele>522.0</ele><time>2026-04-29T12:17:14Z</time></trkpt><trkpt lat="43.48886921484229" lon="12.713002977834986"><ele>522.0</ele><time>2026-04-29T12:17:15Z</time></trkpt><trkpt lat="43.488995280132464" lon="12.713072359235964"><ele>522.0</ele><time>2026-04-29T12:17:16Z</time></trkpt><trkpt lat="43.489113175723034" lon="12.713138034531529"><ele>522.0</ele><time>2026-04-29T12:17:17Z</time></trkpt><trkpt lat="43.489224831883895" lon="12.713205164022177"><ele>522.0</ele><time>2026-04-29T12:17:18Z</time></trkpt><trkpt lat="43.48933648076663" lon="12.713281737001871"><ele>522.0</ele><time>2026-04-29T12:17:19Z</time></trkpt><trkpt lat="43.48943573989918" lon="12.713390702491496"><ele>522.0</ele><time>2026-04-29T12:17:20Z</time></trkpt><trkpt lat="43.48951945647407" lon="12.713526247466186"><ele>522.0</ele><time>2026-04-29T12:17:21Z</time></trkpt><trkpt lat="43.48960261421028" lon="12.713665267853171"><ele>522.0</ele><time>2026-04-29T12:17:22Z</time></trkpt><trkpt lat="43.48969949766342" lon="12.713813764319028"><ele>520.0</ele><time>2026-04-29T12:17:23Z</time></trkpt><trkpt lat="43.489786364252765" lon="12.71396919332731"><ele>518.0</ele><time>2026-04-29T12:17:24Z</time></trkpt><trkpt lat="43.48986378861554" lon="12.714112302248475"><ele>516.0</ele><time>2026-04-29T12:17:25Z</time></trkpt><trkpt lat="43.48993677798653" lon="12.714241507390472"><ele>514.0</ele><time>2026-04-29T12:17:26Z</time></trkpt><trkpt lat="43.490003801558046" lon="12.714359229433683"><ele>512.8</ele><time>2026-04-29T12:17:27Z</time></trkpt><trkpt lat="43.49006227881146" lon="12.71447431691341"><ele>511.59999999999997</ele><time>2026-04-29T12:17:28Z</time></trkpt><trkpt lat="43.49011910389409" lon="12.714581486582324"><ele>510.4</ele><time>2026-04-29T12:17:29Z</time></trkpt><trkpt lat="43.49016821045885" lon="12.714682923120977"><ele>509.2</ele><time>2026-04-29T12:17:30Z</time></trkpt><trkpt lat="43.49020973787277" lon="12.714785860015688"><ele>508.0</ele><time>2026-04-29T12:17:31Z</time></trkpt><trkpt lat="43.49025995266221" lon="12.714900375070572"><ele>508.0</ele><time>2026-04-29T12:17:32Z</time></trkpt><trkpt lat="43.49030658779439" lon="12.715032401140807"><ele>507.99999999999994</ele><time>2026-04-29T12:17:33Z</time></trkpt><trkpt lat="43.49035689123963" lon="12.715168596194571"><ele>507.99999999999994</ele><time>2026-04-29T12:17:34Z</time></trkpt><trkpt lat="43.4904047646501" lon="12.715292183257166"><ele>508.0</ele><time>2026-04-29T12:17:35Z</time></trkpt><trkpt lat="43.490456039355706" lon="12.715407895183212"><ele>508.0</ele><time>2026-04-29T12:17:36Z</time></trkpt><trkpt lat="43.4905100673715" lon="12.71553132620426"><ele>511.0</ele><time>2026-04-29T12:17:37Z</time></trkpt><trkpt lat="43.49056357343003" lon="12.715654075726587"><ele>514.0</ele><time>2026-04-29T12:17:38Z</time></trkpt><trkpt lat="43.49062883142852" lon="12.715793909341004"><ele>517.0</ele><time>2026-04-29T12:17:39Z</time></trkpt><trkpt lat="43.49071013438821" lon="12.715933190440806"><ele>520.0</ele><time>2026-04-29T12:17:40Z</time></trkpt><trkpt lat="43.49079402030725" lon="12.71604809172484"><ele>517.4</ele><time>2026-04-29T12:17:41Z</time></trkpt><trkpt lat="43.49086889107626" lon="12.716168719220715"><ele>514.8</ele><time>2026-04-29T12:17:42Z</time></trkpt><trkpt lat="43.49091532674907" lon="12.71629563289653"><ele>512.2</ele><time>2026-04-29T12:17:43Z</time></trkpt><trkpt lat="43.49095224234739" lon="12.716420276261951"><ele>509.6</ele><time>2026-04-29T12:17:44Z</time></trkpt><trkpt lat="43.49097361523962" lon="12.716545947469886"><ele>507.0</ele><time>2026-04-29T12:17:45Z</time></trkpt><trkpt lat="43.490988043874054" lon="12.716679683441786"><ele>507.0</ele><time>2026-04-29T12:17:46Z</time></trkpt><trkpt lat="43.49103025141427" lon="12.716824775615873"><ele>507.0</ele><time>2026-04-29T12:17:47Z</time></trkpt><trkpt lat="43.4910809595592" lon="12.71696555449899"><ele>507.0</ele><time>2026-04-29T12:17:48Z</time></trkpt><trkpt lat="43.49112444017959" lon="12.717104256279361"><ele>507.0</ele><time>2026-04-29T12:17:49Z</time></trkpt><trkpt lat="43.491173370136366" lon="12.717253945447009"><ele>506.75</ele><time>2026-04-29T12:17:50Z</time></trkpt><trkpt lat="43.49122425821934" lon="12.717420747340343"><ele>506.5</ele><time>2026-04-29T12:17:51Z</time></trkpt><trkpt lat="43.491277823591204" lon="12.717589867406973"><ele>506.25</ele><time>2026-04-29T12:17:52Z</time></trkpt><trkpt lat="43.49133430328956" lon="12.717753969720428"><ele>506.0</ele><time>2026-04-29T12:17:53Z</time></trkpt><trkpt lat="43.491398676409574" lon="12.7179089235357"><ele>506.0</ele><time>2026-04-29T12:17:54Z</time></trkpt><trkpt lat="43.491443481614" lon="12.7180838290698"><ele>506.0</ele><time>2026-04-29T12:17:55Z</time></trkpt><trkpt lat="43.491485016836116" lon="12.718249011817136"><ele>506.0</ele><time>2026-04-29T12:17:56Z</time></trkpt><trkpt lat="43.49153359648085" lon="12.718393482290518"><ele>506.0</ele><time>2026-04-29T12:17:57Z</time></trkpt><trkpt lat="43.4915849935928" lon="12.71851758984108"><ele>503.4</ele><time>2026-04-29T12:17:58Z</time></trkpt><trkpt lat="43.49163571332084" lon="12.718634213933194"><ele>500.8</ele><time>2026-04-29T12:17:59Z</time></trkpt><trkpt lat="43.49168992189766" lon="12.718741544930893"><ele>498.19999999999993</ele><time>2026-04-29T12:18:00Z</time></trkpt><trkpt lat="43.49175059882958" lon="12.718853604344707"><ele>495.59999999999997</ele><time>2026-04-29T12:18:01Z</time></trkpt><trkpt lat="43.49179891182069" lon="12.718983570686746"><ele>493.0</ele><time>2026-04-29T12:18:02Z</time></trkpt><trkpt lat="43.49183694378482" lon="12.719133703420777"><ele>493.0</ele><time>2026-04-29T12:18:03Z</time></trkpt><trkpt lat="43.49186928684722" lon="12.719290448848787"><ele>492.99999999999994</ele><time>2026-04-29T12:18:04Z</time></trkpt><trkpt lat="43.491907334499494" lon="12.719435263482929"><ele>492.99999999999994</ele><time>2026-04-29T12:18:05Z</time></trkpt><trkpt lat="43.4919465565341" lon="12.719567149115996"><ele>493.0</ele><time>2026-04-29T12:18:06Z</time></trkpt><trkpt lat="43.49201055200209" lon="12.719693475694832"><ele>493.0</ele><time>2026-04-29T12:18:07Z</time></trkpt><trkpt lat="43.49209457946302" lon="12.719816706638028"><ele>491.5</ele><time>2026-04-29T12:18:08Z</time></trkpt><trkpt lat="43.49218283779995" lon="12.719931422235984"><ele>490.0</ele><time>2026-04-29T12:18:09Z</time></trkpt><trkpt lat="43.49226762828001" lon="12.720019528350626"><ele>488.5</ele><time>2026-04-29T12:18:10Z</time></trkpt><trkpt lat="43.49237442380173" lon="12.720085169002425"><ele>487.0</ele><time>2026-04-29T12:18:11Z</time></trkpt><trkpt lat="43.49249877529243" lon="12.72012429186633"><ele>487.0</ele><time>2026-04-29T12:18:12Z</time></trkpt><trkpt lat="43.49263957625178" lon="12.72013250512773"><ele>487.0</ele><time>2026-04-29T12:18:12.999Z</time></trkpt><trkpt lat="43.49278684123246" lon="12.720109147402983"><ele>487.0</ele><time>2026-04-29T12:18:13.999Z</time></trkpt><trkpt lat="43.49292343669715" lon="12.720068242834946"><ele>487.0</ele><time>2026-04-29T12:18:14.999Z</time></trkpt><trkpt lat="43.49306550084397" lon="12.720013057311476"><ele>487.33333333333337</ele><time>2026-04-29T12:18:15.999Z</time></trkpt><trkpt lat="43.493206070543735" lon="12.719933070696092"><ele>487.66666666666663</ele><time>2026-04-29T12:18:16.999Z</time></trkpt><trkpt lat="43.49335984452834" lon="12.71986239376144"><ele>488.0</ele><time>2026-04-29T12:18:17.999Z</time></trkpt><trkpt lat="43.49351878763827" lon="12.7198170149728"><ele>488.0</ele><time>2026-04-29T12:18:18.999Z</time></trkpt><trkpt lat="43.49368122896792" lon="12.71977310455865"><ele>488.0</ele><time>2026-04-29T12:18:19.999Z</time></trkpt><trkpt lat="43.49384777417551" lon="12.719737326017988"><ele>488.0</ele><time>2026-04-29T12:18:20.999Z</time></trkpt><trkpt lat="43.49401095527767" lon="12.719709738508305"><ele>486.66666666666663</ele><time>2026-04-29T12:18:21.999Z</time></trkpt><trkpt lat="43.49417484097076" lon="12.719672669691274"><ele>485.33333333333337</ele><time>2026-04-29T12:18:22.999Z</time></trkpt><trkpt lat="43.49433761935658" lon="12.719629050934829"><ele>484.0</ele><time>2026-04-29T12:18:23.999Z</time></trkpt><trkpt lat="43.494494736804995" lon="12.71957823017281"><ele>482.33333333333337</ele><time>2026-04-29T12:18:24.999Z</time></trkpt><trkpt lat="43.494653615819665" lon="12.719525449239192"><ele>480.66666666666663</ele><time>2026-04-29T12:18:25.999Z</time></trkpt><trkpt lat="43.494815594423045" lon="12.719485452692602"><ele>479.0</ele><time>2026-04-29T12:18:26.999Z</time></trkpt><trkpt lat="43.494977710689795" lon="12.71945671156989"><ele>479.0</ele><time>2026-04-29T12:18:27.999Z</time></trkpt><trkpt lat="43.49513660658656" lon="12.719434989134287"><ele>479.0</ele><time>2026-04-29T12:18:28.999Z</time></trkpt><trkpt lat="43.49528325149514" lon="12.719402787018458"><ele>479.0</ele><time>2026-04-29T12:18:29.999Z</time></trkpt><trkpt lat="43.49541313579378" lon="12.719350829652187"><ele>479.0</ele><time>2026-04-29T12:18:30.999Z</time></trkpt><trkpt lat="43.495533606556826" lon="12.71928828452134"><ele>479.0</ele><time>2026-04-29T12:18:31.999Z</time></trkpt><trkpt lat="43.49564526870767" lon="12.719229088837508"><ele>479.0</ele><time>2026-04-29T12:18:32.999Z</time></trkpt><trkpt lat="43.49575638677079" lon="12.719186157723437"><ele>479.0</ele><time>2026-04-29T12:18:33.999Z</time></trkpt><trkpt lat="43.495867526723536" lon="12.719163777611573"><ele>479.0</ele><time>2026-04-29T12:18:34.999Z</time></trkpt><trkpt lat="43.49597085947672" lon="12.719176231237213"><ele>479.0</ele><time>2026-04-29T12:18:35.999Z</time></trkpt><trkpt lat="43.49605937192962" lon="12.719219507828953"><ele>479.0</ele><time>2026-04-29T12:18:36.999Z</time></trkpt><trkpt lat="43.49613968699932" lon="12.719289236456447"><ele>479.0</ele><time>2026-04-29T12:18:37.999Z</time></trkpt><trkpt lat="43.496209521379306" lon="12.719370532227773"><ele>479.0</ele><time>2026-04-29T12:18:38.999Z</time></trkpt><trkpt lat="43.49627566087011" lon="12.719453758069596"><ele>479.0</ele><time>2026-04-29T12:18:39.999Z</time></trkpt><trkpt lat="43.496347507779774" lon="12.71952672817315"><ele>479.49999999999994</ele><time>2026-04-29T12:18:40.999Z</time></trkpt><trkpt lat="43.49643148679421" lon="12.719582224025716"><ele>480.0</ele><time>2026-04-29T12:18:41.999Z</time></trkpt><trkpt lat="43.49651697763682" lon="12.719611570198369"><ele>480.5</ele><time>2026-04-29T12:18:42.999Z</time></trkpt><trkpt lat="43.496596133032185" lon="12.719623899433055"><ele>481.0</ele><time>2026-04-29T12:18:43.999Z</time></trkpt><trkpt lat="43.49666113522764" lon="12.719625461330134"><ele>481.49999999999994</ele><time>2026-04-29T12:18:44.999Z</time></trkpt><trkpt lat="43.49673226277789" lon="12.719627132537413"><ele>482.0</ele><time>2026-04-29T12:18:46.999Z</time></trkpt><trkpt lat="43.496868290675856" lon="12.719535775478622"><ele>482.0</ele><time>2026-04-29T12:18:48.999Z</time></trkpt><trkpt lat="43.496967647937176" lon="12.719460518765391"><ele>482.0</ele><time>2026-04-29T12:18:49.999Z</time></trkpt><trkpt lat="43.497081434360084" lon="12.719384483021589"><ele>482.0</ele><time>2026-04-29T12:18:50.999Z</time></trkpt><trkpt lat="43.497196653997385" lon="12.719308117798914"><ele>482.0</ele><time>2026-04-29T12:18:51.999Z</time></trkpt><trkpt lat="43.49731701438025" lon="12.719236393997665"><ele>479.0</ele><time>2026-04-29T12:18:52.999Z</time></trkpt><trkpt lat="43.49745137194574" lon="12.719158497196391"><ele>476.0</ele><time>2026-04-29T12:18:53.999Z</time></trkpt><trkpt lat="43.49760040540543" lon="12.71907933947362"><ele>473.0</ele><time>2026-04-29T12:18:54.999Z</time></trkpt><trkpt lat="43.49774504278492" lon="12.719009818105205"><ele>473.0</ele><time>2026-04-29T12:18:55.999Z</time></trkpt><trkpt lat="43.497884693454445" lon="12.718941404216752"><ele>473.0</ele><time>2026-04-29T12:18:56.999Z</time></trkpt><trkpt lat="43.49802797959776" lon="12.718877573388873"><ele>473.0</ele><time>2026-04-29T12:18:57.999Z</time></trkpt><trkpt lat="43.498176443030665" lon="12.718837658305116"><ele>472.5</ele><time>2026-04-29T12:18:58.999Z</time></trkpt><trkpt lat="43.49831303983" lon="12.718838676062873"><ele>472.0</ele><time>2026-04-29T12:18:59.999Z</time></trkpt><trkpt lat="43.49842878574441" lon="12.7188807112937"><ele>471.5</ele><time>2026-04-29T12:19:01.001Z</time></trkpt><trkpt lat="43.49854176038254" lon="12.718974777316447"><ele>471.0</ele><time>2026-04-29T12:19:02.001Z</time></trkpt><trkpt lat="43.49864340842999" lon="12.719102854624962"><ele>471.0</ele><time>2026-04-29T12:19:03.001Z</time></trkpt><trkpt lat="43.49873198891586" lon="12.719258711106747"><ele>471.0</ele><time>2026-04-29T12:19:04Z</time></trkpt><trkpt lat="43.49881533120144" lon="12.71942283620631"><ele>471.0</ele><time>2026-04-29T12:19:05Z</time></trkpt><trkpt lat="43.49890488492454" lon="12.719568998654054"><ele>471.0</ele><time>2026-04-29T12:19:06Z</time></trkpt><trkpt lat="43.49899278904331" lon="12.719687526660058"><ele>471.25</ele><time>2026-04-29T12:19:07Z</time></trkpt><trkpt lat="43.49908265431789" lon="12.71976296653695"><ele>471.5</ele><time>2026-04-29T12:19:08Z</time></trkpt><trkpt lat="43.499191817077836" lon="12.719796181379905"><ele>471.75</ele><time>2026-04-29T12:19:09Z</time></trkpt><trkpt lat="43.49931899117725" lon="12.719805033031088"><ele>472.0</ele><time>2026-04-29T12:19:10Z</time></trkpt><trkpt lat="43.49945223928703" lon="12.719823280974078"><ele>473.33333333333337</ele><time>2026-04-29T12:19:11Z</time></trkpt><trkpt lat="43.499591292034296" lon="12.719879408029357"><ele>474.66666666666663</ele><time>2026-04-29T12:19:12Z</time></trkpt><trkpt lat="43.499722851884925" lon="12.719993684610484"><ele>476.0</ele><time>2026-04-29T12:19:13Z</time></trkpt><trkpt lat="43.49984193497925" lon="12.72014568720766"><ele>477.0</ele><time>2026-04-29T12:19:14Z</time></trkpt><trkpt lat="43.499960348431884" lon="12.720289951800735"><ele>478.0</ele><time>2026-04-29T12:19:15Z</time></trkpt><trkpt lat="43.50009839269157" lon="12.720392827571942"><ele>479.0</ele><time>2026-04-29T12:19:16Z</time></trkpt><trkpt lat="43.50025038983041" lon="12.720463736174933"><ele>479.0</ele><time>2026-04-29T12:19:17Z</time></trkpt><trkpt lat="43.50041127215575" lon="12.720523902143283"><ele>479.0</ele><time>2026-04-29T12:19:18Z</time></trkpt><trkpt lat="43.500564437266675" lon="12.72057894090622"><ele>479.0</ele><time>2026-04-29T12:19:19Z</time></trkpt><trkpt lat="43.500711754323376" lon="12.720629985673066"><ele>476.25</ele><time>2026-04-29T12:19:20Z</time></trkpt><trkpt lat="43.50084933530432" lon="12.720679217671636"><ele>473.5</ele><time>2026-04-29T12:19:21Z</time></trkpt><trkpt lat="43.500972928890214" lon="12.720751221094757"><ele>470.75</ele><time>2026-04-29T12:19:22Z</time></trkpt><trkpt lat="43.50108741584463" lon="12.720857856556604"><ele>468.0</ele><time>2026-04-29T12:19:23Z</time></trkpt><trkpt lat="43.50120447142253" lon="12.7209677650835"><ele>469.0</ele><time>2026-04-29T12:19:24Z</time></trkpt><trkpt lat="43.50133187313123" lon="12.72105996766549"><ele>470.0</ele><time>2026-04-29T12:19:25Z</time></trkpt><trkpt lat="43.50147127850771" lon="12.721128031856518"><ele>471.0</ele><time>2026-04-29T12:19:26Z</time></trkpt><trkpt lat="43.50162071159195" lon="12.721166349978278"><ele>472.0</ele><time>2026-04-29T12:19:27Z</time></trkpt><trkpt lat="43.50176807380575" lon="12.721196664222543"><ele>470.33333333333337</ele><time>2026-04-29T12:19:28Z</time></trkpt><trkpt lat="43.50190169881252" lon="12.721252737991435"><ele>468.66666666666663</ele><time>2026-04-29T12:19:29Z</time></trkpt><trkpt lat="43.5020291784866" lon="12.721364094332445"><ele>467.0</ele><time>2026-04-29T12:19:30Z</time></trkpt><trkpt lat="43.50214611855117" lon="12.721515983386285"><ele>467.0</ele><time>2026-04-29T12:19:31Z</time></trkpt><trkpt lat="43.502271837266846" lon="12.721654795764607"><ele>467.0</ele><time>2026-04-29T12:19:32Z</time></trkpt><trkpt lat="43.50241569268566" lon="12.721765686511135"><ele>467.0</ele><time>2026-04-29T12:19:33Z</time></trkpt><trkpt lat="43.502573531227426" lon="12.721863449398345"><ele>463.66666666666663</ele><time>2026-04-29T12:19:34Z</time></trkpt><trkpt lat="43.502720020742316" lon="12.721952048129143"><ele>460.33333333333337</ele><time>2026-04-29T12:19:35Z</time></trkpt><trkpt lat="43.502855365861734" lon="12.722026682997592"><ele>457.0</ele><time>2026-04-29T12:19:36Z</time></trkpt><trkpt lat="43.50299465759252" lon="12.722091168772181"><ele>457.0</ele><time>2026-04-29T12:19:37Z</time></trkpt><trkpt lat="43.50314182434343" lon="12.722136091732008"><ele>457.0</ele><time>2026-04-29T12:19:38Z</time></trkpt><trkpt lat="43.503295611610376" lon="12.722157952269342"><ele>457.0</ele><time>2026-04-29T12:19:39Z</time></trkpt><trkpt lat="43.50345494452924" lon="12.722172173605378"><ele>457.0</ele><time>2026-04-29T12:19:40Z</time></trkpt><trkpt lat="43.50361335706939" lon="12.722201976543326"><ele>457.0</ele><time>2026-04-29T12:19:41Z</time></trkpt><trkpt lat="43.50375444991248" lon="12.722266912016307"><ele>457.0</ele><time>2026-04-29T12:19:42Z</time></trkpt><trkpt lat="43.50386461595471" lon="12.722374513876742"><ele>457.0</ele><time>2026-04-29T12:19:43Z</time></trkpt><trkpt lat="43.503963205587056" lon="12.722490035317954"><ele>455.75</ele><time>2026-04-29T12:19:44Z</time></trkpt><trkpt lat="43.504064273279006" lon="12.722608120493488"><ele>454.5</ele><time>2026-04-29T12:19:45Z</time></trkpt><trkpt lat="43.504177323225534" lon="12.722726859410777"><ele>453.25</ele><time>2026-04-29T12:19:46Z</time></trkpt><trkpt lat="43.50428679774333" lon="12.722848004613974"><ele>452.0</ele><time>2026-04-29T12:19:47Z</time></trkpt><trkpt lat="43.50438892364035" lon="12.722979943512708"><ele>452.0</ele><time>2026-04-29T12:19:48Z</time></trkpt><trkpt lat="43.504484384171754" lon="12.723121216183499"><ele>452.0</ele><time>2026-04-29T12:19:49Z</time></trkpt><trkpt lat="43.5045786733319" lon="12.723262819597437"><ele>452.0</ele><time>2026-04-29T12:19:50Z</time></trkpt><trkpt lat="43.50466569640804" lon="12.723417004891337"><ele>452.0</ele><time>2026-04-29T12:19:51Z</time></trkpt><trkpt lat="43.5047445950188" lon="12.723581014792186"><ele>450.75</ele><time>2026-04-29T12:19:52Z</time></trkpt><trkpt lat="43.504825087602086" lon="12.72374384284735"><ele>449.5</ele><time>2026-04-29T12:19:53Z</time></trkpt><trkpt lat="43.50490472134445" lon="12.723903969091134"><ele>448.25</ele><time>2026-04-29T12:19:54Z</time></trkpt><trkpt lat="43.50498177833721" lon="12.724057426769832"><ele>447.0</ele><time>2026-04-29T12:19:55Z</time></trkpt><trkpt lat="43.505061765637386" lon="12.724199956432294"><ele>447.0</ele><time>2026-04-29T12:19:56Z</time></trkpt><trkpt lat="43.50515813484172" lon="12.724347175493573"><ele>447.0</ele><time>2026-04-29T12:19:57Z</time></trkpt><trkpt lat="43.50526049976849" lon="12.72448407342758"><ele>447.0</ele><time>2026-04-29T12:19:58Z</time></trkpt><trkpt lat="43.505358876275785" lon="12.724614554034414"><ele>447.0</ele><time>2026-04-29T12:19:59Z</time></trkpt><trkpt lat="43.50546361632124" lon="12.724742896569193"><ele>447.75</ele><time>2026-04-29T12:20:00Z</time></trkpt><trkpt lat="43.50555395058077" lon="12.724867911233106"><ele>448.5</ele><time>2026-04-29T12:20:01Z</time></trkpt><trkpt lat="43.50564181360989" lon="12.72498363182018"><ele>449.25</ele><time>2026-04-29T12:20:02Z</time></trkpt><trkpt lat="43.505728714545626" lon="12.725088364497307"><ele>450.0</ele><time>2026-04-29T12:20:03Z</time></trkpt><trkpt lat="43.50583007562819" lon="12.72518134733195"><ele>449.0</ele><time>2026-04-29T12:20:04Z</time></trkpt><trkpt lat="43.50594068908608" lon="12.72526348767788"><ele>448.0</ele><time>2026-04-29T12:20:05Z</time></trkpt><trkpt lat="43.50606215753248" lon="12.725345817828744"><ele>447.0</ele><time>2026-04-29T12:20:06Z</time></trkpt><trkpt lat="43.506191076616446" lon="12.725430801024148"><ele>446.0</ele><time>2026-04-29T12:20:07Z</time></trkpt><trkpt lat="43.506314229976965" lon="12.725507767318113"><ele>446.0</ele><time>2026-04-29T12:20:08Z</time></trkpt><trkpt lat="43.50642114766513" lon="12.725572903457358"><ele>446.0</ele><time>2026-04-29T12:20:09Z</time></trkpt><trkpt lat="43.50652383376556" lon="12.725636743955853"><ele>446.0</ele><time>2026-04-29T12:20:10Z</time></trkpt><trkpt lat="43.506628560106286" lon="12.725702236352593"><ele>446.0</ele><time>2026-04-29T12:20:11Z</time></trkpt><trkpt lat="43.50672985401164" lon="12.725759709745914"><ele>446.0</ele><time>2026-04-29T12:20:12Z</time></trkpt><trkpt lat="43.50682202651021" lon="12.72580698019673"><ele>446.0</ele><time>2026-04-29T12:20:13Z</time></trkpt><trkpt lat="43.506905935381255" lon="12.725855725079038"><ele>446.0</ele><time>2026-04-29T12:20:14Z</time></trkpt><trkpt lat="43.50698808022547" lon="12.7258885489208"><ele>446.0</ele><time>2026-04-29T12:20:15Z</time></trkpt><trkpt lat="43.50707393238644" lon="12.725909092138282"><ele>446.0</ele><time>2026-04-29T12:20:16Z</time></trkpt><trkpt lat="43.50717527315901" lon="12.72590058718705"><ele>446.3333333333333</ele><time>2026-04-29T12:20:18Z</time></trkpt><trkpt lat="43.507246974596264" lon="12.725907096093096"><ele>446.66666666666663</ele><time>2026-04-29T12:20:20Z</time></trkpt><trkpt lat="43.50730929175625" lon="12.725927429302033"><ele>447.0</ele><time>2026-04-29T12:20:21Z</time></trkpt><trkpt lat="43.507387453162465" lon="12.725957765354325"><ele>447.33333333333337</ele><time>2026-04-29T12:20:22Z</time></trkpt><trkpt lat="43.507467813293694" lon="12.725986362955437"><ele>447.6666666666667</ele><time>2026-04-29T12:20:23Z</time></trkpt><trkpt lat="43.50755478850393" lon="12.725999714124226"><ele>448.0</ele><time>2026-04-29T12:20:24Z</time></trkpt><trkpt lat="43.507639060332934" lon="12.726041748392548"><ele>448.00000000000006</ele><time>2026-04-29T12:20:25Z</time></trkpt><trkpt lat="43.50771499529184" lon="12.726056219918645"><ele>448.0</ele><time>2026-04-29T12:20:26Z</time></trkpt><trkpt lat="43.50779165363039" lon="12.72607878837584"><ele>448.0</ele><time>2026-04-29T12:20:27Z</time></trkpt><trkpt lat="43.50787366470047" lon="12.726094422221935"><ele>448.0</ele><time>2026-04-29T12:20:28Z</time></trkpt><trkpt lat="43.50796495183164" lon="12.72610518982165"><ele>448.00000000000006</ele><time>2026-04-29T12:20:29Z</time></trkpt><trkpt lat="43.50804923878892" lon="12.726115978280658"><ele>448.0</ele><time>2026-04-29T12:20:29.999Z</time></trkpt><trkpt lat="43.50814929177438" lon="12.72612644363715"><ele>445.0</ele><time>2026-04-29T12:20:30.999Z</time></trkpt><trkpt lat="43.50824708811998" lon="12.726161425317711"><ele>442.0</ele><time>2026-04-29T12:20:31.999Z</time></trkpt><trkpt lat="43.50836401738719" lon="12.726187724186001"><ele>439.0</ele><time>2026-04-29T12:20:32.999Z</time></trkpt><trkpt lat="43.50847719752182" lon="12.726207831548889"><ele>436.0</ele><time>2026-04-29T12:20:33.999Z</time></trkpt><trkpt lat="43.50859098753221" lon="12.726239915572899"><ele>436.0</ele><time>2026-04-29T12:20:34.999Z</time></trkpt><trkpt lat="43.50872034661157" lon="12.726274884065313"><ele>436.0</ele><time>2026-04-29T12:20:35.999Z</time></trkpt><trkpt lat="43.508841799610636" lon="12.72629839752768"><ele>436.0</ele><time>2026-04-29T12:20:36.999Z</time></trkpt><trkpt lat="43.5089627734491" lon="12.726323595402073"><ele>436.0</ele><time>2026-04-29T12:20:37.999Z</time></trkpt><trkpt lat="43.50909092844691" lon="12.726346664954663"><ele>435.0</ele><time>2026-04-29T12:20:38.999Z</time></trkpt><trkpt lat="43.50922154084644" lon="12.726359629445362"><ele>434.0</ele><time>2026-04-29T12:20:39.999Z</time></trkpt><trkpt lat="43.509354329858084" lon="12.726354927795402"><ele>433.0</ele><time>2026-04-29T12:20:40.999Z</time></trkpt><trkpt lat="43.50949418485299" lon="12.72637277346992"><ele>432.0</ele><time>2026-04-29T12:20:41.999Z</time></trkpt><trkpt lat="43.50963873063217" lon="12.726361668813567"><ele>430.75</ele><time>2026-04-29T12:20:42.999Z</time></trkpt><trkpt lat="43.50978570862455" lon="12.726345908665165"><ele>429.5</ele><time>2026-04-29T12:20:43.999Z</time></trkpt><trkpt lat="43.50993342995422" lon="12.726303656802449"><ele>428.25</ele><time>2026-04-29T12:20:44.999Z</time></trkpt><trkpt lat="43.51007687290555" lon="12.726284522675416"><ele>427.0</ele><time>2026-04-29T12:20:45.999Z</time></trkpt><trkpt lat="43.51021814362722" lon="12.726263455998073"><ele>427.0</ele><time>2026-04-29T12:20:46.999Z</time></trkpt><trkpt lat="43.5103557851656" lon="12.726240702123324"><ele>427.0</ele><time>2026-04-29T12:20:47.999Z</time></trkpt><trkpt lat="43.51049333703214" lon="12.72621055266033"><ele>427.0</ele><time>2026-04-29T12:20:48.999Z</time></trkpt><trkpt lat="43.51062740188964" lon="12.72616967734523"><ele>427.0</ele><time>2026-04-29T12:20:49.999Z</time></trkpt><trkpt lat="43.5107639920033" lon="12.72613080558128"><ele>427.0</ele><time>2026-04-29T12:20:50.999Z</time></trkpt><trkpt lat="43.51090447668559" lon="12.726104923100834"><ele>427.0</ele><time>2026-04-29T12:20:51.999Z</time></trkpt><trkpt lat="43.51104675602933" lon="12.726100264644058"><ele>427.0</ele><time>2026-04-29T12:20:52.999Z</time></trkpt><trkpt lat="43.5111822373495" lon="12.726130692568033"><ele>427.0</ele><time>2026-04-29T12:20:53.999Z</time></trkpt><trkpt lat="43.511331809589144" lon="12.726143640461888"><ele>427.0</ele><time>2026-04-29T12:20:54.999Z</time></trkpt><trkpt lat="43.511471861459924" lon="12.726126912355104"><ele>427.0</ele><time>2026-04-29T12:20:55.999Z</time></trkpt><trkpt lat="43.51159699638108" lon="12.726135383808455"><ele>427.0</ele><time>2026-04-29T12:20:56.999Z</time></trkpt><trkpt lat="43.51171524656534" lon="12.726157583311512"><ele>427.0</ele><time>2026-04-29T12:20:57.999Z</time></trkpt><trkpt lat="43.51182228743613" lon="12.726191766835592"><ele>427.0</ele><time>2026-04-29T12:20:58.999Z</time></trkpt><trkpt lat="43.51192121756388" lon="12.726242967692423"><ele>427.00000000000006</ele><time>2026-04-29T12:20:59.999Z</time></trkpt><trkpt lat="43.5120079589382" lon="12.7263179392681"><ele>427.00000000000006</ele><time>2026-04-29T12:21:00.999Z</time></trkpt><trkpt lat="43.51204839303156" lon="12.72643337672894"><ele>427.0</ele><time>2026-04-29T12:21:01.999Z</time></trkpt><trkpt lat="43.51205751683378" lon="12.726546768915572"><ele>427.0</ele><time>2026-04-29T12:21:02.999Z</time></trkpt><trkpt lat="43.51207273879411" lon="12.726677350370236"><ele>427.20000000000005</ele><time>2026-04-29T12:21:03.999Z</time></trkpt><trkpt lat="43.512101674616346" lon="12.726805231062094"><ele>427.40000000000003</ele><time>2026-04-29T12:21:04.999Z</time></trkpt><trkpt lat="43.512154932128695" lon="12.726917681772553"><ele>427.59999999999997</ele><time>2026-04-29T12:21:05.999Z</time></trkpt><trkpt lat="43.512238042171745" lon="12.727031044285042"><ele>427.79999999999995</ele><time>2026-04-29T12:21:07Z</time></trkpt><trkpt lat="43.51234257769879" lon="12.727140513404041"><ele>428.0</ele><time>2026-04-29T12:21:08Z</time></trkpt><trkpt lat="43.51245908687628" lon="12.727245786908117"><ele>428.75</ele><time>2026-04-29T12:21:09Z</time></trkpt><trkpt lat="43.51257312163669" lon="12.727348644762579"><ele>429.5</ele><time>2026-04-29T12:21:10Z</time></trkpt><trkpt lat="43.5126749035427" lon="12.72744221775871"><ele>430.25</ele><time>2026-04-29T12:21:11Z</time></trkpt><trkpt lat="43.51276683070943" lon="12.727527861687951"><ele>431.0</ele><time>2026-04-29T12:21:12Z</time></trkpt><trkpt lat="43.51286366722247" lon="12.727629632882595"><ele>429.75</ele><time>2026-04-29T12:21:13Z</time></trkpt><trkpt lat="43.51295045949177" lon="12.727747921340343"><ele>428.5</ele><time>2026-04-29T12:21:14Z</time></trkpt><trkpt lat="43.51303591912028" lon="12.727882721038364"><ele>427.25</ele><time>2026-04-29T12:21:15Z</time></trkpt><trkpt lat="43.513121766544785" lon="12.728023021077691"><ele>426.0</ele><time>2026-04-29T12:21:16Z</time></trkpt><trkpt lat="43.51320351973257" lon="12.728160876897459"><ele>426.0</ele><time>2026-04-29T12:21:17Z</time></trkpt><trkpt lat="43.513274569190344" lon="12.728287155181329"><ele>426.0</ele><time>2026-04-29T12:21:18Z</time></trkpt><trkpt lat="43.513337439419665" lon="12.728419661225209"><ele>426.0</ele><time>2026-04-29T12:21:19Z</time></trkpt><trkpt lat="43.51340285316057" lon="12.728573875345047"><ele>426.0</ele><time>2026-04-29T12:21:20Z</time></trkpt><trkpt lat="43.51346852030765" lon="12.728731876949034"><ele>426.0</ele><time>2026-04-29T12:21:21Z</time></trkpt><trkpt lat="43.51352820974795" lon="12.728883656616896"><ele>426.0</ele><time>2026-04-29T12:21:22Z</time></trkpt><trkpt lat="43.51358858115779" lon="12.729042199664969"><ele>426.0</ele><time>2026-04-29T12:21:23Z</time></trkpt><trkpt lat="43.513633704886225" lon="12.729185699297368"><ele>426.0</ele><time>2026-04-29T12:21:24Z</time></trkpt><trkpt lat="43.51364122399422" lon="12.729312669119798"><ele>425.6</ele><time>2026-04-29T12:21:25Z</time></trkpt><trkpt lat="43.51360898281453" lon="12.72943072445727"><ele>425.20000000000005</ele><time>2026-04-29T12:21:26Z</time></trkpt><trkpt lat="43.51356427344721" lon="12.72958258329354"><ele>424.79999999999995</ele><time>2026-04-29T12:21:27Z</time></trkpt><trkpt lat="43.513512871846544" lon="12.729740713201249"><ele>424.4</ele><time>2026-04-29T12:21:28Z</time></trkpt><trkpt lat="43.51346925305361" lon="12.729871176696607"><ele>424.0</ele><time>2026-04-29T12:21:29Z</time></trkpt><trkpt lat="43.513432346101624" lon="12.729981716798006"><ele>424.0</ele><time>2026-04-29T12:21:30Z</time></trkpt><trkpt lat="43.513398798888566" lon="12.730082170725572"><ele>424.0</ele><time>2026-04-29T12:21:31Z</time></trkpt><trkpt lat="43.51337107374259" lon="12.73016516404776"><ele>424.0</ele><time>2026-04-29T12:21:32Z</time></trkpt><trkpt lat="43.513344512498776" lon="12.73026994215123"><ele>424.0</ele><time>2026-04-29T12:21:34Z</time></trkpt><trkpt lat="43.513483518581154" lon="12.730377213846085"><ele>424.0</ele><time>2026-04-29T12:21:42Z</time></trkpt><trkpt lat="43.51356945226329" lon="12.730381700780455"><ele>424.0</ele><time>2026-04-29T12:21:43Z</time></trkpt><trkpt lat="43.51364671446693" lon="12.73032795082351"><ele>424.0</ele><time>2026-04-29T12:21:44Z</time></trkpt><trkpt lat="43.51370183926765" lon="12.730216371871984"><ele>424.0</ele><time>2026-04-29T12:21:45Z</time></trkpt><trkpt lat="43.51375828171254" lon="12.730060380771626"><ele>424.0</ele><time>2026-04-29T12:21:46Z</time></trkpt><trkpt lat="43.513807812097724" lon="12.729879806388121"><ele>426.75</ele><time>2026-04-29T12:21:47Z</time></trkpt><trkpt lat="43.513855211652675" lon="12.72972547961889"><ele>429.5</ele><time>2026-04-29T12:21:48Z</time></trkpt><trkpt lat="43.51390488067143" lon="12.729565372812889"><ele>432.25</ele><time>2026-04-29T12:21:49Z</time></trkpt><trkpt lat="43.51395106916379" lon="12.729372603455301"><ele>435.0</ele><time>2026-04-29T12:21:50Z</time></trkpt><trkpt lat="43.51399710261388" lon="12.729172644467837"><ele>435.5</ele><time>2026-04-29T12:21:51Z</time></trkpt><trkpt lat="43.514043896231264" lon="12.72897984135004"><ele>436.0</ele><time>2026-04-29T12:21:52Z</time></trkpt><trkpt lat="43.51409197052441" lon="12.7288001948319"><ele>436.5</ele><time>2026-04-29T12:21:53Z</time></trkpt><trkpt lat="43.514131234472416" lon="12.72862697372754"><ele>437.0</ele><time>2026-04-29T12:21:54Z</time></trkpt><trkpt lat="43.514166552479836" lon="12.728476715365293"><ele>435.0</ele><time>2026-04-29T12:21:55Z</time></trkpt><trkpt lat="43.51421587527076" lon="12.728333199359213"><ele>433.0</ele><time>2026-04-29T12:21:56Z</time></trkpt><trkpt lat="43.51428115190901" lon="12.728191750516718"><ele>431.0</ele><time>2026-04-29T12:21:57Z</time></trkpt><trkpt lat="43.51436917089129" lon="12.728060745487943"><ele>429.0</ele><time>2026-04-29T12:21:58Z</time></trkpt><trkpt lat="43.51446905288027" lon="12.727937819832187"><ele>429.0</ele><time>2026-04-29T12:21:59Z</time></trkpt><trkpt lat="43.51456833773737" lon="12.72781154273727"><ele>429.0</ele><time>2026-04-29T12:22:00Z</time></trkpt><trkpt lat="43.514666005841015" lon="12.727711569442716"><ele>429.0</ele><time>2026-04-29T12:22:01Z</time></trkpt><trkpt lat="43.5147735738013" lon="12.727596918899218"><ele>429.0</ele><time>2026-04-29T12:22:02Z</time></trkpt><trkpt lat="43.5148826465885" lon="12.727463306914778"><ele>434.66666666666663</ele><time>2026-04-29T12:22:03Z</time></trkpt><trkpt lat="43.514986847272375" lon="12.72731683008276"><ele>440.3333333333333</ele><time>2026-04-29T12:22:04Z</time></trkpt><trkpt lat="43.51509622166906" lon="12.72715639852701"><ele>446.0</ele><time>2026-04-29T12:22:05Z</time></trkpt><trkpt lat="43.51521592293138" lon="12.726941560092968"><ele>441.66666666666663</ele><time>2026-04-29T12:22:06Z</time></trkpt><trkpt lat="43.515318702273106" lon="12.726774334808484"><ele>437.33333333333337</ele><time>2026-04-29T12:22:07Z</time></trkpt><trkpt lat="43.51540910218555" lon="12.726603819548988"><ele>433.0</ele><time>2026-04-29T12:22:08Z</time></trkpt><trkpt lat="43.51548428525235" lon="12.726433243424346"><ele>435.5</ele><time>2026-04-29T12:22:09Z</time></trkpt><trkpt lat="43.51555484823427" lon="12.726283858379356"><ele>438.0</ele><time>2026-04-29T12:22:10Z</time></trkpt><trkpt lat="43.515632252353704" lon="12.726133907026627"><ele>440.5</ele><time>2026-04-29T12:22:11Z</time></trkpt><trkpt lat="43.51571909624335" lon="12.725991265499331"><ele>443.0</ele><time>2026-04-29T12:22:12Z</time></trkpt><trkpt lat="43.51582311415307" lon="12.725853851689886"><ele>443.0</ele><time>2026-04-29T12:22:13Z</time></trkpt><trkpt lat="43.51593755399894" lon="12.725722005421716"><ele>443.0</ele><time>2026-04-29T12:22:14Z</time></trkpt><trkpt lat="43.51605258883898" lon="12.72559018354"><ele>443.0</ele><time>2026-04-29T12:22:15Z</time></trkpt><trkpt lat="43.516170466412" lon="12.725451631729415"><ele>447.66666666666663</ele><time>2026-04-29T12:22:16Z</time></trkpt><trkpt lat="43.516288214578715" lon="12.725306299428528"><ele>452.33333333333337</ele><time>2026-04-29T12:22:17Z</time></trkpt><trkpt lat="43.51639867125302" lon="12.725155091505933"><ele>457.0</ele><time>2026-04-29T12:22:18Z</time></trkpt><trkpt lat="43.51649772682094" lon="12.724983858704103"><ele>457.0</ele><time>2026-04-29T12:22:19Z</time></trkpt><trkpt lat="43.51658328085878" lon="12.724796668930782"><ele>457.0</ele><time>2026-04-29T12:22:20Z</time></trkpt><trkpt lat="43.51666230124733" lon="12.724608768280575"><ele>457.0</ele><time>2026-04-29T12:22:21Z</time></trkpt><trkpt lat="43.516737135839975" lon="12.724422174663859"><ele>453.5</ele><time>2026-04-29T12:22:22Z</time></trkpt><trkpt lat="43.51680187896815" lon="12.724240753918522"><ele>450.0</ele><time>2026-04-29T12:22:22.999Z</time></trkpt><trkpt lat="43.51685488916695" lon="12.724064579104276"><ele>446.5</ele><time>2026-04-29T12:22:23.999Z</time></trkpt><trkpt lat="43.51690216592012" lon="12.723905516516298"><ele>443.0</ele><time>2026-04-29T12:22:24.999Z</time></trkpt><trkpt lat="43.516948107353436" lon="12.723763826750647"><ele>443.0</ele><time>2026-04-29T12:22:25.999Z</time></trkpt><trkpt lat="43.516986908788596" lon="12.723630349367392"><ele>442.99999999999994</ele><time>2026-04-29T12:22:26.999Z</time></trkpt><trkpt lat="43.517021919011164" lon="12.723508302438104"><ele>442.99999999999994</ele><time>2026-04-29T12:22:27.999Z</time></trkpt><trkpt lat="43.51703649360652" lon="12.723373519173077"><ele>443.0</ele><time>2026-04-29T12:22:28.999Z</time></trkpt><trkpt lat="43.517010599531794" lon="12.72322664145051"><ele>443.0</ele><time>2026-04-29T12:22:29.999Z</time></trkpt><trkpt lat="43.51696818897404" lon="12.723072887391801"><ele>442.4</ele><time>2026-04-29T12:22:30.999Z</time></trkpt><trkpt lat="43.516914412377155" lon="12.722950015468971"><ele>441.79999999999995</ele><time>2026-04-29T12:22:31.999Z</time></trkpt><trkpt lat="43.51687594272542" lon="12.722822293074842"><ele>441.2</ele><time>2026-04-29T12:22:32.999Z</time></trkpt><trkpt lat="43.51685617715268" lon="12.722679519307507"><ele>440.6</ele><time>2026-04-29T12:22:33.999Z</time></trkpt><trkpt lat="43.51684784524247" lon="12.722521835815874"><ele>440.0</ele><time>2026-04-29T12:22:34.999Z</time></trkpt><trkpt lat="43.516848204192684" lon="12.722365262355025"><ele>440.0</ele><time>2026-04-29T12:22:35.999Z</time></trkpt><trkpt lat="43.51684622028541" lon="12.722213542612222"><ele>440.0</ele><time>2026-04-29T12:22:36.999Z</time></trkpt><trkpt lat="43.516833520349756" lon="12.72207056600181"><ele>440.0</ele><time>2026-04-29T12:22:37.999Z</time></trkpt><trkpt lat="43.51679731443168" lon="12.721948471512912"><ele>440.0</ele><time>2026-04-29T12:22:38.999Z</time></trkpt><trkpt lat="43.51674665684674" lon="12.721831150704542"><ele>440.0</ele><time>2026-04-29T12:22:39.999Z</time></trkpt><trkpt lat="43.516681266536885" lon="12.721711588315294"><ele>441.25</ele><time>2026-04-29T12:22:40.999Z</time></trkpt><trkpt lat="43.51661062910496" lon="12.721585686454334"><ele>442.5</ele><time>2026-04-29T12:22:41.999Z</time></trkpt><trkpt lat="43.51654264871337" lon="12.721450206920641"><ele>443.75</ele><time>2026-04-29T12:22:42.999Z</time></trkpt><trkpt lat="43.51648259458607" lon="12.721317094112612"><ele>445.0</ele><time>2026-04-29T12:22:43.999Z</time></trkpt><trkpt lat="43.516432689576355" lon="12.721179022182318"><ele>447.0</ele><time>2026-04-29T12:22:44.999Z</time></trkpt><trkpt lat="43.51639380203347" lon="12.721038642100318"><ele>449.0</ele><time>2026-04-29T12:22:45.999Z</time></trkpt><trkpt lat="43.516387348729616" lon="12.72088680496288"><ele>451.0</ele><time>2026-04-29T12:22:46.999Z</time></trkpt><trkpt lat="43.516384173421" lon="12.720728830839516"><ele>453.0</ele><time>2026-04-29T12:22:47.999Z</time></trkpt><trkpt lat="43.516380952858654" lon="12.720578620713383"><ele>455.0</ele><time>2026-04-29T12:22:48.999Z</time></trkpt><trkpt lat="43.51638676245457" lon="12.720428568460504"><ele>455.0</ele><time>2026-04-29T12:22:49.999Z</time></trkpt><trkpt lat="43.516395823204235" lon="12.72027850085192"><ele>455.0</ele><time>2026-04-29T12:22:50.999Z</time></trkpt><trkpt lat="43.51640584124264" lon="12.720131597709207"><ele>455.0</ele><time>2026-04-29T12:22:51.999Z</time></trkpt><trkpt lat="43.51640371751334" lon="12.719988549372063"><ele>455.0</ele><time>2026-04-29T12:22:52.999Z</time></trkpt><trkpt lat="43.516383285524974" lon="12.719849604082187"><ele>455.0</ele><time>2026-04-29T12:22:53.999Z</time></trkpt><trkpt lat="43.51631610019868" lon="12.719578327568218"><ele>456.2</ele><time>2026-04-29T12:22:55.999Z</time></trkpt><trkpt lat="43.51628153888483" lon="12.719449649813637"><ele>457.4</ele><time>2026-04-29T12:22:56.999Z</time></trkpt><trkpt lat="43.51624991055533" lon="12.719310242237704"><ele>458.6</ele><time>2026-04-29T12:22:57.999Z</time></trkpt><trkpt lat="43.51621617398498" lon="12.719172074044728"><ele>459.8</ele><time>2026-04-29T12:22:58.999Z</time></trkpt><trkpt lat="43.516179997897" lon="12.719031224206358"><ele>461.0</ele><time>2026-04-29T12:22:59.999Z</time></trkpt><trkpt lat="43.51614289937295" lon="12.718889807727955"><ele>460.0</ele><time>2026-04-29T12:23:00.999Z</time></trkpt><trkpt lat="43.516108068136646" lon="12.718750963878254"><ele>459.0</ele><time>2026-04-29T12:23:01.999Z</time></trkpt><trkpt lat="43.51608227835312" lon="12.718621724117945"><ele>458.0</ele><time>2026-04-29T12:23:02.999Z</time></trkpt><trkpt lat="43.51606482910841" lon="12.718488863257631"><ele>457.0</ele><time>2026-04-29T12:23:03.999Z</time></trkpt><trkpt lat="43.516052193134996" lon="12.718340611955597"><ele>456.0</ele><time>2026-04-29T12:23:04.999Z</time></trkpt><trkpt lat="43.51604817121125" lon="12.718185665774882"><ele>456.0</ele><time>2026-04-29T12:23:05.999Z</time></trkpt><trkpt lat="43.51604791680229" lon="12.718020629886642"><ele>456.0</ele><time>2026-04-29T12:23:06.999Z</time></trkpt><trkpt lat="43.51603924459598" lon="12.717851041260278"><ele>456.0</ele><time>2026-04-29T12:23:07.999Z</time></trkpt><trkpt lat="43.516020280022026" lon="12.717675787331292"><ele>456.0</ele><time>2026-04-29T12:23:08.999Z</time></trkpt><trkpt lat="43.51600049413293" lon="12.717521026614659"><ele>457.0</ele><time>2026-04-29T12:23:09.999Z</time></trkpt><trkpt lat="43.51598345529013" lon="12.717388611198981"><ele>458.0</ele><time>2026-04-29T12:23:10.999Z</time></trkpt><trkpt lat="43.51597633533728" lon="12.717259208899138"><ele>459.0</ele><time>2026-04-29T12:23:11.999Z</time></trkpt><trkpt lat="43.51597899380161" lon="12.717111246571168"><ele>460.0</ele><time>2026-04-29T12:23:13Z</time></trkpt><trkpt lat="43.51598579109951" lon="12.71694859314619"><ele>461.0</ele><time>2026-04-29T12:23:14Z</time></trkpt><trkpt lat="43.51598940709208" lon="12.716771712735001"><ele>461.0</ele><time>2026-04-29T12:23:15Z</time></trkpt><trkpt lat="43.51599049024204" lon="12.716594770478492"><ele>461.0</ele><time>2026-04-29T12:23:16Z</time></trkpt><trkpt lat="43.515987868749356" lon="12.716427015850407"><ele>461.0</ele><time>2026-04-29T12:23:17Z</time></trkpt><trkpt lat="43.51599600476384" lon="12.716278301524135"><ele>461.0</ele><time>2026-04-29T12:23:18Z</time></trkpt><trkpt lat="43.51599673827437" lon="12.716132490254129"><ele>460.5</ele><time>2026-04-29T12:23:19Z</time></trkpt><trkpt lat="43.5159980919869" lon="12.715975486007283"><ele>460.0</ele><time>2026-04-29T12:23:20Z</time></trkpt><trkpt lat="43.51598964552791" lon="12.715808560740578"><ele>459.5</ele><time>2026-04-29T12:23:21Z</time></trkpt><trkpt lat="43.51597795542427" lon="12.715631221467632"><ele>459.0</ele><time>2026-04-29T12:23:22Z</time></trkpt><trkpt lat="43.515930971799676" lon="12.71544057717585"><ele>458.33333333333337</ele><time>2026-04-29T12:23:23Z</time></trkpt><trkpt lat="43.51588333957918" lon="12.715214140333348"><ele>457.6666666666667</ele><time>2026-04-29T12:23:24Z</time></trkpt><trkpt lat="43.515817932231066" lon="12.714962448303098"><ele>457.0</ele><time>2026-04-29T12:23:25Z</time></trkpt><trkpt lat="43.51575761233291" lon="12.714728815376324"><ele>457.0</ele><time>2026-04-29T12:23:26Z</time></trkpt><trkpt lat="43.51570039193507" lon="12.714508536317547"><ele>457.0</ele><time>2026-04-29T12:23:27Z</time></trkpt><trkpt lat="43.5156614130954" lon="12.71428704102413"><ele>457.0</ele><time>2026-04-29T12:23:28Z</time></trkpt><trkpt lat="43.515635229127916" lon="12.714050322152302"><ele>456.6666666666667</ele><time>2026-04-29T12:23:29Z</time></trkpt><trkpt lat="43.51562076388021" lon="12.71380000397113"><ele>456.33333333333337</ele><time>2026-04-29T12:23:30Z</time></trkpt><trkpt lat="43.51560550961718" lon="12.713545391032854"><ele>456.0</ele><time>2026-04-29T12:23:31Z</time></trkpt><trkpt lat="43.51559042054016" lon="12.713293310084813"><ele>454.0</ele><time>2026-04-29T12:23:32Z</time></trkpt><trkpt lat="43.515577375113764" lon="12.713054015680026"><ele>452.0</ele><time>2026-04-29T12:23:33Z</time></trkpt><trkpt lat="43.51556355063127" lon="12.712822622573032"><ele>450.0</ele><time>2026-04-29T12:23:34Z</time></trkpt><trkpt lat="43.515542142157" lon="12.712590499165676"><ele>449.33333333333337</ele><time>2026-04-29T12:23:35Z</time></trkpt><trkpt lat="43.51552525244301" lon="12.712345226300114"><ele>448.6666666666667</ele><time>2026-04-29T12:23:36Z</time></trkpt><trkpt lat="43.51550026525603" lon="12.712094125372897"><ele>448.0</ele><time>2026-04-29T12:23:37Z</time></trkpt><trkpt lat="43.515467918983376" lon="12.711840354622646"><ele>447.33333333333337</ele><time>2026-04-29T12:23:38Z</time></trkpt><trkpt lat="43.5154216908533" lon="12.711590557387977"><ele>446.66666666666663</ele><time>2026-04-29T12:23:39Z</time></trkpt><trkpt lat="43.515365277872895" lon="12.711335200530703"><ele>446.0</ele><time>2026-04-29T12:23:40Z</time></trkpt><trkpt lat="43.51529345691562" lon="12.71108725797351"><ele>440.3333333333333</ele><time>2026-04-29T12:23:41Z</time></trkpt><trkpt lat="43.51519985773577" lon="12.710839779157853"><ele>434.66666666666663</ele><time>2026-04-29T12:23:42Z</time></trkpt><trkpt lat="43.515096377129325" lon="12.710591425282153"><ele>429.0</ele><time>2026-04-29T12:23:43Z</time></trkpt><trkpt lat="43.51499959078388" lon="12.71033345238827"><ele>428.66666666666663</ele><time>2026-04-29T12:23:44Z</time></trkpt><trkpt lat="43.51490759621595" lon="12.710078870345225"><ele>428.3333333333333</ele><time>2026-04-29T12:23:45Z</time></trkpt><trkpt lat="43.51481638284313" lon="12.709818517217226"><ele>428.0</ele><time>2026-04-29T12:23:46Z</time></trkpt><trkpt lat="43.51472664249858" lon="12.709559158521134"><ele>430.3333333333333</ele><time>2026-04-29T12:23:47Z</time></trkpt><trkpt lat="43.51465181315252" lon="12.709287888725305"><ele>432.66666666666663</ele><time>2026-04-29T12:23:48Z</time></trkpt><trkpt lat="43.514590842370005" lon="12.70900747328539"><ele>435.0</ele><time>2026-04-29T12:23:49Z</time></trkpt><trkpt lat="43.51453851897271" lon="12.708729129318229"><ele>428.66666666666663</ele><time>2026-04-29T12:23:50Z</time></trkpt><trkpt lat="43.514491419626594" lon="12.70845649778139"><ele>422.3333333333333</ele><time>2026-04-29T12:23:51Z</time></trkpt><trkpt lat="43.514446278178056" lon="12.708188485025468"><ele>416.0</ele><time>2026-04-29T12:23:52Z</time></trkpt><trkpt lat="43.51440099693193" lon="12.707923650738579"><ele>415.0</ele><time>2026-04-29T12:23:53Z</time></trkpt><trkpt lat="43.51436125660191" lon="12.707674357660135"><ele>414.0</ele><time>2026-04-29T12:23:54Z</time></trkpt><trkpt lat="43.51434238319557" lon="12.707434363113983"><ele>413.0</ele><time>2026-04-29T12:23:55Z</time></trkpt><trkpt lat="43.514391470242856" lon="12.707195093062818"><ele>413.0</ele><time>2026-04-29T12:23:56Z</time></trkpt><trkpt lat="43.51444786903737" lon="12.70695280170573"><ele>413.0</ele><time>2026-04-29T12:23:57Z</time></trkpt><trkpt lat="43.5145145338666" lon="12.706700247047259"><ele>413.0</ele><time>2026-04-29T12:23:58Z</time></trkpt><trkpt lat="43.51455885402174" lon="12.706442916058833"><ele>412.0</ele><time>2026-04-29T12:23:59Z</time></trkpt><trkpt lat="43.514621933140596" lon="12.706217753789275"><ele>411.0</ele><time>2026-04-29T12:24:00Z</time></trkpt><trkpt lat="43.514701509185414" lon="12.706009179582631"><ele>410.0</ele><time>2026-04-29T12:24:01Z</time></trkpt><trkpt lat="43.51483422712437" lon="12.70586621394979"><ele>408.3333333333333</ele><time>2026-04-29T12:24:02Z</time></trkpt><trkpt lat="43.514978355804146" lon="12.705718313062645"><ele>406.66666666666663</ele><time>2026-04-29T12:24:03Z</time></trkpt><trkpt lat="43.51511583816687" lon="12.705544770375264"><ele>405.0</ele><time>2026-04-29T12:24:04Z</time></trkpt><trkpt lat="43.51527135314799" lon="12.705389906472584"><ele>403.66666666666663</ele><time>2026-04-29T12:24:05Z</time></trkpt><trkpt lat="43.51542249373196" lon="12.705235174376998"><ele>402.3333333333333</ele><time>2026-04-29T12:24:06Z</time></trkpt><trkpt lat="43.51558200329093" lon="12.705112855266462"><ele>401.0</ele><time>2026-04-29T12:24:07Z</time></trkpt><trkpt lat="43.515753195792726" lon="12.705015713990818"><ele>401.0</ele><time>2026-04-29T12:24:08Z</time></trkpt><trkpt lat="43.51594007094682" lon="12.704930601469348"><ele>401.0</ele><time>2026-04-29T12:24:09Z</time></trkpt><trkpt lat="43.516125447767976" lon="12.704856002305801"><ele>401.0</ele><time>2026-04-29T12:24:10Z</time></trkpt><trkpt lat="43.51630745599376" lon="12.704781632361286"><ele>397.66666666666663</ele><time>2026-04-29T12:24:11Z</time></trkpt><trkpt lat="43.516472875829415" lon="12.7046782637954"><ele>394.33333333333337</ele><time>2026-04-29T12:24:12Z</time></trkpt><trkpt lat="43.51662562807757" lon="12.704568926122459"><ele>391.0</ele><time>2026-04-29T12:24:13Z</time></trkpt><trkpt lat="43.51676046102871" lon="12.70441714245116"><ele>392.6666666666667</ele><time>2026-04-29T12:24:13.999Z</time></trkpt><trkpt lat="43.51687138224041" lon="12.704222309978707"><ele>394.33333333333337</ele><time>2026-04-29T12:24:14.999Z</time></trkpt><trkpt lat="43.51696309571168" lon="12.7039925095319"><ele>396.0</ele><time>2026-04-29T12:24:15.999Z</time></trkpt><trkpt lat="43.51704187181152" lon="12.703742950961502"><ele>393.33333333333337</ele><time>2026-04-29T12:24:16.999Z</time></trkpt><trkpt lat="43.517124577654464" lon="12.703485638407649"><ele>390.6666666666667</ele><time>2026-04-29T12:24:17.999Z</time></trkpt><trkpt lat="43.5172290414443" lon="12.70324161590701"><ele>388.0</ele><time>2026-04-29T12:24:18.999Z</time></trkpt><trkpt lat="43.51732035894275" lon="12.702980724029452"><ele>388.6666666666667</ele><time>2026-04-29T12:24:19.999Z</time></trkpt><trkpt lat="43.51740802642808" lon="12.70272107510289"><ele>389.33333333333337</ele><time>2026-04-29T12:24:20.999Z</time></trkpt><trkpt lat="43.517488801281516" lon="12.702461338651855"><ele>390.0</ele><time>2026-04-29T12:24:21.999Z</time></trkpt><trkpt lat="43.51756136410682" lon="12.702199589478052"><ele>390.0</ele><time>2026-04-29T12:24:22.999Z</time></trkpt><trkpt lat="43.51763085706817" lon="12.701943898465945"><ele>390.0</ele><time>2026-04-29T12:24:23.999Z</time></trkpt><trkpt lat="43.51770070621854" lon="12.70168422235511"><ele>390.0</ele><time>2026-04-29T12:24:24.999Z</time></trkpt><trkpt lat="43.51777064585133" lon="12.701421897263524"><ele>391.0</ele><time>2026-04-29T12:24:25.999Z</time></trkpt><trkpt lat="43.51783808452965" lon="12.701168952903622"><ele>392.0</ele><time>2026-04-29T12:24:26.999Z</time></trkpt><trkpt lat="43.517890167597706" lon="12.700912458449402"><ele>393.0</ele><time>2026-04-29T12:24:27.999Z</time></trkpt><trkpt lat="43.51795719411602" lon="12.700667289887994"><ele>394.33333333333337</ele><time>2026-04-29T12:24:28.999Z</time></trkpt><trkpt lat="43.518019342057215" lon="12.700447711464902"><ele>395.6666666666667</ele><time>2026-04-29T12:24:29.999Z</time></trkpt><trkpt lat="43.51809529674929" lon="12.700254303403662"><ele>397.0</ele><time>2026-04-29T12:24:30.999Z</time></trkpt><trkpt lat="43.5181543152324" lon="12.700045840594187"><ele>397.6666666666667</ele><time>2026-04-29T12:24:31.999Z</time></trkpt><trkpt lat="43.518214686898375" lon="12.699828387582869"><ele>398.33333333333337</ele><time>2026-04-29T12:24:32.999Z</time></trkpt><trkpt lat="43.518261931755646" lon="12.699603300385766"><ele>399.0</ele><time>2026-04-29T12:24:33.999Z</time></trkpt><trkpt lat="43.51835178543958" lon="12.699408142799431"><ele>399.66666666666663</ele><time>2026-04-29T12:24:34.999Z</time></trkpt><trkpt lat="43.51844746910511" lon="12.699211314161644"><ele>400.3333333333333</ele><time>2026-04-29T12:24:35.999Z</time></trkpt><trkpt lat="43.518549335593384" lon="12.699012423184804"><ele>401.0</ele><time>2026-04-29T12:24:36.999Z</time></trkpt><trkpt lat="43.518652809129456" lon="12.698808396783468"><ele>401.3333333333333</ele><time>2026-04-29T12:24:37.999Z</time></trkpt><trkpt lat="43.518755683567726" lon="12.698602664527828"><ele>401.66666666666663</ele><time>2026-04-29T12:24:38.999Z</time></trkpt><trkpt lat="43.51885801631822" lon="12.698395921569592"><ele>402.0</ele><time>2026-04-29T12:24:39.999Z</time></trkpt><trkpt lat="43.518959166220064" lon="12.69818717893405"><ele>403.0</ele><time>2026-04-29T12:24:40.999Z</time></trkpt><trkpt lat="43.51904422831329" lon="12.69797245842539"><ele>404.0</ele><time>2026-04-29T12:24:41.999Z</time></trkpt><trkpt lat="43.51914600417463" lon="12.697807799350903"><ele>405.0</ele><time>2026-04-29T12:24:42.999Z</time></trkpt><trkpt lat="43.519212441886914" lon="12.697627213004179"><ele>405.5</ele><time>2026-04-29T12:24:43.999Z</time></trkpt><trkpt lat="43.51927026861159" lon="12.69746568224124"><ele>406.0</ele><time>2026-04-29T12:24:44.999Z</time></trkpt><trkpt lat="43.51931538496038" lon="12.697296860832674"><ele>406.5</ele><time>2026-04-29T12:24:45.999Z</time></trkpt><trkpt lat="43.51934672839832" lon="12.697104763815767"><ele>407.0</ele><time>2026-04-29T12:24:46.999Z</time></trkpt><trkpt lat="43.519364103253714" lon="12.696896326408762"><ele>407.3333333333333</ele><time>2026-04-29T12:24:47.999Z</time></trkpt><trkpt lat="43.5193902396081" lon="12.696678940003075"><ele>407.66666666666663</ele><time>2026-04-29T12:24:48.999Z</time></trkpt><trkpt lat="43.519394148651855" lon="12.696448854774092"><ele>408.0</ele><time>2026-04-29T12:24:49.999Z</time></trkpt><trkpt lat="43.51942102525374" lon="12.696216637364305"><ele>409.0</ele><time>2026-04-29T12:24:50.999Z</time></trkpt><trkpt lat="43.51944066304313" lon="12.695973437011675"><ele>410.0</ele><time>2026-04-29T12:24:51.999Z</time></trkpt><trkpt lat="43.51946164900517" lon="12.69573266569062"><ele>411.0</ele><time>2026-04-29T12:24:52.999Z</time></trkpt><trkpt lat="43.51948470244495" lon="12.695491335276754"><ele>411.33333333333337</ele><time>2026-04-29T12:24:53.999Z</time></trkpt><trkpt lat="43.51950817414271" lon="12.695249665912245"><ele>411.6666666666667</ele><time>2026-04-29T12:24:54.999Z</time></trkpt><trkpt lat="43.51953111640423" lon="12.695003188263327"><ele>412.0</ele><time>2026-04-29T12:24:55.999Z</time></trkpt><trkpt lat="43.51955203326282" lon="12.694757443338915"><ele>406.0</ele><time>2026-04-29T12:24:56.999Z</time></trkpt><trkpt lat="43.51957285027202" lon="12.694515890002647"><ele>400.0</ele><time>2026-04-29T12:24:57.999Z</time></trkpt><trkpt lat="43.51959284956233" lon="12.69427236612271"><ele>394.0</ele><time>2026-04-29T12:24:58.999Z</time></trkpt><trkpt lat="43.51961456262545" lon="12.694030359176146"><ele>394.0</ele><time>2026-04-29T12:24:59.999Z</time></trkpt><trkpt lat="43.51965338722266" lon="12.693803758647272"><ele>394.0</ele><time>2026-04-29T12:25:00.999Z</time></trkpt><trkpt lat="43.519685299566014" lon="12.693596599854592"><ele>394.0</ele><time>2026-04-29T12:25:01.999Z</time></trkpt><trkpt lat="43.51974177460758" lon="12.693412618803455"><ele>395.25</ele><time>2026-04-29T12:25:02.999Z</time></trkpt><trkpt lat="43.51983589929471" lon="12.693273805778878"><ele>396.5</ele><time>2026-04-29T12:25:03.999Z</time></trkpt><trkpt lat="43.519935442944345" lon="12.693137604435073"><ele>397.75</ele><time>2026-04-29T12:25:04.999Z</time></trkpt><trkpt lat="43.52007592795009" lon="12.69308761428771"><ele>399.0</ele><time>2026-04-29T12:25:05.999Z</time></trkpt><trkpt lat="43.520231361592586" lon="12.693079960116414"><ele>399.0</ele><time>2026-04-29T12:25:06.999Z</time></trkpt><trkpt lat="43.520388573106814" lon="12.693056637059025"><ele>399.0</ele><time>2026-04-29T12:25:07.999Z</time></trkpt><trkpt lat="43.52054430568549" lon="12.692982718020525"><ele>399.0</ele><time>2026-04-29T12:25:08.999Z</time></trkpt><trkpt lat="43.52068558664532" lon="12.692856977696106"><ele>398.66666666666663</ele><time>2026-04-29T12:25:09.999Z</time></trkpt><trkpt lat="43.5208073420132" lon="12.692718196967284"><ele>398.3333333333333</ele><time>2026-04-29T12:25:10.999Z</time></trkpt><trkpt lat="43.520907617002905" lon="12.692561003175303"><ele>398.0</ele><time>2026-04-29T12:25:11.999Z</time></trkpt><trkpt lat="43.52101342061258" lon="12.69241758072144"><ele>398.0</ele><time>2026-04-29T12:25:12.999Z</time></trkpt><trkpt lat="43.52114102370465" lon="12.69230293220008"><ele>398.0</ele><time>2026-04-29T12:25:13.999Z</time></trkpt><trkpt lat="43.52129317647418" lon="12.692229388287693"><ele>398.0</ele><time>2026-04-29T12:25:14.999Z</time></trkpt><trkpt lat="43.521463427886786" lon="12.692176114643845"><ele>395.3333333333333</ele><time>2026-04-29T12:25:15.999Z</time></trkpt><trkpt lat="43.521643866162414" lon="12.692126013611965"><ele>392.66666666666663</ele><time>2026-04-29T12:25:16.999Z</time></trkpt><trkpt lat="43.521829027232414" lon="12.692074687685691"><ele>390.0</ele><time>2026-04-29T12:25:17.999Z</time></trkpt><trkpt lat="43.52202149587534" lon="12.692021337953994"><ele>388.33333333333337</ele><time>2026-04-29T12:25:19Z</time></trkpt><trkpt lat="43.52221402092492" lon="12.691967970732541"><ele>386.6666666666667</ele><time>2026-04-29T12:25:20Z</time></trkpt><trkpt lat="43.52240909041688" lon="12.691918765610536"><ele>385.0</ele><time>2026-04-29T12:25:21Z</time></trkpt><trkpt lat="43.52260395992767" lon="12.691885305033535"><ele>386.33333333333337</ele><time>2026-04-29T12:25:22Z</time></trkpt><trkpt lat="43.52280189704826" lon="12.691876350113448"><ele>387.66666666666663</ele><time>2026-04-29T12:25:23Z</time></trkpt><trkpt lat="43.52300628824566" lon="12.691874263704047"><ele>389.0</ele><time>2026-04-29T12:25:24Z</time></trkpt><trkpt lat="43.52320698780531" lon="12.691870074520711"><ele>389.0</ele><time>2026-04-29T12:25:25Z</time></trkpt><trkpt lat="43.52340511023571" lon="12.69186584908639"><ele>389.0</ele><time>2026-04-29T12:25:26Z</time></trkpt><trkpt lat="43.523595032738164" lon="12.691861798539001"><ele>389.0</ele><time>2026-04-29T12:25:27Z</time></trkpt><trkpt lat="43.52378187251892" lon="12.691859472671299"><ele>388.0</ele><time>2026-04-29T12:25:28Z</time></trkpt><trkpt lat="43.52396929255266" lon="12.691857710920365"><ele>387.0</ele><time>2026-04-29T12:25:29Z</time></trkpt><trkpt lat="43.52415633712324" lon="12.691855952699946"><ele>386.0</ele><time>2026-04-29T12:25:30Z</time></trkpt><trkpt lat="43.52434196467385" lon="12.69185420779963"><ele>386.0</ele><time>2026-04-29T12:25:31Z</time></trkpt><trkpt lat="43.52451598498909" lon="12.691852277851886"><ele>386.0</ele><time>2026-04-29T12:25:32Z</time></trkpt><trkpt lat="43.524686340730995" lon="12.691845057833193"><ele>386.0</ele><time>2026-04-29T12:25:33Z</time></trkpt><trkpt lat="43.524849002173475" lon="12.691824346733211"><ele>385.0</ele><time>2026-04-29T12:25:34Z</time></trkpt><trkpt lat="43.525009294206775" lon="12.691788735033054"><ele>384.0</ele><time>2026-04-29T12:25:35Z</time></trkpt><trkpt lat="43.52516928532506" lon="12.691728124153016"><ele>383.0</ele><time>2026-04-29T12:25:36Z</time></trkpt><trkpt lat="43.525327303045025" lon="12.691632167252493"><ele>381.6666666666667</ele><time>2026-04-29T12:25:37Z</time></trkpt><trkpt lat="43.52547963131091" lon="12.691515872825955"><ele>380.3333333333333</ele><time>2026-04-29T12:25:38Z</time></trkpt><trkpt lat="43.525621022211546" lon="12.691362155677448"><ele>379.0</ele><time>2026-04-29T12:25:39Z</time></trkpt><trkpt lat="43.525751944275015" lon="12.691193328852835"><ele>378.66666666666663</ele><time>2026-04-29T12:25:40Z</time></trkpt><trkpt lat="43.52587463860269" lon="12.691015315258898"><ele>378.3333333333333</ele><time>2026-04-29T12:25:41Z</time></trkpt><trkpt lat="43.525999773127914" lon="12.690828881211768"><ele>378.0</ele><time>2026-04-29T12:25:42Z</time></trkpt><trkpt lat="43.52612910663131" lon="12.690634701244145"><ele>377.3333333333333</ele><time>2026-04-29T12:25:43Z</time></trkpt><trkpt lat="43.52625842365127" lon="12.690443908597677"><ele>376.66666666666663</ele><time>2026-04-29T12:25:44Z</time></trkpt><trkpt lat="43.52638223715725" lon="12.690260142897241"><ele>376.0</ele><time>2026-04-29T12:25:45Z</time></trkpt><trkpt lat="43.52650386068189" lon="12.69007889365014"><ele>376.0</ele><time>2026-04-29T12:25:46Z</time></trkpt><trkpt lat="43.52662172616684" lon="12.68990324481591"><ele>376.0</ele><time>2026-04-29T12:25:47Z</time></trkpt><trkpt lat="43.52673774337219" lon="12.689731879133111"><ele>376.0</ele><time>2026-04-29T12:25:48Z</time></trkpt><trkpt lat="43.526850847571325" lon="12.689564939912847"><ele>377.3333333333333</ele><time>2026-04-29T12:25:49Z</time></trkpt><trkpt lat="43.52696503416824" lon="12.689398858300535"><ele>378.6666666666667</ele><time>2026-04-29T12:25:50Z</time></trkpt><trkpt lat="43.52708103778089" lon="12.68923018947235"><ele>380.0</ele><time>2026-04-29T12:25:51Z</time></trkpt><trkpt lat="43.527195669368766" lon="12.689066548869844"><ele>380.0</ele><time>2026-04-29T12:25:52Z</time></trkpt><trkpt lat="43.5272989115715" lon="12.688919255198368"><ele>380.0</ele><time>2026-04-29T12:25:53Z</time></trkpt><trkpt lat="43.527391970028326" lon="12.68876984783412"><ele>380.0</ele><time>2026-04-29T12:25:54Z</time></trkpt><trkpt lat="43.527456264415264" lon="12.688604376489751"><ele>380.0</ele><time>2026-04-29T12:25:55Z</time></trkpt><trkpt lat="43.52752389852066" lon="12.688463018395021"><ele>380.0</ele><time>2026-04-29T12:25:56Z</time></trkpt><trkpt lat="43.5275221486073" lon="12.688282195045886"><ele>380.0</ele><time>2026-04-29T12:25:57Z</time></trkpt><trkpt lat="43.52749156351411" lon="12.688111435681277"><ele>380.0</ele><time>2026-04-29T12:25:58Z</time></trkpt><trkpt lat="43.527416501170656" lon="12.687954715718995"><ele>380.0</ele><time>2026-04-29T12:25:59Z</time></trkpt><trkpt lat="43.52730592860063" lon="12.68780030713273"><ele>379.6666666666667</ele><time>2026-04-29T12:26:00Z</time></trkpt><trkpt lat="43.52718142804249" lon="12.687642345998523"><ele>379.3333333333333</ele><time>2026-04-29T12:26:01Z</time></trkpt><trkpt lat="43.52705931564241" lon="12.687479674467186"><ele>379.0</ele><time>2026-04-29T12:26:02Z</time></trkpt><trkpt lat="43.52694181742679" lon="12.687318918217713"><ele>379.0</ele><time>2026-04-29T12:26:03Z</time></trkpt><trkpt lat="43.526830957180884" lon="12.687160987429131"><ele>379.0</ele><time>2026-04-29T12:26:04Z</time></trkpt><trkpt lat="43.5267266630625" lon="12.687004662830361"><ele>379.0</ele><time>2026-04-29T12:26:05Z</time></trkpt><trkpt lat="43.52663123005152" lon="12.686841674995094"><ele>374.66666666666663</ele><time>2026-04-29T12:26:06Z</time></trkpt><trkpt lat="43.52653119665878" lon="12.686671897792781"><ele>370.3333333333333</ele><time>2026-04-29T12:26:07Z</time></trkpt><trkpt lat="43.52648114810729" lon="12.686452059413293"><ele>366.0</ele><time>2026-04-29T12:26:08Z</time></trkpt><trkpt lat="43.526435740468735" lon="12.686214639962934"><ele>364.0</ele><time>2026-04-29T12:26:09Z</time></trkpt><trkpt lat="43.52638028147241" lon="12.685979329428799"><ele>362.0</ele><time>2026-04-29T12:26:10Z</time></trkpt><trkpt lat="43.52634563654588" lon="12.685757361347914"><ele>360.0</ele><time>2026-04-29T12:26:11Z</time></trkpt><trkpt lat="43.52633081306458" lon="12.685547994165209"><ele>360.0</ele><time>2026-04-29T12:26:12Z</time></trkpt><trkpt lat="43.526317167468726" lon="12.685356130453089"><ele>360.0</ele><time>2026-04-29T12:26:13Z</time></trkpt><trkpt lat="43.52631985731856" lon="12.685177870519027"><ele>360.0</ele><time>2026-04-29T12:26:14Z</time></trkpt><trkpt lat="43.52641037873934" lon="12.685038077822323"><ele>360.0</ele><time>2026-04-29T12:26:15Z</time></trkpt><trkpt lat="43.52652154101954" lon="12.684940454602152"><ele>359.3333333333333</ele><time>2026-04-29T12:26:16Z</time></trkpt><trkpt lat="43.52665081363224" lon="12.684844197609797"><ele>358.66666666666663</ele><time>2026-04-29T12:26:16.999Z</time></trkpt><trkpt lat="43.52679466854986" lon="12.68474415530766"><ele>358.0</ele><time>2026-04-29T12:26:17.999Z</time></trkpt><trkpt lat="43.52693217347038" lon="12.684651152414187"><ele>358.0</ele><time>2026-04-29T12:26:18.999Z</time></trkpt><trkpt lat="43.527048282157985" lon="12.68459179522534"><ele>358.0</ele><time>2026-04-29T12:26:19.999Z</time></trkpt><trkpt lat="43.52716406433349" lon="12.68459931011475"><ele>358.0</ele><time>2026-04-29T12:26:20.999Z</time></trkpt><trkpt lat="43.52728545951422" lon="12.684656395536592"><ele>358.0</ele><time>2026-04-29T12:26:21.999Z</time></trkpt><trkpt lat="43.527420652717105" lon="12.684725658808368"><ele>357.5</ele><time>2026-04-29T12:26:22.999Z</time></trkpt><trkpt lat="43.52754544033082" lon="12.684830951569412"><ele>357.0</ele><time>2026-04-29T12:26:23.999Z</time></trkpt><trkpt lat="43.52764188702798" lon="12.684974689275345"><ele>356.5</ele><time>2026-04-29T12:26:24.999Z</time></trkpt><trkpt lat="43.527731288981734" lon="12.685146944550487"><ele>356.0</ele><time>2026-04-29T12:26:25.999Z</time></trkpt><trkpt lat="43.527758537695156" lon="12.685372588664192"><ele>356.0</ele><time>2026-04-29T12:26:26.999Z</time></trkpt><trkpt lat="43.52780838638269" lon="12.685593576835924"><ele>356.0</ele><time>2026-04-29T12:26:27.999Z</time></trkpt><trkpt lat="43.52784771051549" lon="12.685805666337954"><ele>356.0</ele><time>2026-04-29T12:26:28.999Z</time></trkpt><trkpt lat="43.52789780168159" lon="12.685975143453541"><ele>357.5</ele><time>2026-04-29T12:26:29.999Z</time></trkpt><trkpt lat="43.52796009470253" lon="12.68611485822633"><ele>359.0</ele><time>2026-04-29T12:26:30.999Z</time></trkpt><trkpt lat="43.52805704831679" lon="12.686224547349475"><ele>360.5</ele><time>2026-04-29T12:26:31.999Z</time></trkpt><trkpt lat="43.52818486081329" lon="12.686316050961809"><ele>362.0</ele><time>2026-04-29T12:26:32.999Z</time></trkpt><trkpt lat="43.52833772048013" lon="12.686387674728342"><ele>362.0</ele><time>2026-04-29T12:26:33.999Z</time></trkpt><trkpt lat="43.52848400216774" lon="12.686479981614852"><ele>362.0</ele><time>2026-04-29T12:26:34.999Z</time></trkpt><trkpt lat="43.528625364816" lon="12.686582576477328"><ele>362.0</ele><time>2026-04-29T12:26:35.999Z</time></trkpt><trkpt lat="43.52875995169148" lon="12.6866895443436"><ele>362.5</ele><time>2026-04-29T12:26:36.999Z</time></trkpt><trkpt lat="43.52889359569935" lon="12.68680252228035"><ele>363.0</ele><time>2026-04-29T12:26:37.999Z</time></trkpt><trkpt lat="43.52900514696699" lon="12.686930301994517"><ele>363.5</ele><time>2026-04-29T12:26:38.999Z</time></trkpt><trkpt lat="43.529105520727626" lon="12.687073688259838"><ele>364.0</ele><time>2026-04-29T12:26:39.999Z</time></trkpt><trkpt lat="43.52920660451325" lon="12.687202338929657"><ele>364.0</ele><time>2026-04-29T12:26:40.999Z</time></trkpt><trkpt lat="43.529306914709565" lon="12.687306622725561"><ele>364.0</ele><time>2026-04-29T12:26:41.999Z</time></trkpt><trkpt lat="43.529413720793244" lon="12.687399618958505"><ele>364.0</ele><time>2026-04-29T12:26:42.999Z</time></trkpt><trkpt lat="43.529525533244595" lon="12.687471881182857"><ele>364.0</ele><time>2026-04-29T12:26:43.999Z</time></trkpt><trkpt lat="43.52961725573594" lon="12.68756915028764"><ele>365.2</ele><time>2026-04-29T12:26:44.999Z</time></trkpt><trkpt lat="43.52971188604799" lon="12.687646722443887"><ele>366.4</ele><time>2026-04-29T12:26:45.999Z</time></trkpt><trkpt lat="43.529801537390036" lon="12.687720213250932"><ele>367.6</ele><time>2026-04-29T12:26:46.999Z</time></trkpt><trkpt lat="43.529899592020506" lon="12.687800592565683"><ele>368.8</ele><time>2026-04-29T12:26:47.999Z</time></trkpt><trkpt lat="43.53000232740557" lon="12.687884806742497"><ele>370.0</ele><time>2026-04-29T12:26:48.999Z</time></trkpt><trkpt lat="43.530108954823355" lon="12.687973839107457"><ele>370.0</ele><time>2026-04-29T12:26:49.999Z</time></trkpt><trkpt lat="43.530221836308286" lon="12.688067407179425"><ele>370.0</ele><time>2026-04-29T12:26:50.999Z</time></trkpt><trkpt lat="43.53033482864363" lon="12.688161067131416"><ele>370.0</ele><time>2026-04-29T12:26:51.999Z</time></trkpt><trkpt lat="43.53045262726943" lon="12.688258711135934"><ele>370.0</ele><time>2026-04-29T12:26:52.999Z</time></trkpt><trkpt lat="43.53057082524442" lon="12.688356686046534"><ele>370.75</ele><time>2026-04-29T12:26:53.999Z</time></trkpt><trkpt lat="43.530685999940566" lon="12.688452154121137"><ele>371.5</ele><time>2026-04-29T12:26:54.999Z</time></trkpt><trkpt lat="43.53078877383136" lon="12.68853755804452"><ele>372.25</ele><time>2026-04-29T12:26:55.999Z</time></trkpt><trkpt lat="43.53089135714612" lon="12.688605189965136"><ele>373.0</ele><time>2026-04-29T12:26:56.999Z</time></trkpt><trkpt lat="43.53099405684767" lon="12.688637794086922"><ele>373.0</ele><time>2026-04-29T12:26:57.999Z</time></trkpt><trkpt lat="43.531085444133275" lon="12.688668354191893"><ele>373.0</ele><time>2026-04-29T12:26:58.999Z</time></trkpt><trkpt lat="43.53118683029934" lon="12.688660978136069"><ele>373.0</ele><time>2026-04-29T12:26:59.999Z</time></trkpt><trkpt lat="43.53130071792905" lon="12.688626525914561"><ele>373.0</ele><time>2026-04-29T12:27:00.999Z</time></trkpt><trkpt lat="43.53142461065123" lon="12.688549655332658"><ele>373.0</ele><time>2026-04-29T12:27:01.999Z</time></trkpt><trkpt lat="43.5315476904331" lon="12.688440921168072"><ele>373.0</ele><time>2026-04-29T12:27:02.999Z</time></trkpt><trkpt lat="43.53167014899723" lon="12.688332619951568"><ele>373.0</ele><time>2026-04-29T12:27:03.999Z</time></trkpt><trkpt lat="43.531798073937125" lon="12.688228258540219"><ele>373.0</ele><time>2026-04-29T12:27:04.999Z</time></trkpt><trkpt lat="43.531929198753296" lon="12.688121712078827"><ele>373.0</ele><time>2026-04-29T12:27:05.999Z</time></trkpt><trkpt lat="43.53205863955821" lon="12.688014659056888"><ele>371.75</ele><time>2026-04-29T12:27:06.999Z</time></trkpt><trkpt lat="43.532178437348605" lon="12.687917041799546"><ele>370.5</ele><time>2026-04-29T12:27:07.999Z</time></trkpt><trkpt lat="43.53228612794293" lon="12.687830743184374"><ele>369.25</ele><time>2026-04-29T12:27:08.999Z</time></trkpt><trkpt lat="43.53238232608512" lon="12.687753417507883"><ele>368.0</ele><time>2026-04-29T12:27:09.999Z</time></trkpt><trkpt lat="43.53246966265329" lon="12.687685231442797"><ele>370.0</ele><time>2026-04-29T12:27:10.999Z</time></trkpt><trkpt lat="43.53253669413999" lon="12.687631445250709"><ele>372.0</ele><time>2026-04-29T12:27:11.999Z</time></trkpt><trkpt lat="43.53261919776191" lon="12.687615584197921"><ele>374.0</ele><time>2026-04-29T12:27:13.999Z</time></trkpt><trkpt lat="43.53266810802831" lon="12.687549437305295"><ele>376.0</ele><time>2026-04-29T12:27:17.999Z</time></trkpt><trkpt lat="43.53251015602973" lon="12.687574945576158"><ele>378.0</ele><time>2026-04-29T12:27:21.999Z</time></trkpt><trkpt lat="43.53243024619775" lon="12.687689768443624"><ele>378.0</ele><time>2026-04-29T12:27:22.999Z</time></trkpt><trkpt lat="43.53234323461385" lon="12.687754647425102"><ele>378.0</ele><time>2026-04-29T12:27:23.999Z</time></trkpt><trkpt lat="43.532263530022995" lon="12.687816916271318"><ele>378.0</ele><time>2026-04-29T12:27:25Z</time></trkpt><trkpt lat="43.532193711769864" lon="12.687874213055549"><ele>378.0</ele><time>2026-04-29T12:27:26Z</time></trkpt><trkpt lat="43.53212558630121" lon="12.68790218281014"><ele>378.0</ele><time>2026-04-29T12:27:27Z</time></trkpt><trkpt lat="43.532045757830815" lon="12.687846150778357"><ele>378.0</ele><time>2026-04-29T12:27:29Z</time></trkpt><trkpt lat="43.53200949708369" lon="12.68772987150158"><ele>378.0</ele><time>2026-04-29T12:27:31Z</time></trkpt><trkpt lat="43.53196493079554" lon="12.687640259140263"><ele>378.0</ele><time>2026-04-29T12:27:33Z</time></trkpt><trkpt lat="43.53187622759329" lon="12.687527376281118"><ele>378.0</ele><time>2026-04-29T12:27:35Z</time></trkpt><trkpt lat="43.531823332209186" lon="12.687416793652767"><ele>378.0</ele><time>2026-04-29T12:27:36Z</time></trkpt><trkpt lat="43.53176816987859" lon="12.687273104556393"><ele>378.0</ele><time>2026-04-29T12:27:37Z</time></trkpt><trkpt lat="43.531699474661664" lon="12.687107874671623"><ele>378.0</ele><time>2026-04-29T12:27:38Z</time></trkpt><trkpt lat="43.53162999420531" lon="12.686930510174912"><ele>378.0</ele><time>2026-04-29T12:27:39Z</time></trkpt><trkpt lat="43.53156290101599" lon="12.686755110122363"><ele>378.0</ele><time>2026-04-29T12:27:40Z</time></trkpt><trkpt lat="43.53149138869895" lon="12.686575524533712"><ele>378.0</ele><time>2026-04-29T12:27:41Z</time></trkpt><trkpt lat="43.531413009310526" lon="12.686385520826088"><ele>378.6666666666667</ele><time>2026-04-29T12:27:42Z</time></trkpt><trkpt lat="43.53132734927599" lon="12.686186446761369"><ele>379.33333333333337</ele><time>2026-04-29T12:27:43Z</time></trkpt><trkpt lat="43.53123971804698" lon="12.68599129174281"><ele>380.0</ele><time>2026-04-29T12:27:44Z</time></trkpt><trkpt lat="43.53115365052789" lon="12.685798749352669"><ele>381.6666666666667</ele><time>2026-04-29T12:27:45Z</time></trkpt><trkpt lat="43.53106620275883" lon="12.685610446785388"><ele>383.33333333333337</ele><time>2026-04-29T12:27:46Z</time></trkpt><trkpt lat="43.53098577744104" lon="12.685425986306665"><ele>385.0</ele><time>2026-04-29T12:27:47Z</time></trkpt><trkpt lat="43.530918932821905" lon="12.685260378111296"><ele>386.75</ele><time>2026-04-29T12:27:48Z</time></trkpt><trkpt lat="43.53084210574333" lon="12.685105090825965"><ele>388.5</ele><time>2026-04-29T12:27:49Z</time></trkpt><trkpt lat="43.530755649735084" lon="12.684957188852753"><ele>390.25</ele><time>2026-04-29T12:27:50Z</time></trkpt><trkpt lat="43.530661429755064" lon="12.684823411584084"><ele>392.0</ele><time>2026-04-29T12:27:51Z</time></trkpt><trkpt lat="43.53058976922012" lon="12.684699541602974"><ele>392.0</ele><time>2026-04-29T12:27:52Z</time></trkpt><trkpt lat="43.53051478380225" lon="12.684586696159855"><ele>392.0</ele><time>2026-04-29T12:27:53Z</time></trkpt><trkpt lat="43.53043247180851" lon="12.684462825100349"><ele>392.0</ele><time>2026-04-29T12:27:54Z</time></trkpt><trkpt lat="43.53034017021956" lon="12.684326895730699"><ele>392.0</ele><time>2026-04-29T12:27:55Z</time></trkpt><trkpt lat="43.53023126249319" lon="12.684190869025525"><ele>391.3333333333333</ele><time>2026-04-29T12:27:56Z</time></trkpt><trkpt lat="43.5301336101245" lon="12.684033243993118"><ele>390.66666666666663</ele><time>2026-04-29T12:27:57Z</time></trkpt><trkpt lat="43.53002889719947" lon="12.68387989816172"><ele>390.0</ele><time>2026-04-29T12:27:58Z</time></trkpt><trkpt lat="43.529923527325586" lon="12.683724290261067"><ele>394.66666666666663</ele><time>2026-04-29T12:27:59Z</time></trkpt><trkpt lat="43.529814592692084" lon="12.683562682380568"><ele>399.3333333333333</ele><time>2026-04-29T12:28:00Z</time></trkpt><trkpt lat="43.529708503450486" lon="12.683399415976284"><ele>404.0</ele><time>2026-04-29T12:28:01Z</time></trkpt><trkpt lat="43.52959877966057" lon="12.6832443955215"><ele>401.0</ele><time>2026-04-29T12:28:02Z</time></trkpt><trkpt lat="43.52948889740041" lon="12.683086429917658"><ele>398.0</ele><time>2026-04-29T12:28:03Z</time></trkpt><trkpt lat="43.52937873534253" lon="12.682935669754036"><ele>395.0</ele><time>2026-04-29T12:28:04Z</time></trkpt><trkpt lat="43.529262133168245" lon="12.682788058326942"><ele>399.0</ele><time>2026-04-29T12:28:05Z</time></trkpt><trkpt lat="43.52913487129277" lon="12.682647533493716"><ele>403.0</ele><time>2026-04-29T12:28:06Z</time></trkpt><trkpt lat="43.52900475528596" lon="12.682520165770498"><ele>407.0</ele><time>2026-04-29T12:28:07Z</time></trkpt><trkpt lat="43.528863365332334" lon="12.682412072582753"><ele>404.3333333333333</ele><time>2026-04-29T12:28:08Z</time></trkpt><trkpt lat="43.52871765298591" lon="12.682314735406175"><ele>401.66666666666663</ele><time>2026-04-29T12:28:09Z</time></trkpt><trkpt lat="43.52857764833644" lon="12.682207758605122"><ele>399.0</ele><time>2026-04-29T12:28:10Z</time></trkpt><trkpt lat="43.52845194061221" lon="12.682114827409453"><ele>399.0</ele><time>2026-04-29T12:28:11Z</time></trkpt><trkpt lat="43.52833783956371" lon="12.682031268576385"><ele>399.0</ele><time>2026-04-29T12:28:12Z</time></trkpt><trkpt lat="43.528223738450976" lon="12.681947709979786"><ele>399.0</ele><time>2026-04-29T12:28:13Z</time></trkpt><trkpt lat="43.528124452806004" lon="12.681834400346222"><ele>399.0</ele><time>2026-04-29T12:28:14Z</time></trkpt><trkpt lat="43.52802395709831" lon="12.681734490739636"><ele>400.25</ele><time>2026-04-29T12:28:15Z</time></trkpt><trkpt lat="43.527961094791586" lon="12.68158414748497"><ele>401.5</ele><time>2026-04-29T12:28:16Z</time></trkpt><trkpt lat="43.52786962661168" lon="12.681435003229945"><ele>402.75</ele><time>2026-04-29T12:28:17Z</time></trkpt><trkpt lat="43.527791001274736" lon="12.6812573895885"><ele>404.0</ele><time>2026-04-29T12:28:18Z</time></trkpt><trkpt lat="43.527701408596" lon="12.681079860617805"><ele>406.0</ele><time>2026-04-29T12:28:19Z</time></trkpt><trkpt lat="43.527604012819126" lon="12.680901621295922"><ele>408.0</ele><time>2026-04-29T12:28:20Z</time></trkpt><trkpt lat="43.5275053044229" lon="12.680734413499748"><ele>410.0</ele><time>2026-04-29T12:28:21Z</time></trkpt><trkpt lat="43.52740269054155" lon="12.680564644896972"><ele>410.0</ele><time>2026-04-29T12:28:22Z</time></trkpt><trkpt lat="43.52729639983378" lon="12.680396023957632"><ele>410.0</ele><time>2026-04-29T12:28:23Z</time></trkpt><trkpt lat="43.527188201183144" lon="12.6802261687593"><ele>410.0</ele><time>2026-04-29T12:28:24Z</time></trkpt><trkpt lat="43.527064470071785" lon="12.680062778034328"><ele>412.66666666666663</ele><time>2026-04-29T12:28:25Z</time></trkpt><trkpt lat="43.526940519541505" lon="12.679896849199887"><ele>415.33333333333337</ele><time>2026-04-29T12:28:26Z</time></trkpt><trkpt lat="43.52681343646247" lon="12.679724639071416"><ele>418.0</ele><time>2026-04-29T12:28:26.999Z</time></trkpt><trkpt lat="43.52668355382365" lon="12.679540998362674"><ele>423.0</ele><time>2026-04-29T12:28:27.999Z</time></trkpt><trkpt lat="43.52655937127804" lon="12.679355095396044"><ele>428.0</ele><time>2026-04-29T12:28:28.999Z</time></trkpt><trkpt lat="43.52641943862164" lon="12.67916630496375"><ele>433.0</ele><time>2026-04-29T12:28:29.999Z</time></trkpt><trkpt lat="43.52625538309161" lon="12.678988653263396"><ele>434.6666666666667</ele><time>2026-04-29T12:28:30.999Z</time></trkpt><trkpt lat="43.52608503689343" lon="12.678841182470645"><ele>436.33333333333337</ele><time>2026-04-29T12:28:31.999Z</time></trkpt><trkpt lat="43.52592770692191" lon="12.678689796765287"><ele>438.0</ele><time>2026-04-29T12:28:32.999Z</time></trkpt><trkpt lat="43.52576351837523" lon="12.67854583746659"><ele>438.0</ele><time>2026-04-29T12:28:33.999Z</time></trkpt><trkpt lat="43.525601323038565" lon="12.678426975897665"><ele>438.0</ele><time>2026-04-29T12:28:34.999Z</time></trkpt><trkpt lat="43.52546119916772" lon="12.678294339733773"><ele>438.0</ele><time>2026-04-29T12:28:35.999Z</time></trkpt><trkpt lat="43.52532577630003" lon="12.678166166437903"><ele>440.0</ele><time>2026-04-29T12:28:36.999Z</time></trkpt><trkpt lat="43.525200222959086" lon="12.678028810105934"><ele>442.0</ele><time>2026-04-29T12:28:37.999Z</time></trkpt><trkpt lat="43.52508035096193" lon="12.677873035824335"><ele>444.0</ele><time>2026-04-29T12:28:38.999Z</time></trkpt><trkpt lat="43.52497588873739" lon="12.67769551585324"><ele>444.0</ele><time>2026-04-29T12:28:39.999Z</time></trkpt><trkpt lat="43.524917363800746" lon="12.677503552398793"><ele>444.0</ele><time>2026-04-29T12:28:40.999Z</time></trkpt><trkpt lat="43.52485199520973" lon="12.67735328605742"><ele>444.0</ele><time>2026-04-29T12:28:41.999Z</time></trkpt><trkpt lat="43.52486709536572" lon="12.67720021867446"><ele>444.0</ele><time>2026-04-29T12:28:42.999Z</time></trkpt><trkpt lat="43.524907923774165" lon="12.677074374054586"><ele>444.0</ele><time>2026-04-29T12:28:43.999Z</time></trkpt><trkpt lat="43.52498318690735" lon="12.676957994011708"><ele>444.0</ele><time>2026-04-29T12:28:44.999Z</time></trkpt><trkpt lat="43.52504673355898" lon="12.676797830796513"><ele>444.0</ele><time>2026-04-29T12:28:45.999Z</time></trkpt><trkpt lat="43.525129968820536" lon="12.676632329218616"><ele>444.0</ele><time>2026-04-29T12:28:46.999Z</time></trkpt><trkpt lat="43.52517212292783" lon="12.676458453447813"><ele>445.5</ele><time>2026-04-29T12:28:47.999Z</time></trkpt><trkpt lat="43.525174718348666" lon="12.676276235800247"><ele>447.0</ele><time>2026-04-29T12:28:48.999Z</time></trkpt><trkpt lat="43.52512494424911" lon="12.676089339334325"><ele>448.5</ele><time>2026-04-29T12:28:49.999Z</time></trkpt><trkpt lat="43.525036180256556" lon="12.67593242033017"><ele>450.0</ele><time>2026-04-29T12:28:50.999Z</time></trkpt><trkpt lat="43.52492471258926" lon="12.675810001666205"><ele>451.6</ele><time>2026-04-29T12:28:51.999Z</time></trkpt><trkpt lat="43.52479904144021" lon="12.675733674790107"><ele>453.2</ele><time>2026-04-29T12:28:52.999Z</time></trkpt><trkpt lat="43.52469984047042" lon="12.675657647071398"><ele>454.79999999999995</ele><time>2026-04-29T12:28:53.999Z</time></trkpt><trkpt lat="43.52463015404717" lon="12.67559977108448"><ele>456.4</ele><time>2026-04-29T12:28:54.999Z</time></trkpt><trkpt lat="43.52461096918771" lon="12.675446394375177"><ele>458.0</ele><time>2026-04-29T12:28:56.999Z</time></trkpt><trkpt lat="43.52468388244127" lon="12.675382740088478"><ele>458.0</ele><time>2026-04-29T12:28:57.999Z</time></trkpt><trkpt lat="43.52477715953069" lon="12.67537910446551"><ele>458.0</ele><time>2026-04-29T12:28:58.999Z</time></trkpt><trkpt lat="43.52486539427153" lon="12.675482058589502"><ele>458.0</ele><time>2026-04-29T12:28:59.999Z</time></trkpt><trkpt lat="43.52497783564705" lon="12.67554274376091"><ele>458.0</ele><time>2026-04-29T12:29:00.999Z</time></trkpt><trkpt lat="43.52510574517784" lon="12.675610936618355"><ele>458.0</ele><time>2026-04-29T12:29:01.999Z</time></trkpt><trkpt lat="43.525245985236396" lon="12.675667187581439"><ele>458.0</ele><time>2026-04-29T12:29:02.999Z</time></trkpt><trkpt lat="43.52539404192429" lon="12.67574295053967"><ele>458.0</ele><time>2026-04-29T12:29:03.999Z</time></trkpt><trkpt lat="43.52553221857189" lon="12.675818294282905"><ele>460.0</ele><time>2026-04-29T12:29:04.999Z</time></trkpt><trkpt lat="43.525664400170655" lon="12.675890865077962"><ele>462.0</ele><time>2026-04-29T12:29:05.999Z</time></trkpt><trkpt lat="43.525799203252525" lon="12.675963889046356"><ele>464.0</ele><time>2026-04-29T12:29:06.999Z</time></trkpt><trkpt lat="43.5259276283716" lon="12.676026516717513"><ele>466.0</ele><time>2026-04-29T12:29:07.999Z</time></trkpt><trkpt lat="43.5260330057225" lon="12.676075800963256"><ele>466.00000000000006</ele><time>2026-04-29T12:29:08.999Z</time></trkpt><trkpt lat="43.526120048920305" lon="12.676093210367666"><ele>466.0</ele><time>2026-04-29T12:29:09.999Z</time></trkpt><trkpt lat="43.526199168643764" lon="12.676058832361479"><ele>466.0</ele><time>2026-04-29T12:29:10.999Z</time></trkpt><trkpt lat="43.5262357606871" lon="12.67596760966916"><ele>466.0</ele><time>2026-04-29T12:29:11.999Z</time></trkpt><trkpt lat="43.52622673885764" lon="12.675869387629819"><ele>466.00000000000006</ele><time>2026-04-29T12:29:12.999Z</time></trkpt><trkpt lat="43.52616075374721" lon="12.675785723588918"><ele>466.0</ele><time>2026-04-29T12:29:13.999Z</time></trkpt><trkpt lat="43.52609269462965" lon="12.67571119650528"><ele>466.0</ele><time>2026-04-29T12:29:14.999Z</time></trkpt><trkpt lat="43.52602181414267" lon="12.675612603380944"><ele>466.0</ele><time>2026-04-29T12:29:15.999Z</time></trkpt><trkpt lat="43.525944584279486" lon="12.675506546236376"><ele>466.0</ele><time>2026-04-29T12:29:16.999Z</time></trkpt><trkpt lat="43.52586324689692" lon="12.67539928188266"><ele>466.0</ele><time>2026-04-29T12:29:17.999Z</time></trkpt><trkpt lat="43.525771979279675" lon="12.6752872588722"><ele>466.0</ele><time>2026-04-29T12:29:18.999Z</time></trkpt><trkpt lat="43.52567686821711" lon="12.675179786504778"><ele>466.0</ele><time>2026-04-29T12:29:19.999Z</time></trkpt><trkpt lat="43.525574771824374" lon="12.675084570125087"><ele>466.0</ele><time>2026-04-29T12:29:20.999Z</time></trkpt><trkpt lat="43.52545707472698" lon="12.675014114510155"><ele>466.0</ele><time>2026-04-29T12:29:21.999Z</time></trkpt><trkpt lat="43.52532845649053" lon="12.674966469923227"><ele>466.0</ele><time>2026-04-29T12:29:22.999Z</time></trkpt><trkpt lat="43.52521054689314" lon="12.674933397083128"><ele>468.5</ele><time>2026-04-29T12:29:23.999Z</time></trkpt><trkpt lat="43.52512583184425" lon="12.674885805253853"><ele>471.0</ele><time>2026-04-29T12:29:24.999Z</time></trkpt><trkpt lat="43.52505432861564" lon="12.674810645552975"><ele>473.5</ele><time>2026-04-29T12:29:25.999Z</time></trkpt><trkpt lat="43.52499925350744" lon="12.674737979875681"><ele>476.0</ele><time>2026-04-29T12:29:26.999Z</time></trkpt><trkpt lat="43.524673834873035" lon="12.674781753776271"><ele>476.75</ele><time>2026-04-29T12:29:27.999Z</time></trkpt><trkpt lat="43.524545841722585" lon="12.67473124900504"><ele>477.5</ele><time>2026-04-29T12:29:28.999Z</time></trkpt><trkpt lat="43.52441962178726" lon="12.674650913991488"><ele>478.25</ele><time>2026-04-29T12:29:29.999Z</time></trkpt><trkpt lat="43.524290068261195" lon="12.674591128601463"><ele>479.0</ele><time>2026-04-29T12:29:31Z</time></trkpt><trkpt lat="43.52416233448195" lon="12.67452760415799"><ele>479.0</ele><time>2026-04-29T12:29:32Z</time></trkpt><trkpt lat="43.5240356441387" lon="12.674463366229695"><ele>479.0</ele><time>2026-04-29T12:29:33Z</time></trkpt><trkpt lat="43.52390500918893" lon="12.67440964591879"><ele>479.0</ele><time>2026-04-29T12:29:34Z</time></trkpt><trkpt lat="43.52377882499238" lon="12.674346865698068"><ele>479.0</ele><time>2026-04-29T12:29:35Z</time></trkpt><trkpt lat="43.5236519297604" lon="12.674316655663043"><ele>481.99999999999994</ele><time>2026-04-29T12:29:36Z</time></trkpt><trkpt lat="43.52353349300576" lon="12.674314518771554"><ele>485.0</ele><time>2026-04-29T12:29:37Z</time></trkpt><trkpt lat="43.5234390781413" lon="12.67431377405357"><ele>488.0</ele><time>2026-04-29T12:29:38Z</time></trkpt><trkpt lat="43.5233667178015" lon="12.674246213492934"><ele>491.0</ele><time>2026-04-29T12:29:39Z</time></trkpt><trkpt lat="43.52333843912778" lon="12.674164283045808"><ele>493.99999999999994</ele><time>2026-04-29T12:29:40Z</time></trkpt><trkpt lat="43.523373151944305" lon="12.674090626907738"><ele>497.0</ele><time>2026-04-29T12:29:41Z</time></trkpt><trkpt lat="43.523492099334106" lon="12.674017386015215"><ele>497.0</ele><time>2026-04-29T12:29:43Z</time></trkpt><trkpt lat="43.52358845682353" lon="12.674100413768107"><ele>497.0</ele><time>2026-04-29T12:29:44Z</time></trkpt><trkpt lat="43.523725693642994" lon="12.674128370382313"><ele>497.0</ele><time>2026-04-29T12:29:45Z</time></trkpt><trkpt lat="43.523856933723096" lon="12.674102749643486"><ele>497.0</ele><time>2026-04-29T12:29:46Z</time></trkpt><trkpt lat="43.52397745296366" lon="12.6740677765187"><ele>498.25</ele><time>2026-04-29T12:29:47Z</time></trkpt><trkpt lat="43.52411563859407" lon="12.674048636769701"><ele>499.5</ele><time>2026-04-29T12:29:48Z</time></trkpt><trkpt lat="43.52425454500333" lon="12.673995396341937"><ele>500.75</ele><time>2026-04-29T12:29:49Z</time></trkpt><trkpt lat="43.524395973810165" lon="12.673987375880774"><ele>502.0</ele><time>2026-04-29T12:29:50Z</time></trkpt><trkpt lat="43.524547326074824" lon="12.673981922038168"><ele>500.20000000000005</ele><time>2026-04-29T12:29:51Z</time></trkpt><trkpt lat="43.52465284089167" lon="12.67398568266545"><ele>498.40000000000003</ele><time>2026-04-29T12:29:52Z</time></trkpt><trkpt lat="43.52474071258514" lon="12.673986178524885"><ele>496.59999999999997</ele><time>2026-04-29T12:29:53Z</time></trkpt><trkpt lat="43.52481490054291" lon="12.673956288986894"><ele>494.79999999999995</ele><time>2026-04-29T12:29:54Z</time></trkpt><trkpt lat="43.52484268128219" lon="12.67386794798763"><ele>493.0</ele><time>2026-04-29T12:29:55Z</time></trkpt><trkpt lat="43.524762636081526" lon="12.67369574025503"><ele>493.00000000000006</ele><time>2026-04-29T12:29:57Z</time></trkpt><trkpt lat="43.524675308435405" lon="12.673668834214249"><ele>493.0</ele><time>2026-04-29T12:29:58Z</time></trkpt><trkpt lat="43.524595090951294" lon="12.673675968782605"><ele>493.0</ele><time>2026-04-29T12:29:59Z</time></trkpt><trkpt lat="43.524513581209405" lon="12.673702750024175"><ele>493.0</ele><time>2026-04-29T12:30:00Z</time></trkpt><trkpt lat="43.524435616929196" lon="12.67369240244353"><ele>493.00000000000006</ele><time>2026-04-29T12:30:01Z</time></trkpt><trkpt lat="43.524358942481584" lon="12.67369668671472"><ele>493.0</ele><time>2026-04-29T12:30:02Z</time></trkpt><trkpt lat="43.524284006752254" lon="12.673681789086634"><ele>494.50000000000006</ele><time>2026-04-29T12:30:03Z</time></trkpt><trkpt lat="43.52420023881869" lon="12.673661949750317"><ele>496.0</ele><time>2026-04-29T12:30:04Z</time></trkpt><trkpt lat="43.52411414751074" lon="12.673643650448536"><ele>497.5</ele><time>2026-04-29T12:30:05Z</time></trkpt><trkpt lat="43.52402514229288" lon="12.673648517687209"><ele>499.0</ele><time>2026-04-29T12:30:06Z</time></trkpt><trkpt lat="43.52395085370727" lon="12.673624757372995"><ele>500.50000000000006</ele><time>2026-04-29T12:30:07Z</time></trkpt><trkpt lat="43.52388088004704" lon="12.673596472915373"><ele>502.0</ele><time>2026-04-29T12:30:08Z</time></trkpt><trkpt lat="43.52381077369041" lon="12.673577202429128"><ele>507.00000000000006</ele><time>2026-04-29T12:30:09Z</time></trkpt><trkpt lat="43.523738296135114" lon="12.673555441615159"><ele>512.0</ele><time>2026-04-29T12:30:10Z</time></trkpt><trkpt lat="43.52367268086234" lon="12.673523894496952"><ele>517.0</ele><time>2026-04-29T12:30:11Z</time></trkpt><trkpt lat="43.52360384724589" lon="12.673487997952625"><ele>522.0</ele><time>2026-04-29T12:30:12Z</time></trkpt><trkpt lat="43.52352646120075" lon="12.67347201075896"><ele>527.0</ele><time>2026-04-29T12:30:13Z</time></trkpt><trkpt lat="43.52345560136767" lon="12.673417949104621"><ele>532.0</ele><time>2026-04-29T12:30:14Z</time></trkpt><trkpt lat="43.523394387890114" lon="12.67334971526412"><ele>532.0</ele><time>2026-04-29T12:30:15Z</time></trkpt><trkpt lat="43.52332982887564" lon="12.673274312432639"><ele>532.0</ele><time>2026-04-29T12:30:16Z</time></trkpt><trkpt lat="43.52326207592112" lon="12.673208959755064"><ele>532.0</ele><time>2026-04-29T12:30:17Z</time></trkpt><trkpt lat="43.52318525278922" lon="12.67317687534692"><ele>532.0</ele><time>2026-04-29T12:30:18Z</time></trkpt><trkpt lat="43.52310824424951" lon="12.673154276410957"><ele>532.0</ele><time>2026-04-29T12:30:19Z</time></trkpt><trkpt lat="43.52303204845213" lon="12.673138150682501"><ele>532.0</ele><time>2026-04-29T12:30:20Z</time></trkpt><trkpt lat="43.52295286880831" lon="12.673113934863832"><ele>530.3333333333334</ele><time>2026-04-29T12:30:21Z</time></trkpt><trkpt lat="43.52287948901875" lon="12.67309762287333"><ele>528.6666666666667</ele><time>2026-04-29T12:30:22Z</time></trkpt><trkpt lat="43.52280286815762" lon="12.673084733976209"><ele>527.0</ele><time>2026-04-29T12:30:23Z</time></trkpt><trkpt lat="43.522723245779694" lon="12.67307657177119"><ele>525.3333333333334</ele><time>2026-04-29T12:30:24Z</time></trkpt><trkpt lat="43.52264623060777" lon="12.673067170718497"><ele>523.6666666666666</ele><time>2026-04-29T12:30:25Z</time></trkpt><trkpt lat="43.522571211803246" lon="12.673018295864845"><ele>522.0</ele><time>2026-04-29T12:30:26Z</time></trkpt><trkpt lat="43.522498568657454" lon="12.672982494051075"><ele>522.0</ele><time>2026-04-29T12:30:27Z</time></trkpt><trkpt lat="43.522418030618866" lon="12.672951347571352"><ele>522.0</ele><time>2026-04-29T12:30:28Z</time></trkpt><trkpt lat="43.52234853596582" lon="12.672894385781776"><ele>522.0</ele><time>2026-04-29T12:30:29Z</time></trkpt><trkpt lat="43.52227450638299" lon="12.672837356364587"><ele>522.0</ele><time>2026-04-29T12:30:29.999Z</time></trkpt><trkpt lat="43.52220064283214" lon="12.672782869130435"><ele>522.0</ele><time>2026-04-29T12:30:30.999Z</time></trkpt><trkpt lat="43.52212196127607" lon="12.67272955209115"><ele>522.0</ele><time>2026-04-29T12:30:31.999Z</time></trkpt><trkpt lat="43.52204922679094" lon="12.672670386451067"><ele>526.6666666666666</ele><time>2026-04-29T12:30:32.999Z</time></trkpt><trkpt lat="43.521972654988154" lon="12.672619443631408"><ele>531.3333333333334</ele><time>2026-04-29T12:30:33.999Z</time></trkpt><trkpt lat="43.52190168332505" lon="12.672553267226826"><ele>536.0</ele><time>2026-04-29T12:30:34.999Z</time></trkpt><trkpt lat="43.521825046891934" lon="12.672500064220557"><ele>540.6666666666667</ele><time>2026-04-29T12:30:35.999Z</time></trkpt><trkpt lat="43.521747295728126" lon="12.672444803663199"><ele>545.3333333333334</ele><time>2026-04-29T12:30:36.999Z</time></trkpt><trkpt lat="43.52167502166874" lon="12.672394419612742"><ele>550.0</ele><time>2026-04-29T12:30:37.999Z</time></trkpt><trkpt lat="43.521596898735766" lon="12.672337502054662"><ele>550.0</ele><time>2026-04-29T12:30:38.999Z</time></trkpt><trkpt lat="43.521520532851405" lon="12.672285071584936"><ele>550.0</ele><time>2026-04-29T12:30:39.999Z</time></trkpt><trkpt lat="43.52144161531732" lon="12.672233792728075"><ele>550.0</ele><time>2026-04-29T12:30:40.999Z</time></trkpt><trkpt lat="43.52136046694911" lon="12.672187488750865"><ele>550.0</ele><time>2026-04-29T12:30:41.999Z</time></trkpt><trkpt lat="43.52127440065176" lon="12.672144113224503"><ele>550.0</ele><time>2026-04-29T12:30:42.999Z</time></trkpt><trkpt lat="43.52118334204005" lon="12.672119863031437"><ele>550.0</ele><time>2026-04-29T12:30:43.999Z</time></trkpt><trkpt lat="43.521090952733644" lon="12.672111203133843"><ele>548.0</ele><time>2026-04-29T12:30:44.999Z</time></trkpt><trkpt lat="43.520994066070834" lon="12.672094282991852"><ele>546.0</ele><time>2026-04-29T12:30:45.999Z</time></trkpt><trkpt lat="43.52089880821385" lon="12.672071784497353"><ele>544.0</ele><time>2026-04-29T12:30:46.999Z</time></trkpt><trkpt lat="43.52080230904885" lon="12.672041275236822"><ele>542.0</ele><time>2026-04-29T12:30:47.999Z</time></trkpt><trkpt lat="43.52070388789513" lon="12.67201401880828"><ele>540.0</ele><time>2026-04-29T12:30:48.999Z</time></trkpt><trkpt lat="43.52060843139196" lon="12.671969139940636"><ele>541.3333333333334</ele><time>2026-04-29T12:30:49.999Z</time></trkpt><trkpt lat="43.52051584378396" lon="12.671907564656118"><ele>542.6666666666666</ele><time>2026-04-29T12:30:50.999Z</time></trkpt><trkpt lat="43.52042970090258" lon="12.671848095842785"><ele>544.0</ele><time>2026-04-29T12:30:51.999Z</time></trkpt><trkpt lat="43.52034986039801" lon="12.671790287388589"><ele>545.3333333333333</ele><time>2026-04-29T12:30:52.999Z</time></trkpt><trkpt lat="43.52028761667023" lon="12.671721890836366"><ele>546.6666666666666</ele><time>2026-04-29T12:30:53.999Z</time></trkpt><trkpt lat="43.52023765813405" lon="12.671667571137387"><ele>548.0</ele><time>2026-04-29T12:30:54.999Z</time></trkpt><trkpt lat="43.520219055049594" lon="12.671554105993254"><ele>548.0</ele><time>2026-04-29T12:30:56.999Z</time></trkpt><trkpt lat="43.52029821517751" lon="12.671498216710564"><ele>548.0</ele><time>2026-04-29T12:30:58.999Z</time></trkpt><trkpt lat="43.520389191569606" lon="12.67161657068902"><ele>548.0</ele><time>2026-04-29T12:31:00.999Z</time></trkpt><trkpt lat="43.52045763132862" lon="12.671667663155427"><ele>548.0</ele><time>2026-04-29T12:31:01.999Z</time></trkpt><trkpt lat="43.52052862994315" lon="12.671725808967361"><ele>548.0</ele><time>2026-04-29T12:31:02.999Z</time></trkpt><trkpt lat="43.52061682791531" lon="12.67175633766179"><ele>552.1999999999999</ele><time>2026-04-29T12:31:03.999Z</time></trkpt><trkpt lat="43.520716417450124" lon="12.671765895485857"><ele>556.4</ele><time>2026-04-29T12:31:04.999Z</time></trkpt><trkpt lat="43.520822511781965" lon="12.67176362008594"><ele>560.5999999999999</ele><time>2026-04-29T12:31:05.999Z</time></trkpt><trkpt lat="43.52092911273889" lon="12.671748826057923"><ele>564.8</ele><time>2026-04-29T12:31:06.999Z</time></trkpt><trkpt lat="43.521039503459846" lon="12.671726768006408"><ele>569.0</ele><time>2026-04-29T12:31:07.999Z</time></trkpt><trkpt lat="43.52115293554577" lon="12.671715268066212"><ele>572.5</ele><time>2026-04-29T12:31:08.999Z</time></trkpt><trkpt lat="43.52126904505366" lon="12.671713343264317"><ele>576.0</ele><time>2026-04-29T12:31:09.999Z</time></trkpt><trkpt lat="43.52138269238753" lon="12.671717997064563"><ele>579.5</ele><time>2026-04-29T12:31:10.999Z</time></trkpt><trkpt lat="43.521491619714304" lon="12.671730044057881"><ele>583.0</ele><time>2026-04-29T12:31:11.999Z</time></trkpt><trkpt lat="43.521608693117074" lon="12.671767261277049"><ele>583.0</ele><time>2026-04-29T12:31:12.999Z</time></trkpt><trkpt lat="43.52172986227195" lon="12.67178904432601"><ele>583.0</ele><time>2026-04-29T12:31:13.999Z</time></trkpt><trkpt lat="43.521856161150126" lon="12.671811688861725"><ele>583.0</ele><time>2026-04-29T12:31:14.999Z</time></trkpt><trkpt lat="43.52197947993305" lon="12.671812324381397"><ele>583.0</ele><time>2026-04-29T12:31:15.999Z</time></trkpt><trkpt lat="43.52209763305095" lon="12.671843397428793"><ele>586.75</ele><time>2026-04-29T12:31:16.999Z</time></trkpt><trkpt lat="43.52222165635567" lon="12.671865015320812"><ele>590.5</ele><time>2026-04-29T12:31:17.999Z</time></trkpt><trkpt lat="43.5223439054649" lon="12.671891963257575"><ele>594.25</ele><time>2026-04-29T12:31:18.999Z</time></trkpt><trkpt lat="43.522466598658916" lon="12.671912778707567"><ele>598.0</ele><time>2026-04-29T12:31:19.999Z</time></trkpt><trkpt lat="43.522589420960834" lon="12.671936218072197"><ele>591.75</ele><time>2026-04-29T12:31:20.999Z</time></trkpt><trkpt lat="43.52270974880724" lon="12.671968701469071"><ele>585.5</ele><time>2026-04-29T12:31:21.999Z</time></trkpt><trkpt lat="43.52282947358071" lon="12.67200150549401"><ele>579.25</ele><time>2026-04-29T12:31:22.999Z</time></trkpt><trkpt lat="43.52295274859101" lon="12.672025000318085"><ele>573.0</ele><time>2026-04-29T12:31:23.999Z</time></trkpt><trkpt lat="43.523071594357006" lon="12.67204777944968"><ele>573.0</ele><time>2026-04-29T12:31:24.999Z</time></trkpt><trkpt lat="43.52317847811463" lon="12.672068000763414"><ele>573.0</ele><time>2026-04-29T12:31:25.999Z</time></trkpt><trkpt lat="43.52327262680618" lon="12.672086223364769"><ele>573.0</ele><time>2026-04-29T12:31:26.999Z</time></trkpt><trkpt lat="43.5233508110514" lon="12.672090852472573"><ele>573.0</ele><time>2026-04-29T12:31:27.999Z</time></trkpt><trkpt lat="43.523417839283034" lon="12.672083798921008"><ele>573.0</ele><time>2026-04-29T12:31:28.999Z</time></trkpt><trkpt lat="43.52345204198856" lon="12.67191853179456"><ele>579.8</ele><time>2026-04-29T12:31:30.999Z</time></trkpt><trkpt lat="43.52338620701888" lon="12.671852463759878"><ele>586.5999999999999</ele><time>2026-04-29T12:31:31.999Z</time></trkpt><trkpt lat="43.52329064271921" lon="12.671863102836758"><ele>593.4000000000001</ele><time>2026-04-29T12:31:32.999Z</time></trkpt><trkpt lat="43.52320361851328" lon="12.671864796584064"><ele>600.2</ele><time>2026-04-29T12:31:33.999Z</time></trkpt><trkpt lat="43.52311501698288" lon="12.671822723112202"><ele>607.0</ele><time>2026-04-29T12:31:34.999Z</time></trkpt><trkpt lat="43.523023538485056" lon="12.671790029692287"><ele>607.0</ele><time>2026-04-29T12:31:35.999Z</time></trkpt><trkpt lat="43.52292980495352" lon="12.671767653914845"><ele>607.0</ele><time>2026-04-29T12:31:37Z</time></trkpt><trkpt lat="43.52283532366552" lon="12.671703696427565"><ele>607.0</ele><time>2026-04-29T12:31:38Z</time></trkpt><trkpt lat="43.52273029760359" lon="12.671653807769415"><ele>607.0</ele><time>2026-04-29T12:31:39Z</time></trkpt><trkpt lat="43.52263466470082" lon="12.671607572502703"><ele>607.0</ele><time>2026-04-29T12:31:40Z</time></trkpt><trkpt lat="43.522534969482855" lon="12.67157172970978"><ele>604.75</ele><time>2026-04-29T12:31:41Z</time></trkpt><trkpt lat="43.52243787130362" lon="12.671504285748304"><ele>602.5</ele><time>2026-04-29T12:31:42Z</time></trkpt><trkpt lat="43.52233206720236" lon="12.67144165305772"><ele>600.25</ele><time>2026-04-29T12:31:43Z</time></trkpt><trkpt lat="43.52222617866812" lon="12.671376448039842"><ele>598.0</ele><time>2026-04-29T12:31:44Z</time></trkpt><trkpt lat="43.52211821970213" lon="12.671306193083261"><ele>594.25</ele><time>2026-04-29T12:31:45Z</time></trkpt><trkpt lat="43.52200729917154" lon="12.671234010717859"><ele>590.5</ele><time>2026-04-29T12:31:46Z</time></trkpt><trkpt lat="43.521895114913875" lon="12.6711836464731"><ele>586.75</ele><time>2026-04-29T12:31:47Z</time></trkpt><trkpt lat="43.52179326910452" lon="12.671106905234623"><ele>583.0</ele><time>2026-04-29T12:31:48Z</time></trkpt><trkpt lat="43.52168924676789" lon="12.671035298867256"><ele>590.75</ele><time>2026-04-29T12:31:49Z</time></trkpt><trkpt lat="43.52159333693803" lon="12.670955968387831"><ele>598.5</ele><time>2026-04-29T12:31:50Z</time></trkpt><trkpt lat="43.52149757806956" lon="12.670868516435858"><ele>606.25</ele><time>2026-04-29T12:31:51Z</time></trkpt><trkpt lat="43.52140422797923" lon="12.670780334811354"><ele>614.0</ele><time>2026-04-29T12:31:52Z</time></trkpt><trkpt lat="43.52130516104752" lon="12.670697069179134"><ele>609.75</ele><time>2026-04-29T12:31:53Z</time></trkpt><trkpt lat="43.5212065790645" lon="12.670625638173474"><ele>605.5</ele><time>2026-04-29T12:31:54Z</time></trkpt><trkpt lat="43.521104751312684" lon="12.670542264393825"><ele>601.25</ele><time>2026-04-29T12:31:55Z</time></trkpt><trkpt lat="43.521008808268576" lon="12.670454225331754"><ele>597.0</ele><time>2026-04-29T12:31:56Z</time></trkpt><trkpt lat="43.520912487397986" lon="12.67036224093111"><ele>603.0</ele><time>2026-04-29T12:31:57Z</time></trkpt><trkpt lat="43.52082391971666" lon="12.67025847317273"><ele>609.0</ele><time>2026-04-29T12:31:58Z</time></trkpt><trkpt lat="43.520749464429784" lon="12.670140161977978"><ele>615.0</ele><time>2026-04-29T12:31:59Z</time></trkpt><trkpt lat="43.52068401136539" lon="12.670001588592003"><ele>621.0</ele><time>2026-04-29T12:32:00Z</time></trkpt><trkpt lat="43.52062598943902" lon="12.669862112774965"><ele>621.0</ele><time>2026-04-29T12:32:01Z</time></trkpt><trkpt lat="43.52057012651386" lon="12.669721290946349"><ele>621.0</ele><time>2026-04-29T12:32:02Z</time></trkpt><trkpt lat="43.52052109716185" lon="12.669567244826386"><ele>621.0</ele><time>2026-04-29T12:32:03Z</time></trkpt><trkpt lat="43.52048625397053" lon="12.669409069135465"><ele>621.0</ele><time>2026-04-29T12:32:04Z</time></trkpt><trkpt lat="43.52045691296546" lon="12.669256886872658"><ele>626.25</ele><time>2026-04-29T12:32:05Z</time></trkpt><trkpt lat="43.52042590859798" lon="12.66910042437844"><ele>631.5</ele><time>2026-04-29T12:32:06Z</time></trkpt><trkpt lat="43.52039140774606" lon="12.668949970663853"><ele>636.75</ele><time>2026-04-29T12:32:07Z</time></trkpt><trkpt lat="43.520339861739" lon="12.668805848977915"><ele>642.0</ele><time>2026-04-29T12:32:08Z</time></trkpt><trkpt lat="43.52027917378465" lon="12.668672617185223"><ele>637.0</ele><time>2026-04-29T12:32:09Z</time></trkpt><trkpt lat="43.52021853488225" lon="12.668534481463935"><ele>632.0</ele><time>2026-04-29T12:32:10Z</time></trkpt><trkpt lat="43.520169508118734" lon="12.668397350331881"><ele>627.0</ele><time>2026-04-29T12:32:11Z</time></trkpt><trkpt lat="43.520125886301216" lon="12.668255393836548"><ele>622.0</ele><time>2026-04-29T12:32:12Z</time></trkpt><trkpt lat="43.52008913528297" lon="12.668106341963666"><ele>622.0</ele><time>2026-04-29T12:32:13Z</time></trkpt><trkpt lat="43.520051758715844" lon="12.667962628377966"><ele>622.0</ele><time>2026-04-29T12:32:14Z</time></trkpt><trkpt lat="43.52001267839882" lon="12.667811655729633"><ele>622.0</ele><time>2026-04-29T12:32:15Z</time></trkpt><trkpt lat="43.51997088963523" lon="12.66766203468518"><ele>622.0</ele><time>2026-04-29T12:32:16Z</time></trkpt><trkpt lat="43.5199224657385" lon="12.667517316227952"><ele>618.0</ele><time>2026-04-29T12:32:17Z</time></trkpt><trkpt lat="43.51984767918425" lon="12.667401550086476"><ele>614.0</ele><time>2026-04-29T12:32:18Z</time></trkpt><trkpt lat="43.51975406798742" lon="12.667311199123843"><ele>610.0</ele><time>2026-04-29T12:32:19Z</time></trkpt><trkpt lat="43.519651675655815" lon="12.667238780240298"><ele>606.0</ele><time>2026-04-29T12:32:20Z</time></trkpt><trkpt lat="43.51956452728366" lon="12.667143524072578"><ele>606.0</ele><time>2026-04-29T12:32:21Z</time></trkpt><trkpt lat="43.51950112149387" lon="12.667018532224102"><ele>606.0</ele><time>2026-04-29T12:32:22Z</time></trkpt><trkpt lat="43.51944263190964" lon="12.666875581511967"><ele>606.0</ele><time>2026-04-29T12:32:23Z</time></trkpt><trkpt lat="43.51939503617516" lon="12.666729919040652"><ele>606.0</ele><time>2026-04-29T12:32:24Z</time></trkpt><trkpt lat="43.51935702241925" lon="12.666570763400998"><ele>611.8</ele><time>2026-04-29T12:32:25Z</time></trkpt><trkpt lat="43.519326372817446" lon="12.666412306988441"><ele>617.6</ele><time>2026-04-29T12:32:26Z</time></trkpt><trkpt lat="43.5192958148097" lon="12.666256710640498"><ele>623.4</ele><time>2026-04-29T12:32:27Z</time></trkpt><trkpt lat="43.519262058334895" lon="12.666108252929595"><ele>629.2</ele><time>2026-04-29T12:32:28Z</time></trkpt><trkpt lat="43.519216354559546" lon="12.665989360577894"><ele>635.0</ele><time>2026-04-29T12:32:29Z</time></trkpt><trkpt lat="43.51916327111464" lon="12.665880140687108"><ele>642.25</ele><time>2026-04-29T12:32:30Z</time></trkpt><trkpt lat="43.51905750567866" lon="12.665814060452664"><ele>649.5</ele><time>2026-04-29T12:32:31Z</time></trkpt><trkpt lat="43.51895421603849" lon="12.66573212244392"><ele>656.75</ele><time>2026-04-29T12:32:32Z</time></trkpt><trkpt lat="43.518862946981706" lon="12.665626110144238"><ele>664.0</ele><time>2026-04-29T12:32:33Z</time></trkpt><trkpt lat="43.518794157648045" lon="12.665496564389617"><ele>664.0</ele><time>2026-04-29T12:32:34Z</time></trkpt><trkpt lat="43.51873490770391" lon="12.665348158944024"><ele>664.0</ele><time>2026-04-29T12:32:34.999Z</time></trkpt><trkpt lat="43.5186742286226" lon="12.665197975297426"><ele>664.0</ele><time>2026-04-29T12:32:35.999Z</time></trkpt><trkpt lat="43.51861493030484" lon="12.665046638357243"><ele>664.0</ele><time>2026-04-29T12:32:36.999Z</time></trkpt><trkpt lat="43.518560361278006" lon="12.66488876712741"><ele>663.5</ele><time>2026-04-29T12:32:37.999Z</time></trkpt><trkpt lat="43.518514901666485" lon="12.664724169784657"><ele>663.0</ele><time>2026-04-29T12:32:38.999Z</time></trkpt><trkpt lat="43.518463716977585" lon="12.664562442879237"><ele>662.5</ele><time>2026-04-29T12:32:39.999Z</time></trkpt><trkpt lat="43.51840874780484" lon="12.664417104797096"><ele>662.0</ele><time>2026-04-29T12:32:40.999Z</time></trkpt><trkpt lat="43.51835258000545" lon="12.664266452134656"><ele>662.0</ele><time>2026-04-29T12:32:41.999Z</time></trkpt><trkpt lat="43.51829715366076" lon="12.664109809175253"><ele>662.0</ele><time>2026-04-29T12:32:42.999Z</time></trkpt><trkpt lat="43.518245169173795" lon="12.663949777638285"><ele>662.0</ele><time>2026-04-29T12:32:43.999Z</time></trkpt><trkpt lat="43.518197034241034" lon="12.66379222739056"><ele>662.0</ele><time>2026-04-29T12:32:44.999Z</time></trkpt><trkpt lat="43.51814552665897" lon="12.663644680750556"><ele>662.75</ele><time>2026-04-29T12:32:45.999Z</time></trkpt><trkpt lat="43.518076397759714" lon="12.66351674311336"><ele>663.5</ele><time>2026-04-29T12:32:46.999Z</time></trkpt><trkpt lat="43.51798391737749" lon="12.663421559119977"><ele>664.25</ele><time>2026-04-29T12:32:47.999Z</time></trkpt><trkpt lat="43.51788305723851" lon="12.663338863125473"><ele>665.0</ele><time>2026-04-29T12:32:48.999Z</time></trkpt><trkpt lat="43.517781130390944" lon="12.663255908100046"><ele>665.0</ele><time>2026-04-29T12:32:49.999Z</time></trkpt><trkpt lat="43.51765550264364" lon="12.663231412006626"><ele>665.0</ele><time>2026-04-29T12:32:50.999Z</time></trkpt><trkpt lat="43.51754303704813" lon="12.663169467814447"><ele>665.0</ele><time>2026-04-29T12:32:51.999Z</time></trkpt><trkpt lat="43.51743321276839" lon="12.663120556721996"><ele>665.0</ele><time>2026-04-29T12:32:52.999Z</time></trkpt><trkpt lat="43.51732994781373" lon="12.663044933467207"><ele>665.0</ele><time>2026-04-29T12:32:53.999Z</time></trkpt><trkpt lat="43.517241147361574" lon="12.662976828182398"><ele>665.0</ele><time>2026-04-29T12:32:54.999Z</time></trkpt><trkpt lat="43.51714923204265" lon="12.662966749749144"><ele>665.0</ele><time>2026-04-29T12:32:55.999Z</time></trkpt><trkpt lat="43.51707059175936" lon="12.66298955229963"><ele>665.0</ele><time>2026-04-29T12:32:56.999Z</time></trkpt><trkpt lat="43.51699115987784" lon="12.663047293343968"><ele>665.0</ele><time>2026-04-29T12:32:57.999Z</time></trkpt><trkpt lat="43.516914447157966" lon="12.6631368785065"><ele>663.25</ele><time>2026-04-29T12:32:58.999Z</time></trkpt><trkpt lat="43.51684549652646" lon="12.663251849706343"><ele>661.5</ele><time>2026-04-29T12:32:59.999Z</time></trkpt><trkpt lat="43.51679027227931" lon="12.663391648267483"><ele>659.75</ele><time>2026-04-29T12:33:00.999Z</time></trkpt><trkpt lat="43.516736994671085" lon="12.663539480576867"><ele>658.0</ele><time>2026-04-29T12:33:01.999Z</time></trkpt><trkpt lat="43.516674043859275" lon="12.663687971568535"><ele>658.0</ele><time>2026-04-29T12:33:02.999Z</time></trkpt><trkpt lat="43.516598845589435" lon="12.663822526783504"><ele>658.0</ele><time>2026-04-29T12:33:03.999Z</time></trkpt><trkpt lat="43.51649059441158" lon="12.663915623868649"><ele>658.0</ele><time>2026-04-29T12:33:04.999Z</time></trkpt><trkpt lat="43.516383483322" lon="12.663985283544616"><ele>658.0</ele><time>2026-04-29T12:33:05.999Z</time></trkpt><trkpt lat="43.51627352482777" lon="12.66401670506576"><ele>663.75</ele><time>2026-04-29T12:33:06.999Z</time></trkpt><trkpt lat="43.51616122741143" lon="12.664027072139016"><ele>669.5</ele><time>2026-04-29T12:33:07.999Z</time></trkpt><trkpt lat="43.51603789237276" lon="12.664033816542265"><ele>675.25</ele><time>2026-04-29T12:33:08.999Z</time></trkpt><trkpt lat="43.51591647176443" lon="12.664062952306718"><ele>681.0</ele><time>2026-04-29T12:33:09.999Z</time></trkpt><trkpt lat="43.51579689474795" lon="12.66408142812938"><ele>681.0</ele><time>2026-04-29T12:33:10.999Z</time></trkpt><trkpt lat="43.51568401774217" lon="12.664115628934349"><ele>681.0</ele><time>2026-04-29T12:33:11.999Z</time></trkpt><trkpt lat="43.51556987792175" lon="12.664113821588376"><ele>681.0</ele><time>2026-04-29T12:33:12.999Z</time></trkpt><trkpt lat="43.515453818534205" lon="12.664116258776518"><ele>681.0</ele><time>2026-04-29T12:33:13.999Z</time></trkpt><trkpt lat="43.51533742663888" lon="12.664076799099664"><ele>680.5999999999999</ele><time>2026-04-29T12:33:14.999Z</time></trkpt><trkpt lat="43.51522396883216" lon="12.664034115386636"><ele>680.2</ele><time>2026-04-29T12:33:15.999Z</time></trkpt><trkpt lat="43.51511050465561" lon="12.664004209307134"><ele>679.8</ele><time>2026-04-29T12:33:16.999Z</time></trkpt><trkpt lat="43.51500393576652" lon="12.663961833843976"><ele>679.4000000000001</ele><time>2026-04-29T12:33:17.999Z</time></trkpt><trkpt lat="43.51491126830131" lon="12.663934380988284"><ele>679.0</ele><time>2026-04-29T12:33:18.999Z</time></trkpt><trkpt lat="43.514827171437126" lon="12.663922455244373"><ele>679.0</ele><time>2026-04-29T12:33:19.999Z</time></trkpt><trkpt lat="43.51476204256926" lon="12.66385603909935"><ele>679.0</ele><time>2026-04-29T12:33:20.999Z</time></trkpt><trkpt lat="43.514712396422354" lon="12.663749075183718"><ele>679.0</ele><time>2026-04-29T12:33:21.999Z</time></trkpt><trkpt lat="43.51467314934238" lon="12.663625473581817"><ele>679.0</ele><time>2026-04-29T12:33:22.999Z</time></trkpt><trkpt lat="43.514625429713135" lon="12.663536247362368"><ele>679.0</ele><time>2026-04-29T12:33:23.999Z</time></trkpt><trkpt lat="43.51456497817531" lon="12.663476093134102"><ele>679.0</ele><time>2026-04-29T12:33:24.999Z</time></trkpt><trkpt lat="43.514468826322094" lon="12.663476137622109"><ele>680.0</ele><time>2026-04-29T12:33:25.999Z</time></trkpt><trkpt lat="43.51437693031382" lon="12.663543495593698"><ele>681.0</ele><time>2026-04-29T12:33:26.999Z</time></trkpt><trkpt lat="43.51429178320967" lon="12.663611071988827"><ele>682.0</ele><time>2026-04-29T12:33:27.999Z</time></trkpt><trkpt lat="43.514201521963024" lon="12.663675043459532"><ele>683.0</ele><time>2026-04-29T12:33:28.999Z</time></trkpt><trkpt lat="43.51410103603067" lon="12.663730848090054"><ele>684.0</ele><time>2026-04-29T12:33:29.999Z</time></trkpt><trkpt lat="43.513989582360026" lon="12.66375151727522"><ele>684.0</ele><time>2026-04-29T12:33:30.999Z</time></trkpt><trkpt lat="43.513882567354045" lon="12.663784062114244"><ele>684.0</ele><time>2026-04-29T12:33:31.999Z</time></trkpt><trkpt lat="43.51377650428254" lon="12.663811137263528"><ele>684.0</ele><time>2026-04-29T12:33:32.999Z</time></trkpt><trkpt lat="43.51367920991191" lon="12.663830036772646"><ele>684.0</ele><time>2026-04-29T12:33:33.999Z</time></trkpt><trkpt lat="43.513603283130635" lon="12.663839396598888"><ele>684.0</ele><time>2026-04-29T12:33:34.999Z</time></trkpt><trkpt lat="43.51353764102929" lon="12.66383882167317"><ele>685.0</ele><time>2026-04-29T12:33:35.999Z</time></trkpt><trkpt lat="43.51343873121991" lon="12.66373818258119"><ele>686.0</ele><time>2026-04-29T12:33:37.999Z</time></trkpt><trkpt lat="43.513413649808605" lon="12.663609984006397"><ele>687.0</ele><time>2026-04-29T12:33:38.999Z</time></trkpt><trkpt lat="43.51339241235576" lon="12.663457248604056"><ele>688.0</ele><time>2026-04-29T12:33:39.999Z</time></trkpt><trkpt lat="43.513359259980106" lon="12.663297206925055"><ele>694.0</ele><time>2026-04-29T12:33:40.999Z</time></trkpt><trkpt lat="43.51332288065087" lon="12.663128583616604"><ele>700.0</ele><time>2026-04-29T12:33:41.999Z</time></trkpt><trkpt lat="43.51328861476939" lon="12.662956056851664"><ele>706.0</ele><time>2026-04-29T12:33:43Z</time></trkpt><trkpt lat="43.51325598541583" lon="12.662782351850716"><ele>712.0</ele><time>2026-04-29T12:33:44Z</time></trkpt><trkpt lat="43.51321701745078" lon="12.662611061984627"><ele>716.0</ele><time>2026-04-29T12:33:45Z</time></trkpt><trkpt lat="43.51317929741051" lon="12.662435768198234"><ele>720.0</ele><time>2026-04-29T12:33:46Z</time></trkpt><trkpt lat="43.5131425199011" lon="12.662261495116656"><ele>724.0</ele><time>2026-04-29T12:33:47Z</time></trkpt><trkpt lat="43.51311309312979" lon="12.662092734714019"><ele>728.0</ele><time>2026-04-29T12:33:48Z</time></trkpt><trkpt lat="43.5130875866319" lon="12.661951025038054"><ele>726.5999999999999</ele><time>2026-04-29T12:33:49Z</time></trkpt><trkpt lat="43.51304634978411" lon="12.661825522160916"><ele>725.1999999999999</ele><time>2026-04-29T12:33:50Z</time></trkpt><trkpt lat="43.51297596221107" lon="12.661716306894661"><ele>723.8</ele><time>2026-04-29T12:33:51Z</time></trkpt><trkpt lat="43.512880124651" lon="12.66163632891698"><ele>722.4</ele><time>2026-04-29T12:33:52Z</time></trkpt><trkpt lat="43.51277606314962" lon="12.661569989298647"><ele>721.0</ele><time>2026-04-29T12:33:53Z</time></trkpt><trkpt lat="43.51266621989652" lon="12.661518835252757"><ele>721.0</ele><time>2026-04-29T12:33:54Z</time></trkpt><trkpt lat="43.51256590003824" lon="12.66145951097725"><ele>721.0</ele><time>2026-04-29T12:33:55Z</time></trkpt><trkpt lat="43.51248634357342" lon="12.661416747180727"><ele>721.0</ele><time>2026-04-29T12:33:56Z</time></trkpt><trkpt lat="43.51241984837293" lon="12.661416610595891"><ele>721.0</ele><time>2026-04-29T12:33:57Z</time></trkpt><trkpt lat="43.51234785549385" lon="12.661411188848192"><ele>721.0</ele><time>2026-04-29T12:33:58Z</time></trkpt><trkpt lat="43.51227331180057" lon="12.66148999438743"><ele>721.0</ele><time>2026-04-29T12:33:59Z</time></trkpt><trkpt lat="43.51221566566511" lon="12.661611634439641"><ele>721.0</ele><time>2026-04-29T12:34:00Z</time></trkpt><trkpt lat="43.51216224625488" lon="12.661732341207337"><ele>721.0</ele><time>2026-04-29T12:34:01Z</time></trkpt><trkpt lat="43.512113151677326" lon="12.661870114334983"><ele>721.0</ele><time>2026-04-29T12:34:02Z</time></trkpt><trkpt lat="43.51205102111243" lon="12.662004202410888"><ele>721.0</ele><time>2026-04-29T12:34:03Z</time></trkpt><trkpt lat="43.511992884427734" lon="12.662137175827"><ele>721.0</ele><time>2026-04-29T12:34:04Z</time></trkpt><trkpt lat="43.51192865171246" lon="12.662257985531093"><ele>719.5</ele><time>2026-04-29T12:34:05Z</time></trkpt><trkpt lat="43.51187853594887" lon="12.662350603368518"><ele>718.0</ele><time>2026-04-29T12:34:06Z</time></trkpt><trkpt lat="43.511764412822885" lon="12.66230810101992"><ele>716.5</ele><time>2026-04-29T12:34:08Z</time></trkpt><trkpt lat="43.51175574425563" lon="12.662213987073157"><ele>715.0</ele><time>2026-04-29T12:34:09Z</time></trkpt><trkpt lat="43.51178058933992" lon="12.662118417342404"><ele>713.5</ele><time>2026-04-29T12:34:10Z</time></trkpt><trkpt lat="43.511796312803305" lon="12.662002915965822"><ele>712.0</ele><time>2026-04-29T12:34:11Z</time></trkpt><trkpt lat="43.5117988426945" lon="12.661847261851959"><ele>712.0</ele><time>2026-04-29T12:34:12Z</time></trkpt><trkpt lat="43.511826507823" lon="12.661672675783302"><ele>712.0</ele><time>2026-04-29T12:34:13Z</time></trkpt><trkpt lat="43.511831436969366" lon="12.661496363523018"><ele>712.0</ele><time>2026-04-29T12:34:14Z</time></trkpt><trkpt lat="43.51183137960879" lon="12.661313837356111"><ele>712.0</ele><time>2026-04-29T12:34:15Z</time></trkpt><trkpt lat="43.51184920271387" lon="12.661118456486022"><ele>717.3333333333334</ele><time>2026-04-29T12:34:16Z</time></trkpt><trkpt lat="43.51186030391087" lon="12.660905693445583"><ele>722.6666666666666</ele><time>2026-04-29T12:34:17Z</time></trkpt><trkpt lat="43.51187380123351" lon="12.66068868433959"><ele>728.0</ele><time>2026-04-29T12:34:18Z</time></trkpt><trkpt lat="43.511881651400685" lon="12.660493828343627"><ele>728.0</ele><time>2026-04-29T12:34:19Z</time></trkpt><trkpt lat="43.51188075694971" lon="12.660305969614495"><ele>728.0</ele><time>2026-04-29T12:34:20Z</time></trkpt><trkpt lat="43.51187482541216" lon="12.660110097685013"><ele>728.0</ele><time>2026-04-29T12:34:21Z</time></trkpt><trkpt lat="43.511873492823455" lon="12.659915517236072"><ele>728.0</ele><time>2026-04-29T12:34:22Z</time></trkpt><trkpt lat="43.5118750689414" lon="12.659710839440391"><ele>728.6666666666666</ele><time>2026-04-29T12:34:23Z</time></trkpt><trkpt lat="43.511873525911945" lon="12.659499785576628"><ele>729.3333333333334</ele><time>2026-04-29T12:34:24Z</time></trkpt><trkpt lat="43.51185977645734" lon="12.659282955056343"><ele>730.0</ele><time>2026-04-29T12:34:25Z</time></trkpt><trkpt lat="43.51186082516544" lon="12.659074846553851"><ele>731.3333333333334</ele><time>2026-04-29T12:34:26Z</time></trkpt><trkpt lat="43.51185924930203" lon="12.658863458267174"><ele>732.6666666666666</ele><time>2026-04-29T12:34:27Z</time></trkpt><trkpt lat="43.511860141014694" lon="12.658658876451046"><ele>734.0</ele><time>2026-04-29T12:34:28Z</time></trkpt><trkpt lat="43.51184731078836" lon="12.65845188785429"><ele>736.25</ele><time>2026-04-29T12:34:29Z</time></trkpt><trkpt lat="43.51186921822111" lon="12.658256819862228"><ele>738.5</ele><time>2026-04-29T12:34:30Z</time></trkpt><trkpt lat="43.511880654707035" lon="12.658051345946618"><ele>740.75</ele><time>2026-04-29T12:34:31Z</time></trkpt><trkpt lat="43.511890987142465" lon="12.657852314458516"><ele>743.0</ele><time>2026-04-29T12:34:32Z</time></trkpt><trkpt lat="43.51191374761384" lon="12.657656347232953"><ele>745.0</ele><time>2026-04-29T12:34:33Z</time></trkpt><trkpt lat="43.51195791914236" lon="12.65746482344525"><ele>747.0</ele><time>2026-04-29T12:34:34Z</time></trkpt><trkpt lat="43.512007505603684" lon="12.657274038430408"><ele>749.0</ele><time>2026-04-29T12:34:35Z</time></trkpt><trkpt lat="43.512061411957184" lon="12.657090393004855"><ele>751.0</ele><time>2026-04-29T12:34:36Z</time></trkpt><trkpt lat="43.51212056913963" lon="12.656909171855059"><ele>757.5</ele><time>2026-04-29T12:34:37Z</time></trkpt><trkpt lat="43.512173041289174" lon="12.656722855584981"><ele>764.0</ele><time>2026-04-29T12:34:38Z</time></trkpt><trkpt lat="43.51222305558795" lon="12.65654768741041"><ele>770.5</ele><time>2026-04-29T12:34:39Z</time></trkpt><trkpt lat="43.51227203410552" lon="12.65639604216206"><ele>777.0</ele><time>2026-04-29T12:34:40Z</time></trkpt><trkpt lat="43.51232725124902" lon="12.656262008956205"><ele>777.0</ele><time>2026-04-29T12:34:41Z</time></trkpt><trkpt lat="43.512378987358716" lon="12.6561421249585"><ele>777.0</ele><time>2026-04-29T12:34:41.999Z</time></trkpt><trkpt lat="43.512421147847725" lon="12.656031498884257"><ele>777.0</ele><time>2026-04-29T12:34:42.999Z</time></trkpt><trkpt lat="43.51244642193093" lon="12.655912583128796"><ele>777.0</ele><time>2026-04-29T12:34:43.999Z</time></trkpt><trkpt lat="43.512459137778215" lon="12.655789063135225"><ele>777.0</ele><time>2026-04-29T12:34:44.999Z</time></trkpt><trkpt lat="43.51239505584096" lon="12.655678607082343"><ele>778.0</ele><time>2026-04-29T12:34:45.999Z</time></trkpt><trkpt lat="43.51233266319815" lon="12.655603036577032"><ele>779.0</ele><time>2026-04-29T12:34:46.999Z</time></trkpt><trkpt lat="43.51223281452523" lon="12.655582398942409"><ele>780.0</ele><time>2026-04-29T12:34:47.999Z</time></trkpt><trkpt lat="43.512141047243794" lon="12.655595272928082"><ele>781.0</ele><time>2026-04-29T12:34:48.999Z</time></trkpt><trkpt lat="43.51204046944317" lon="12.655672127631934"><ele>782.0</ele><time>2026-04-29T12:34:49.999Z</time></trkpt><trkpt lat="43.511971151200086" lon="12.655823536602844"><ele>782.0</ele><time>2026-04-29T12:34:50.999Z</time></trkpt><trkpt lat="43.51188771253811" lon="12.655934902224073"><ele>782.0</ele><time>2026-04-29T12:34:51.999Z</time></trkpt><trkpt lat="43.51181000975224" lon="12.656064600094918"><ele>782.0</ele><time>2026-04-29T12:34:52.999Z</time></trkpt><trkpt lat="43.51171682699228" lon="12.656182111685059"><ele>782.0</ele><time>2026-04-29T12:34:53.999Z</time></trkpt><trkpt lat="43.51162959643037" lon="12.656309082059307"><ele>777.75</ele><time>2026-04-29T12:34:54.999Z</time></trkpt><trkpt lat="43.51153922584438" lon="12.656434510830985"><ele>773.5</ele><time>2026-04-29T12:34:55.999Z</time></trkpt><trkpt lat="43.511452985809306" lon="12.656570028857445"><ele>769.25</ele><time>2026-04-29T12:34:56.999Z</time></trkpt><trkpt lat="43.51134688293585" lon="12.656690466664854"><ele>765.0</ele><time>2026-04-29T12:34:57.999Z</time></trkpt><trkpt lat="43.51126881693528" lon="12.656829131197131"><ele>766.25</ele><time>2026-04-29T12:34:58.999Z</time></trkpt><trkpt lat="43.51117181921406" lon="12.656944242849981"><ele>767.5</ele><time>2026-04-29T12:34:59.999Z</time></trkpt><trkpt lat="43.51106382632818" lon="12.6570382710361"><ele>768.75</ele><time>2026-04-29T12:35:00.999Z</time></trkpt><trkpt lat="43.510938406614" lon="12.657099972941305"><ele>770.0</ele><time>2026-04-29T12:35:01.999Z</time></trkpt><trkpt lat="43.510833863198066" lon="12.657209302195767"><ele>770.0</ele><time>2026-04-29T12:35:02.999Z</time></trkpt><trkpt lat="43.510728403944405" lon="12.657316285472282"><ele>770.0</ele><time>2026-04-29T12:35:03.999Z</time></trkpt><trkpt lat="43.51063104098699" lon="12.657435454334914"><ele>770.0</ele><time>2026-04-29T12:35:04.999Z</time></trkpt><trkpt lat="43.51053311534823" lon="12.65754630683946"><ele>770.0</ele><time>2026-04-29T12:35:05.999Z</time></trkpt><trkpt lat="43.51043093241667" lon="12.657643184518781"><ele>772.25</ele><time>2026-04-29T12:35:06.999Z</time></trkpt><trkpt lat="43.5103241741121" lon="12.657725674845944"><ele>774.5</ele><time>2026-04-29T12:35:07.999Z</time></trkpt><trkpt lat="43.51022227807298" lon="12.657796953429603"><ele>776.75</ele><time>2026-04-29T12:35:08.999Z</time></trkpt><trkpt lat="43.510121635232366" lon="12.657852963478621"><ele>779.0</ele><time>2026-04-29T12:35:09.999Z</time></trkpt><trkpt lat="43.51001661702096" lon="12.657889267842954"><ele>779.0</ele><time>2026-04-29T12:35:10.999Z</time></trkpt><trkpt lat="43.509911947370874" lon="12.657855423808371"><ele>779.0</ele><time>2026-04-29T12:35:11.999Z</time></trkpt><trkpt lat="43.50981328048743" lon="12.65786085308327"><ele>779.0</ele><time>2026-04-29T12:35:12.999Z</time></trkpt><trkpt lat="43.50973262988647" lon="12.657910435507345"><ele>779.0</ele><time>2026-04-29T12:35:13.999Z</time></trkpt><trkpt lat="43.509680305978186" lon="12.65802911045053"><ele>779.0</ele><time>2026-04-29T12:35:14.999Z</time></trkpt><trkpt lat="43.50966704007265" lon="12.658164667980577"><ele>779.0</ele><time>2026-04-29T12:35:15.999Z</time></trkpt><trkpt lat="43.50964610341253" lon="12.658304092629258"><ele>779.0</ele><time>2026-04-29T12:35:16.999Z</time></trkpt><trkpt lat="43.50962536406391" lon="12.658454459243654"><ele>779.0</ele><time>2026-04-29T12:35:17.999Z</time></trkpt><trkpt lat="43.50956298625808" lon="12.658587171165797"><ele>779.0</ele><time>2026-04-29T12:35:18.999Z</time></trkpt><trkpt lat="43.509506635985645" lon="12.658718820318388"><ele>779.0</ele><time>2026-04-29T12:35:19.999Z</time></trkpt><trkpt lat="43.50943128653528" lon="12.658834924497297"><ele>784.75</ele><time>2026-04-29T12:35:20.999Z</time></trkpt><trkpt lat="43.50935195515248" lon="12.658954736574776"><ele>790.5</ele><time>2026-04-29T12:35:21.999Z</time></trkpt><trkpt lat="43.5092693738326" lon="12.659079908378132"><ele>796.25</ele><time>2026-04-29T12:35:22.999Z</time></trkpt><trkpt lat="43.50920733971228" lon="12.65921952475948"><ele>802.0</ele><time>2026-04-29T12:35:23.999Z</time></trkpt><trkpt lat="43.50912794030825" lon="12.659336513909611"><ele>802.0</ele><time>2026-04-29T12:35:24.999Z</time></trkpt><trkpt lat="43.50904078529421" lon="12.659442312188574"><ele>802.0</ele><time>2026-04-29T12:35:25.999Z</time></trkpt><trkpt lat="43.508940017461825" lon="12.659531096208182"><ele>802.0</ele><time>2026-04-29T12:35:26.999Z</time></trkpt><trkpt lat="43.50882522307418" lon="12.659595991210788"><ele>802.0</ele><time>2026-04-29T12:35:27.999Z</time></trkpt><trkpt lat="43.508726242976174" lon="12.659698368689993"><ele>804.5</ele><time>2026-04-29T12:35:28.999Z</time></trkpt><trkpt lat="43.50861959840447" lon="12.659785506231058"><ele>807.0</ele><time>2026-04-29T12:35:29.999Z</time></trkpt><trkpt lat="43.50851330439034" lon="12.659886117369386"><ele>809.5</ele><time>2026-04-29T12:35:30.999Z</time></trkpt><trkpt lat="43.508412515233" lon="12.659973626037628"><ele>812.0</ele><time>2026-04-29T12:35:31.999Z</time></trkpt><trkpt lat="43.50830708927901" lon="12.66006216650742"><ele>812.0</ele><time>2026-04-29T12:35:32.999Z</time></trkpt><trkpt lat="43.5082038294776" lon="12.660152309105921"><ele>812.0</ele><time>2026-04-29T12:35:33.999Z</time></trkpt><trkpt lat="43.50811489255824" lon="12.660259311986596"><ele>812.0</ele><time>2026-04-29T12:35:34.999Z</time></trkpt><trkpt lat="43.508043534483704" lon="12.660363294386709"><ele>812.0</ele><time>2026-04-29T12:35:35.999Z</time></trkpt><trkpt lat="43.50798069102524" lon="12.660459890727202"><ele>812.0</ele><time>2026-04-29T12:35:36.999Z</time></trkpt><trkpt lat="43.50793551531722" lon="12.660525327411332"><ele>812.0</ele><time>2026-04-29T12:35:37.999Z</time></trkpt><trkpt lat="43.50784219949057" lon="12.66057171942857"><ele>812.0</ele><time>2026-04-29T12:35:39.999Z</time></trkpt><trkpt lat="43.50777785555625" lon="12.660474824394294"><ele>812.0</ele><time>2026-04-29T12:35:41.999Z</time></trkpt><trkpt lat="43.50780206088369" lon="12.660386953306409"><ele>812.0</ele><time>2026-04-29T12:35:42.999Z</time></trkpt><trkpt lat="43.5078809347804" lon="12.660332376100945"><ele>812.0</ele><time>2026-04-29T12:35:43.999Z</time></trkpt><trkpt lat="43.507958984345024" lon="12.660231330379302"><ele>812.0</ele><time>2026-04-29T12:35:44.999Z</time></trkpt><trkpt lat="43.50804035800924" lon="12.660111285090613"><ele>812.0</ele><time>2026-04-29T12:35:45.999Z</time></trkpt><trkpt lat="43.50812798219756" lon="12.659989187452574"><ele>812.0</ele><time>2026-04-29T12:35:46.999Z</time></trkpt><trkpt lat="43.508200323721596" lon="12.659871153566822"><ele>812.0</ele><time>2026-04-29T12:35:47.999Z</time></trkpt><trkpt lat="43.50826725340495" lon="12.659734371304644"><ele>812.0</ele><time>2026-04-29T12:35:49Z</time></trkpt><trkpt lat="43.50832484914264" lon="12.659572925419413"><ele>812.0</ele><time>2026-04-29T12:35:50Z</time></trkpt><trkpt lat="43.508396090747766" lon="12.659426172565478"><ele>812.0</ele><time>2026-04-29T12:35:51Z</time></trkpt><trkpt lat="43.508454555329706" lon="12.65927924281064"><ele>812.0</ele><time>2026-04-29T12:35:52Z</time></trkpt><trkpt lat="43.508526084986684" lon="12.65915003963309"><ele>812.25</ele><time>2026-04-29T12:35:53Z</time></trkpt><trkpt lat="43.50860977587902" lon="12.659032582202695"><ele>812.5</ele><time>2026-04-29T12:35:54Z</time></trkpt><trkpt lat="43.50867159603438" lon="12.658902999969701"><ele>812.75</ele><time>2026-04-29T12:35:55Z</time></trkpt><trkpt lat="43.508731070129066" lon="12.658760173305424"><ele>813.0</ele><time>2026-04-29T12:35:56Z</time></trkpt><trkpt lat="43.508773175805196" lon="12.658596818053255"><ele>813.0</ele><time>2026-04-29T12:35:57Z</time></trkpt><trkpt lat="43.50879584965664" lon="12.658418214896544"><ele>813.0</ele><time>2026-04-29T12:35:58Z</time></trkpt><trkpt lat="43.50881221038754" lon="12.658235754720252"><ele>813.0</ele><time>2026-04-29T12:35:59Z</time></trkpt><trkpt lat="43.50882187466507" lon="12.658056047917553"><ele>813.0</ele><time>2026-04-29T12:36:00Z</time></trkpt><trkpt lat="43.50883247131032" lon="12.65787219605794"><ele>815.0</ele><time>2026-04-29T12:36:01Z</time></trkpt><trkpt lat="43.50884134852262" lon="12.657695131859098"><ele>817.0</ele><time>2026-04-29T12:36:02Z</time></trkpt><trkpt lat="43.50885708565819" lon="12.65751922134326"><ele>819.0</ele><time>2026-04-29T12:36:03Z</time></trkpt><trkpt lat="43.50890739408678" lon="12.657359583145983"><ele>821.0</ele><time>2026-04-29T12:36:04Z</time></trkpt><trkpt lat="43.50896927831432" lon="12.65720550132327"><ele>821.0</ele><time>2026-04-29T12:36:05Z</time></trkpt><trkpt lat="43.50902670522212" lon="12.657045606128458"><ele>821.0</ele><time>2026-04-29T12:36:06Z</time></trkpt><trkpt lat="43.50908057160312" lon="12.656880255989558"><ele>821.0</ele><time>2026-04-29T12:36:07Z</time></trkpt><trkpt lat="43.5091384777771" lon="12.656721797888633"><ele>821.0</ele><time>2026-04-29T12:36:08Z</time></trkpt><trkpt lat="43.50919449433533" lon="12.656559048121013"><ele>825.0</ele><time>2026-04-29T12:36:09Z</time></trkpt><trkpt lat="43.50924916660238" lon="12.656398270681645"><ele>829.0</ele><time>2026-04-29T12:36:10Z</time></trkpt><trkpt lat="43.50929645376925" lon="12.656235272175973"><ele>833.0</ele><time>2026-04-29T12:36:11Z</time></trkpt><trkpt lat="43.50933235128568" lon="12.656063090949816"><ele>837.0</ele><time>2026-04-29T12:36:12Z</time></trkpt><trkpt lat="43.509359870717056" lon="12.65588441544203"><ele>837.0</ele><time>2026-04-29T12:36:13Z</time></trkpt><trkpt lat="43.50940339566402" lon="12.655726232978475"><ele>837.0</ele><time>2026-04-29T12:36:14Z</time></trkpt><trkpt lat="43.509417199619705" lon="12.655595444271711"><ele>837.0</ele><time>2026-04-29T12:36:15Z</time></trkpt><trkpt lat="43.50943171116433" lon="12.655484232460585"><ele>837.0</ele><time>2026-04-29T12:36:16Z</time></trkpt><trkpt lat="43.50938959370503" lon="12.655319279576657"><ele>837.0</ele><time>2026-04-29T12:36:18Z</time></trkpt><trkpt lat="43.50933025433826" lon="12.655282266361795"><ele>838.6</ele><time>2026-04-29T12:36:19Z</time></trkpt><trkpt lat="43.50926041043059" lon="12.655304324034551"><ele>840.2</ele><time>2026-04-29T12:36:20Z</time></trkpt><trkpt lat="43.50918870190208" lon="12.655466666456103"><ele>841.8</ele><time>2026-04-29T12:36:22Z</time></trkpt><trkpt lat="43.50913492284927" lon="12.65554802195985"><ele>843.4</ele><time>2026-04-29T12:36:23Z</time></trkpt><trkpt lat="43.5090959988464" lon="12.6556836230451"><ele>845.0</ele><time>2026-04-29T12:36:24Z</time></trkpt><trkpt lat="43.50902119471313" lon="12.655813010419157"><ele>845.0</ele><time>2026-04-29T12:36:25Z</time></trkpt><trkpt lat="43.508923168439416" lon="12.655890518953296"><ele>845.0</ele><time>2026-04-29T12:36:26Z</time></trkpt><trkpt lat="43.508835364368444" lon="12.655982467325304"><ele>845.0</ele><time>2026-04-29T12:36:27Z</time></trkpt><trkpt lat="43.50875336476414" lon="12.656082357674569"><ele>845.0</ele><time>2026-04-29T12:36:28Z</time></trkpt><trkpt lat="43.50866475410931" lon="12.656185035666853"><ele>845.0</ele><time>2026-04-29T12:36:29Z</time></trkpt><trkpt lat="43.50857697058058" lon="12.65628793002172"><ele>848.0</ele><time>2026-04-29T12:36:30Z</time></trkpt><trkpt lat="43.5084752550932" lon="12.656370502284515"><ele>851.0</ele><time>2026-04-29T12:36:31Z</time></trkpt><trkpt lat="43.508395424334914" lon="12.656483807600642"><ele>854.0</ele><time>2026-04-29T12:36:32Z</time></trkpt><trkpt lat="43.508301387292256" lon="12.656582673252856"><ele>857.0</ele><time>2026-04-29T12:36:33Z</time></trkpt><trkpt lat="43.50819595902729" lon="12.656683790937496"><ele>857.0</ele><time>2026-04-29T12:36:34Z</time></trkpt><trkpt lat="43.5080923829445" lon="12.656790107354562"><ele>857.0</ele><time>2026-04-29T12:36:35Z</time></trkpt><trkpt lat="43.50799698535737" lon="12.656910768762396"><ele>857.0</ele><time>2026-04-29T12:36:36Z</time></trkpt><trkpt lat="43.507921223760114" lon="12.657060482357165"><ele>857.0</ele><time>2026-04-29T12:36:37Z</time></trkpt><trkpt lat="43.50786526743685" lon="12.657221299421556"><ele>859.5</ele><time>2026-04-29T12:36:38Z</time></trkpt><trkpt lat="43.5078109070918" lon="12.65737796530853"><ele>862.0</ele><time>2026-04-29T12:36:39Z</time></trkpt><trkpt lat="43.50775397040272" lon="12.657535372160515"><ele>864.5</ele><time>2026-04-29T12:36:40Z</time></trkpt><trkpt lat="43.50769176587436" lon="12.657696092911431"><ele>867.0</ele><time>2026-04-29T12:36:40.999Z</time></trkpt><trkpt lat="43.50762266166839" lon="12.657846206416721"><ele>867.0</ele><time>2026-04-29T12:36:41.999Z</time></trkpt><trkpt lat="43.5075533493419" lon="12.657989498018114"><ele>867.0</ele><time>2026-04-29T12:36:42.999Z</time></trkpt><trkpt lat="43.50748530516442" lon="12.658127861344823"><ele>867.0</ele><time>2026-04-29T12:36:43.999Z</time></trkpt><trkpt lat="43.50741179990231" lon="12.658268058536246"><ele>867.0</ele><time>2026-04-29T12:36:44.999Z</time></trkpt><trkpt lat="43.50733603441492" lon="12.658405368523507"><ele>867.0</ele><time>2026-04-29T12:36:45.999Z</time></trkpt><trkpt lat="43.507263150530726" lon="12.65854348859592"><ele>867.0</ele><time>2026-04-29T12:36:46.999Z</time></trkpt><trkpt lat="43.507185697918516" lon="12.658684084783191"><ele>867.0</ele><time>2026-04-29T12:36:47.999Z</time></trkpt><trkpt lat="43.5071011626748" lon="12.658824093756058"><ele>867.0</ele><time>2026-04-29T12:36:48.999Z</time></trkpt><trkpt lat="43.50702208430475" lon="12.658963241424235"><ele>870.5</ele><time>2026-04-29T12:36:49.999Z</time></trkpt><trkpt lat="43.50693223536533" lon="12.65909267862419"><ele>874.0</ele><time>2026-04-29T12:36:50.999Z</time></trkpt><trkpt lat="43.506850705048" lon="12.65922033989855"><ele>877.5</ele><time>2026-04-29T12:36:51.999Z</time></trkpt><trkpt lat="43.506769561990794" lon="12.659339936639434"><ele>881.0</ele><time>2026-04-29T12:36:52.999Z</time></trkpt><trkpt lat="43.506700376858475" lon="12.659456476218764"><ele>881.0</ele><time>2026-04-29T12:36:53.999Z</time></trkpt><trkpt lat="43.50665551616291" lon="12.659558846696777"><ele>880.9999999999999</ele><time>2026-04-29T12:36:54.999Z</time></trkpt><trkpt lat="43.50662233494482" lon="12.659644722571198"><ele>880.9999999999999</ele><time>2026-04-29T12:36:55.999Z</time></trkpt><trkpt lat="43.506557770449184" lon="12.659778752959246"><ele>881.0</ele><time>2026-04-29T12:36:57.999Z</time></trkpt><trkpt lat="43.50646910580338" lon="12.659821495409519"><ele>881.0</ele><time>2026-04-29T12:36:59.999Z</time></trkpt><trkpt lat="43.50639814606651" lon="12.659729063585932"><ele>881.0</ele><time>2026-04-29T12:37:01.999Z</time></trkpt><trkpt lat="43.50640872763304" lon="12.659631361316023"><ele>880.9999999999999</ele><time>2026-04-29T12:37:02.999Z</time></trkpt><trkpt lat="43.5064629107451" lon="12.659536310726"><ele>880.9999999999999</ele><time>2026-04-29T12:37:03.999Z</time></trkpt><trkpt lat="43.50653796295329" lon="12.659406160535033"><ele>881.0</ele><time>2026-04-29T12:37:04.999Z</time></trkpt><trkpt lat="43.506581441484485" lon="12.659231710476087"><ele>881.0</ele><time>2026-04-29T12:37:05.999Z</time></trkpt><trkpt lat="43.506619061232946" lon="12.659052382018661"><ele>882.75</ele><time>2026-04-29T12:37:06.999Z</time></trkpt><trkpt lat="43.506646946774346" lon="12.658858503941616"><ele>884.5</ele><time>2026-04-29T12:37:07.999Z</time></trkpt><trkpt lat="43.50666364100919" lon="12.658691050476422"><ele>886.25</ele><time>2026-04-29T12:37:08.999Z</time></trkpt><trkpt lat="43.50667942947477" lon="12.658522174626983"><ele>888.0</ele><time>2026-04-29T12:37:09.999Z</time></trkpt><trkpt lat="43.50669303436057" lon="12.65835192850879"><ele>889.0</ele><time>2026-04-29T12:37:10.999Z</time></trkpt><trkpt lat="43.506697351905736" lon="12.658181814314348"><ele>890.0</ele><time>2026-04-29T12:37:11.999Z</time></trkpt><trkpt lat="43.506690566645744" lon="12.658011290240253"><ele>891.0</ele><time>2026-04-29T12:37:12.999Z</time></trkpt><trkpt lat="43.506681826328034" lon="12.657844397169981"><ele>892.0</ele><time>2026-04-29T12:37:13.999Z</time></trkpt><trkpt lat="43.50667476619424" lon="12.65767844357694"><ele>892.75</ele><time>2026-04-29T12:37:14.999Z</time></trkpt><trkpt lat="43.50666701054452" lon="12.657519820506934"><ele>893.5</ele><time>2026-04-29T12:37:15.999Z</time></trkpt><trkpt lat="43.50665148427366" lon="12.65736729577216"><ele>894.25</ele><time>2026-04-29T12:37:16.999Z</time></trkpt><trkpt lat="43.50662340244582" lon="12.657215497515205"><ele>895.0</ele><time>2026-04-29T12:37:17.999Z</time></trkpt><trkpt lat="43.50659662296469" lon="12.657058528209175"><ele>895.5</ele><time>2026-04-29T12:37:18.999Z</time></trkpt><trkpt lat="43.50656159891335" lon="12.65690951083401"><ele>896.0</ele><time>2026-04-29T12:37:19.999Z</time></trkpt><trkpt lat="43.50652115457965" lon="12.656756337167433"><ele>896.5</ele><time>2026-04-29T12:37:20.999Z</time></trkpt><trkpt lat="43.506476521456015" lon="12.65660524097323"><ele>897.0</ele><time>2026-04-29T12:37:21.999Z</time></trkpt><trkpt lat="43.50642917795665" lon="12.656456394010862"><ele>897.0</ele><time>2026-04-29T12:37:22.999Z</time></trkpt><trkpt lat="43.50638018129997" lon="12.656318254975378"><ele>897.0</ele><time>2026-04-29T12:37:23.999Z</time></trkpt><trkpt lat="43.50632288343519" lon="12.65619631900559"><ele>897.0</ele><time>2026-04-29T12:37:24.999Z</time></trkpt><trkpt lat="43.50626688896095" lon="12.65609389659237"><ele>897.0</ele><time>2026-04-29T12:37:25.999Z</time></trkpt><trkpt lat="43.50620973467682" lon="12.65601420931075"><ele>897.0</ele><time>2026-04-29T12:37:26.999Z</time></trkpt><trkpt lat="43.50615689818846" lon="12.655939279757808"><ele>898.6666666666666</ele><time>2026-04-29T12:37:27.999Z</time></trkpt><trkpt lat="43.50607709121858" lon="12.655911730129588"><ele>900.3333333333333</ele><time>2026-04-29T12:37:28.999Z</time></trkpt><trkpt lat="43.5060059637919" lon="12.6559648678754"><ele>902.0</ele><time>2026-04-29T12:37:29.999Z</time></trkpt><trkpt lat="43.505939147800404" lon="12.656010644393218"><ele>903.6666666666666</ele><time>2026-04-29T12:37:30.999Z</time></trkpt><trkpt lat="43.505851233798865" lon="12.656069173186655"><ele>905.3333333333333</ele><time>2026-04-29T12:37:31.999Z</time></trkpt><trkpt lat="43.505752942742866" lon="12.656114595644137"><ele>907.0</ele><time>2026-04-29T12:37:32.999Z</time></trkpt><trkpt lat="43.50565206968304" lon="12.656173800987544"><ele>909.0</ele><time>2026-04-29T12:37:33.999Z</time></trkpt><trkpt lat="43.50556345912548" lon="12.65622220334561"><ele>911.0</ele><time>2026-04-29T12:37:34.999Z</time></trkpt><trkpt lat="43.50546459033326" lon="12.656264593140119"><ele>913.0</ele><time>2026-04-29T12:37:35.999Z</time></trkpt><trkpt lat="43.50536483166272" lon="12.65629620602018"><ele>915.0</ele><time>2026-04-29T12:37:36.999Z</time></trkpt><trkpt lat="43.50526428983843" lon="12.65632161193238"><ele>917.0</ele><time>2026-04-29T12:37:37.999Z</time></trkpt><trkpt lat="43.50516189629897" lon="12.656340687722084"><ele>919.6</ele><time>2026-04-29T12:37:38.999Z</time></trkpt><trkpt lat="43.50505968674227" lon="12.656357756114241"><ele>922.2</ele><time>2026-04-29T12:37:39.999Z</time></trkpt><trkpt lat="43.50495083864577" lon="12.656368645372801"><ele>924.8</ele><time>2026-04-29T12:37:40.999Z</time></trkpt><trkpt lat="43.50484267769745" lon="12.65638055410195"><ele>927.4</ele><time>2026-04-29T12:37:41.999Z</time></trkpt><trkpt lat="43.504721428534815" lon="12.656393330859004"><ele>930.0</ele><time>2026-04-29T12:37:42.999Z</time></trkpt><trkpt lat="43.50460862985341" lon="12.656383713404331"><ele>933.75</ele><time>2026-04-29T12:37:43.999Z</time></trkpt><trkpt lat="43.5044828065063" lon="12.656400256508103"><ele>937.5</ele><time>2026-04-29T12:37:44.999Z</time></trkpt><trkpt lat="43.5043601968787" lon="12.656414542882523"><ele>941.25</ele><time>2026-04-29T12:37:45.999Z</time></trkpt><trkpt lat="43.50424077580066" lon="12.656436922429302"><ele>945.0</ele><time>2026-04-29T12:37:46.999Z</time></trkpt><trkpt lat="43.5041221877529" lon="12.656464637786717"><ele>945.0</ele><time>2026-04-29T12:37:47.999Z</time></trkpt><trkpt lat="43.504003349391425" lon="12.656459662610963"><ele>945.0</ele><time>2026-04-29T12:37:48.998Z</time></trkpt><trkpt lat="43.50390447902459" lon="12.656457408964513"><ele>945.0</ele><time>2026-04-29T12:37:49.998Z</time></trkpt><trkpt lat="43.50382434135685" lon="12.656438123160664"><ele>945.0</ele><time>2026-04-29T12:37:50.998Z</time></trkpt><trkpt lat="43.503730870263276" lon="12.65633752251828"><ele>945.0</ele><time>2026-04-29T12:37:52.998Z</time></trkpt><trkpt lat="43.5036999921777" lon="12.65625884935272"><ele>943.0</ele><time>2026-04-29T12:37:53.998Z</time></trkpt><trkpt lat="43.50368189449981" lon="12.656157179577017"><ele>941.0</ele><time>2026-04-29T12:37:55Z</time></trkpt><trkpt lat="43.50365809900429" lon="12.6560318730612"><ele>939.0</ele><time>2026-04-29T12:37:56Z</time></trkpt><trkpt lat="43.50369262267109" lon="12.655901271823106"><ele>937.0</ele><time>2026-04-29T12:37:57Z</time></trkpt><trkpt lat="43.503717661491955" lon="12.655770779110522"><ele>935.0</ele><time>2026-04-29T12:37:58Z</time></trkpt><trkpt lat="43.50375383737632" lon="12.65562995864525"><ele>935.0</ele><time>2026-04-29T12:37:59Z</time></trkpt><trkpt lat="43.503783206314736" lon="12.655456680374835"><ele>935.0</ele><time>2026-04-29T12:38:00Z</time></trkpt><trkpt lat="43.503845649446966" lon="12.655304623172956"><ele>935.0</ele><time>2026-04-29T12:38:01Z</time></trkpt><trkpt lat="43.503901297753806" lon="12.655146316879618"><ele>935.0</ele><time>2026-04-29T12:38:02Z</time></trkpt><trkpt lat="43.503948931112056" lon="12.654958546646194"><ele>937.5</ele><time>2026-04-29T12:38:03Z</time></trkpt><trkpt lat="43.50398636938818" lon="12.65477378732247"><ele>940.0</ele><time>2026-04-29T12:38:04Z</time></trkpt><trkpt lat="43.504048632809905" lon="12.654617808850897"><ele>942.5</ele><time>2026-04-29T12:38:05Z</time></trkpt><trkpt lat="43.50412117554183" lon="12.654457059529037"><ele>945.0</ele><time>2026-04-29T12:38:06Z</time></trkpt><trkpt lat="43.5042116767039" lon="12.65429488518946"><ele>948.0</ele><time>2026-04-29T12:38:07Z</time></trkpt><trkpt lat="43.50429076113627" lon="12.654145546345536"><ele>951.0</ele><time>2026-04-29T12:38:08Z</time></trkpt><trkpt lat="43.50436389172054" lon="12.654016673054713"><ele>954.0</ele><time>2026-04-29T12:38:09Z</time></trkpt><trkpt lat="43.50442980950993" lon="12.653899343345003"><ele>957.0</ele><time>2026-04-29T12:38:10Z</time></trkpt><trkpt lat="43.50446931104942" lon="12.653782332522564"><ele>957.0</ele><time>2026-04-29T12:38:11Z</time></trkpt><trkpt lat="43.50449124454843" lon="12.653643110195604"><ele>957.0</ele><time>2026-04-29T12:38:12Z</time></trkpt><trkpt lat="43.50450038700486" lon="12.653497300774339"><ele>957.0</ele><time>2026-04-29T12:38:13Z</time></trkpt><trkpt lat="43.504497346513254" lon="12.653355773743487"><ele>957.0</ele><time>2026-04-29T12:38:14Z</time></trkpt><trkpt lat="43.50449812607604" lon="12.653203414594579"><ele>957.0</ele><time>2026-04-29T12:38:15Z</time></trkpt><trkpt lat="43.504500312529046" lon="12.653048033196757"><ele>958.4000000000001</ele><time>2026-04-29T12:38:16Z</time></trkpt><trkpt lat="43.504490764489084" lon="12.652902257174642"><ele>959.8000000000001</ele><time>2026-04-29T12:38:17Z</time></trkpt><trkpt lat="43.50448362923366" lon="12.652749485442857"><ele>961.2</ele><time>2026-04-29T12:38:18Z</time></trkpt><trkpt lat="43.5044507523139" lon="12.652598326478826"><ele>962.6</ele><time>2026-04-29T12:38:19Z</time></trkpt><trkpt lat="43.50442716475323" lon="12.652445091252483"><ele>964.0</ele><time>2026-04-29T12:38:20Z</time></trkpt><trkpt lat="43.50440912757177" lon="12.65228599407422"><ele>965.25</ele><time>2026-04-29T12:38:21Z</time></trkpt><trkpt lat="43.50437089307949" lon="12.652134243388948"><ele>966.5</ele><time>2026-04-29T12:38:22Z</time></trkpt><trkpt lat="43.504323642515836" lon="12.651987806395733"><ele>967.75</ele><time>2026-04-29T12:38:23Z</time></trkpt><trkpt lat="43.504283390978216" lon="12.65185477488774"><ele>969.0</ele><time>2026-04-29T12:38:24Z</time></trkpt><trkpt lat="43.50422885592561" lon="12.651718218680506"><ele>969.0</ele><time>2026-04-29T12:38:25Z</time></trkpt><trkpt lat="43.50416930162685" lon="12.651582525322802"><ele>969.0</ele><time>2026-04-29T12:38:26Z</time></trkpt><trkpt lat="43.50410648250913" lon="12.651441900917419"><ele>969.0</ele><time>2026-04-29T12:38:27Z</time></trkpt><trkpt lat="43.504048607707546" lon="12.651299212319028"><ele>969.0</ele><time>2026-04-29T12:38:28Z</time></trkpt><trkpt lat="43.503988567638494" lon="12.65115182946158"><ele>967.6</ele><time>2026-04-29T12:38:29Z</time></trkpt><trkpt lat="43.50392846147054" lon="12.651015510196725"><ele>966.2</ele><time>2026-04-29T12:38:30Z</time></trkpt><trkpt lat="43.50387119895403" lon="12.650892363939771"><ele>964.8000000000001</ele><time>2026-04-29T12:38:31Z</time></trkpt><trkpt lat="43.5038205685315" lon="12.650773592243256"><ele>963.4000000000001</ele><time>2026-04-29T12:38:32Z</time></trkpt><trkpt lat="43.50377332166525" lon="12.650649763029751"><ele>962.0</ele><time>2026-04-29T12:38:33Z</time></trkpt><trkpt lat="43.50373342410926" lon="12.65052189810733"><ele>962.1666666666667</ele><time>2026-04-29T12:38:34Z</time></trkpt><trkpt lat="43.503709914223535" lon="12.65039653171411"><ele>962.3333333333334</ele><time>2026-04-29T12:38:35Z</time></trkpt><trkpt lat="43.503714198801134" lon="12.650297330206694"><ele>962.5</ele><time>2026-04-29T12:38:36Z</time></trkpt><trkpt lat="43.503742335485356" lon="12.650210130862408"><ele>962.6666666666667</ele><time>2026-04-29T12:38:37Z</time></trkpt><trkpt lat="43.50380400799267" lon="12.650141516272189"><ele>962.8333333333334</ele><time>2026-04-29T12:38:38Z</time></trkpt><trkpt lat="43.503844189256895" lon="12.650045276197867"><ele>963.0</ele><time>2026-04-29T12:38:39Z</time></trkpt><trkpt lat="43.503893310039516" lon="12.649959485808992"><ele>963.0</ele><time>2026-04-29T12:38:40Z</time></trkpt><trkpt lat="43.503932339533755" lon="12.649859701455416"><ele>963.0</ele><time>2026-04-29T12:38:41Z</time></trkpt><trkpt lat="43.50394796108854" lon="12.649755868223885"><ele>963.0</ele><time>2026-04-29T12:38:42Z</time></trkpt><trkpt lat="43.50394637446197" lon="12.649644205623957"><ele>963.0</ele><time>2026-04-29T12:38:42.999Z</time></trkpt><trkpt lat="43.50392152100567" lon="12.6495359322081"><ele>963.0</ele><time>2026-04-29T12:38:43.999Z</time></trkpt><trkpt lat="43.50386956506517" lon="12.649447083462919"><ele>963.0</ele><time>2026-04-29T12:38:44.999Z</time></trkpt><trkpt lat="43.50380104629384" lon="12.64938227549031"><ele>965.3333333333334</ele><time>2026-04-29T12:38:45.999Z</time></trkpt><trkpt lat="43.50372279886624" lon="12.649346178273841"><ele>967.6666666666667</ele><time>2026-04-29T12:38:46.999Z</time></trkpt><trkpt lat="43.503647855634775" lon="12.649357853463336"><ele>970.0</ele><time>2026-04-29T12:38:47.999Z</time></trkpt><trkpt lat="43.50358598361027" lon="12.649401087699594"><ele>972.3333333333334</ele><time>2026-04-29T12:38:48.999Z</time></trkpt><trkpt lat="43.5035208740093" lon="12.649462862069635"><ele>974.6666666666667</ele><time>2026-04-29T12:38:49.999Z</time></trkpt><trkpt lat="43.50344511060604" lon="12.649525672192848"><ele>977.0</ele><time>2026-04-29T12:38:50.999Z</time></trkpt><trkpt lat="43.50336039003217" lon="12.64962051268219"><ele>977.8</ele><time>2026-04-29T12:38:51.999Z</time></trkpt><trkpt lat="43.503276897618676" lon="12.649714093758037"><ele>978.6</ele><time>2026-04-29T12:38:52.999Z</time></trkpt><trkpt lat="43.50319543556302" lon="12.649785101300587"><ele>979.3999999999999</ele><time>2026-04-29T12:38:53.999Z</time></trkpt><trkpt lat="43.50311706062163" lon="12.649879351976711"><ele>980.1999999999999</ele><time>2026-04-29T12:38:54.999Z</time></trkpt><trkpt lat="43.503059802563534" lon="12.650009842905988"><ele>981.0</ele><time>2026-04-29T12:38:55.999Z</time></trkpt><trkpt lat="43.50303842532819" lon="12.650144691816203"><ele>981.0</ele><time>2026-04-29T12:38:56.999Z</time></trkpt><trkpt lat="43.50300639238489" lon="12.650264574320467"><ele>980.9999999999999</ele><time>2026-04-29T12:38:57.999Z</time></trkpt><trkpt lat="43.50303101329184" lon="12.650417895590458"><ele>980.9999999999999</ele><time>2026-04-29T12:38:58.999Z</time></trkpt><trkpt lat="43.503023275493696" lon="12.650567826750821"><ele>981.0</ele><time>2026-04-29T12:38:59.999Z</time></trkpt><trkpt lat="43.503023248560716" lon="12.65073049702718"><ele>981.0</ele><time>2026-04-29T12:39:00.999Z</time></trkpt><trkpt lat="43.50301539489282" lon="12.650889381114858"><ele>981.25</ele><time>2026-04-29T12:39:01.999Z</time></trkpt><trkpt lat="43.50300447983257" lon="12.651062373105994"><ele>981.5</ele><time>2026-04-29T12:39:02.999Z</time></trkpt><trkpt lat="43.50298894525942" lon="12.651233776764094"><ele>981.75</ele><time>2026-04-29T12:39:03.999Z</time></trkpt><trkpt lat="43.50296660700517" lon="12.651397911312976"><ele>982.0</ele><time>2026-04-29T12:39:04.999Z</time></trkpt><trkpt lat="43.50293978933438" lon="12.651562628585745"><ele>987.0</ele><time>2026-04-29T12:39:05.999Z</time></trkpt><trkpt lat="43.50291167398032" lon="12.651723450079766"><ele>992.0</ele><time>2026-04-29T12:39:06.999Z</time></trkpt><trkpt lat="43.50287934473021" lon="12.651876165411045"><ele>997.0</ele><time>2026-04-29T12:39:07.999Z</time></trkpt><trkpt lat="43.502839312467145" lon="12.65203541460106"><ele>1002.0</ele><time>2026-04-29T12:39:08.999Z</time></trkpt><trkpt lat="43.50280900362674" lon="12.652200970787854"><ele>1002.0</ele><time>2026-04-29T12:39:09.999Z</time></trkpt><trkpt lat="43.50276060703547" lon="12.65235367008767"><ele>1002.0</ele><time>2026-04-29T12:39:10.999Z</time></trkpt><trkpt lat="43.502709090703775" lon="12.652511816118139"><ele>1002.0</ele><time>2026-04-29T12:39:11.999Z</time></trkpt><trkpt lat="43.502648645344806" lon="12.65267156956016"><ele>1002.0</ele><time>2026-04-29T12:39:12.999Z</time></trkpt><trkpt lat="43.502579901683376" lon="12.65282500682012"><ele>1001.0</ele><time>2026-04-29T12:39:13.999Z</time></trkpt><trkpt lat="43.50250589463109" lon="12.652974992996366"><ele>1000.0</ele><time>2026-04-29T12:39:14.999Z</time></trkpt><trkpt lat="43.502433041274955" lon="12.653110511423158"><ele>999.0</ele><time>2026-04-29T12:39:15.999Z</time></trkpt><trkpt lat="43.50236295396823" lon="12.653248388823796"><ele>998.0</ele><time>2026-04-29T12:39:16.999Z</time></trkpt><trkpt lat="43.502298170033235" lon="12.653382894890102"><ele>998.0</ele><time>2026-04-29T12:39:17.999Z</time></trkpt><trkpt lat="43.50223508449799" lon="12.653521843168615"><ele>998.0</ele><time>2026-04-29T12:39:18.999Z</time></trkpt><trkpt lat="43.50216623061083" lon="12.653662247743778"><ele>998.0</ele><time>2026-04-29T12:39:19.999Z</time></trkpt><trkpt lat="43.502090097775394" lon="12.653798023420954"><ele>998.0</ele><time>2026-04-29T12:39:20.999Z</time></trkpt><trkpt lat="43.50201707816643" lon="12.653935853845935"><ele>1001.0</ele><time>2026-04-29T12:39:21.999Z</time></trkpt><trkpt lat="43.501939183141545" lon="12.65406356767977"><ele>1004.0</ele><time>2026-04-29T12:39:22.999Z</time></trkpt><trkpt lat="43.50185715282597" lon="12.654187314201433"><ele>1007.0</ele><time>2026-04-29T12:39:23.999Z</time></trkpt><trkpt lat="43.50177773779972" lon="12.654310811512286"><ele>1010.0</ele><time>2026-04-29T12:39:24.999Z</time></trkpt><trkpt lat="43.501703936049" lon="12.65444457022114"><ele>1011.5</ele><time>2026-04-29T12:39:25.999Z</time></trkpt><trkpt lat="43.50163785633794" lon="12.654589526755053"><ele>1013.0</ele><time>2026-04-29T12:39:26.999Z</time></trkpt><trkpt lat="43.50158921787697" lon="12.65473729645827"><ele>1014.5</ele><time>2026-04-29T12:39:27.999Z</time></trkpt><trkpt lat="43.501561166981126" lon="12.654897599762679"><ele>1016.0</ele><time>2026-04-29T12:39:28.999Z</time></trkpt><trkpt lat="43.501533624305" lon="12.655053426758982"><ele>1016.0</ele><time>2026-04-29T12:39:29.999Z</time></trkpt><trkpt lat="43.501516512458316" lon="12.65521147792763"><ele>1015.9999999999999</ele><time>2026-04-29T12:39:30.999Z</time></trkpt><trkpt lat="43.501508790293926" lon="12.655353686053967"><ele>1015.9999999999999</ele><time>2026-04-29T12:39:31.999Z</time></trkpt><trkpt lat="43.501476490902256" lon="12.655470344562053"><ele>1016.0</ele><time>2026-04-29T12:39:32.999Z</time></trkpt><trkpt lat="43.50143712337504" lon="12.655597533160659"><ele>1016.0</ele><time>2026-04-29T12:39:33.999Z</time></trkpt><trkpt lat="43.50136138510874" lon="12.65572079639644"><ele>1016.4</ele><time>2026-04-29T12:39:34.999Z</time></trkpt><trkpt lat="43.501285246495975" lon="12.655831501063272"><ele>1016.8</ele><time>2026-04-29T12:39:35.999Z</time></trkpt><trkpt lat="43.50120605653159" lon="12.655936721831484"><ele>1017.1999999999999</ele><time>2026-04-29T12:39:36.999Z</time></trkpt><trkpt lat="43.501119942918365" lon="12.65604123958814"><ele>1017.5999999999999</ele><time>2026-04-29T12:39:37.999Z</time></trkpt><trkpt lat="43.50103445890213" lon="12.656142692863192"><ele>1018.0</ele><time>2026-04-29T12:39:38.999Z</time></trkpt><trkpt lat="43.50095671087381" lon="12.656269181021527"><ele>1021.8</ele><time>2026-04-29T12:39:39.999Z</time></trkpt><trkpt lat="43.50085971456499" lon="12.656352790513107"><ele>1025.6</ele><time>2026-04-29T12:39:40.999Z</time></trkpt><trkpt lat="43.50078143953463" lon="12.656469152424282"><ele>1029.4</ele><time>2026-04-29T12:39:41.999Z</time></trkpt><trkpt lat="43.500722834139786" lon="12.656607618503486"><ele>1033.2</ele><time>2026-04-29T12:39:42.999Z</time></trkpt><trkpt lat="43.50065446024738" lon="12.656709262882522"><ele>1037.0</ele><time>2026-04-29T12:39:43.999Z</time></trkpt><trkpt lat="43.500602194610195" lon="12.656837596194148"><ele>1037.0</ele><time>2026-04-29T12:39:44.999Z</time></trkpt><trkpt lat="43.50056648936905" lon="12.656946638864797"><ele>1037.0</ele><time>2026-04-29T12:39:45.999Z</time></trkpt><trkpt lat="43.500543724209244" lon="12.65706287909758"><ele>1037.0</ele><time>2026-04-29T12:39:46.999Z</time></trkpt><trkpt lat="43.5005470514238" lon="12.657185593815337"><ele>1037.0</ele><time>2026-04-29T12:39:47.999Z</time></trkpt><trkpt lat="43.50060643651254" lon="12.657338429841827"><ele>1037.0</ele><time>2026-04-29T12:39:48.999Z</time></trkpt><trkpt lat="43.50068312469963" lon="12.657451701218935"><ele>1037.75</ele><time>2026-04-29T12:39:49.998Z</time></trkpt><trkpt lat="43.50075842924406" lon="12.657564333651083"><ele>1038.5</ele><time>2026-04-29T12:39:50.998Z</time></trkpt><trkpt lat="43.5008567496456" lon="12.657667467676411"><ele>1039.25</ele><time>2026-04-29T12:39:51.998Z</time></trkpt><trkpt lat="43.500984287117156" lon="12.657775030513939"><ele>1040.0</ele><time>2026-04-29T12:39:52.998Z</time></trkpt><trkpt lat="43.50110232091295" lon="12.6578675847343"><ele>1041.8</ele><time>2026-04-29T12:39:53.998Z</time></trkpt><trkpt lat="43.501200889810626" lon="12.657955004248839"><ele>1043.6</ele><time>2026-04-29T12:39:54.998Z</time></trkpt><trkpt lat="43.50127290249686" lon="12.65805644191412"><ele>1045.4</ele><time>2026-04-29T12:39:55.998Z</time></trkpt><trkpt lat="43.50134257443909" lon="12.658149546328016"><ele>1047.2</ele><time>2026-04-29T12:39:56.998Z</time></trkpt><trkpt lat="43.50139466578901" lon="12.658247095110296"><ele>1049.0</ele><time>2026-04-29T12:39:57.998Z</time></trkpt><trkpt lat="43.50142264040939" lon="12.658358260507187"><ele>1045.8</ele><time>2026-04-29T12:39:58.998Z</time></trkpt><trkpt lat="43.50143238310196" lon="12.658481477415126"><ele>1042.6000000000001</ele><time>2026-04-29T12:39:59.998Z</time></trkpt><trkpt lat="43.50144243360338" lon="12.658629323735559"><ele>1039.4</ele><time>2026-04-29T12:40:01Z</time></trkpt><trkpt lat="43.50143926491856" lon="12.658787017837003"><ele>1036.2</ele><time>2026-04-29T12:40:02Z</time></trkpt><trkpt lat="43.50144377952023" lon="12.658932079554656"><ele>1033.0</ele><time>2026-04-29T12:40:03Z</time></trkpt><trkpt lat="43.50142368061365" lon="12.659050045094146"><ele>1033.0</ele><time>2026-04-29T12:40:04Z</time></trkpt><trkpt lat="43.501397518799955" lon="12.659143768430711"><ele>1033.0</ele><time>2026-04-29T12:40:05Z</time></trkpt><trkpt lat="43.50130830112853" lon="12.659226543966264"><ele>1033.0</ele><time>2026-04-29T12:40:07Z</time></trkpt><trkpt lat="43.5012177941051" lon="12.659191037991015"><ele>1033.0</ele><time>2026-04-29T12:40:09Z</time></trkpt><trkpt lat="43.501177631409085" lon="12.659042695916021"><ele>1033.0</ele><time>2026-04-29T12:40:11Z</time></trkpt><trkpt lat="43.50118605321601" lon="12.658956089711841"><ele>1035.6666666666665</ele><time>2026-04-29T12:40:12Z</time></trkpt><trkpt lat="43.50116702604263" lon="12.658857797751002"><ele>1038.3333333333333</ele><time>2026-04-29T12:40:13Z</time></trkpt><trkpt lat="43.50116719165036" lon="12.65875707677081"><ele>1041.0</ele><time>2026-04-29T12:40:14Z</time></trkpt><trkpt lat="43.501141948211554" lon="12.658655720144088"><ele>1043.6666666666667</ele><time>2026-04-29T12:40:15Z</time></trkpt><trkpt lat="43.501102840427265" lon="12.658549404403304"><ele>1046.3333333333335</ele><time>2026-04-29T12:40:16Z</time></trkpt><trkpt lat="43.50106152533067" lon="12.658437165033387"><ele>1049.0</ele><time>2026-04-29T12:40:17Z</time></trkpt><trkpt lat="43.501005310837265" lon="12.658338909107762"><ele>1049.0</ele><time>2026-04-29T12:40:18Z</time></trkpt><trkpt lat="43.500936422385024" lon="12.658253745715417"><ele>1049.0</ele><time>2026-04-29T12:40:19Z</time></trkpt><trkpt lat="43.50086315969725" lon="12.658159722133114"><ele>1049.0</ele><time>2026-04-29T12:40:20Z</time></trkpt><trkpt lat="43.50076769444937" lon="12.658104656105136"><ele>1049.0</ele><time>2026-04-29T12:40:21Z</time></trkpt><trkpt lat="43.50067361941607" lon="12.658055843575452"><ele>1049.0</ele><time>2026-04-29T12:40:22Z</time></trkpt><trkpt lat="43.50057945874095" lon="12.658009928826502"><ele>1049.0</ele><time>2026-04-29T12:40:23Z</time></trkpt><trkpt lat="43.50048345532327" lon="12.657963115492507"><ele>1049.0</ele><time>2026-04-29T12:40:24Z</time></trkpt><trkpt lat="43.50039136244532" lon="12.657921016276012"><ele>1049.0</ele><time>2026-04-29T12:40:25Z</time></trkpt><trkpt lat="43.50029532416233" lon="12.65788057017458"><ele>1049.0</ele><time>2026-04-29T12:40:26Z</time></trkpt><trkpt lat="43.50020178631294" lon="12.657840300020164"><ele>1049.0</ele><time>2026-04-29T12:40:27Z</time></trkpt><trkpt lat="43.5001207014912" lon="12.65779933531192"><ele>1050.8</ele><time>2026-04-29T12:40:28Z</time></trkpt><trkpt lat="43.50005444386219" lon="12.657757587065724"><ele>1052.6000000000001</ele><time>2026-04-29T12:40:29Z</time></trkpt><trkpt lat="43.49998064292859" lon="12.657692413916221"><ele>1054.4</ele><time>2026-04-29T12:40:31Z</time></trkpt><trkpt lat="43.49992020651643" lon="12.65759819255216"><ele>1056.2</ele><time>2026-04-29T12:40:34Z</time></trkpt><trkpt lat="43.499862366479924" lon="12.657495387293709"><ele>1058.0</ele><time>2026-04-29T12:40:36Z</time></trkpt><trkpt lat="43.499845349296194" lon="12.657341448019421"><ele>1058.0</ele><time>2026-04-29T12:40:38Z</time></trkpt><trkpt lat="43.499828972872464" lon="12.657183093741843"><ele>1058.0</ele><time>2026-04-29T12:40:40Z</time></trkpt><trkpt lat="43.49981961457124" lon="12.657096962968929"><ele>1058.0</ele><time>2026-04-29T12:40:41Z</time></trkpt><trkpt lat="43.49980653585943" lon="12.65692484305991"><ele>1058.0</ele><time>2026-04-29T12:40:42.999Z</time></trkpt><trkpt lat="43.49979775963348" lon="12.656834671629499"><ele>1058.0</ele><time>2026-04-29T12:40:43.999Z</time></trkpt><trkpt lat="43.49978708606345" lon="12.656740786506207"><ele>1058.0</ele><time>2026-04-29T12:40:44.999Z</time></trkpt><trkpt lat="43.499779477728" lon="12.656640209386616"><ele>1058.1666666666667</ele><time>2026-04-29T12:40:45.999Z</time></trkpt><trkpt lat="43.49977286355175" lon="12.656540176502244"><ele>1058.3333333333335</ele><time>2026-04-29T12:40:46.999Z</time></trkpt><trkpt lat="43.49976292929822" lon="12.656433081832443"><ele>1058.5</ele><time>2026-04-29T12:40:47.999Z</time></trkpt><trkpt lat="43.499754300016804" lon="12.656326570768769"><ele>1058.6666666666667</ele><time>2026-04-29T12:40:48.999Z</time></trkpt><trkpt lat="43.499746000847956" lon="12.656212155557787"><ele>1058.8333333333333</ele><time>2026-04-29T12:40:49.999Z</time></trkpt><trkpt lat="43.499731213402015" lon="12.656093421973615"><ele>1059.0</ele><time>2026-04-29T12:40:50.999Z</time></trkpt><trkpt lat="43.49971020080663" lon="12.655979801895754"><ele>1060.2</ele><time>2026-04-29T12:40:51.999Z</time></trkpt><trkpt lat="43.499684523773865" lon="12.655858502102959"><ele>1061.4</ele><time>2026-04-29T12:40:52.999Z</time></trkpt><trkpt lat="43.49965689287399" lon="12.655735585030296"><ele>1062.6</ele><time>2026-04-29T12:40:53.999Z</time></trkpt><trkpt lat="43.49962725196133" lon="12.655621183717086"><ele>1063.8</ele><time>2026-04-29T12:40:54.999Z</time></trkpt><trkpt lat="43.49959693378705" lon="12.655506342488396"><ele>1065.0</ele><time>2026-04-29T12:40:55.999Z</time></trkpt><trkpt lat="43.499565070561296" lon="12.655389360826627"><ele>1067.8</ele><time>2026-04-29T12:40:56.999Z</time></trkpt><trkpt lat="43.49952957550582" lon="12.65527230368309"><ele>1070.6</ele><time>2026-04-29T12:40:57.999Z</time></trkpt><trkpt lat="43.49949039676574" lon="12.65514789920785"><ele>1073.4</ele><time>2026-04-29T12:40:58.999Z</time></trkpt><trkpt lat="43.49945583665673" lon="12.655021993931804"><ele>1076.2</ele><time>2026-04-29T12:40:59.999Z</time></trkpt><trkpt lat="43.49941051651028" lon="12.654894979546953"><ele>1079.0</ele><time>2026-04-29T12:41:00.999Z</time></trkpt><trkpt lat="43.499364017058376" lon="12.65476339078359"><ele>1079.0</ele><time>2026-04-29T12:41:01.999Z</time></trkpt><trkpt lat="43.49931391534478" lon="12.654632973997133"><ele>1079.0</ele><time>2026-04-29T12:41:02.999Z</time></trkpt><trkpt lat="43.49927297068538" lon="12.654496137434814"><ele>1079.0</ele><time>2026-04-29T12:41:03.999Z</time></trkpt><trkpt lat="43.499221011133294" lon="12.654354697636776"><ele>1079.0</ele><time>2026-04-29T12:41:04.999Z</time></trkpt><trkpt lat="43.49917449332142" lon="12.654227055110425"><ele>1079.0</ele><time>2026-04-29T12:41:05.999Z</time></trkpt><trkpt lat="43.499138255149845" lon="12.654125268257037"><ele>1078.3333333333335</ele><time>2026-04-29T12:41:06.999Z</time></trkpt><trkpt lat="43.499105215970545" lon="12.654031077526081"><ele>1077.6666666666667</ele><time>2026-04-29T12:41:07.999Z</time></trkpt><trkpt lat="43.49907132138808" lon="12.653933885115574"><ele>1077.0</ele><time>2026-04-29T12:41:08.999Z</time></trkpt><trkpt lat="43.49903524769772" lon="12.653827594303278"><ele>1076.3333333333333</ele><time>2026-04-29T12:41:09.999Z</time></trkpt><trkpt lat="43.49900727993431" lon="12.653717759770345"><ele>1075.6666666666665</ele><time>2026-04-29T12:41:10.999Z</time></trkpt><trkpt lat="43.49898356407225" lon="12.653593816457242"><ele>1075.0</ele><time>2026-04-29T12:41:11.999Z</time></trkpt><trkpt lat="43.498938835714476" lon="12.653479244060902"><ele>1075.0</ele><time>2026-04-29T12:41:12.999Z</time></trkpt><trkpt lat="43.49891386580131" lon="12.65335219305387"><ele>1075.0</ele><time>2026-04-29T12:41:13.999Z</time></trkpt><trkpt lat="43.49886581259555" lon="12.653236149504062"><ele>1075.0</ele><time>2026-04-29T12:41:14.999Z</time></trkpt><trkpt lat="43.49882106015628" lon="12.653117353651938"><ele>1075.0</ele><time>2026-04-29T12:41:15.999Z</time></trkpt><trkpt lat="43.498776731912336" lon="12.652991017048496"><ele>1075.0</ele><time>2026-04-29T12:41:16.999Z</time></trkpt><trkpt lat="43.49873036325209" lon="12.652871334535602"><ele>1077.8</ele><time>2026-04-29T12:41:17.999Z</time></trkpt><trkpt lat="43.49868329644915" lon="12.652755111276734"><ele>1080.6</ele><time>2026-04-29T12:41:18.999Z</time></trkpt><trkpt lat="43.498633807925074" lon="12.652636050510772"><ele>1083.4</ele><time>2026-04-29T12:41:19.999Z</time></trkpt><trkpt lat="43.498595606221535" lon="12.65250589654327"><ele>1086.2</ele><time>2026-04-29T12:41:20.999Z</time></trkpt><trkpt lat="43.49853285915742" lon="12.652412512565736"><ele>1089.0</ele><time>2026-04-29T12:41:21.999Z</time></trkpt><trkpt lat="43.49848739433066" lon="12.652284197791353"><ele>1089.0</ele><time>2026-04-29T12:41:22.999Z</time></trkpt><trkpt lat="43.4984129181465" lon="12.652188070264716"><ele>1089.0</ele><time>2026-04-29T12:41:23.999Z</time></trkpt><trkpt lat="43.498352540422076" lon="12.652082487036854"><ele>1089.0</ele><time>2026-04-29T12:41:24.999Z</time></trkpt><trkpt lat="43.49829202911234" lon="12.651967271517444"><ele>1089.0</ele><time>2026-04-29T12:41:25.999Z</time></trkpt><trkpt lat="43.498222785518735" lon="12.651866116812986"><ele>1089.0</ele><time>2026-04-29T12:41:26.999Z</time></trkpt><trkpt lat="43.49815734990996" lon="12.651764276233052"><ele>1089.0</ele><time>2026-04-29T12:41:27.999Z</time></trkpt><trkpt lat="43.49808581332642" lon="12.651671140055349"><ele>1089.0</ele><time>2026-04-29T12:41:28.999Z</time></trkpt><trkpt lat="43.49801129099664" lon="12.651571810761482"><ele>1089.0</ele><time>2026-04-29T12:41:29.999Z</time></trkpt><trkpt lat="43.497945469406055" lon="12.651470014102195"><ele>1089.0</ele><time>2026-04-29T12:41:30.999Z</time></trkpt><trkpt lat="43.497874496474296" lon="12.65138694777682"><ele>1089.0</ele><time>2026-04-29T12:41:31.999Z</time></trkpt><trkpt lat="43.49778872328273" lon="12.65129727339824"><ele>1090.2</ele><time>2026-04-29T12:41:32.999Z</time></trkpt><trkpt lat="43.49770474534203" lon="12.651225824357834"><ele>1091.4</ele><time>2026-04-29T12:41:33.999Z</time></trkpt><trkpt lat="43.49761726279019" lon="12.651163238035627"><ele>1092.6</ele><time>2026-04-29T12:41:34.999Z</time></trkpt><trkpt lat="43.49752760080882" lon="12.651107500487267"><ele>1093.8</ele><time>2026-04-29T12:41:35.999Z</time></trkpt><trkpt lat="43.497436278676474" lon="12.651057663357788"><ele>1095.0</ele><time>2026-04-29T12:41:36.999Z</time></trkpt><trkpt lat="43.4973344842168" lon="12.651013243528698"><ele>1095.0</ele><time>2026-04-29T12:41:37.999Z</time></trkpt><trkpt lat="43.497235406245395" lon="12.651000370806482"><ele>1095.0</ele><time>2026-04-29T12:41:38.999Z</time></trkpt><trkpt lat="43.497141719387955" lon="12.65102238627624"><ele>1095.0</ele><time>2026-04-29T12:41:39.999Z</time></trkpt><trkpt lat="43.4970468199504" lon="12.651075030595875"><ele>1095.0</ele><time>2026-04-29T12:41:40.999Z</time></trkpt><trkpt lat="43.496962257456005" lon="12.651156866067877"><ele>1095.0</ele><time>2026-04-29T12:41:41.999Z</time></trkpt><trkpt lat="43.49691116082573" lon="12.6512821831237"><ele>1096.2</ele><time>2026-04-29T12:41:42.999Z</time></trkpt><trkpt lat="43.496863966658225" lon="12.651405032404108"><ele>1097.4</ele><time>2026-04-29T12:41:43.999Z</time></trkpt><trkpt lat="43.49681097014664" lon="12.651525517797086"><ele>1098.6</ele><time>2026-04-29T12:41:44.999Z</time></trkpt><trkpt lat="43.49677464964501" lon="12.651652451991678"><ele>1099.8</ele><time>2026-04-29T12:41:45.999Z</time></trkpt><trkpt lat="43.4967404487297" lon="12.651766519628007"><ele>1101.0</ele><time>2026-04-29T12:41:46.998Z</time></trkpt><trkpt lat="43.496703423235765" lon="12.65184456171792"><ele>1101.0</ele><time>2026-04-29T12:41:47.998Z</time></trkpt><trkpt lat="43.49667034844823" lon="12.651935816626663"><ele>1101.0</ele><time>2026-04-29T12:41:48.998Z</time></trkpt><trkpt lat="43.496606577178454" lon="12.651984482844375"><ele>1101.0</ele><time>2026-04-29T12:41:49.998Z</time></trkpt><trkpt lat="43.496530040692925" lon="12.652007860859435"><ele>1101.0</ele><time>2026-04-29T12:41:50.998Z</time></trkpt><trkpt lat="43.49644630012306" lon="12.651993661846868"><ele>1101.0</ele><time>2026-04-29T12:41:51.998Z</time></trkpt><trkpt lat="43.49635847228415" lon="12.651934601760336"><ele>1101.0</ele><time>2026-04-29T12:41:52.998Z</time></trkpt><trkpt lat="43.49629216253499" lon="12.651849697783978"><ele>1103.3999999999999</ele><time>2026-04-29T12:41:53.998Z</time></trkpt><trkpt lat="43.49622413267157" lon="12.651735053811777"><ele>1105.8</ele><time>2026-04-29T12:41:54.998Z</time></trkpt><trkpt lat="43.49613949464692" lon="12.651641097403798"><ele>1108.1999999999998</ele><time>2026-04-29T12:41:55.998Z</time></trkpt><trkpt lat="43.496065882007365" lon="12.651529709595795"><ele>1110.6</ele><time>2026-04-29T12:41:56.998Z</time></trkpt><trkpt lat="43.4959900842164" lon="12.651428839230935"><ele>1113.0</ele><time>2026-04-29T12:41:57.998Z</time></trkpt><trkpt lat="43.4959318787098" lon="12.651314508647586"><ele>1113.0</ele><time>2026-04-29T12:41:58.998Z</time></trkpt><trkpt lat="43.49586501061277" lon="12.651215650790927"><ele>1113.0</ele><time>2026-04-29T12:41:59.998Z</time></trkpt><trkpt lat="43.49579326507007" lon="12.651141268278145"><ele>1113.0</ele><time>2026-04-29T12:42:00.998Z</time></trkpt><trkpt lat="43.4957202544864" lon="12.651048872614288"><ele>1113.0</ele><time>2026-04-29T12:42:01.998Z</time></trkpt><trkpt lat="43.49562573154726" lon="12.650987951470894"><ele>1113.0</ele><time>2026-04-29T12:42:02.998Z</time></trkpt><trkpt lat="43.49553762496874" lon="12.650926573774155"><ele>1112.8</ele><time>2026-04-29T12:42:03.998Z</time></trkpt><trkpt lat="43.495446658480624" lon="12.650864257943725"><ele>1112.6</ele><time>2026-04-29T12:42:04.998Z</time></trkpt><trkpt lat="43.49535575070792" lon="12.650794367571216"><ele>1112.4</ele><time>2026-04-29T12:42:05.998Z</time></trkpt><trkpt lat="43.49525716374439" lon="12.650750155346566"><ele>1112.2</ele><time>2026-04-29T12:42:07Z</time></trkpt><trkpt lat="43.49515813186957" lon="12.65070864697539"><ele>1112.0</ele><time>2026-04-29T12:42:08Z</time></trkpt><trkpt lat="43.49506112115482" lon="12.650662507494353"><ele>1112.0</ele><time>2026-04-29T12:42:09Z</time></trkpt><trkpt lat="43.49496441135151" lon="12.65061786484827"><ele>1112.0</ele><time>2026-04-29T12:42:10Z</time></trkpt><trkpt lat="43.49486451794895" lon="12.650575265113927"><ele>1112.0</ele><time>2026-04-29T12:42:11Z</time></trkpt><trkpt lat="43.49476339765435" lon="12.650534320226315"><ele>1112.0</ele><time>2026-04-29T12:42:12Z</time></trkpt><trkpt lat="43.494660838070615" lon="12.650491956617474"><ele>1112.0</ele><time>2026-04-29T12:42:13Z</time></trkpt><trkpt lat="43.494562158641344" lon="12.650446771735673"><ele>1113.4</ele><time>2026-04-29T12:42:14Z</time></trkpt><trkpt lat="43.49446015823387" lon="12.650410610711885"><ele>1114.8000000000002</ele><time>2026-04-29T12:42:15Z</time></trkpt><trkpt lat="43.494358783591885" lon="12.650373980157845"><ele>1116.2</ele><time>2026-04-29T12:42:16Z</time></trkpt><trkpt lat="43.494252703121504" lon="12.650339714372077"><ele>1117.6000000000001</ele><time>2026-04-29T12:42:17Z</time></trkpt><trkpt lat="43.494143825507926" lon="12.650316044781666"><ele>1119.0</ele><time>2026-04-29T12:42:18Z</time></trkpt><trkpt lat="43.49403450349337" lon="12.650301245022547"><ele>1119.0</ele><time>2026-04-29T12:42:19Z</time></trkpt><trkpt lat="43.49392235387667" lon="12.650300012133599"><ele>1119.0</ele><time>2026-04-29T12:42:20Z</time></trkpt><trkpt lat="43.493808397641324" lon="12.65030167680103"><ele>1119.0</ele><time>2026-04-29T12:42:21Z</time></trkpt><trkpt lat="43.493697464831115" lon="12.65030685674745"><ele>1119.0</ele><time>2026-04-29T12:42:22Z</time></trkpt><trkpt lat="43.49358465099781" lon="12.65031013302637"><ele>1120.2</ele><time>2026-04-29T12:42:23Z</time></trkpt><trkpt lat="43.49347190112625" lon="12.650310297674466"><ele>1121.4</ele><time>2026-04-29T12:42:24Z</time></trkpt><trkpt lat="43.493360589546285" lon="12.65031241085176"><ele>1122.6</ele><time>2026-04-29T12:42:25Z</time></trkpt><trkpt lat="43.49325080189603" lon="12.650316628652847"><ele>1123.8</ele><time>2026-04-29T12:42:26Z</time></trkpt><trkpt lat="43.49314201436398" lon="12.6503203001183"><ele>1125.0</ele><time>2026-04-29T12:42:27Z</time></trkpt><trkpt lat="43.49303559697174" lon="12.650321777181993"><ele>1125.0</ele><time>2026-04-29T12:42:28Z</time></trkpt><trkpt lat="43.49293138929382" lon="12.650327385166415"><ele>1125.0</ele><time>2026-04-29T12:42:29Z</time></trkpt><trkpt lat="43.49282970521941" lon="12.650337276404649"><ele>1125.0</ele><time>2026-04-29T12:42:30Z</time></trkpt><trkpt lat="43.49272011706609" lon="12.650349076827437"><ele>1125.0</ele><time>2026-04-29T12:42:31Z</time></trkpt><trkpt lat="43.49261158446393" lon="12.65036184502164"><ele>1125.0</ele><time>2026-04-29T12:42:32Z</time></trkpt><trkpt lat="43.4925045707319" lon="12.650376892667305"><ele>1125.4</ele><time>2026-04-29T12:42:33Z</time></trkpt><trkpt lat="43.49239656923674" lon="12.650388637863887"><ele>1125.8</ele><time>2026-04-29T12:42:34Z</time></trkpt><trkpt lat="43.49228656759817" lon="12.650400274115347"><ele>1126.2</ele><time>2026-04-29T12:42:35Z</time></trkpt><trkpt lat="43.492182940470514" lon="12.65041300640704"><ele>1126.6</ele><time>2026-04-29T12:42:36Z</time></trkpt><trkpt lat="43.49207642366429" lon="12.650425482043842"><ele>1127.0</ele><time>2026-04-29T12:42:37Z</time></trkpt><trkpt lat="43.49197058577911" lon="12.6504278594762"><ele>1127.2</ele><time>2026-04-29T12:42:38Z</time></trkpt><trkpt lat="43.49186790393533" lon="12.650441157727927"><ele>1127.4</ele><time>2026-04-29T12:42:39Z</time></trkpt><trkpt lat="43.491768991346" lon="12.65044894393318"><ele>1127.6</ele><time>2026-04-29T12:42:40Z</time></trkpt><trkpt lat="43.491679454489265" lon="12.650455124198242"><ele>1127.8</ele><time>2026-04-29T12:42:41Z</time></trkpt><trkpt lat="43.49160833697835" lon="12.650461692600901"><ele>1128.0</ele><time>2026-04-29T12:42:42Z</time></trkpt><trkpt lat="43.49150078584445" lon="12.650482154933465"><ele>1128.0</ele><time>2026-04-29T12:42:44Z</time></trkpt><trkpt lat="43.4914338160374" lon="12.650566630080752"><ele>1128.0</ele><time>2026-04-29T12:42:46Z</time></trkpt><trkpt lat="43.491400726232705" lon="12.65068403901107"><ele>1128.0</ele><time>2026-04-29T12:42:48Z</time></trkpt><trkpt lat="43.491446680819436" lon="12.650793920836582"><ele>1128.0</ele><time>2026-04-29T12:45:22.999Z</time></trkpt><trkpt lat="43.49155007211088" lon="12.6508427534307"><ele>1128.0</ele><time>2026-04-29T12:45:24.999Z</time></trkpt><trkpt lat="43.491617074981605" lon="12.650854006925334"><ele>1128.0</ele><time>2026-04-29T12:45:25.999Z</time></trkpt><trkpt lat="43.49168332763459" lon="12.650857134629927"><ele>1128.0</ele><time>2026-04-29T12:45:26.999Z</time></trkpt><trkpt lat="43.49175359209703" lon="12.650908029789022"><ele>1128.0</ele><time>2026-04-29T12:45:27.999Z</time></trkpt><trkpt lat="43.49182652721478" lon="12.65093038661129"><ele>1128.0</ele><time>2026-04-29T12:45:28.999Z</time></trkpt><trkpt lat="43.49189979504859" lon="12.650957340770367"><ele>1128.0</ele><time>2026-04-29T12:45:29.999Z</time></trkpt><trkpt lat="43.49198146387782" lon="12.650993847295254"><ele>1128.0</ele><time>2026-04-29T12:45:30.999Z</time></trkpt><trkpt lat="43.492068937144325" lon="12.651044956706876"><ele>1127.8</ele><time>2026-04-29T12:45:31.999Z</time></trkpt><trkpt lat="43.49215745006071" lon="12.651115141469964"><ele>1127.6</ele><time>2026-04-29T12:45:32.999Z</time></trkpt><trkpt lat="43.4922484950017" lon="12.651187361052925"><ele>1127.4</ele><time>2026-04-29T12:45:33.999Z</time></trkpt><trkpt lat="43.492343522254146" lon="12.651262739512166"><ele>1127.2</ele><time>2026-04-29T12:45:34.999Z</time></trkpt><trkpt lat="43.49244170786701" lon="12.651347113462384"><ele>1127.0</ele><time>2026-04-29T12:45:35.999Z</time></trkpt><trkpt lat="43.49253208867127" lon="12.651433856167912"><ele>1129.8</ele><time>2026-04-29T12:45:36.999Z</time></trkpt><trkpt lat="43.49261682063152" lon="12.651520601834337"><ele>1132.6</ele><time>2026-04-29T12:45:37.999Z</time></trkpt><trkpt lat="43.49270210589293" lon="12.65161918798747"><ele>1135.3999999999999</ele><time>2026-04-29T12:45:38.999Z</time></trkpt><trkpt lat="43.49278466235923" lon="12.651728189767093"><ele>1138.2</ele><time>2026-04-29T12:45:39.999Z</time></trkpt><trkpt lat="43.49286488393835" lon="12.65184749705683"><ele>1141.0</ele><time>2026-04-29T12:45:40.999Z</time></trkpt><trkpt lat="43.492944676191705" lon="12.651970255531666"><ele>1142.3999999999999</ele><time>2026-04-29T12:45:41.999Z</time></trkpt><trkpt lat="43.49302000755384" lon="12.652089039995603"><ele>1143.8</ele><time>2026-04-29T12:45:42.999Z</time></trkpt><trkpt lat="43.493087709734446" lon="12.652204334338883"><ele>1145.1999999999998</ele><time>2026-04-29T12:45:43.999Z</time></trkpt><trkpt lat="43.4931497350238" lon="12.652317812546091"><ele>1146.6</ele><time>2026-04-29T12:45:44.999Z</time></trkpt><trkpt lat="43.493211893541115" lon="12.652434082334791"><ele>1148.0</ele><time>2026-04-29T12:45:45.999Z</time></trkpt><trkpt lat="43.49326867097953" lon="12.652549943561223"><ele>1148.0</ele><time>2026-04-29T12:45:46.999Z</time></trkpt><trkpt lat="43.493324514983534" lon="12.652662290850007"><ele>1148.0</ele><time>2026-04-29T12:45:47.999Z</time></trkpt><trkpt lat="43.49338498277855" lon="12.65278869239431"><ele>1148.0</ele><time>2026-04-29T12:45:48.999Z</time></trkpt><trkpt lat="43.493439585975054" lon="12.652917839425426"><ele>1148.0</ele><time>2026-04-29T12:45:49.999Z</time></trkpt><trkpt lat="43.49349036923969" lon="12.653045930349181"><ele>1148.0</ele><time>2026-04-29T12:45:50.999Z</time></trkpt><trkpt lat="43.493538517925465" lon="12.653175435350665"><ele>1150.0</ele><time>2026-04-29T12:45:51.999Z</time></trkpt><trkpt lat="43.49358360945659" lon="12.653308221328587"><ele>1152.0</ele><time>2026-04-29T12:45:52.999Z</time></trkpt><trkpt lat="43.493624731058105" lon="12.6534452278867"><ele>1154.0</ele><time>2026-04-29T12:45:53.999Z</time></trkpt><trkpt lat="43.49366321075225" lon="12.65358485317638"><ele>1156.0</ele><time>2026-04-29T12:45:54.999Z</time></trkpt><trkpt lat="43.49370133304947" lon="12.653727911538251"><ele>1158.0</ele><time>2026-04-29T12:45:55.999Z</time></trkpt><trkpt lat="43.49373859668777" lon="12.653867747689663"><ele>1158.0</ele><time>2026-04-29T12:45:56.999Z</time></trkpt><trkpt lat="43.49377913497188" lon="12.654006166050934"><ele>1158.0</ele><time>2026-04-29T12:45:57.999Z</time></trkpt><trkpt lat="43.493806537223804" lon="12.654152866553373"><ele>1158.0</ele><time>2026-04-29T12:45:58.999Z</time></trkpt><trkpt lat="43.49383885699874" lon="12.654299235568606"><ele>1158.0</ele><time>2026-04-29T12:45:59.999Z</time></trkpt><trkpt lat="43.49387065883606" lon="12.654446223342848"><ele>1158.0</ele><time>2026-04-29T12:46:00.999Z</time></trkpt><trkpt lat="43.49390021148476" lon="12.654595962108429"><ele>1159.8</ele><time>2026-04-29T12:46:01.999Z</time></trkpt><trkpt lat="43.493923566259184" lon="12.654742666510325"><ele>1161.6</ele><time>2026-04-29T12:46:02.999Z</time></trkpt><trkpt lat="43.49396480957832" lon="12.654889795659251"><ele>1163.4</ele><time>2026-04-29T12:46:03.999Z</time></trkpt><trkpt lat="43.4940044665118" lon="12.655033506211849"><ele>1165.2</ele><time>2026-04-29T12:46:04.998Z</time></trkpt><trkpt lat="43.494051073084016" lon="12.655176242610708"><ele>1167.0</ele><time>2026-04-29T12:46:05.998Z</time></trkpt><trkpt lat="43.494084857091" lon="12.655325334920628"><ele>1167.25</ele><time>2026-04-29T12:46:06.998Z</time></trkpt><trkpt lat="43.49411780693561" lon="12.655476098199719"><ele>1167.5</ele><time>2026-04-29T12:46:07.998Z</time></trkpt><trkpt lat="43.49415069521778" lon="12.65562432617866"><ele>1167.75</ele><time>2026-04-29T12:46:08.998Z</time></trkpt><trkpt lat="43.49417497360939" lon="12.65577226078459"><ele>1168.0</ele><time>2026-04-29T12:46:09.998Z</time></trkpt><trkpt lat="43.494204841428584" lon="12.655927388437357"><ele>1168.0</ele><time>2026-04-29T12:46:10.998Z</time></trkpt><trkpt lat="43.49423842950919" lon="12.656079300744018"><ele>1168.0</ele><time>2026-04-29T12:46:11.998Z</time></trkpt><trkpt lat="43.49427131194849" lon="12.65623021106667"><ele>1168.0</ele><time>2026-04-29T12:46:12.998Z</time></trkpt><trkpt lat="43.49430473965509" lon="12.65638122445402"><ele>1168.0</ele><time>2026-04-29T12:46:13.998Z</time></trkpt><trkpt lat="43.494332639289034" lon="12.656531108517973"><ele>1169.8</ele><time>2026-04-29T12:46:14.998Z</time></trkpt><trkpt lat="43.494367242367375" lon="12.656677372668472"><ele>1171.6</ele><time>2026-04-29T12:46:15.998Z</time></trkpt><trkpt lat="43.49439576005455" lon="12.656821610933363"><ele>1173.4</ele><time>2026-04-29T12:46:16.998Z</time></trkpt><trkpt lat="43.49442577944034" lon="12.656963861553635"><ele>1175.2</ele><time>2026-04-29T12:46:17.998Z</time></trkpt><trkpt lat="43.4944448799901" lon="12.657111297444729"><ele>1177.0</ele><time>2026-04-29T12:46:19Z</time></trkpt><trkpt lat="43.494475043959596" lon="12.657257424210593"><ele>1177.2</ele><time>2026-04-29T12:46:20Z</time></trkpt><trkpt lat="43.494505826688325" lon="12.657403132239997"><ele>1177.4</ele><time>2026-04-29T12:46:21Z</time></trkpt><trkpt lat="43.49453733078455" lon="12.657543783659849"><ele>1177.6</ele><time>2026-04-29T12:46:22Z</time></trkpt><trkpt lat="43.49456904304087" lon="12.657685364431684"><ele>1177.8</ele><time>2026-04-29T12:46:23Z</time></trkpt><trkpt lat="43.49461591328899" lon="12.657820935520997"><ele>1178.0</ele><time>2026-04-29T12:46:24Z</time></trkpt><trkpt lat="43.49463214775166" lon="12.657967098176478"><ele>1178.0</ele><time>2026-04-29T12:46:25Z</time></trkpt><trkpt lat="43.49466288752773" lon="12.65810977989623"><ele>1178.0</ele><time>2026-04-29T12:46:26Z</time></trkpt><trkpt lat="43.49469421632775" lon="12.658255775905879"><ele>1178.0</ele><time>2026-04-29T12:46:27Z</time></trkpt><trkpt lat="43.49472449872991" lon="12.658397359623244"><ele>1178.0</ele><time>2026-04-29T12:46:28Z</time></trkpt><trkpt lat="43.49475500921754" lon="12.658540150635607"><ele>1178.0</ele><time>2026-04-29T12:46:29Z</time></trkpt><trkpt lat="43.494797467746864" lon="12.658678590813327"><ele>1179.6</ele><time>2026-04-29T12:46:30Z</time></trkpt><trkpt lat="43.49482220866428" lon="12.658823671617853"><ele>1181.1999999999998</ele><time>2026-04-29T12:46:31Z</time></trkpt><trkpt lat="43.49485456438071" lon="12.658968818804595"><ele>1182.8</ele><time>2026-04-29T12:46:32Z</time></trkpt><trkpt lat="43.494882701172855" lon="12.659114012501403"><ele>1184.3999999999999</ele><time>2026-04-29T12:46:33Z</time></trkpt><trkpt lat="43.494912144276725" lon="12.65926365965484"><ele>1186.0</ele><time>2026-04-29T12:46:34Z</time></trkpt><trkpt lat="43.494939628076615" lon="12.659409179951032"><ele>1187.0</ele><time>2026-04-29T12:46:35Z</time></trkpt><trkpt lat="43.49496589717124" lon="12.659557591064196"><ele>1188.0</ele><time>2026-04-29T12:46:36Z</time></trkpt><trkpt lat="43.494994275423075" lon="12.65970989794079"><ele>1189.0</ele><time>2026-04-29T12:46:37Z</time></trkpt><trkpt lat="43.494999783346096" lon="12.659867183288645"><ele>1190.0</ele><time>2026-04-29T12:46:38Z</time></trkpt><trkpt lat="43.495019294246106" lon="12.660022549740619"><ele>1190.0</ele><time>2026-04-29T12:46:39Z</time></trkpt><trkpt lat="43.49503811805395" lon="12.660177266938117"><ele>1190.0</ele><time>2026-04-29T12:46:40Z</time></trkpt><trkpt lat="43.49505491480557" lon="12.660333163781235"><ele>1190.0</ele><time>2026-04-29T12:46:41Z</time></trkpt><trkpt lat="43.49507201532626" lon="12.660491166207112"><ele>1190.0</ele><time>2026-04-29T12:46:42Z</time></trkpt><trkpt lat="43.49508963128023" lon="12.660652668056015"><ele>1191.75</ele><time>2026-04-29T12:46:43Z</time></trkpt><trkpt lat="43.495107097591216" lon="12.66081031372445"><ele>1193.5</ele><time>2026-04-29T12:46:44Z</time></trkpt><trkpt lat="43.495140181980574" lon="12.660960956032511"><ele>1195.25</ele><time>2026-04-29T12:46:45Z</time></trkpt><trkpt lat="43.49515162447836" lon="12.66111855983034"><ele>1197.0</ele><time>2026-04-29T12:46:46Z</time></trkpt><trkpt lat="43.49514704075896" lon="12.66127550669625"><ele>1198.75</ele><time>2026-04-29T12:46:47Z</time></trkpt><trkpt lat="43.49515163343709" lon="12.661432371207143"><ele>1200.5</ele><time>2026-04-29T12:46:48Z</time></trkpt><trkpt lat="43.49516693939483" lon="12.661593418797137"><ele>1202.25</ele><time>2026-04-29T12:46:49Z</time></trkpt><trkpt lat="43.49517026929797" lon="12.661754192394516"><ele>1204.0</ele><time>2026-04-29T12:46:50Z</time></trkpt><trkpt lat="43.49517927053694" lon="12.66191472450519"><ele>1203.5</ele><time>2026-04-29T12:46:51Z</time></trkpt><trkpt lat="43.49516850032642" lon="12.662079286037002"><ele>1203.0</ele><time>2026-04-29T12:46:52Z</time></trkpt><trkpt lat="43.495173391507215" lon="12.66223993594122"><ele>1202.5</ele><time>2026-04-29T12:46:53Z</time></trkpt><trkpt lat="43.495180808793904" lon="12.662396892391463"><ele>1202.0</ele><time>2026-04-29T12:46:54Z</time></trkpt><trkpt lat="43.495189171039385" lon="12.662558884124282"><ele>1202.0</ele><time>2026-04-29T12:46:55Z</time></trkpt><trkpt lat="43.495212235140954" lon="12.662719390004485"><ele>1202.0</ele><time>2026-04-29T12:46:56Z</time></trkpt><trkpt lat="43.49521053211826" lon="12.662867816334307"><ele>1202.0</ele><time>2026-04-29T12:46:57Z</time></trkpt><trkpt lat="43.49521364949108" lon="12.662993981413273"><ele>1202.0</ele><time>2026-04-29T12:46:58Z</time></trkpt><trkpt lat="43.49521589261872" lon="12.663113271179238"><ele>1202.0</ele><time>2026-04-29T12:46:59Z</time></trkpt><trkpt lat="43.4952116680972" lon="12.663215908660222"><ele>1201.2</ele><time>2026-04-29T12:46:59.999Z</time></trkpt><trkpt lat="43.49519834040853" lon="12.663301601812654"><ele>1200.4</ele><time>2026-04-29T12:47:00.999Z</time></trkpt><trkpt lat="43.49512990309036" lon="12.663421895954011"><ele>1199.6</ele><time>2026-04-29T12:47:02.999Z</time></trkpt><trkpt lat="43.49502871528989" lon="12.663459509592657"><ele>1198.8</ele><time>2026-04-29T12:47:04.999Z</time></trkpt><trkpt lat="43.49489483724937" lon="12.663430580820117"><ele>1198.0</ele><time>2026-04-29T12:47:06.999Z</time></trkpt><trkpt lat="43.494830612885565" lon="12.663351227542458"><ele>1198.0</ele><time>2026-04-29T12:47:07.999Z</time></trkpt><trkpt lat="43.494757409450436" lon="12.663269431091752"><ele>1198.0</ele><time>2026-04-29T12:47:08.999Z</time></trkpt><trkpt lat="43.494675856552604" lon="12.663179247390188"><ele>1198.0</ele><time>2026-04-29T12:47:09.999Z</time></trkpt><trkpt lat="43.49459486921212" lon="12.663085243693706"><ele>1198.0</ele><time>2026-04-29T12:47:10.999Z</time></trkpt><trkpt lat="43.494503199847166" lon="12.662977205518972"><ele>1198.0</ele><time>2026-04-29T12:47:11.999Z</time></trkpt><trkpt lat="43.49440636274035" lon="12.662868348872447"><ele>1199.75</ele><time>2026-04-29T12:47:12.999Z</time></trkpt><trkpt lat="43.494308667625624" lon="12.6627608021509"><ele>1201.5</ele><time>2026-04-29T12:47:13.999Z</time></trkpt><trkpt lat="43.49420755908383" lon="12.662653236674227"><ele>1203.25</ele><time>2026-04-29T12:47:14.999Z</time></trkpt><trkpt lat="43.49410691830156" lon="12.662548214251093"><ele>1205.0</ele><time>2026-04-29T12:47:15.999Z</time></trkpt><trkpt lat="43.494006505668125" lon="12.66244602931998"><ele>1205.0</ele><time>2026-04-29T12:47:16.999Z</time></trkpt><trkpt lat="43.49390848247599" lon="12.662346295556054"><ele>1205.0</ele><time>2026-04-29T12:47:17.999Z</time></trkpt><trkpt lat="43.49380812077866" lon="12.662244182477071"><ele>1205.0</ele><time>2026-04-29T12:47:18.999Z</time></trkpt><trkpt lat="43.49370007838901" lon="12.662140516189098"><ele>1205.0</ele><time>2026-04-29T12:47:19.999Z</time></trkpt><trkpt lat="43.49359202985753" lon="12.662041465375035"><ele>1205.5</ele><time>2026-04-29T12:47:20.999Z</time></trkpt><trkpt lat="43.493480793213806" lon="12.661952499970033"><ele>1206.0</ele><time>2026-04-29T12:47:21.999Z</time></trkpt><trkpt lat="43.493363134960646" lon="12.661869584505897"><ele>1206.5</ele><time>2026-04-29T12:47:22.999Z</time></trkpt><trkpt lat="43.49325306952518" lon="12.661797124906437"><ele>1207.0</ele><time>2026-04-29T12:47:23.999Z</time></trkpt><trkpt lat="43.4931299404426" lon="12.661743090240911"><ele>1207.0</ele><time>2026-04-29T12:47:24.999Z</time></trkpt><trkpt lat="43.49301387473993" lon="12.66167659739997"><ele>1207.0</ele><time>2026-04-29T12:47:25.999Z</time></trkpt><trkpt lat="43.49290470989097" lon="12.66159020531862"><ele>1207.0</ele><time>2026-04-29T12:47:26.999Z</time></trkpt><trkpt lat="43.492790719836584" lon="12.661527720396748"><ele>1207.0</ele><time>2026-04-29T12:47:27.999Z</time></trkpt><trkpt lat="43.49267731320083" lon="12.66146658273082"><ele>1206.75</ele><time>2026-04-29T12:47:28.999Z</time></trkpt><trkpt lat="43.492566972372295" lon="12.661413665052567"><ele>1206.5</ele><time>2026-04-29T12:47:29.999Z</time></trkpt><trkpt lat="43.492458109474796" lon="12.661375095620826"><ele>1206.25</ele><time>2026-04-29T12:47:30.999Z</time></trkpt><trkpt lat="43.492337960234366" lon="12.661359299235388"><ele>1206.0</ele><time>2026-04-29T12:47:31.999Z</time></trkpt><trkpt lat="43.49221644632284" lon="12.661354830693297"><ele>1206.0</ele><time>2026-04-29T12:47:32.999Z</time></trkpt><trkpt lat="43.49209025287407" lon="12.661356037239232"><ele>1206.0</ele><time>2026-04-29T12:47:33.999Z</time></trkpt><trkpt lat="43.49196101414914" lon="12.661367834707898"><ele>1206.0</ele><time>2026-04-29T12:47:34.999Z</time></trkpt><trkpt lat="43.49182964370451" lon="12.661392194006812"><ele>1206.0</ele><time>2026-04-29T12:47:35.999Z</time></trkpt><trkpt lat="43.49170341039837" lon="12.661418132357369"><ele>1206.0</ele><time>2026-04-29T12:47:36.999Z</time></trkpt><trkpt lat="43.49157708962951" lon="12.661443428800029"><ele>1206.0</ele><time>2026-04-29T12:47:37.999Z</time></trkpt><trkpt lat="43.49145027335304" lon="12.661466893448454"><ele>1206.0</ele><time>2026-04-29T12:47:38.999Z</time></trkpt><trkpt lat="43.49132486359909" lon="12.661485399745933"><ele>1206.0</ele><time>2026-04-29T12:47:39.999Z</time></trkpt><trkpt lat="43.4911987563621" lon="12.661499391460728"><ele>1206.0</ele><time>2026-04-29T12:47:40.999Z</time></trkpt><trkpt lat="43.491069165988584" lon="12.661510522844805"><ele>1206.0</ele><time>2026-04-29T12:47:41.999Z</time></trkpt><trkpt lat="43.49094436612221" lon="12.661519627796183"><ele>1206.0</ele><time>2026-04-29T12:47:42.999Z</time></trkpt><trkpt lat="43.49081786865879" lon="12.661528412506108"><ele>1206.0</ele><time>2026-04-29T12:47:43.999Z</time></trkpt><trkpt lat="43.49069753017354" lon="12.661540648120265"><ele>1206.0</ele><time>2026-04-29T12:47:44.999Z</time></trkpt><trkpt lat="43.49059934655386" lon="12.661552713824495"><ele>1206.0</ele><time>2026-04-29T12:47:45.999Z</time></trkpt><trkpt lat="43.49050262717001" lon="12.661576935857203"><ele>1206.0</ele><time>2026-04-29T12:47:46.999Z</time></trkpt><trkpt lat="43.490416568026276" lon="12.661611411773075"><ele>1206.0</ele><time>2026-04-29T12:47:47.999Z</time></trkpt><trkpt lat="43.490325866932366" lon="12.661682583536486"><ele>1206.0</ele><time>2026-04-29T12:47:48.999Z</time></trkpt><trkpt lat="43.49026040826639" lon="12.661820289132706"><ele>1207.3999999999999</ele><time>2026-04-29T12:47:49.999Z</time></trkpt><trkpt lat="43.49020094528226" lon="12.661943985209469"><ele>1208.8</ele><time>2026-04-29T12:47:50.999Z</time></trkpt><trkpt lat="43.490133542796606" lon="12.66207169866439"><ele>1210.1999999999998</ele><time>2026-04-29T12:47:51.999Z</time></trkpt><trkpt lat="43.49006723318477" lon="12.662197341331245"><ele>1211.6</ele><time>2026-04-29T12:47:52.999Z</time></trkpt><trkpt lat="43.49000124172069" lon="12.662322381172066"><ele>1213.0</ele><time>2026-04-29T12:47:53.999Z</time></trkpt><trkpt lat="43.489934465124385" lon="12.662454348539818"><ele>1213.0</ele><time>2026-04-29T12:47:54.999Z</time></trkpt><trkpt lat="43.48986750637339" lon="12.662582760666448"><ele>1213.0</ele><time>2026-04-29T12:47:55.999Z</time></trkpt><trkpt lat="43.48979554182735" lon="12.662711894333423"><ele>1213.0</ele><time>2026-04-29T12:47:56.999Z</time></trkpt><trkpt lat="43.48972520790444" lon="12.662835821706965"><ele>1213.0</ele><time>2026-04-29T12:47:57.999Z</time></trkpt><trkpt lat="43.4896573024012" lon="12.662972951857043"><ele>1215.0</ele><time>2026-04-29T12:47:58.999Z</time></trkpt><trkpt lat="43.489568371325994" lon="12.663084880550766"><ele>1217.0</ele><time>2026-04-29T12:47:59.999Z</time></trkpt><trkpt lat="43.48947565067193" lon="12.663198306006652"><ele>1219.0</ele><time>2026-04-29T12:48:00.999Z</time></trkpt><trkpt lat="43.48936392697536" lon="12.663281666804668"><ele>1221.0</ele><time>2026-04-29T12:48:01.999Z</time></trkpt><trkpt lat="43.489267305934106" lon="12.663389829326642"><ele>1221.0</ele><time>2026-04-29T12:48:02.999Z</time></trkpt><trkpt lat="43.48915904856542" lon="12.663474115167908"><ele>1221.0</ele><time>2026-04-29T12:48:03.999Z</time></trkpt><trkpt lat="43.489043344655514" lon="12.663537850518525"><ele>1221.0</ele><time>2026-04-29T12:48:04.999Z</time></trkpt><trkpt lat="43.4889369318868" lon="12.663615304933412"><ele>1221.0</ele><time>2026-04-29T12:48:05.999Z</time></trkpt><trkpt lat="43.488830613497086" lon="12.663695294840451"><ele>1222.8</ele><time>2026-04-29T12:48:06.999Z</time></trkpt><trkpt lat="43.48872852396671" lon="12.663773249295264"><ele>1224.6</ele><time>2026-04-29T12:48:07.998Z</time></trkpt><trkpt lat="43.4886451446627" lon="12.663845883485068"><ele>1226.4</ele><time>2026-04-29T12:48:08.998Z</time></trkpt><trkpt lat="43.48856777649265" lon="12.663928038297618"><ele>1228.2</ele><time>2026-04-29T12:48:09.998Z</time></trkpt><trkpt lat="43.48850257861774" lon="12.664030099347906"><ele>1230.0</ele><time>2026-04-29T12:48:10.998Z</time></trkpt><trkpt lat="43.48847316436194" lon="12.664167313932778"><ele>1230.0</ele><time>2026-04-29T12:48:11.998Z</time></trkpt><trkpt lat="43.48844396443998" lon="12.66430476659997"><ele>1230.0</ele><time>2026-04-29T12:48:12.998Z</time></trkpt><trkpt lat="43.48840302085363" lon="12.664453386006745"><ele>1230.0</ele><time>2026-04-29T12:48:13.998Z</time></trkpt><trkpt lat="43.48837155849647" lon="12.664598833408748"><ele>1230.0</ele><time>2026-04-29T12:48:14.998Z</time></trkpt><trkpt lat="43.48832255957347" lon="12.664729767634404"><ele>1230.0</ele><time>2026-04-29T12:48:15.998Z</time></trkpt><trkpt lat="43.48827074979659" lon="12.66486403987885"><ele>1230.0</ele><time>2026-04-29T12:48:16.998Z</time></trkpt><trkpt lat="43.48821720564747" lon="12.66500214642552"><ele>1230.0</ele><time>2026-04-29T12:48:17.998Z</time></trkpt><trkpt lat="43.4881636093459" lon="12.66514299901016"><ele>1230.0</ele><time>2026-04-29T12:48:18.998Z</time></trkpt><trkpt lat="43.48810159164797" lon="12.665274213947635"><ele>1230.0</ele><time>2026-04-29T12:48:19.998Z</time></trkpt><trkpt lat="43.48803737332973" lon="12.665405137307856"><ele>1228.0</ele><time>2026-04-29T12:48:20.998Z</time></trkpt><trkpt lat="43.48797891004818" lon="12.665549358007995"><ele>1226.0</ele><time>2026-04-29T12:48:21.998Z</time></trkpt><trkpt lat="43.48792273630608" lon="12.665695672530674"><ele>1224.0</ele><time>2026-04-29T12:48:22.998Z</time></trkpt><trkpt lat="43.487861619169294" lon="12.665845587053695"><ele>1222.0</ele><time>2026-04-29T12:48:23.998Z</time></trkpt><trkpt lat="43.48780588123866" lon="12.665996967302206"><ele>1226.25</ele><time>2026-04-29T12:48:25Z</time></trkpt><trkpt lat="43.4877554762347" lon="12.666155076947716"><ele>1230.5</ele><time>2026-04-29T12:48:26Z</time></trkpt><trkpt lat="43.48771317048882" lon="12.666315580677344"><ele>1234.75</ele><time>2026-04-29T12:48:27Z</time></trkpt><trkpt lat="43.48767151025379" lon="12.666475820469845"><ele>1239.0</ele><time>2026-04-29T12:48:28Z</time></trkpt><trkpt lat="43.48760977458107" lon="12.666615402355221"><ele>1239.0</ele><time>2026-04-29T12:48:29Z</time></trkpt><trkpt lat="43.48755347721401" lon="12.666741294648357"><ele>1239.0</ele><time>2026-04-29T12:48:30Z</time></trkpt><trkpt lat="43.48748431294386" lon="12.66684346503451"><ele>1239.0</ele><time>2026-04-29T12:48:31Z</time></trkpt><trkpt lat="43.4874000188884" lon="12.66693982019552"><ele>1239.0</ele><time>2026-04-29T12:48:32Z</time></trkpt><trkpt lat="43.48731164369665" lon="12.667046065866373"><ele>1239.0</ele><time>2026-04-29T12:48:33Z</time></trkpt><trkpt lat="43.487226486379335" lon="12.66714640205612"><ele>1238.0</ele><time>2026-04-29T12:48:34Z</time></trkpt><trkpt lat="43.48715333903412" lon="12.667209170497415"><ele>1237.0</ele><time>2026-04-29T12:48:35Z</time></trkpt><trkpt lat="43.48709161294257" lon="12.667273481902376"><ele>1236.0</ele><time>2026-04-29T12:48:36Z</time></trkpt><trkpt lat="43.487033153166365" lon="12.667325594863689"><ele>1235.0</ele><time>2026-04-29T12:48:37Z</time></trkpt><trkpt lat="43.48697042370667" lon="12.667368444273956"><ele>1234.0</ele><time>2026-04-29T12:48:38Z</time></trkpt><trkpt lat="43.48684632522465" lon="12.667368073932018"><ele>1233.0</ele><time>2026-04-29T12:48:40Z</time></trkpt><trkpt lat="43.48675543112702" lon="12.667343816909854"><ele>1233.0</ele><time>2026-04-29T12:48:41Z</time></trkpt><trkpt lat="43.4866595808287" lon="12.667317264013102"><ele>1233.0</ele><time>2026-04-29T12:48:42Z</time></trkpt><trkpt lat="43.48655537055134" lon="12.667283810829991"><ele>1233.0</ele><time>2026-04-29T12:48:43Z</time></trkpt><trkpt lat="43.48644778030317" lon="12.667243276928215"><ele>1233.0</ele><time>2026-04-29T12:48:44Z</time></trkpt><trkpt lat="43.48634221013422" lon="12.667194096865114"><ele>1233.0</ele><time>2026-04-29T12:48:45Z</time></trkpt><trkpt lat="43.48623972403515" lon="12.667142792109107"><ele>1231.0</ele><time>2026-04-29T12:48:46Z</time></trkpt><trkpt lat="43.48613312567513" lon="12.667089403618988"><ele>1229.0</ele><time>2026-04-29T12:48:47Z</time></trkpt><trkpt lat="43.486028765030824" lon="12.667035366281125"><ele>1227.0</ele><time>2026-04-29T12:48:48Z</time></trkpt><trkpt lat="43.48591747348876" lon="12.667001248316495"><ele>1225.0</ele><time>2026-04-29T12:48:49Z</time></trkpt><trkpt lat="43.48581279591546" lon="12.666939877368545"><ele>1230.0</ele><time>2026-04-29T12:48:50Z</time></trkpt><trkpt lat="43.48570074792609" lon="12.66689260282964"><ele>1235.0</ele><time>2026-04-29T12:48:51Z</time></trkpt><trkpt lat="43.485585782547076" lon="12.666832391120876"><ele>1240.0</ele><time>2026-04-29T12:48:52Z</time></trkpt><trkpt lat="43.48546602318807" lon="12.666775544734918"><ele>1245.0</ele><time>2026-04-29T12:48:53Z</time></trkpt><trkpt lat="43.48534766304438" lon="12.66670011672294"><ele>1245.0</ele><time>2026-04-29T12:48:54Z</time></trkpt><trkpt lat="43.48522463691672" lon="12.666646105872925"><ele>1245.0</ele><time>2026-04-29T12:48:55Z</time></trkpt><trkpt lat="43.485101578335126" lon="12.666596986713339"><ele>1245.0</ele><time>2026-04-29T12:48:56Z</time></trkpt><trkpt lat="43.48497937018904" lon="12.666550543670454"><ele>1245.0</ele><time>2026-04-29T12:48:57Z</time></trkpt><trkpt lat="43.48484954882514" lon="12.666522117126622"><ele>1245.0</ele><time>2026-04-29T12:48:58Z</time></trkpt><trkpt lat="43.48472192953434" lon="12.66647197596495"><ele>1245.0</ele><time>2026-04-29T12:48:59Z</time></trkpt><trkpt lat="43.48459729199807" lon="12.666402255703579"><ele>1245.0</ele><time>2026-04-29T12:49:00Z</time></trkpt><trkpt lat="43.484471340845644" lon="12.666359446135532"><ele>1245.0</ele><time>2026-04-29T12:49:01Z</time></trkpt><trkpt lat="43.48434220102444" lon="12.666316604127577"><ele>1242.5</ele><time>2026-04-29T12:49:02Z</time></trkpt><trkpt lat="43.484216819009966" lon="12.666268152266472"><ele>1240.0</ele><time>2026-04-29T12:49:03Z</time></trkpt><trkpt lat="43.48409295027825" lon="12.66621375622193"><ele>1237.5</ele><time>2026-04-29T12:49:04Z</time></trkpt><trkpt lat="43.483971861239645" lon="12.666164093414231"><ele>1235.0</ele><time>2026-04-29T12:49:05Z</time></trkpt><trkpt lat="43.48384516996632" lon="12.666118896128447"><ele>1238.75</ele><time>2026-04-29T12:49:06Z</time></trkpt><trkpt lat="43.483713926525255" lon="12.666094642117631"><ele>1242.5</ele><time>2026-04-29T12:49:07Z</time></trkpt><trkpt lat="43.48358060672825" lon="12.666048609705227"><ele>1246.25</ele><time>2026-04-29T12:49:08Z</time></trkpt><trkpt lat="43.48345462397658" lon="12.66600999512295"><ele>1250.0</ele><time>2026-04-29T12:49:09Z</time></trkpt><trkpt lat="43.48333255943024" lon="12.665953835155833"><ele>1250.0</ele><time>2026-04-29T12:49:10Z</time></trkpt><trkpt lat="43.48319992399823" lon="12.665912499311158"><ele>1250.0</ele><time>2026-04-29T12:49:11Z</time></trkpt><trkpt lat="43.48308020383546" lon="12.66587518696305"><ele>1250.0</ele><time>2026-04-29T12:49:12Z</time></trkpt><trkpt lat="43.48294217941498" lon="12.665831717867823"><ele>1250.0</ele><time>2026-04-29T12:49:13Z</time></trkpt><trkpt lat="43.4828207290781" lon="12.665789209958707"><ele>1245.25</ele><time>2026-04-29T12:49:14Z</time></trkpt><trkpt lat="43.48268866463061" lon="12.665741642299016"><ele>1240.5</ele><time>2026-04-29T12:49:14.999Z</time></trkpt><trkpt lat="43.48255912313001" lon="12.66571783389287"><ele>1235.75</ele><time>2026-04-29T12:49:15.999Z</time></trkpt><trkpt lat="43.48242795561168" lon="12.665666647924958"><ele>1231.0</ele><time>2026-04-29T12:49:16.999Z</time></trkpt><trkpt lat="43.482299227765225" lon="12.665622250292877"><ele>1231.0</ele><time>2026-04-29T12:49:17.999Z</time></trkpt><trkpt lat="43.48216871842183" lon="12.665568554032903"><ele>1231.0</ele><time>2026-04-29T12:49:18.999Z</time></trkpt><trkpt lat="43.48203829109188" lon="12.66551022994874"><ele>1231.0</ele><time>2026-04-29T12:49:19.999Z</time></trkpt><trkpt lat="43.48190249757895" lon="12.66545263726996"><ele>1231.0</ele><time>2026-04-29T12:49:20.999Z</time></trkpt><trkpt lat="43.481780652203895" lon="12.665395744134504"><ele>1227.25</ele><time>2026-04-29T12:49:21.999Z</time></trkpt><trkpt lat="43.48165885924101" lon="12.665333485353697"><ele>1223.5</ele><time>2026-04-29T12:49:22.999Z</time></trkpt><trkpt lat="43.481550544201355" lon="12.665278185196255"><ele>1219.75</ele><time>2026-04-29T12:49:23.999Z</time></trkpt><trkpt lat="43.48143973022804" lon="12.66522115852321"><ele>1216.0</ele><time>2026-04-29T12:49:24.999Z</time></trkpt><trkpt lat="43.48134100952148" lon="12.66517802009348"><ele>1219.75</ele><time>2026-04-29T12:49:25.999Z</time></trkpt><trkpt lat="43.481227065910254" lon="12.665114043970798"><ele>1223.5</ele><time>2026-04-29T12:49:26.999Z</time></trkpt><trkpt lat="43.48111509055178" lon="12.665059598079026"><ele>1227.25</ele><time>2026-04-29T12:49:27.999Z</time></trkpt><trkpt lat="43.4810008698918" lon="12.664993482631214"><ele>1231.0</ele><time>2026-04-29T12:49:28.999Z</time></trkpt><trkpt lat="43.480888807137426" lon="12.66492433863317"><ele>1231.0</ele><time>2026-04-29T12:49:29.999Z</time></trkpt><trkpt lat="43.480773908917875" lon="12.664856781282454"><ele>1231.0</ele><time>2026-04-29T12:49:30.999Z</time></trkpt><trkpt lat="43.48065657813717" lon="12.664812167335167"><ele>1231.0</ele><time>2026-04-29T12:49:31.999Z</time></trkpt><trkpt lat="43.48053231024592" lon="12.664755105583394"><ele>1231.0</ele><time>2026-04-29T12:49:32.999Z</time></trkpt><trkpt lat="43.48041057263473" lon="12.664705549715476"><ele>1228.25</ele><time>2026-04-29T12:49:33.999Z</time></trkpt><trkpt lat="43.480289201068906" lon="12.664645272717522"><ele>1225.5</ele><time>2026-04-29T12:49:34.999Z</time></trkpt><trkpt lat="43.48016761460748" lon="12.664583527860175"><ele>1222.75</ele><time>2026-04-29T12:49:35.999Z</time></trkpt><trkpt lat="43.480047168556425" lon="12.66452901123225"><ele>1220.0</ele><time>2026-04-29T12:49:36.999Z</time></trkpt><trkpt lat="43.479926796640996" lon="12.664472391083233"><ele>1222.25</ele><time>2026-04-29T12:49:37.999Z</time></trkpt><trkpt lat="43.47980689514715" lon="12.66441037221194"><ele>1224.5</ele><time>2026-04-29T12:49:38.999Z</time></trkpt><trkpt lat="43.47969110481975" lon="12.664343254509518"><ele>1226.75</ele><time>2026-04-29T12:49:39.999Z</time></trkpt><trkpt lat="43.47957275775685" lon="12.664248407005156"><ele>1229.0</ele><time>2026-04-29T12:49:40.999Z</time></trkpt><trkpt lat="43.47944458850844" lon="12.664190595921331"><ele>1229.0</ele><time>2026-04-29T12:49:41.999Z</time></trkpt><trkpt lat="43.479340670496036" lon="12.664117115225553"><ele>1229.0</ele><time>2026-04-29T12:49:42.999Z</time></trkpt><trkpt lat="43.479232015443905" lon="12.664053173571034"><ele>1229.0</ele><time>2026-04-29T12:49:43.999Z</time></trkpt><trkpt lat="43.479122936360596" lon="12.663987931508206"><ele>1229.0</ele><time>2026-04-29T12:49:44.999Z</time></trkpt><trkpt lat="43.47902310876246" lon="12.663933279991559"><ele>1229.0</ele><time>2026-04-29T12:49:45.999Z</time></trkpt><trkpt lat="43.47893180166479" lon="12.663888549659262"><ele>1229.0</ele><time>2026-04-29T12:49:46.999Z</time></trkpt><trkpt lat="43.47883405854002" lon="12.663833533419167"><ele>1229.0</ele><time>2026-04-29T12:49:47.999Z</time></trkpt><trkpt lat="43.478734768927296" lon="12.66377578261368"><ele>1229.0</ele><time>2026-04-29T12:49:48.999Z</time></trkpt><trkpt lat="43.478643419934336" lon="12.663704561206554"><ele>1229.0</ele><time>2026-04-29T12:49:49.999Z</time></trkpt><trkpt lat="43.478558780239595" lon="12.663620873179868"><ele>1227.6000000000001</ele><time>2026-04-29T12:49:50.999Z</time></trkpt><trkpt lat="43.47848811293906" lon="12.663531629514178"><ele>1226.2</ele><time>2026-04-29T12:49:51.999Z</time></trkpt><trkpt lat="43.478418887536776" lon="12.663440019985853"><ele>1224.8000000000002</ele><time>2026-04-29T12:49:52.999Z</time></trkpt><trkpt lat="43.47835272507086" lon="12.66334967467619"><ele>1223.4</ele><time>2026-04-29T12:49:53.999Z</time></trkpt><trkpt lat="43.47828039814262" lon="12.663273570642533"><ele>1222.0</ele><time>2026-04-29T12:49:54.999Z</time></trkpt><trkpt lat="43.47819430149037" lon="12.663213608996578"><ele>1222.0</ele><time>2026-04-29T12:49:55.999Z</time></trkpt><trkpt lat="43.478095178314966" lon="12.66315650521051"><ele>1222.0</ele><time>2026-04-29T12:49:56.999Z</time></trkpt><trkpt lat="43.47798586040379" lon="12.6631084592572"><ele>1222.0</ele><time>2026-04-29T12:49:57.999Z</time></trkpt><trkpt lat="43.477871285073256" lon="12.663062056038873"><ele>1222.0</ele><time>2026-04-29T12:49:58.999Z</time></trkpt><trkpt lat="43.477751319695564" lon="12.663022835838937"><ele>1220.25</ele><time>2026-04-29T12:49:59.999Z</time></trkpt><trkpt lat="43.47763544876025" lon="12.662987308293454"><ele>1218.5</ele><time>2026-04-29T12:50:00.999Z</time></trkpt><trkpt lat="43.47752690810783" lon="12.662949279738143"><ele>1216.75</ele><time>2026-04-29T12:50:01.999Z</time></trkpt><trkpt lat="43.47741426730556" lon="12.662909761725643"><ele>1215.0</ele><time>2026-04-29T12:50:02.999Z</time></trkpt><trkpt lat="43.47729706710747" lon="12.662866678654675"><ele>1215.0</ele><time>2026-04-29T12:50:03.999Z</time></trkpt><trkpt lat="43.47717689215732" lon="12.662823138539272"><ele>1215.0</ele><time>2026-04-29T12:50:04.999Z</time></trkpt><trkpt lat="43.47706499157781" lon="12.662784179305508"><ele>1215.0</ele><time>2026-04-29T12:50:05.999Z</time></trkpt><trkpt lat="43.47696242282412" lon="12.662742291656485"><ele>1215.0</ele><time>2026-04-29T12:50:06.999Z</time></trkpt><trkpt lat="43.47687170251388" lon="12.662704311315393"><ele>1215.0</ele><time>2026-04-29T12:50:07.999Z</time></trkpt><trkpt lat="43.476784518612476" lon="12.662679124129498"><ele>1212.0</ele><time>2026-04-29T12:50:08.999Z</time></trkpt><trkpt lat="43.476700777876445" lon="12.662627262849469"><ele>1209.0</ele><time>2026-04-29T12:50:09.999Z</time></trkpt><trkpt lat="43.476603909689935" lon="12.662602214019248"><ele>1206.0</ele><time>2026-04-29T12:50:10.999Z</time></trkpt><trkpt lat="43.476514400077036" lon="12.662586466075506"><ele>1203.0</ele><time>2026-04-29T12:50:11.999Z</time></trkpt><trkpt lat="43.47641524927937" lon="12.662578028210634"><ele>1200.0</ele><time>2026-04-29T12:50:12.999Z</time></trkpt><trkpt lat="43.47630803228041" lon="12.662576559881035"><ele>1199.0</ele><time>2026-04-29T12:50:13.999Z</time></trkpt><trkpt lat="43.47621177334986" lon="12.662579943334935"><ele>1198.0</ele><time>2026-04-29T12:50:14.999Z</time></trkpt><trkpt lat="43.4761128387529" lon="12.66259094247302"><ele>1197.0</ele><time>2026-04-29T12:50:15.999Z</time></trkpt><trkpt lat="43.47600247303596" lon="12.662608830394184"><ele>1196.0</ele><time>2026-04-29T12:50:16.999Z</time></trkpt><trkpt lat="43.475895783924095" lon="12.66263821435688"><ele>1195.0</ele><time>2026-04-29T12:50:17.999Z</time></trkpt><trkpt lat="43.475783197979304" lon="12.66268377381892"><ele>1195.0</ele><time>2026-04-29T12:50:18.999Z</time></trkpt><trkpt lat="43.475674316675686" lon="12.662742964902975"><ele>1195.0</ele><time>2026-04-29T12:50:19.999Z</time></trkpt><trkpt lat="43.47556864585474" lon="12.662812531842636"><ele>1195.0</ele><time>2026-04-29T12:50:20.998Z</time></trkpt><trkpt lat="43.475465577680495" lon="12.662898388728427"><ele>1195.0</ele><time>2026-04-29T12:50:21.998Z</time></trkpt><trkpt lat="43.47536867815659" lon="12.662985486398084"><ele>1195.0</ele><time>2026-04-29T12:50:22.998Z</time></trkpt><trkpt lat="43.47528134102826" lon="12.663071323234911"><ele>1195.0</ele><time>2026-04-29T12:50:23.998Z</time></trkpt><trkpt lat="43.475196672451986" lon="12.663153619077425"><ele>1195.0</ele><time>2026-04-29T12:50:24.998Z</time></trkpt><trkpt lat="43.47509412871468" lon="12.663209707853369"><ele>1195.0</ele><time>2026-04-29T12:50:25.998Z</time></trkpt><trkpt lat="43.47498872864275" lon="12.663249605633364"><ele>1195.0</ele><time>2026-04-29T12:50:26.998Z</time></trkpt><trkpt lat="43.47487258852066" lon="12.66325019059421"><ele>1195.0</ele><time>2026-04-29T12:50:27.998Z</time></trkpt><trkpt lat="43.47475444833504" lon="12.663252456414563"><ele>1195.0</ele><time>2026-04-29T12:50:28.998Z</time></trkpt><trkpt lat="43.47463335819796" lon="12.663268656032907"><ele>1195.0</ele><time>2026-04-29T12:50:29.998Z</time></trkpt><trkpt lat="43.47451090905039" lon="12.66327338996836"><ele>1195.0</ele><time>2026-04-29T12:50:31Z</time></trkpt><trkpt lat="43.474394619868185" lon="12.663254812655289"><ele>1192.8</ele><time>2026-04-29T12:50:32Z</time></trkpt><trkpt lat="43.4742856673193" lon="12.663277784265086"><ele>1190.6</ele><time>2026-04-29T12:50:33Z</time></trkpt><trkpt lat="43.47417672271122" lon="12.663272524519787"><ele>1188.4</ele><time>2026-04-29T12:50:34Z</time></trkpt><trkpt lat="43.474072219602455" lon="12.663271064822721"><ele>1186.2</ele><time>2026-04-29T12:50:35Z</time></trkpt><trkpt lat="43.47398159792779" lon="12.66327106026556"><ele>1184.0</ele><time>2026-04-29T12:50:36Z</time></trkpt><trkpt lat="43.47389691920287" lon="12.663282695044998"><ele>1184.0</ele><time>2026-04-29T12:50:37Z</time></trkpt><trkpt lat="43.47381740348064" lon="12.663274848212385"><ele>1184.0</ele><time>2026-04-29T12:50:38Z</time></trkpt><trkpt lat="43.47374475749483" lon="12.663314351831987"><ele>1184.0</ele><time>2026-04-29T12:50:39Z</time></trkpt><trkpt lat="43.47369214588484" lon="12.66337644753674"><ele>1184.0</ele><time>2026-04-29T12:50:40Z</time></trkpt><trkpt lat="43.4736618977968" lon="12.663474696687878"><ele>1184.0</ele><time>2026-04-29T12:50:41Z</time></trkpt><trkpt lat="43.47367795176852" lon="12.663591136939951"><ele>1184.0</ele><time>2026-04-29T12:50:42Z</time></trkpt><trkpt lat="43.473755199043715" lon="12.66367306494517"><ele>1183.6000000000001</ele><time>2026-04-29T12:50:43Z</time></trkpt><trkpt lat="43.47381991845724" lon="12.663741304384557"><ele>1183.2</ele><time>2026-04-29T12:50:44Z</time></trkpt><trkpt lat="43.4739074571658" lon="12.663789504711307"><ele>1182.8000000000002</ele><time>2026-04-29T12:50:45Z</time></trkpt><trkpt lat="43.47400379301785" lon="12.663822625842565"><ele>1182.4</ele><time>2026-04-29T12:50:46Z</time></trkpt><trkpt lat="43.474112125954484" lon="12.663846199045489"><ele>1182.0</ele><time>2026-04-29T12:50:47Z</time></trkpt><trkpt lat="43.47421873201528" lon="12.663880516375485"><ele>1182.0</ele><time>2026-04-29T12:50:48Z</time></trkpt><trkpt lat="43.47431538175464" lon="12.663897395893294"><ele>1182.0</ele><time>2026-04-29T12:50:49Z</time></trkpt><trkpt lat="43.47439986231662" lon="12.663907719139015"><ele>1182.0</ele><time>2026-04-29T12:50:50Z</time></trkpt><trkpt lat="43.474474764775366" lon="12.66393238198971"><ele>1182.0</ele><time>2026-04-29T12:50:51Z</time></trkpt><trkpt lat="43.474538145752994" lon="12.663960066841804"><ele>1182.0</ele><time>2026-04-29T12:50:52Z</time></trkpt><trkpt lat="43.47459121386891" lon="12.664035273752134"><ele>1182.0</ele><time>2026-04-29T12:50:54Z</time></trkpt><trkpt lat="43.474537796622705" lon="12.664111741393267"><ele>1182.0</ele><time>2026-04-29T12:50:57Z</time></trkpt><trkpt lat="43.47445131319129" lon="12.664130343670825"><ele>1182.0</ele><time>2026-04-29T12:51:00Z</time></trkpt><trkpt lat="43.474376653222116" lon="12.664136491296643"><ele>1182.0</ele><time>2026-04-29T12:51:02Z</time></trkpt><trkpt lat="43.47428632487299" lon="12.664088600230235"><ele>1182.0</ele><time>2026-04-29T12:51:04Z</time></trkpt><trkpt lat="43.47421507816425" lon="12.664078770732448"><ele>1182.0</ele><time>2026-04-29T12:51:05Z</time></trkpt><trkpt lat="43.47414440589435" lon="12.664085276360991"><ele>1182.0</ele><time>2026-04-29T12:51:06Z</time></trkpt><trkpt lat="43.47407554898408" lon="12.664115921312664"><ele>1182.0</ele><time>2026-04-29T12:51:07Z</time></trkpt><trkpt lat="43.47401862434472" lon="12.664165510250657"><ele>1182.0</ele><time>2026-04-29T12:51:08Z</time></trkpt><trkpt lat="43.47396397197493" lon="12.664238764563786"><ele>1182.0</ele><time>2026-04-29T12:51:09Z</time></trkpt><trkpt lat="43.473935363820296" lon="12.664357011508258"><ele>1182.0</ele><time>2026-04-29T12:51:10Z</time></trkpt><trkpt lat="43.47390562539065" lon="12.664478068328972"><ele>1182.0</ele><time>2026-04-29T12:51:11Z</time></trkpt><trkpt lat="43.473869968025475" lon="12.664602294105372"><ele>1182.0</ele><time>2026-04-29T12:51:12Z</time></trkpt><trkpt lat="43.473833840509776" lon="12.664708381850494"><ele>1179.6666666666667</ele><time>2026-04-29T12:51:13Z</time></trkpt><trkpt lat="43.47379110664474" lon="12.664792272266784"><ele>1177.3333333333333</ele><time>2026-04-29T12:51:14Z</time></trkpt><trkpt lat="43.473731292392706" lon="12.664843223687225"><ele>1175.0</ele><time>2026-04-29T12:51:15Z</time></trkpt><trkpt lat="43.473656236954184" lon="12.66485837452895"><ele>1172.6666666666665</ele><time>2026-04-29T12:51:16Z</time></trkpt><trkpt lat="43.47357089205463" lon="12.664895455952395"><ele>1170.3333333333333</ele><time>2026-04-29T12:51:17Z</time></trkpt><trkpt lat="43.47347322316337" lon="12.664932442631564"><ele>1168.0</ele><time>2026-04-29T12:51:18Z</time></trkpt><trkpt lat="43.473375823627016" lon="12.664955177375882"><ele>1168.0</ele><time>2026-04-29T12:51:18.999Z</time></trkpt><trkpt lat="43.47328317120358" lon="12.66497522515628"><ele>1168.0</ele><time>2026-04-29T12:51:19.999Z</time></trkpt><trkpt lat="43.47319464335438" lon="12.664977156595635"><ele>1168.0</ele><time>2026-04-29T12:51:20.999Z</time></trkpt><trkpt lat="43.47310549611811" lon="12.664965343067175"><ele>1168.0</ele><time>2026-04-29T12:51:21.999Z</time></trkpt><trkpt lat="43.47301582557174" lon="12.664958153011291"><ele>1168.0</ele><time>2026-04-29T12:51:22.999Z</time></trkpt><trkpt lat="43.47293715114369" lon="12.66490625561285"><ele>1168.0</ele><time>2026-04-29T12:51:23.999Z</time></trkpt><trkpt lat="43.4728895547828" lon="12.664847187818747"><ele>1167.3333333333333</ele><time>2026-04-29T12:51:24.999Z</time></trkpt><trkpt lat="43.47287518567764" lon="12.664756210100693"><ele>1166.6666666666665</ele><time>2026-04-29T12:51:25.999Z</time></trkpt><trkpt lat="43.47280878285901" lon="12.664637285528539"><ele>1166.0</ele><time>2026-04-29T12:51:27.999Z</time></trkpt><trkpt lat="43.472711307896205" lon="12.664572648608626"><ele>1165.3333333333333</ele><time>2026-04-29T12:51:29.999Z</time></trkpt><trkpt lat="43.47263679297837" lon="12.664592396467938"><ele>1164.6666666666667</ele><time>2026-04-29T12:51:30.999Z</time></trkpt><trkpt lat="43.472581026331" lon="12.6646866905067"><ele>1164.0</ele><time>2026-04-29T12:51:31.999Z</time></trkpt><trkpt lat="43.47254941253209" lon="12.664799344705681"><ele>1164.0</ele><time>2026-04-29T12:51:32.999Z</time></trkpt><trkpt lat="43.47253492290138" lon="12.664924802669393"><ele>1164.0</ele><time>2026-04-29T12:51:33.999Z</time></trkpt><trkpt lat="43.47251835881504" lon="12.665026445916812"><ele>1164.0</ele><time>2026-04-29T12:51:34.999Z</time></trkpt><trkpt lat="43.47249200983406" lon="12.665111154254141"><ele>1164.0</ele><time>2026-04-29T12:51:35.999Z</time></trkpt><trkpt lat="43.47244536432008" lon="12.665187203291454"><ele>1164.0</ele><time>2026-04-29T12:51:36.999Z</time></trkpt><trkpt lat="43.47237652907897" lon="12.665245646676937"><ele>1164.0</ele><time>2026-04-29T12:51:37.999Z</time></trkpt><trkpt lat="43.47228610798501" lon="12.665318803006189"><ele>1160.75</ele><time>2026-04-29T12:51:38.999Z</time></trkpt><trkpt lat="43.472180569529414" lon="12.665396865869603"><ele>1157.5</ele><time>2026-04-29T12:51:39.999Z</time></trkpt><trkpt lat="43.472058528624714" lon="12.665484181758819"><ele>1154.25</ele><time>2026-04-29T12:51:40.999Z</time></trkpt><trkpt lat="43.4719400759459" lon="12.665571395013885"><ele>1151.0</ele><time>2026-04-29T12:51:41.999Z</time></trkpt><trkpt lat="43.4718298331591" lon="12.665652298932795"><ele>1151.0</ele><time>2026-04-29T12:51:42.999Z</time></trkpt><trkpt lat="43.47171811139419" lon="12.665733585337398"><ele>1151.0</ele><time>2026-04-29T12:51:43.999Z</time></trkpt><trkpt lat="43.47160511724769" lon="12.665809600370041"><ele>1151.0</ele><time>2026-04-29T12:51:44.999Z</time></trkpt><trkpt lat="43.47149775791115" lon="12.665881824651578"><ele>1151.0</ele><time>2026-04-29T12:51:45.999Z</time></trkpt><trkpt lat="43.47138347588748" lon="12.665962502608652"><ele>1150.75</ele><time>2026-04-29T12:51:46.999Z</time></trkpt><trkpt lat="43.47126890810035" lon="12.666043971147332"><ele>1150.5</ele><time>2026-04-29T12:51:47.999Z</time></trkpt><trkpt lat="43.471160505635495" lon="12.666123066716022"><ele>1150.25</ele><time>2026-04-29T12:51:48.999Z</time></trkpt><trkpt lat="43.47105403928821" lon="12.666200749608338"><ele>1150.0</ele><time>2026-04-29T12:51:49.999Z</time></trkpt><trkpt lat="43.47095142756842" lon="12.666294094719726"><ele>1150.0</ele><time>2026-04-29T12:51:50.999Z</time></trkpt><trkpt lat="43.470834103942096" lon="12.666354119966392"><ele>1150.0</ele><time>2026-04-29T12:51:51.999Z</time></trkpt><trkpt lat="43.4707327104873" lon="12.666422965592416"><ele>1150.0</ele><time>2026-04-29T12:51:52.999Z</time></trkpt><trkpt lat="43.47064861100131" lon="12.66647460954856"><ele>1150.0</ele><time>2026-04-29T12:51:53.999Z</time></trkpt><trkpt lat="43.47056411855073" lon="12.666523926411811"><ele>1150.0</ele><time>2026-04-29T12:51:54.999Z</time></trkpt><trkpt lat="43.47049561588217" lon="12.666581694216692"><ele>1151.6</ele><time>2026-04-29T12:51:55.999Z</time></trkpt><trkpt lat="43.470426907387775" lon="12.666607977581856"><ele>1153.2</ele><time>2026-04-29T12:51:56.999Z</time></trkpt><trkpt lat="43.47036963663957" lon="12.666653697071672"><ele>1154.8</ele><time>2026-04-29T12:51:57.999Z</time></trkpt><trkpt lat="43.47031411849944" lon="12.666695589159602"><ele>1156.4</ele><time>2026-04-29T12:51:58.999Z</time></trkpt><trkpt lat="43.47027423499665" lon="12.66685448005429"><ele>1158.0</ele><time>2026-04-29T12:52:00.999Z</time></trkpt><trkpt lat="43.47035027508317" lon="12.666999208650127"><ele>1159.0</ele><time>2026-04-29T12:52:02.999Z</time></trkpt><trkpt lat="43.470409702218056" lon="12.667048927483089"><ele>1160.0</ele><time>2026-04-29T12:52:03.999Z</time></trkpt><trkpt lat="43.47047920525788" lon="12.667081674595044"><ele>1161.0</ele><time>2026-04-29T12:52:04.999Z</time></trkpt><trkpt lat="43.47055493687184" lon="12.667108446169046"><ele>1162.0</ele><time>2026-04-29T12:52:05.999Z</time></trkpt><trkpt lat="43.47062835133572" lon="12.667137432516254"><ele>1163.0</ele><time>2026-04-29T12:52:06.999Z</time></trkpt><trkpt lat="43.470700867481135" lon="12.667166064194642"><ele>1164.0</ele><time>2026-04-29T12:52:07.999Z</time></trkpt><trkpt lat="43.47077513666965" lon="12.667195545971952"><ele>1164.0</ele><time>2026-04-29T12:52:08.999Z</time></trkpt><trkpt lat="43.47086045540081" lon="12.66723109096075"><ele>1164.0</ele><time>2026-04-29T12:52:09.999Z</time></trkpt><trkpt lat="43.470947920118576" lon="12.667266387515541"><ele>1164.0</ele><time>2026-04-29T12:52:10.999Z</time></trkpt><trkpt lat="43.47102880475517" lon="12.667295232571226"><ele>1164.0</ele><time>2026-04-29T12:52:11.999Z</time></trkpt><trkpt lat="43.471099937776394" lon="12.667318966251635"><ele>1164.0</ele><time>2026-04-29T12:52:12.999Z</time></trkpt><trkpt lat="43.471170210186905" lon="12.667342412781542"><ele>1164.0</ele><time>2026-04-29T12:52:13.999Z</time></trkpt><trkpt lat="43.47124519230432" lon="12.667353530998243"><ele>1162.8333333333333</ele><time>2026-04-29T12:52:14.999Z</time></trkpt><trkpt lat="43.471307340039274" lon="12.66737771237889"><ele>1161.6666666666667</ele><time>2026-04-29T12:52:15.999Z</time></trkpt><trkpt lat="43.47143226665777" lon="12.667419018991412"><ele>1160.5</ele><time>2026-04-29T12:52:17.999Z</time></trkpt><trkpt lat="43.47150049346429" lon="12.667435881906204"><ele>1159.3333333333335</ele><time>2026-04-29T12:52:18.999Z</time></trkpt><trkpt lat="43.471571091183804" lon="12.667449600126625"><ele>1158.1666666666667</ele><time>2026-04-29T12:52:19.999Z</time></trkpt><trkpt lat="43.471646353783065" lon="12.667478356713477"><ele>1157.0</ele><time>2026-04-29T12:52:20.999Z</time></trkpt><trkpt lat="43.47175045963353" lon="12.66748789117334"><ele>1157.0</ele><time>2026-04-29T12:52:21.999Z</time></trkpt><trkpt lat="43.471857132455376" lon="12.667492780461691"><ele>1157.0</ele><time>2026-04-29T12:52:22.998Z</time></trkpt><trkpt lat="43.47195495667693" lon="12.667473211602946"><ele>1157.0</ele><time>2026-04-29T12:52:23.998Z</time></trkpt><trkpt lat="43.47205025056469" lon="12.667495200603696"><ele>1157.0</ele><time>2026-04-29T12:52:24.998Z</time></trkpt><trkpt lat="43.4721463044108" lon="12.667501566949815"><ele>1157.0</ele><time>2026-04-29T12:52:25.998Z</time></trkpt><trkpt lat="43.47222920614718" lon="12.667507207835095"><ele>1155.2</ele><time>2026-04-29T12:52:26.998Z</time></trkpt><trkpt lat="43.47232134372596" lon="12.667534066661355"><ele>1153.4</ele><time>2026-04-29T12:52:27.998Z</time></trkpt><trkpt lat="43.47241976553945" lon="12.667553310536169"><ele>1151.6</ele><time>2026-04-29T12:52:28.998Z</time></trkpt><trkpt lat="43.47251236084848" lon="12.66758295632074"><ele>1149.8</ele><time>2026-04-29T12:52:29.998Z</time></trkpt><trkpt lat="43.47259659914306" lon="12.667606201780014"><ele>1148.0</ele><time>2026-04-29T12:52:30.998Z</time></trkpt><trkpt lat="43.47267816321946" lon="12.66764233173026"><ele>1148.0</ele><time>2026-04-29T12:52:31.998Z</time></trkpt><trkpt lat="43.472748681742736" lon="12.667685542328"><ele>1148.0</ele><time>2026-04-29T12:52:32.998Z</time></trkpt><trkpt lat="43.4728036668828" lon="12.667750510041976"><ele>1148.0</ele><time>2026-04-29T12:52:33.998Z</time></trkpt><trkpt lat="43.4728816048396" lon="12.667794651488855"><ele>1148.0</ele><time>2026-04-29T12:52:34.998Z</time></trkpt><trkpt lat="43.472964709944144" lon="12.667896203687508"><ele>1148.0</ele><time>2026-04-29T12:52:37Z</time></trkpt><trkpt lat="43.473024321669605" lon="12.667951872243194"><ele>1148.0</ele><time>2026-04-29T12:52:39Z</time></trkpt><trkpt lat="43.47309310054538" lon="12.66801610299049"><ele>1150.3333333333335</ele><time>2026-04-29T12:52:52Z</time></trkpt><trkpt lat="43.473198031482966" lon="12.668086369924819"><ele>1152.6666666666667</ele><time>2026-04-29T12:52:54Z</time></trkpt><trkpt lat="43.473299396292525" lon="12.668155640694845"><ele>1155.0</ele><time>2026-04-29T12:52:56Z</time></trkpt><trkpt lat="43.473361965470055" lon="12.66819839923191"><ele>1157.3333333333333</ele><time>2026-04-29T12:52:57Z</time></trkpt><trkpt lat="43.473419751454635" lon="12.668237889464772"><ele>1159.6666666666665</ele><time>2026-04-29T12:52:58Z</time></trkpt><trkpt lat="43.47348251877497" lon="12.668284371302962"><ele>1162.0</ele><time>2026-04-29T12:52:59Z</time></trkpt><trkpt lat="43.47355901159784" lon="12.668339854639733"><ele>1162.0</ele><time>2026-04-29T12:53:00Z</time></trkpt><trkpt lat="43.4736397548469" lon="12.668398420928"><ele>1162.0</ele><time>2026-04-29T12:53:01Z</time></trkpt><trkpt lat="43.47373430332266" lon="12.668467000709624"><ele>1162.0</ele><time>2026-04-29T12:53:02Z</time></trkpt><trkpt lat="43.47386069737117" lon="12.668558679378766"><ele>1162.0</ele><time>2026-04-29T12:53:03Z</time></trkpt><trkpt lat="43.47399494659577" lon="12.66866141460155"><ele>1166.0</ele><time>2026-04-29T12:53:04Z</time></trkpt><trkpt lat="43.47410177825226" lon="12.66875732791677"><ele>1170.0</ele><time>2026-04-29T12:53:05Z</time></trkpt><trkpt lat="43.47420752365906" lon="12.668871042806853"><ele>1174.0</ele><time>2026-04-29T12:53:06Z</time></trkpt><trkpt lat="43.474306764272995" lon="12.668975975097746"><ele>1178.0</ele><time>2026-04-29T12:53:07Z</time></trkpt><trkpt lat="43.47441303785617" lon="12.669079888759105"><ele>1178.0</ele><time>2026-04-29T12:53:08Z</time></trkpt><trkpt lat="43.47452703495881" lon="12.669156765074876"><ele>1178.0</ele><time>2026-04-29T12:53:09Z</time></trkpt><trkpt lat="43.47462396137431" lon="12.669277129769592"><ele>1178.0</ele><time>2026-04-29T12:53:10Z</time></trkpt><trkpt lat="43.474728835394906" lon="12.669370942287053"><ele>1178.0</ele><time>2026-04-29T12:53:11Z</time></trkpt><trkpt lat="43.474811501355525" lon="12.669509050839276"><ele>1179.25</ele><time>2026-04-29T12:53:12Z</time></trkpt><trkpt lat="43.4748953401179" lon="12.66963004435263"><ele>1180.5</ele><time>2026-04-29T12:53:13Z</time></trkpt><trkpt lat="43.47498030876379" lon="12.66975399588883"><ele>1181.75</ele><time>2026-04-29T12:53:14Z</time></trkpt><trkpt lat="43.47506904183137" lon="12.66984876442628"><ele>1183.0</ele><time>2026-04-29T12:53:15Z</time></trkpt><trkpt lat="43.475130046336616" lon="12.669970855121933"><ele>1183.0</ele><time>2026-04-29T12:53:16Z</time></trkpt><trkpt lat="43.47520840931466" lon="12.670063508926336"><ele>1183.0</ele><time>2026-04-29T12:53:17Z</time></trkpt><trkpt lat="43.475302226625644" lon="12.670145633540702"><ele>1183.0</ele><time>2026-04-29T12:53:18Z</time></trkpt><trkpt lat="43.47538785103111" lon="12.670208308488546"><ele>1183.0</ele><time>2026-04-29T12:53:19Z</time></trkpt><trkpt lat="43.47547285931691" lon="12.670294827231928"><ele>1183.0</ele><time>2026-04-29T12:53:20Z</time></trkpt><trkpt lat="43.475581363640124" lon="12.670361651842425"><ele>1186.0</ele><time>2026-04-29T12:53:21Z</time></trkpt><trkpt lat="43.475695614889965" lon="12.670438340984324"><ele>1189.0</ele><time>2026-04-29T12:53:22Z</time></trkpt><trkpt lat="43.475800707350274" lon="12.67050916996693"><ele>1192.0</ele><time>2026-04-29T12:53:22.999Z</time></trkpt><trkpt lat="43.475910568196745" lon="12.670587397593648"><ele>1195.0</ele><time>2026-04-29T12:53:23.999Z</time></trkpt><trkpt lat="43.47600622808549" lon="12.670694045619129"><ele>1195.0</ele><time>2026-04-29T12:53:24.999Z</time></trkpt><trkpt lat="43.47611526233606" lon="12.670787997007695"><ele>1195.0</ele><time>2026-04-29T12:53:25.999Z</time></trkpt><trkpt lat="43.47621685057281" lon="12.670879318018663"><ele>1195.0</ele><time>2026-04-29T12:53:26.999Z</time></trkpt><trkpt lat="43.47631304981341" lon="12.67097055334526"><ele>1195.0</ele><time>2026-04-29T12:53:27.999Z</time></trkpt><trkpt lat="43.47641128722955" lon="12.67105165371358"><ele>1198.25</ele><time>2026-04-29T12:53:28.999Z</time></trkpt><trkpt lat="43.47651480427524" lon="12.671140704151114"><ele>1201.5</ele><time>2026-04-29T12:53:29.999Z</time></trkpt><trkpt lat="43.47662698793365" lon="12.671221664220043"><ele>1204.75</ele><time>2026-04-29T12:53:30.999Z</time></trkpt><trkpt lat="43.476731605577655" lon="12.671316438804915"><ele>1208.0</ele><time>2026-04-29T12:53:31.999Z</time></trkpt><trkpt lat="43.4768311193319" lon="12.67141142984748"><ele>1208.0</ele><time>2026-04-29T12:53:32.999Z</time></trkpt><trkpt lat="43.47693723294646" lon="12.671508411545727"><ele>1208.0</ele><time>2026-04-29T12:53:33.999Z</time></trkpt><trkpt lat="43.47704590133177" lon="12.671603979118142"><ele>1208.0</ele><time>2026-04-29T12:53:34.999Z</time></trkpt><trkpt lat="43.4771489917054" lon="12.671715668263927"><ele>1208.0</ele><time>2026-04-29T12:53:35.999Z</time></trkpt><trkpt lat="43.47725521317422" lon="12.671803354601426"><ele>1209.25</ele><time>2026-04-29T12:53:36.999Z</time></trkpt><trkpt lat="43.477343726274206" lon="12.671933089746604"><ele>1210.5</ele><time>2026-04-29T12:53:37.999Z</time></trkpt><trkpt lat="43.47744704332087" lon="12.672059479240781"><ele>1211.75</ele><time>2026-04-29T12:53:38.999Z</time></trkpt><trkpt lat="43.47755383343768" lon="12.672160049986818"><ele>1213.0</ele><time>2026-04-29T12:53:39.999Z</time></trkpt><trkpt lat="43.4776694282331" lon="12.672229496150559"><ele>1213.0</ele><time>2026-04-29T12:53:40.999Z</time></trkpt><trkpt lat="43.47778140099489" lon="12.67231671498993"><ele>1213.0</ele><time>2026-04-29T12:53:41.999Z</time></trkpt><trkpt lat="43.47786713279515" lon="12.672438045289109"><ele>1213.0</ele><time>2026-04-29T12:53:42.999Z</time></trkpt><trkpt lat="43.47795483704028" lon="12.672562551614849"><ele>1213.0</ele><time>2026-04-29T12:53:43.999Z</time></trkpt><trkpt lat="43.478052457021604" lon="12.672687459417448"><ele>1215.75</ele><time>2026-04-29T12:53:44.999Z</time></trkpt><trkpt lat="43.47815932993496" lon="12.672799181426953"><ele>1218.5</ele><time>2026-04-29T12:53:45.999Z</time></trkpt><trkpt lat="43.47826272612201" lon="12.672908783862967"><ele>1221.25</ele><time>2026-04-29T12:53:46.999Z</time></trkpt><trkpt lat="43.478354327864885" lon="12.67302213234113"><ele>1224.0</ele><time>2026-04-29T12:53:47.999Z</time></trkpt><trkpt lat="43.47846524048699" lon="12.67312691630815"><ele>1224.0</ele><time>2026-04-29T12:53:48.999Z</time></trkpt><trkpt lat="43.47856981036484" lon="12.673232795845744"><ele>1224.0</ele><time>2026-04-29T12:53:49.999Z</time></trkpt><trkpt lat="43.47866793294084" lon="12.6733353494112"><ele>1224.0</ele><time>2026-04-29T12:53:50.999Z</time></trkpt><trkpt lat="43.47875713553155" lon="12.673427251633392"><ele>1224.0</ele><time>2026-04-29T12:53:51.999Z</time></trkpt><trkpt lat="43.47883241078269" lon="12.673521381224397"><ele>1224.3333333333333</ele><time>2026-04-29T12:53:52.999Z</time></trkpt><trkpt lat="43.478891096658984" lon="12.673627206041074"><ele>1224.6666666666667</ele><time>2026-04-29T12:53:53.999Z</time></trkpt><trkpt lat="43.47891518746691" lon="12.673742261990695"><ele>1225.0</ele><time>2026-04-29T12:53:54.999Z</time></trkpt><trkpt lat="43.47896419988221" lon="12.673833480913865"><ele>1225.3333333333335</ele><time>2026-04-29T12:53:55.999Z</time></trkpt><trkpt lat="43.47901181972924" lon="12.673927551602635"><ele>1225.6666666666667</ele><time>2026-04-29T12:53:56.999Z</time></trkpt><trkpt lat="43.47908475146209" lon="12.674009453464327"><ele>1226.0</ele><time>2026-04-29T12:53:57.999Z</time></trkpt><trkpt lat="43.47917295636191" lon="12.674078568897317"><ele>1226.0</ele><time>2026-04-29T12:53:58.999Z</time></trkpt><trkpt lat="43.479278228177265" lon="12.67416504187289"><ele>1226.0</ele><time>2026-04-29T12:53:59.999Z</time></trkpt><trkpt lat="43.47939614050655" lon="12.674269569576685"><ele>1226.0</ele><time>2026-04-29T12:54:00.999Z</time></trkpt><trkpt lat="43.47949716799705" lon="12.674367717146827"><ele>1226.0</ele><time>2026-04-29T12:54:01.999Z</time></trkpt><trkpt lat="43.47959300897698" lon="12.674476791608967"><ele>1226.75</ele><time>2026-04-29T12:54:02.999Z</time></trkpt><trkpt lat="43.47968241935211" lon="12.674595284271136"><ele>1227.5</ele><time>2026-04-29T12:54:03.999Z</time></trkpt><trkpt lat="43.47977028921862" lon="12.674715856990925"><ele>1228.25</ele><time>2026-04-29T12:54:04.999Z</time></trkpt><trkpt lat="43.47985765866947" lon="12.674833191461579"><ele>1229.0</ele><time>2026-04-29T12:54:05.999Z</time></trkpt><trkpt lat="43.479945336906084" lon="12.67495632704046"><ele>1229.0</ele><time>2026-04-29T12:54:06.999Z</time></trkpt><trkpt lat="43.48003975026754" lon="12.675070554927279"><ele>1229.0</ele><time>2026-04-29T12:54:07.999Z</time></trkpt><trkpt lat="43.48013565901647" lon="12.675185972520302"><ele>1229.0</ele><time>2026-04-29T12:54:08.999Z</time></trkpt><trkpt lat="43.48023365311629" lon="12.67529943363536"><ele>1229.0</ele><time>2026-04-29T12:54:09.999Z</time></trkpt><trkpt lat="43.4803349455663" lon="12.67541350500723"><ele>1228.5</ele><time>2026-04-29T12:54:10.999Z</time></trkpt><trkpt lat="43.4804394809098" lon="12.67552821612545"><ele>1228.0</ele><time>2026-04-29T12:54:11.999Z</time></trkpt><trkpt lat="43.480534044316165" lon="12.67565256720772"><ele>1227.5</ele><time>2026-04-29T12:54:12.999Z</time></trkpt><trkpt lat="43.48064505203783" lon="12.675745197847428"><ele>1227.0</ele><time>2026-04-29T12:54:13.999Z</time></trkpt><trkpt lat="43.48074612111141" lon="12.675854095354577"><ele>1227.0</ele><time>2026-04-29T12:54:14.999Z</time></trkpt><trkpt lat="43.4808294647099" lon="12.675988564186865"><ele>1227.0</ele><time>2026-04-29T12:54:15.999Z</time></trkpt><trkpt lat="43.4809161286717" lon="12.67611124639751"><ele>1227.0</ele><time>2026-04-29T12:54:16.999Z</time></trkpt><trkpt lat="43.481011542103154" lon="12.676224313515997"><ele>1227.0</ele><time>2026-04-29T12:54:17.999Z</time></trkpt><trkpt lat="43.481099092719745" lon="12.676366391716128"><ele>1226.75</ele><time>2026-04-29T12:54:18.999Z</time></trkpt><trkpt lat="43.4811951341268" lon="12.676492982260047"><ele>1226.5</ele><time>2026-04-29T12:54:19.999Z</time></trkpt><trkpt lat="43.481280773967974" lon="12.676630771901587"><ele>1226.25</ele><time>2026-04-29T12:54:20.999Z</time></trkpt><trkpt lat="43.48137396689826" lon="12.676753248769028"><ele>1226.0</ele><time>2026-04-29T12:54:21.999Z</time></trkpt><trkpt lat="43.481467761851114" lon="12.676872841049912"><ele>1233.75</ele><time>2026-04-29T12:54:22.999Z</time></trkpt><trkpt lat="43.48156082307072" lon="12.676996106007698"><ele>1241.5</ele><time>2026-04-29T12:54:23.999Z</time></trkpt><trkpt lat="43.481644463663095" lon="12.677132316316827"><ele>1249.25</ele><time>2026-04-29T12:54:24.999Z</time></trkpt><trkpt lat="43.481716927597745" lon="12.677284941916227"><ele>1257.0</ele><time>2026-04-29T12:54:25.999Z</time></trkpt><trkpt lat="43.48175262915549" lon="12.677459248348551"><ele>1257.0</ele><time>2026-04-29T12:54:26.999Z</time></trkpt><trkpt lat="43.48183108265177" lon="12.677613292521556"><ele>1257.0</ele><time>2026-04-29T12:54:27.999Z</time></trkpt><trkpt lat="43.4819519860943" lon="12.677772975412902"><ele>1257.0</ele><time>2026-04-29T12:54:28.999Z</time></trkpt><trkpt lat="43.48208527462158" lon="12.677971424958793"><ele>1252.6666666666667</ele><time>2026-04-29T12:54:29.999Z</time></trkpt><trkpt lat="43.482193761532336" lon="12.678173629697381"><ele>1248.3333333333335</ele><time>2026-04-29T12:54:30.999Z</time></trkpt><trkpt lat="43.4822890900963" lon="12.678332591509143"><ele>1244.0</ele><time>2026-04-29T12:54:31.998Z</time></trkpt><trkpt lat="43.48237687795201" lon="12.678484471791716"><ele>1252.25</ele><time>2026-04-29T12:54:32.998Z</time></trkpt><trkpt lat="43.48245674683049" lon="12.67863629066804"><ele>1260.5</ele><time>2026-04-29T12:54:33.998Z</time></trkpt><trkpt lat="43.48252993120315" lon="12.678795923876539"><ele>1268.75</ele><time>2026-04-29T12:54:34.998Z</time></trkpt><trkpt lat="43.4826053688436" lon="12.678962795080183"><ele>1277.0</ele><time>2026-04-29T12:54:35.998Z</time></trkpt><trkpt lat="43.48268096968173" lon="12.679128139966243"><ele>1277.0</ele><time>2026-04-29T12:54:36.998Z</time></trkpt><trkpt lat="43.48275720422108" lon="12.67929367100257"><ele>1277.0</ele><time>2026-04-29T12:54:37.998Z</time></trkpt><trkpt lat="43.482830578068324" lon="12.67945299157179"><ele>1277.0</ele><time>2026-04-29T12:54:38.998Z</time></trkpt><trkpt lat="43.48290077881083" lon="12.679605421540497"><ele>1277.0</ele><time>2026-04-29T12:54:39.998Z</time></trkpt><trkpt lat="43.48298889142336" lon="12.679743186916406"><ele>1278.0</ele><time>2026-04-29T12:54:40.998Z</time></trkpt><trkpt lat="43.48306291534015" lon="12.67990224855812"><ele>1279.0</ele><time>2026-04-29T12:54:42Z</time></trkpt><trkpt lat="43.483149733850794" lon="12.680042384904441"><ele>1280.0</ele><time>2026-04-29T12:54:43Z</time></trkpt><trkpt lat="43.48323134356454" lon="12.680190686548892"><ele>1281.0</ele><time>2026-04-29T12:54:44Z</time></trkpt><trkpt lat="43.48330664331454" lon="12.680346720494288"><ele>1281.0</ele><time>2026-04-29T12:54:45Z</time></trkpt><trkpt lat="43.48336357935401" lon="12.680522106057376"><ele>1281.0</ele><time>2026-04-29T12:54:46Z</time></trkpt><trkpt lat="43.48342712531837" lon="12.680693122846659"><ele>1281.0</ele><time>2026-04-29T12:54:47Z</time></trkpt><trkpt lat="43.48349056772719" lon="12.680870946321564"><ele>1281.0</ele><time>2026-04-29T12:54:48Z</time></trkpt><trkpt lat="43.483550979078814" lon="12.681046474875982"><ele>1287.0</ele><time>2026-04-29T12:54:49Z</time></trkpt><trkpt lat="43.48361020756299" lon="12.681222584769573"><ele>1293.0</ele><time>2026-04-29T12:54:50Z</time></trkpt><trkpt lat="43.483666805305496" lon="12.681396107352043"><ele>1299.0</ele><time>2026-04-29T12:54:51Z</time></trkpt><trkpt lat="43.483715883123594" lon="12.68156694875772"><ele>1305.0</ele><time>2026-04-29T12:54:52Z</time></trkpt><trkpt lat="43.48377206187171" lon="12.681725616196534"><ele>1296.2</ele><time>2026-04-29T12:54:53Z</time></trkpt><trkpt lat="43.483785661965314" lon="12.681875061795363"><ele>1287.4</ele><time>2026-04-29T12:54:54Z</time></trkpt><trkpt lat="43.48380439916583" lon="12.682012544569861"><ele>1278.6</ele><time>2026-04-29T12:54:55Z</time></trkpt><trkpt lat="43.48381493274318" lon="12.682154249238446"><ele>1269.8</ele><time>2026-04-29T12:54:56Z</time></trkpt><trkpt lat="43.48382239125224" lon="12.682308174293485"><ele>1261.0</ele><time>2026-04-29T12:54:57Z</time></trkpt><trkpt lat="43.483827519254355" lon="12.682472810236629"><ele>1261.0</ele><time>2026-04-29T12:54:58Z</time></trkpt><trkpt lat="43.48383358470268" lon="12.6826483021346"><ele>1261.0</ele><time>2026-04-29T12:54:59Z</time></trkpt><trkpt lat="43.4838480176494" lon="12.682826915654442"><ele>1261.0</ele><time>2026-04-29T12:55:00Z</time></trkpt><trkpt lat="43.48384049955875" lon="12.682991358872156"><ele>1261.0</ele><time>2026-04-29T12:55:01Z</time></trkpt><trkpt lat="43.483834281757176" lon="12.683140027780734"><ele>1264.25</ele><time>2026-04-29T12:55:02Z</time></trkpt><trkpt lat="43.483861562743435" lon="12.68328936388721"><ele>1267.5</ele><time>2026-04-29T12:55:03Z</time></trkpt><trkpt lat="43.483896285485386" lon="12.683441636298104"><ele>1270.75</ele><time>2026-04-29T12:55:04Z</time></trkpt><trkpt lat="43.48393426550146" lon="12.683588329223813"><ele>1274.0</ele><time>2026-04-29T12:55:05Z</time></trkpt><trkpt lat="43.48399217972447" lon="12.683747731208747"><ele>1273.2</ele><time>2026-04-29T12:55:06Z</time></trkpt><trkpt lat="43.484025049595004" lon="12.683909481139974"><ele>1272.4</ele><time>2026-04-29T12:55:07Z</time></trkpt><trkpt lat="43.48404557357603" lon="12.684053310364419"><ele>1271.6</ele><time>2026-04-29T12:55:08Z</time></trkpt><trkpt lat="43.48406535142267" lon="12.684194144184456"><ele>1270.8</ele><time>2026-04-29T12:55:09Z</time></trkpt><trkpt lat="43.48405638173322" lon="12.684340142927491"><ele>1270.0</ele><time>2026-04-29T12:55:10Z</time></trkpt><trkpt lat="43.484061693423726" lon="12.684436583484981"><ele>1270.0</ele><time>2026-04-29T12:55:11Z</time></trkpt><trkpt lat="43.48402258081918" lon="12.684516741804176"><ele>1270.0</ele><time>2026-04-29T12:55:12Z</time></trkpt><trkpt lat="43.483978169822926" lon="12.684583244158384"><ele>1270.0</ele><time>2026-04-29T12:55:13Z</time></trkpt><trkpt lat="43.48390906042188" lon="12.684648843712994"><ele>1270.0</ele><time>2026-04-29T12:55:14Z</time></trkpt><trkpt lat="43.483831925804395" lon="12.68473018316082"><ele>1270.0</ele><time>2026-04-29T12:55:15Z</time></trkpt><trkpt lat="43.48374080660935" lon="12.684816974036194"><ele>1270.0</ele><time>2026-04-29T12:55:16Z</time></trkpt><trkpt lat="43.48364457337751" lon="12.684923364865796"><ele>1274.0</ele><time>2026-04-29T12:55:17Z</time></trkpt><trkpt lat="43.48356453686396" lon="12.685052477090176"><ele>1278.0</ele><time>2026-04-29T12:55:18Z</time></trkpt><trkpt lat="43.48347367092878" lon="12.685171505851613"><ele>1282.0</ele><time>2026-04-29T12:55:19Z</time></trkpt><trkpt lat="43.48338862375222" lon="12.685285281937349"><ele>1286.0</ele><time>2026-04-29T12:55:20Z</time></trkpt><trkpt lat="43.48330733745984" lon="12.68540966014728"><ele>1286.0</ele><time>2026-04-29T12:55:21Z</time></trkpt><trkpt lat="43.483229130523476" lon="12.685521208824207"><ele>1286.0</ele><time>2026-04-29T12:55:22Z</time></trkpt><trkpt lat="43.48316084041452" lon="12.685623886909793"><ele>1286.0</ele><time>2026-04-29T12:55:23Z</time></trkpt><trkpt lat="43.483089171195004" lon="12.685712134392292"><ele>1286.0</ele><time>2026-04-29T12:55:24Z</time></trkpt><trkpt lat="43.483019035013655" lon="12.685774649359304"><ele>1286.0</ele><time>2026-04-29T12:55:25Z</time></trkpt><trkpt lat="43.48294207291595" lon="12.685829325901821"><ele>1290.6666666666667</ele><time>2026-04-29T12:55:26Z</time></trkpt><trkpt lat="43.48286517451057" lon="12.685833036847946"><ele>1295.3333333333335</ele><time>2026-04-29T12:55:27Z</time></trkpt><trkpt lat="43.48278375819511" lon="12.685835797417399"><ele>1300.0</ele><time>2026-04-29T12:55:28Z</time></trkpt><trkpt lat="43.482703473547616" lon="12.685838193043931"><ele>1304.6666666666667</ele><time>2026-04-29T12:55:29Z</time></trkpt><trkpt lat="43.48260929593005" lon="12.685837399703086"><ele>1309.3333333333333</ele><time>2026-04-29T12:55:30Z</time></trkpt><trkpt lat="43.482509096229336" lon="12.685835032258074"><ele>1314.0</ele><time>2026-04-29T12:55:30.999Z</time></trkpt><trkpt lat="43.48242615772082" lon="12.685844504311989"><ele>1314.0</ele><time>2026-04-29T12:55:31.999Z</time></trkpt><trkpt lat="43.482341834929976" lon="12.685871728229364"><ele>1314.0</ele><time>2026-04-29T12:55:32.999Z</time></trkpt><trkpt lat="43.48226361421092" lon="12.685958850024143"><ele>1314.0</ele><time>2026-04-29T12:55:33.999Z</time></trkpt><trkpt lat="43.482197713530624" lon="12.686083844371133"><ele>1314.0</ele><time>2026-04-29T12:55:34.999Z</time></trkpt><trkpt lat="43.482113302801444" lon="12.68621467612756"><ele>1314.0</ele><time>2026-04-29T12:55:35.999Z</time></trkpt><trkpt lat="43.48202174181092" lon="12.686311677389307"><ele>1316.0</ele><time>2026-04-29T12:55:36.999Z</time></trkpt><trkpt lat="43.481935864643866" lon="12.686406090490374"><ele>1318.0</ele><time>2026-04-29T12:55:37.999Z</time></trkpt><trkpt lat="43.481837622973295" lon="12.686506019712471"><ele>1320.0</ele><time>2026-04-29T12:55:38.999Z</time></trkpt><trkpt lat="43.4817312515189" lon="12.686604391922021"><ele>1322.0</ele><time>2026-04-29T12:55:39.999Z</time></trkpt><trkpt lat="43.481628371149185" lon="12.68670546311925"><ele>1322.0</ele><time>2026-04-29T12:55:40.999Z</time></trkpt><trkpt lat="43.481554165267156" lon="12.68680377514238"><ele>1322.0</ele><time>2026-04-29T12:55:41.999Z</time></trkpt><trkpt lat="43.48152369242631" lon="12.686909518715161"><ele>1322.0</ele><time>2026-04-29T12:55:42.999Z</time></trkpt><trkpt lat="43.48151015744407" lon="12.687024660612968"><ele>1322.0</ele><time>2026-04-29T12:55:43.999Z</time></trkpt><trkpt lat="43.4815028004286" lon="12.68717352592286"><ele>1322.0</ele><time>2026-04-29T12:55:44.999Z</time></trkpt><trkpt lat="43.48148521395609" lon="12.687349389784332"><ele>1320.3999999999999</ele><time>2026-04-29T12:55:45.999Z</time></trkpt><trkpt lat="43.48143006626292" lon="12.687492509808688"><ele>1318.8</ele><time>2026-04-29T12:55:46.999Z</time></trkpt><trkpt lat="43.481392476093404" lon="12.687598287786997"><ele>1317.2</ele><time>2026-04-29T12:55:47.999Z</time></trkpt><trkpt lat="43.48133637195971" lon="12.687701526854598"><ele>1315.6</ele><time>2026-04-29T12:55:48.999Z</time></trkpt><trkpt lat="43.48125492611217" lon="12.687772401226464"><ele>1314.0</ele><time>2026-04-29T12:55:49.999Z</time></trkpt><trkpt lat="43.48115483016004" lon="12.68779023549107"><ele>1314.0</ele><time>2026-04-29T12:55:50.999Z</time></trkpt><trkpt lat="43.48105799535155" lon="12.687805851551937"><ele>1314.0</ele><time>2026-04-29T12:55:51.999Z</time></trkpt><trkpt lat="43.48094950894838" lon="12.687809936809705"><ele>1314.0</ele><time>2026-04-29T12:55:52.999Z</time></trkpt><trkpt lat="43.48084890184417" lon="12.687828446764737"><ele>1314.0</ele><time>2026-04-29T12:55:53.999Z</time></trkpt><trkpt lat="43.48076111347011" lon="12.687817427377656"><ele>1314.0</ele><time>2026-04-29T12:55:54.999Z</time></trkpt><trkpt lat="43.48067128007535" lon="12.68779881853262"><ele>1314.0</ele><time>2026-04-29T12:55:55.999Z</time></trkpt><trkpt lat="43.480570264586596" lon="12.68778205040593"><ele>1314.0</ele><time>2026-04-29T12:55:56.999Z</time></trkpt><trkpt lat="43.48046790152332" lon="12.68772455864603"><ele>1314.0</ele><time>2026-04-29T12:55:57.999Z</time></trkpt><trkpt lat="43.480359214821114" lon="12.687680051710815"><ele>1314.0</ele><time>2026-04-29T12:55:58.999Z</time></trkpt><trkpt lat="43.48027679019703" lon="12.687606253371328"><ele>1314.0</ele><time>2026-04-29T12:55:59.999Z</time></trkpt><trkpt lat="43.48021472045485" lon="12.687561520844937"><ele>1318.3333333333333</ele><time>2026-04-29T12:56:00.999Z</time></trkpt><trkpt lat="43.48012219712784" lon="12.687480295258565"><ele>1322.6666666666667</ele><time>2026-04-29T12:56:02.999Z</time></trkpt><trkpt lat="43.48006121173779" lon="12.68739506415923"><ele>1327.0</ele><time>2026-04-29T12:56:04.999Z</time></trkpt><trkpt lat="43.480005172640446" lon="12.687345447816563"><ele>1331.3333333333335</ele><time>2026-04-29T12:56:06.999Z</time></trkpt><trkpt lat="43.4799442425588" lon="12.687308646622366"><ele>1335.6666666666667</ele><time>2026-04-29T12:56:10.999Z</time></trkpt><trkpt lat="43.47987117053518" lon="12.68728987684534"><ele>1340.0</ele><time>2026-04-29T12:56:15.999Z</time></trkpt><trkpt lat="43.47980577973787" lon="12.687298256009795"><ele>1340.0</ele><time>2026-04-29T12:56:16.999Z</time></trkpt><trkpt lat="43.4797289809739" lon="12.687357503582104"><ele>1340.0</ele><time>2026-04-29T12:56:17.999Z</time></trkpt><trkpt lat="43.47967362689076" lon="12.687424499414938"><ele>1340.0</ele><time>2026-04-29T12:56:18.999Z</time></trkpt><trkpt lat="43.47962730836565" lon="12.687525052528764"><ele>1340.0</ele><time>2026-04-29T12:56:19.999Z</time></trkpt><trkpt lat="43.47959042287022" lon="12.68763641835461"><ele>1340.0</ele><time>2026-04-29T12:56:20.999Z</time></trkpt><trkpt lat="43.4795535226477" lon="12.687757588862437"><ele>1340.0</ele><time>2026-04-29T12:56:21.999Z</time></trkpt><trkpt lat="43.47952381250497" lon="12.68790162972309"><ele>1345.75</ele><time>2026-04-29T12:56:22.999Z</time></trkpt><trkpt lat="43.47949553619313" lon="12.688049422719876"><ele>1351.5</ele><time>2026-04-29T12:56:23.999Z</time></trkpt><trkpt lat="43.47947471148633" lon="12.688206417179424"><ele>1357.25</ele><time>2026-04-29T12:56:24.999Z</time></trkpt><trkpt lat="43.479461763199595" lon="12.688364095040296"><ele>1363.0</ele><time>2026-04-29T12:56:25.999Z</time></trkpt><trkpt lat="43.47945308103282" lon="12.688525069443436"><ele>1363.25</ele><time>2026-04-29T12:56:26.999Z</time></trkpt><trkpt lat="43.47945847883823" lon="12.688691091373618"><ele>1363.5</ele><time>2026-04-29T12:56:27.999Z</time></trkpt><trkpt lat="43.47943689520253" lon="12.688852428902603"><ele>1363.75</ele><time>2026-04-29T12:56:28.999Z</time></trkpt><trkpt lat="43.479433214509996" lon="12.689014877041181"><ele>1364.0</ele><time>2026-04-29T12:56:29.999Z</time></trkpt><trkpt lat="43.47943348014249" lon="12.68918797981534"><ele>1364.0</ele><time>2026-04-29T12:56:30.999Z</time></trkpt><trkpt lat="43.479439749389265" lon="12.6893557479755"><ele>1364.0</ele><time>2026-04-29T12:56:31.999Z</time></trkpt><trkpt lat="43.47945602685395" lon="12.689522439687845"><ele>1364.0</ele><time>2026-04-29T12:56:32.999Z</time></trkpt><trkpt lat="43.47948879486286" lon="12.689692512597087"><ele>1364.0</ele><time>2026-04-29T12:56:33.998Z</time></trkpt><trkpt lat="43.47953341718557" lon="12.68985644777803"><ele>1366.5</ele><time>2026-04-29T12:56:34.998Z</time></trkpt><trkpt lat="43.47958897460168" lon="12.690019273528659"><ele>1369.0</ele><time>2026-04-29T12:56:35.998Z</time></trkpt><trkpt lat="43.47965018256273" lon="12.690180973199482"><ele>1371.5</ele><time>2026-04-29T12:56:36.998Z</time></trkpt><trkpt lat="43.47971466077108" lon="12.690329057621863"><ele>1374.0</ele><time>2026-04-29T12:56:37.998Z</time></trkpt><trkpt lat="43.47977414618834" lon="12.690493612656626"><ele>1374.0</ele><time>2026-04-29T12:56:38.998Z</time></trkpt><trkpt lat="43.479815774394545" lon="12.690678745982867"><ele>1374.0</ele><time>2026-04-29T12:56:39.998Z</time></trkpt><trkpt lat="43.47985206830827" lon="12.690866823919464"><ele>1374.0</ele><time>2026-04-29T12:56:40.998Z</time></trkpt><trkpt lat="43.47992255726313" lon="12.691040501826674"><ele>1374.0</ele><time>2026-04-29T12:56:41.998Z</time></trkpt><trkpt lat="43.48002858932101" lon="12.69117085747636"><ele>1374.0</ele><time>2026-04-29T12:56:42.998Z</time></trkpt><trkpt lat="43.4801296578458" lon="12.691284482100594"><ele>1374.0</ele><time>2026-04-29T12:56:43.998Z</time></trkpt><trkpt lat="43.480185393298655" lon="12.691444190607227"><ele>1374.0</ele><time>2026-04-29T12:56:44.998Z</time></trkpt><trkpt lat="43.48024320090093" lon="12.691601828170517"><ele>1374.0</ele><time>2026-04-29T12:56:45.998Z</time></trkpt><trkpt lat="43.480305425937736" lon="12.691752067164183"><ele>1374.0</ele><time>2026-04-29T12:56:46.998Z</time></trkpt><trkpt lat="43.48034480569267" lon="12.691898551221493"><ele>1374.0</ele><time>2026-04-29T12:56:48Z</time></trkpt><trkpt lat="43.4803658472248" lon="12.692047217715613"><ele>1374.0</ele><time>2026-04-29T12:56:49Z</time></trkpt><trkpt lat="43.48041043158188" lon="12.692203183075256"><ele>1374.0</ele><time>2026-04-29T12:56:50Z</time></trkpt><trkpt lat="43.480425122078906" lon="12.69236289268665"><ele>1368.4</ele><time>2026-04-29T12:56:51Z</time></trkpt><trkpt lat="43.48045006375822" lon="12.692495567595001"><ele>1362.8000000000002</ele><time>2026-04-29T12:56:52Z</time></trkpt><trkpt lat="43.480468360707974" lon="12.69264413734708"><ele>1357.1999999999998</ele><time>2026-04-29T12:56:53Z</time></trkpt><trkpt lat="43.480473993925855" lon="12.692797706891655"><ele>1351.6</ele><time>2026-04-29T12:56:54Z</time></trkpt><trkpt lat="43.48049669112694" lon="12.69295355279758"><ele>1346.0</ele><time>2026-04-29T12:56:55Z</time></trkpt><trkpt lat="43.48051220777639" lon="12.69311144390321"><ele>1346.0</ele><time>2026-04-29T12:56:56Z</time></trkpt><trkpt lat="43.480525705670445" lon="12.693246817682683"><ele>1346.0</ele><time>2026-04-29T12:56:57Z</time></trkpt><trkpt lat="43.48052130688516" lon="12.693400185342451"><ele>1346.0</ele><time>2026-04-29T12:56:58Z</time></trkpt><trkpt lat="43.480524004294125" lon="12.69355261435688"><ele>1346.0</ele><time>2026-04-29T12:56:59Z</time></trkpt><trkpt lat="43.480532637860584" lon="12.693703054156787"><ele>1346.0</ele><time>2026-04-29T12:57:00Z</time></trkpt><trkpt lat="43.480558157122985" lon="12.693859524151009"><ele>1346.0</ele><time>2026-04-29T12:57:01Z</time></trkpt><trkpt lat="43.48057319788016" lon="12.694011638490382"><ele>1346.0</ele><time>2026-04-29T12:57:02Z</time></trkpt><trkpt lat="43.48058696177649" lon="12.694178845027634"><ele>1346.0</ele><time>2026-04-29T12:57:03Z</time></trkpt><trkpt lat="43.48060352918541" lon="12.694301402929515"><ele>1346.0</ele><time>2026-04-29T12:57:04Z</time></trkpt><trkpt lat="43.48061791159782" lon="12.694411340226962"><ele>1346.0</ele><time>2026-04-29T12:57:05Z</time></trkpt><trkpt lat="43.48063158459535" lon="12.694515854890305"><ele>1346.0</ele><time>2026-04-29T12:57:06Z</time></trkpt><trkpt lat="43.48064148995295" lon="12.69461122176081"><ele>1346.0</ele><time>2026-04-29T12:57:07Z</time></trkpt><trkpt lat="43.48064267250206" lon="12.694773777534854"><ele>1346.0</ele><time>2026-04-29T12:57:09Z</time></trkpt><trkpt lat="43.480636290837204" lon="12.694862985953405"><ele>1346.0</ele><time>2026-04-29T12:57:10Z</time></trkpt><trkpt lat="43.48062447374044" lon="12.69495631956618"><ele>1346.0</ele><time>2026-04-29T12:57:11Z</time></trkpt><trkpt lat="43.480607613025356" lon="12.695055628896519"><ele>1346.0</ele><time>2026-04-29T12:57:12Z</time></trkpt><trkpt lat="43.48059042994666" lon="12.695151715867205"><ele>1346.0</ele><time>2026-04-29T12:57:13Z</time></trkpt><trkpt lat="43.48057066466408" lon="12.695237263328256"><ele>1346.0</ele><time>2026-04-29T12:57:14Z</time></trkpt><trkpt lat="43.48054658804786" lon="12.695319819651308"><ele>1346.0</ele><time>2026-04-29T12:57:15Z</time></trkpt><trkpt lat="43.480518272533125" lon="12.69540300792185"><ele>1346.0</ele><time>2026-04-29T12:57:16Z</time></trkpt><trkpt lat="43.48048450170067" lon="12.695487331885538"><ele>1346.0</ele><time>2026-04-29T12:57:17Z</time></trkpt><trkpt lat="43.48044733404847" lon="12.695572924393561"><ele>1346.0</ele><time>2026-04-29T12:57:18Z</time></trkpt><trkpt lat="43.480410972500025" lon="12.695653223439333"><ele>1346.0</ele><time>2026-04-29T12:57:19Z</time></trkpt><trkpt lat="43.480370994256" lon="12.695735400921691"><ele>1347.5</ele><time>2026-04-29T12:57:20Z</time></trkpt><trkpt lat="43.48032540090615" lon="12.695823368638539"><ele>1349.0</ele><time>2026-04-29T12:57:21Z</time></trkpt><trkpt lat="43.48027755887785" lon="12.695905978754558"><ele>1350.5</ele><time>2026-04-29T12:57:22Z</time></trkpt><trkpt lat="43.480232085168765" lon="12.695972583099097"><ele>1352.0</ele><time>2026-04-29T12:57:23Z</time></trkpt><trkpt lat="43.480182620554146" lon="12.6960421688903"><ele>1353.5</ele><time>2026-04-29T12:57:24Z</time></trkpt><trkpt lat="43.480131997788526" lon="12.69612327149567"><ele>1355.0</ele><time>2026-04-29T12:57:25Z</time></trkpt><trkpt lat="43.48009036947509" lon="12.696225458161887"><ele>1355.0</ele><time>2026-04-29T12:57:26Z</time></trkpt><trkpt lat="43.48003798073355" lon="12.696290842368976"><ele>1355.0</ele><time>2026-04-29T12:57:27Z</time></trkpt><trkpt lat="43.47999103775303" lon="12.696379569640735"><ele>1355.0</ele><time>2026-04-29T12:57:28Z</time></trkpt><trkpt lat="43.479940016145235" lon="12.696483149788676"><ele>1355.0</ele><time>2026-04-29T12:57:29Z</time></trkpt><trkpt lat="43.479896753004574" lon="12.69657124942705"><ele>1355.0</ele><time>2026-04-29T12:57:30Z</time></trkpt><trkpt lat="43.47984978666202" lon="12.696663562844343"><ele>1355.0</ele><time>2026-04-29T12:57:31Z</time></trkpt><trkpt lat="43.47979193469144" lon="12.696764008356931"><ele>1355.0</ele><time>2026-04-29T12:57:32Z</time></trkpt><trkpt lat="43.47973233727782" lon="12.696856163964078"><ele>1355.0</ele><time>2026-04-29T12:57:33Z</time></trkpt><trkpt lat="43.47966688976801" lon="12.696946329584001"><ele>1355.0</ele><time>2026-04-29T12:57:34Z</time></trkpt><trkpt lat="43.4795965125878" lon="12.697034753864955"><ele>1355.0</ele><time>2026-04-29T12:57:34.999Z</time></trkpt><trkpt lat="43.47953150731117" lon="12.697106430333012"><ele>1355.0</ele><time>2026-04-29T12:57:35.999Z</time></trkpt><trkpt lat="43.479464746569604" lon="12.697171196516692"><ele>1355.0</ele><time>2026-04-29T12:57:36.999Z</time></trkpt><trkpt lat="43.479398260123105" lon="12.697220073971712"><ele>1355.8333333333335</ele><time>2026-04-29T12:57:37.999Z</time></trkpt><trkpt lat="43.47932509492541" lon="12.697260478952396"><ele>1356.6666666666667</ele><time>2026-04-29T12:57:38.999Z</time></trkpt><trkpt lat="43.47925140383235" lon="12.69728797889429"><ele>1357.5</ele><time>2026-04-29T12:57:39.999Z</time></trkpt><trkpt lat="43.47917822874005" lon="12.697329475881245"><ele>1358.3333333333333</ele><time>2026-04-29T12:57:40.999Z</time></trkpt><trkpt lat="43.47909046824962" lon="12.697324176604585"><ele>1359.1666666666665</ele><time>2026-04-29T12:57:41.999Z</time></trkpt><trkpt lat="43.47900309069058" lon="12.697329501148298"><ele>1360.0</ele><time>2026-04-29T12:57:42.999Z</time></trkpt><trkpt lat="43.47890912579303" lon="12.697332008128"><ele>1360.0</ele><time>2026-04-29T12:57:43.999Z</time></trkpt><trkpt lat="43.47881614415414" lon="12.697327389554324"><ele>1360.0</ele><time>2026-04-29T12:57:44.999Z</time></trkpt><trkpt lat="43.4787202028421" lon="12.697315598999605"><ele>1360.0</ele><time>2026-04-29T12:57:45.999Z</time></trkpt><trkpt lat="43.47862398888102" lon="12.697288715538418"><ele>1360.0</ele><time>2026-04-29T12:57:46.999Z</time></trkpt><trkpt lat="43.478525447602124" lon="12.69724842378123"><ele>1360.0</ele><time>2026-04-29T12:57:47.999Z</time></trkpt><trkpt lat="43.47842372598679" lon="12.69721645135718"><ele>1360.75</ele><time>2026-04-29T12:57:48.999Z</time></trkpt><trkpt lat="43.47831246197734" lon="12.697209017752622"><ele>1361.5</ele><time>2026-04-29T12:57:49.999Z</time></trkpt><trkpt lat="43.478202271722076" lon="12.697189679123063"><ele>1362.25</ele><time>2026-04-29T12:57:50.999Z</time></trkpt><trkpt lat="43.4780831122735" lon="12.697174242280616"><ele>1363.0</ele><time>2026-04-29T12:57:51.999Z</time></trkpt><trkpt lat="43.47796438611578" lon="12.69717243056977"><ele>1361.5</ele><time>2026-04-29T12:57:52.999Z</time></trkpt><trkpt lat="43.477848165492446" lon="12.697149874636425"><ele>1360.0</ele><time>2026-04-29T12:57:53.999Z</time></trkpt><trkpt lat="43.47773575816259" lon="12.697152790801516"><ele>1358.5</ele><time>2026-04-29T12:57:54.999Z</time></trkpt><trkpt lat="43.47761498719441" lon="12.69714333486187"><ele>1357.0</ele><time>2026-04-29T12:57:55.999Z</time></trkpt><trkpt lat="43.47749139529834" lon="12.697126490142342"><ele>1357.0</ele><time>2026-04-29T12:57:56.999Z</time></trkpt><trkpt lat="43.47736540183733" lon="12.69710627210874"><ele>1357.0</ele><time>2026-04-29T12:57:57.999Z</time></trkpt><trkpt lat="43.477246730885724" lon="12.697071212325309"><ele>1357.0</ele><time>2026-04-29T12:57:58.999Z</time></trkpt><trkpt lat="43.477137446676636" lon="12.697020367774732"><ele>1357.0</ele><time>2026-04-29T12:57:59.999Z</time></trkpt><trkpt lat="43.47702389362489" lon="12.696961240788259"><ele>1358.25</ele><time>2026-04-29T12:58:00.999Z</time></trkpt><trkpt lat="43.476909465677075" lon="12.696892351271451"><ele>1359.5</ele><time>2026-04-29T12:58:01.999Z</time></trkpt><trkpt lat="43.47679831318536" lon="12.696813211946077"><ele>1360.75</ele><time>2026-04-29T12:58:02.999Z</time></trkpt><trkpt lat="43.47669800470998" lon="12.69672873403757"><ele>1362.0</ele><time>2026-04-29T12:58:03.999Z</time></trkpt><trkpt lat="43.476624107863415" lon="12.696617125363641"><ele>1362.0</ele><time>2026-04-29T12:58:04.999Z</time></trkpt><trkpt lat="43.47654754638982" lon="12.696502979310237"><ele>1362.0</ele><time>2026-04-29T12:58:05.999Z</time></trkpt><trkpt lat="43.47647937284494" lon="12.696360763403533"><ele>1362.0</ele><time>2026-04-29T12:58:06.999Z</time></trkpt><trkpt lat="43.476427787076574" lon="12.696199627099102"><ele>1362.0</ele><time>2026-04-29T12:58:07.999Z</time></trkpt><trkpt lat="43.47638169031201" lon="12.696030803102774"><ele>1358.75</ele><time>2026-04-29T12:58:08.999Z</time></trkpt><trkpt lat="43.476342902958066" lon="12.69585337464734"><ele>1355.5</ele><time>2026-04-29T12:58:09.999Z</time></trkpt><trkpt lat="43.476305906828365" lon="12.69567015785171"><ele>1352.25</ele><time>2026-04-29T12:58:10.999Z</time></trkpt><trkpt lat="43.4762598070148" lon="12.695483161616792"><ele>1349.0</ele><time>2026-04-29T12:58:11.999Z</time></trkpt><trkpt lat="43.47623054358064" lon="12.695289790157"><ele>1351.25</ele><time>2026-04-29T12:58:12.999Z</time></trkpt><trkpt lat="43.47619416736734" lon="12.69510619508873"><ele>1353.5</ele><time>2026-04-29T12:58:13.999Z</time></trkpt><trkpt lat="43.47615984318553" lon="12.694925696265035"><ele>1355.75</ele><time>2026-04-29T12:58:14.999Z</time></trkpt><trkpt lat="43.476129881139556" lon="12.694755528606272"><ele>1358.0</ele><time>2026-04-29T12:58:15.999Z</time></trkpt><trkpt lat="43.476103794290175" lon="12.694597122431256"><ele>1358.0</ele><time>2026-04-29T12:58:16.999Z</time></trkpt><trkpt lat="43.476079960546485" lon="12.694435760353857"><ele>1358.0</ele><time>2026-04-29T12:58:17.999Z</time></trkpt><trkpt lat="43.47606282883283" lon="12.694286772857927"><ele>1358.0</ele><time>2026-04-29T12:58:18.999Z</time></trkpt><trkpt lat="43.47605626610126" lon="12.694148959159982"><ele>1358.0</ele><time>2026-04-29T12:58:19.999Z</time></trkpt><trkpt lat="43.47604659863344" lon="12.694035364559396"><ele>1358.0</ele><time>2026-04-29T12:58:20.999Z</time></trkpt><trkpt lat="43.47599255511622" lon="12.693923235866626"><ele>1361.5</ele><time>2026-04-29T12:58:21.999Z</time></trkpt><trkpt lat="43.47593417401696" lon="12.693795722953789"><ele>1365.0</ele><time>2026-04-29T12:58:22.999Z</time></trkpt><trkpt lat="43.47587519263146" lon="12.69364605495883"><ele>1368.5</ele><time>2026-04-29T12:58:23.999Z</time></trkpt><trkpt lat="43.47582838524642" lon="12.693477447826552"><ele>1372.0</ele><time>2026-04-29T12:58:24.999Z</time></trkpt><trkpt lat="43.475750835130356" lon="12.693322144512598"><ele>1375.5</ele><time>2026-04-29T12:58:25.999Z</time></trkpt><trkpt lat="43.47570398554098" lon="12.693151891717688"><ele>1379.0</ele><time>2026-04-29T12:58:26.999Z</time></trkpt><trkpt lat="43.47563448577191" lon="12.69298488080501"><ele>1382.5</ele><time>2026-04-29T12:58:27.999Z</time></trkpt><trkpt lat="43.475571676886005" lon="12.692829514932649"><ele>1386.0</ele><time>2026-04-29T12:58:28.999Z</time></trkpt><trkpt lat="43.47551564244036" lon="12.692673020552894"><ele>1389.25</ele><time>2026-04-29T12:58:29.999Z</time></trkpt><trkpt lat="43.475466211926665" lon="12.692500218113844"><ele>1392.5</ele><time>2026-04-29T12:58:30.999Z</time></trkpt><trkpt lat="43.475405559391696" lon="12.692346210885331"><ele>1395.75</ele><time>2026-04-29T12:58:31.999Z</time></trkpt><trkpt lat="43.475334759933766" lon="12.692198297071029"><ele>1399.0</ele><time>2026-04-29T12:58:32.999Z</time></trkpt><trkpt lat="43.475259735359025" lon="12.692055690574124"><ele>1394.25</ele><time>2026-04-29T12:58:33.999Z</time></trkpt><trkpt lat="43.475179551225565" lon="12.691917480630066"><ele>1389.5</ele><time>2026-04-29T12:58:34.999Z</time></trkpt><trkpt lat="43.47511916918442" lon="12.691766036626959"><ele>1384.75</ele><time>2026-04-29T12:58:35.999Z</time></trkpt><trkpt lat="43.4750653713453" lon="12.6916084642232"><ele>1380.0</ele><time>2026-04-29T12:58:36.999Z</time></trkpt><trkpt lat="43.47502026902592" lon="12.691429475493127"><ele>1380.0</ele><time>2026-04-29T12:58:37.998Z</time></trkpt><trkpt lat="43.47497461256112" lon="12.691260179513334"><ele>1380.0</ele><time>2026-04-29T12:58:38.998Z</time></trkpt><trkpt lat="43.474926443414304" lon="12.691086494689275"><ele>1380.0</ele><time>2026-04-29T12:58:39.998Z</time></trkpt><trkpt lat="43.474865981035265" lon="12.690909268581846"><ele>1380.0</ele><time>2026-04-29T12:58:40.998Z</time></trkpt><trkpt lat="43.47479507193861" lon="12.690754208250521"><ele>1377.25</ele><time>2026-04-29T12:58:41.998Z</time></trkpt><trkpt lat="43.474707345275654" lon="12.690603011175508"><ele>1374.5</ele><time>2026-04-29T12:58:42.998Z</time></trkpt><trkpt lat="43.4745930719982" lon="12.690464011675708"><ele>1371.75</ele><time>2026-04-29T12:58:43.998Z</time></trkpt><trkpt lat="43.47447993822984" lon="12.690351587451552"><ele>1369.0</ele><time>2026-04-29T12:58:44.998Z</time></trkpt><trkpt lat="43.47436510356525" lon="12.690239741787778"><ele>1375.25</ele><time>2026-04-29T12:58:45.998Z</time></trkpt><trkpt lat="43.474250628811106" lon="12.690131837190467"><ele>1381.5</ele><time>2026-04-29T12:58:46.998Z</time></trkpt><trkpt lat="43.47413310504723" lon="12.690021749082918"><ele>1387.75</ele><time>2026-04-29T12:58:47.998Z</time></trkpt><trkpt lat="43.47401302286583" lon="12.689909364072"><ele>1394.0</ele><time>2026-04-29T12:58:48.998Z</time></trkpt><trkpt lat="43.473894560475316" lon="12.689822150840657"><ele>1394.0</ele><time>2026-04-29T12:58:49.998Z</time></trkpt><trkpt lat="43.47378398709527" lon="12.689756335594552"><ele>1394.0</ele><time>2026-04-29T12:58:50.998Z</time></trkpt><trkpt lat="43.47364994725362" lon="12.689696969982046"><ele>1394.0</ele><time>2026-04-29T12:58:51.998Z</time></trkpt><trkpt lat="43.47351936135105" lon="12.68967264985648"><ele>1394.0</ele><time>2026-04-29T12:58:52.998Z</time></trkpt><trkpt lat="43.47337908593924" lon="12.689641057179019"><ele>1389.25</ele><time>2026-04-29T12:58:54Z</time></trkpt><trkpt lat="43.47324567484286" lon="12.68961528233773"><ele>1384.5</ele><time>2026-04-29T12:58:55Z</time></trkpt><trkpt lat="43.473110520597984" lon="12.689560259043667"><ele>1379.75</ele><time>2026-04-29T12:58:56Z</time></trkpt><trkpt lat="43.47298657922106" lon="12.689545954579415"><ele>1375.0</ele><time>2026-04-29T12:58:57Z</time></trkpt><trkpt lat="43.47287095940567" lon="12.689552556131888"><ele>1374.75</ele><time>2026-04-29T12:58:58Z</time></trkpt><trkpt lat="43.47273735851402" lon="12.689602108923404"><ele>1374.5</ele><time>2026-04-29T12:58:59Z</time></trkpt><trkpt lat="43.472620320553055" lon="12.689726957407624"><ele>1374.25</ele><time>2026-04-29T12:59:00Z</time></trkpt><trkpt lat="43.472522919780936" lon="12.689864719611045"><ele>1374.0</ele><time>2026-04-29T12:59:01Z</time></trkpt><trkpt lat="43.472433386029785" lon="12.689991965779873"><ele>1374.0</ele><time>2026-04-29T12:59:02Z</time></trkpt><trkpt lat="43.47237968902412" lon="12.690160831676051"><ele>1374.0</ele><time>2026-04-29T12:59:03Z</time></trkpt><trkpt lat="43.472379538499105" lon="12.690344439979043"><ele>1374.0</ele><time>2026-04-29T12:59:04Z</time></trkpt><trkpt lat="43.472378945206444" lon="12.690523062117741"><ele>1374.0</ele><time>2026-04-29T12:59:05Z</time></trkpt><trkpt lat="43.47239548050188" lon="12.69070622437172"><ele>1372.0</ele><time>2026-04-29T12:59:06Z</time></trkpt><trkpt lat="43.472418319451556" lon="12.69091463163262"><ele>1370.0</ele><time>2026-04-29T12:59:07Z</time></trkpt><trkpt lat="43.47242267770608" lon="12.691122371674012"><ele>1368.0</ele><time>2026-04-29T12:59:08Z</time></trkpt><trkpt lat="43.472387732114285" lon="12.691321042021654"><ele>1368.0</ele><time>2026-04-29T12:59:09Z</time></trkpt><trkpt lat="43.47237828507216" lon="12.691526713867951"><ele>1368.0</ele><time>2026-04-29T12:59:10Z</time></trkpt><trkpt lat="43.472375516262474" lon="12.691730101933405"><ele>1368.0</ele><time>2026-04-29T12:59:11Z</time></trkpt><trkpt lat="43.47237617800952" lon="12.691945333353784"><ele>1367.6666666666667</ele><time>2026-04-29T12:59:12Z</time></trkpt><trkpt lat="43.4723794072413" lon="12.692154041871357"><ele>1367.3333333333335</ele><time>2026-04-29T12:59:13Z</time></trkpt><trkpt lat="43.472374445802785" lon="12.692361832641351"><ele>1367.0</ele><time>2026-04-29T12:59:14Z</time></trkpt><trkpt lat="43.47236103823483" lon="12.692567587212876"><ele>1365.75</ele><time>2026-04-29T12:59:15Z</time></trkpt><trkpt lat="43.472350801058006" lon="12.692763888355305"><ele>1364.5</ele><time>2026-04-29T12:59:16Z</time></trkpt><trkpt lat="43.472294300893026" lon="12.69293604710115"><ele>1363.25</ele><time>2026-04-29T12:59:17Z</time></trkpt><trkpt lat="43.47221063826149" lon="12.693081226547854"><ele>1362.0</ele><time>2026-04-29T12:59:18Z</time></trkpt><trkpt lat="43.47210941840355" lon="12.693220646485939"><ele>1368.0</ele><time>2026-04-29T12:59:19Z</time></trkpt><trkpt lat="43.471993362580925" lon="12.693346652139585"><ele>1374.0</ele><time>2026-04-29T12:59:20Z</time></trkpt><trkpt lat="43.47186821186259" lon="12.693464315866475"><ele>1380.0</ele><time>2026-04-29T12:59:21Z</time></trkpt><trkpt lat="43.4717375924893" lon="12.693575673896621"><ele>1372.6666666666667</ele><time>2026-04-29T12:59:22Z</time></trkpt><trkpt lat="43.471597345892974" lon="12.693683706596621"><ele>1365.3333333333335</ele><time>2026-04-29T12:59:23Z</time></trkpt><trkpt lat="43.471452295477306" lon="12.693790375512473"><ele>1358.0</ele><time>2026-04-29T12:59:24Z</time></trkpt><trkpt lat="43.4713033246404" lon="12.693890841029441"><ele>1362.3333333333335</ele><time>2026-04-29T12:59:25Z</time></trkpt><trkpt lat="43.47115646433585" lon="12.693988240808789"><ele>1366.6666666666667</ele><time>2026-04-29T12:59:26Z</time></trkpt><trkpt lat="43.47101211669218" lon="12.694085818943464"><ele>1371.0</ele><time>2026-04-29T12:59:27Z</time></trkpt><trkpt lat="43.47087680330377" lon="12.694163569295737"><ele>1371.0</ele><time>2026-04-29T12:59:28Z</time></trkpt><trkpt lat="43.470748989497636" lon="12.694238976597406"><ele>1371.0</ele><time>2026-04-29T12:59:29Z</time></trkpt><trkpt lat="43.470615784103664" lon="12.694295184948329"><ele>1371.0</ele><time>2026-04-29T12:59:30Z</time></trkpt><trkpt lat="43.470487296918115" lon="12.69439458165403"><ele>1371.0</ele><time>2026-04-29T12:59:31Z</time></trkpt><trkpt lat="43.47035682018076" lon="12.694492627329419"><ele>1368.25</ele><time>2026-04-29T12:59:32Z</time></trkpt><trkpt lat="43.47023266534153" lon="12.69460736714583"><ele>1365.5</ele><time>2026-04-29T12:59:33Z</time></trkpt><trkpt lat="43.47012456216527" lon="12.694746204716674"><ele>1362.75</ele><time>2026-04-29T12:59:34Z</time></trkpt><trkpt lat="43.470033011020746" lon="12.694910748578499"><ele>1360.0</ele><time>2026-04-29T12:59:35Z</time></trkpt><trkpt lat="43.469964726513126" lon="12.695097380835357"><ele>1359.0</ele><time>2026-04-29T12:59:36Z</time></trkpt><trkpt lat="43.46992484710875" lon="12.695304116193842"><ele>1358.0</ele><time>2026-04-29T12:59:37Z</time></trkpt><trkpt lat="43.46991575145422" lon="12.69551809649291"><ele>1357.0</ele><time>2026-04-29T12:59:38Z</time></trkpt><trkpt lat="43.46992410118765" lon="12.695739360839388"><ele>1357.0</ele><time>2026-04-29T12:59:39Z</time></trkpt><trkpt lat="43.46994834994113" lon="12.695958470452775"><ele>1357.0</ele><time>2026-04-29T12:59:40Z</time></trkpt><trkpt lat="43.46995347565117" lon="12.696179781858913"><ele>1357.0</ele><time>2026-04-29T12:59:40.999Z</time></trkpt><trkpt lat="43.46997443101538" lon="12.696391856310925"><ele>1358.5</ele><time>2026-04-29T12:59:41.999Z</time></trkpt><trkpt lat="43.470008126770246" lon="12.69659928418341"><ele>1360.0</ele><time>2026-04-29T12:59:42.999Z</time></trkpt><trkpt lat="43.47002141181368" lon="12.696785083203956"><ele>1361.5</ele><time>2026-04-29T12:59:43.999Z</time></trkpt><trkpt lat="43.47002626823172" lon="12.69694281429719"><ele>1363.0</ele><time>2026-04-29T12:59:44.999Z</time></trkpt><trkpt lat="43.470016517072814" lon="12.697082405167983"><ele>1363.8000000000002</ele><time>2026-04-29T12:59:45.999Z</time></trkpt><trkpt lat="43.46999958170452" lon="12.697202068085712"><ele>1364.6</ele><time>2026-04-29T12:59:46.999Z</time></trkpt><trkpt lat="43.469971058357174" lon="12.697318591067514"><ele>1365.4</ele><time>2026-04-29T12:59:47.999Z</time></trkpt><trkpt lat="43.469927132842514" lon="12.697414173992689"><ele>1366.1999999999998</ele><time>2026-04-29T12:59:48.999Z</time></trkpt><trkpt lat="43.46983573911818" lon="12.697518328602817"><ele>1367.0</ele><time>2026-04-29T12:59:50.999Z</time></trkpt><trkpt lat="43.46975973905512" lon="12.697553704394123"><ele>1367.0</ele><time>2026-04-29T12:59:57.999Z</time></trkpt><trkpt lat="43.46965400480911" lon="12.69760314955406"><ele>1367.0</ele><time>2026-04-29T12:59:59.999Z</time></trkpt><trkpt lat="43.46958037079715" lon="12.69762028157569"><ele>1367.0</ele><time>2026-04-29T13:00:00.999Z</time></trkpt><trkpt lat="43.46949670477041" lon="12.697640958031279"><ele>1367.0</ele><time>2026-04-29T13:00:01.999Z</time></trkpt><trkpt lat="43.46941207583145" lon="12.697667633996636"><ele>1367.0</ele><time>2026-04-29T13:00:02.999Z</time></trkpt><trkpt lat="43.469338207329756" lon="12.697693403812515"><ele>1367.0</ele><time>2026-04-29T13:00:03.999Z</time></trkpt><trkpt lat="43.46925509543678" lon="12.69769522191035"><ele>1365.6666666666667</ele><time>2026-04-29T13:00:04.999Z</time></trkpt><trkpt lat="43.46917374306021" lon="12.697721485678963"><ele>1364.3333333333335</ele><time>2026-04-29T13:00:05.999Z</time></trkpt><trkpt lat="43.46909480046494" lon="12.697749225975006"><ele>1363.0</ele><time>2026-04-29T13:00:06.999Z</time></trkpt><trkpt lat="43.46901501583081" lon="12.697780967369221"><ele>1361.6666666666667</ele><time>2026-04-29T13:00:07.999Z</time></trkpt><trkpt lat="43.468934759524444" lon="12.697843584241603"><ele>1360.3333333333333</ele><time>2026-04-29T13:00:08.999Z</time></trkpt><trkpt lat="43.46884412065205" lon="12.69788205626206"><ele>1359.0</ele><time>2026-04-29T13:00:09.999Z</time></trkpt><trkpt lat="43.46875008370134" lon="12.6979342704293"><ele>1359.0</ele><time>2026-04-29T13:00:10.999Z</time></trkpt><trkpt lat="43.46865605806191" lon="12.6980047495648"><ele>1359.0</ele><time>2026-04-29T13:00:11.999Z</time></trkpt><trkpt lat="43.46856340228068" lon="12.698078102231747"><ele>1359.0</ele><time>2026-04-29T13:00:12.999Z</time></trkpt><trkpt lat="43.46847774670285" lon="12.698150426319813"><ele>1359.0</ele><time>2026-04-29T13:00:13.999Z</time></trkpt><trkpt lat="43.46837690316964" lon="12.698207023865168"><ele>1359.0</ele><time>2026-04-29T13:00:14.999Z</time></trkpt><trkpt lat="43.46828184997889" lon="12.69827041929686"><ele>1359.0</ele><time>2026-04-29T13:00:15.999Z</time></trkpt><trkpt lat="43.468190417791504" lon="12.698329487494588"><ele>1359.0</ele><time>2026-04-29T13:00:16.999Z</time></trkpt><trkpt lat="43.4680929464226" lon="12.69838180121058"><ele>1359.0</ele><time>2026-04-29T13:00:17.999Z</time></trkpt><trkpt lat="43.46798377621249" lon="12.698405648649826"><ele>1359.0</ele><time>2026-04-29T13:00:18.999Z</time></trkpt><trkpt lat="43.46787448581362" lon="12.698455760840028"><ele>1359.0</ele><time>2026-04-29T13:00:19.999Z</time></trkpt><trkpt lat="43.467763632332" lon="12.698508124953443"><ele>1360.2</ele><time>2026-04-29T13:00:20.999Z</time></trkpt><trkpt lat="43.46766153889256" lon="12.698561796114454"><ele>1361.4</ele><time>2026-04-29T13:00:21.999Z</time></trkpt><trkpt lat="43.467558747148054" lon="12.698623308160709"><ele>1362.6</ele><time>2026-04-29T13:00:22.999Z</time></trkpt><trkpt lat="43.46745720539091" lon="12.698678603758152"><ele>1363.8</ele><time>2026-04-29T13:00:23.999Z</time></trkpt><trkpt lat="43.46735112764009" lon="12.698726625924328"><ele>1365.0</ele><time>2026-04-29T13:00:24.999Z</time></trkpt><trkpt lat="43.467246385361115" lon="12.698793670871332"><ele>1365.0</ele><time>2026-04-29T13:00:25.999Z</time></trkpt><trkpt lat="43.467148149331585" lon="12.698848440013482"><ele>1365.0</ele><time>2026-04-29T13:00:26.999Z</time></trkpt><trkpt lat="43.467047771346905" lon="12.698877777706134"><ele>1365.0</ele><time>2026-04-29T13:00:27.999Z</time></trkpt><trkpt lat="43.466938903464325" lon="12.69892963235945"><ele>1365.0</ele><time>2026-04-29T13:00:28.999Z</time></trkpt><trkpt lat="43.46682632180519" lon="12.698970125750103"><ele>1365.0</ele><time>2026-04-29T13:00:29.999Z</time></trkpt><trkpt lat="43.466705256716956" lon="12.699012751176939"><ele>1361.0</ele><time>2026-04-29T13:00:30.999Z</time></trkpt><trkpt lat="43.466589775323826" lon="12.699057524848227"><ele>1357.0</ele><time>2026-04-29T13:00:31.999Z</time></trkpt><trkpt lat="43.466482904838365" lon="12.699100509498342"><ele>1353.0</ele><time>2026-04-29T13:00:32.999Z</time></trkpt><trkpt lat="43.466367573964206" lon="12.699144109160596"><ele>1349.0</ele><time>2026-04-29T13:00:33.999Z</time></trkpt><trkpt lat="43.4662525171738" lon="12.699183386988452"><ele>1348.2</ele><time>2026-04-29T13:00:34.999Z</time></trkpt><trkpt lat="43.466145733169476" lon="12.699185184424804"><ele>1347.4</ele><time>2026-04-29T13:00:35.999Z</time></trkpt><trkpt lat="43.466045466892325" lon="12.699222977379423"><ele>1346.6</ele><time>2026-04-29T13:00:36.999Z</time></trkpt><trkpt lat="43.465946407545495" lon="12.699218300229164"><ele>1345.8</ele><time>2026-04-29T13:00:37.999Z</time></trkpt><trkpt lat="43.46585833516981" lon="12.699212386418656"><ele>1345.0</ele><time>2026-04-29T13:00:38.999Z</time></trkpt><trkpt lat="43.46578821267599" lon="12.699197684110668"><ele>1345.0</ele><time>2026-04-29T13:00:39.999Z</time></trkpt><trkpt lat="43.465717235764174" lon="12.699180666422855"><ele>1345.0</ele><time>2026-04-29T13:00:40.999Z</time></trkpt><trkpt lat="43.46564869169994" lon="12.699156671874865"><ele>1345.0</ele><time>2026-04-29T13:00:41.999Z</time></trkpt><trkpt lat="43.46557384309975" lon="12.699120200111299"><ele>1345.0</ele><time>2026-04-29T13:00:42.999Z</time></trkpt><trkpt lat="43.4655142522649" lon="12.69907546178901"><ele>1345.0</ele><time>2026-04-29T13:00:43.998Z</time></trkpt><trkpt lat="43.465437152172534" lon="12.699015217597772"><ele>1345.0</ele><time>2026-04-29T13:00:44.998Z</time></trkpt><trkpt lat="43.46535042776519" lon="12.698974925033433"><ele>1346.0</ele><time>2026-04-29T13:00:45.998Z</time></trkpt><trkpt lat="43.465274750796866" lon="12.69889635792561"><ele>1347.0</ele><time>2026-04-29T13:00:46.998Z</time></trkpt><trkpt lat="43.46519290745943" lon="12.698836468533862"><ele>1348.0</ele><time>2026-04-29T13:00:47.998Z</time></trkpt><trkpt lat="43.46509885738686" lon="12.698767550627197"><ele>1349.0</ele><time>2026-04-29T13:00:48.998Z</time></trkpt><trkpt lat="43.465019778579" lon="12.698729907361814"><ele>1350.0</ele><time>2026-04-29T13:00:49.998Z</time></trkpt><trkpt lat="43.46496157499827" lon="12.698678092712916"><ele>1351.0</ele><time>2026-04-29T13:00:50.998Z</time></trkpt><trkpt lat="43.46488498891196" lon="12.698655966482987"><ele>1351.0</ele><time>2026-04-29T13:00:51.998Z</time></trkpt><trkpt lat="43.464799680380565" lon="12.698664645215366"><ele>1351.0</ele><time>2026-04-29T13:00:52.998Z</time></trkpt><trkpt lat="43.464691275981515" lon="12.698688227121455"><ele>1351.0</ele><time>2026-04-29T13:00:53.998Z</time></trkpt><trkpt lat="43.464589437627325" lon="12.698693739102643"><ele>1351.0</ele><time>2026-04-29T13:00:54.998Z</time></trkpt><trkpt lat="43.46451462369624" lon="12.698655961383526"><ele>1351.0</ele><time>2026-04-29T13:00:55.998Z</time></trkpt><trkpt lat="43.46442277374232" lon="12.698619823307707"><ele>1351.1666666666665</ele><time>2026-04-29T13:00:56.998Z</time></trkpt><trkpt lat="43.4643354994416" lon="12.698586575790381"><ele>1351.3333333333333</ele><time>2026-04-29T13:00:57.998Z</time></trkpt><trkpt lat="43.46425076638274" lon="12.698577738650762"><ele>1351.5</ele><time>2026-04-29T13:00:58.998Z</time></trkpt><trkpt lat="43.464175624166046" lon="12.698519608086347"><ele>1351.6666666666667</ele><time>2026-04-29T13:01:00Z</time></trkpt><trkpt lat="43.464101787851384" lon="12.698483126246211"><ele>1351.8333333333335</ele><time>2026-04-29T13:01:01Z</time></trkpt><trkpt lat="43.46402449835267" lon="12.698457499045277"><ele>1352.0</ele><time>2026-04-29T13:01:02Z</time></trkpt><trkpt lat="43.463949325000065" lon="12.69846052295052"><ele>1351.3333333333335</ele><time>2026-04-29T13:01:03Z</time></trkpt><trkpt lat="43.46387194733432" lon="12.698495332412007"><ele>1350.6666666666667</ele><time>2026-04-29T13:01:04Z</time></trkpt><trkpt lat="43.463789181674336" lon="12.698509931696897"><ele>1350.0</ele><time>2026-04-29T13:01:05Z</time></trkpt><trkpt lat="43.463703199174354" lon="12.698564878815386"><ele>1349.3333333333333</ele><time>2026-04-29T13:01:06Z</time></trkpt><trkpt lat="43.463622374184794" lon="12.69861675698503"><ele>1348.6666666666665</ele><time>2026-04-29T13:01:07Z</time></trkpt><trkpt lat="43.46354764295307" lon="12.698658783383818"><ele>1348.0</ele><time>2026-04-29T13:01:08Z</time></trkpt><trkpt lat="43.46346387613888" lon="12.698660541079184"><ele>1348.0</ele><time>2026-04-29T13:01:09Z</time></trkpt><trkpt lat="43.46338577324623" lon="12.698659707985891"><ele>1348.0</ele><time>2026-04-29T13:01:10Z</time></trkpt><trkpt lat="43.463304917882056" lon="12.698619270385901"><ele>1348.0</ele><time>2026-04-29T13:01:11Z</time></trkpt><trkpt lat="43.46323922577675" lon="12.698577313355097"><ele>1348.0</ele><time>2026-04-29T13:01:12Z</time></trkpt><trkpt lat="43.46317879570297" lon="12.698514914471613"><ele>1348.0</ele><time>2026-04-29T13:01:13Z</time></trkpt><trkpt lat="43.46311701314945" lon="12.698452839805588"><ele>1348.0</ele><time>2026-04-29T13:01:14Z</time></trkpt><trkpt lat="43.46307773629439" lon="12.698362146790865"><ele>1345.5</ele><time>2026-04-29T13:01:15Z</time></trkpt><trkpt lat="43.46302453505593" lon="12.698283004441507"><ele>1343.0</ele><time>2026-04-29T13:01:16Z</time></trkpt><trkpt lat="43.462976164195595" lon="12.698186666627349"><ele>1340.5</ele><time>2026-04-29T13:01:17Z</time></trkpt><trkpt lat="43.46291925839752" lon="12.698075703335833"><ele>1338.0</ele><time>2026-04-29T13:01:18Z</time></trkpt><trkpt lat="43.46286292711464" lon="12.697995683254137"><ele>1335.5</ele><time>2026-04-29T13:01:19Z</time></trkpt><trkpt lat="43.46278294180192" lon="12.6979278973148"><ele>1333.0</ele><time>2026-04-29T13:01:20Z</time></trkpt><trkpt lat="43.46271656944416" lon="12.697880855999191"><ele>1333.0</ele><time>2026-04-29T13:01:21Z</time></trkpt><trkpt lat="43.462655111316984" lon="12.697832869945419"><ele>1333.0</ele><time>2026-04-29T13:01:22Z</time></trkpt><trkpt lat="43.46258398272911" lon="12.697751395094162"><ele>1333.0</ele><time>2026-04-29T13:01:24Z</time></trkpt><trkpt lat="43.46263044191531" lon="12.697685431222256"><ele>1333.0</ele><time>2026-04-29T13:01:29Z</time></trkpt><trkpt lat="43.46270015649617" lon="12.697702993289482"><ele>1333.0</ele><time>2026-04-29T13:01:30Z</time></trkpt><trkpt lat="43.462780075334486" lon="12.697733609838556"><ele>1333.0</ele><time>2026-04-29T13:01:31Z</time></trkpt><trkpt lat="43.462864507124074" lon="12.697768929059963"><ele>1329.8000000000002</ele><time>2026-04-29T13:01:32Z</time></trkpt><trkpt lat="43.462953162809356" lon="12.697799546942656"><ele>1326.6</ele><time>2026-04-29T13:01:33Z</time></trkpt><trkpt lat="43.46304549235107" lon="12.697839008619376"><ele>1323.4</ele><time>2026-04-29T13:01:34Z</time></trkpt><trkpt lat="43.46313137906058" lon="12.69785911776242"><ele>1320.1999999999998</ele><time>2026-04-29T13:01:35Z</time></trkpt><trkpt lat="43.463223613668326" lon="12.697849092940114"><ele>1317.0</ele><time>2026-04-29T13:01:36Z</time></trkpt><trkpt lat="43.46331043573236" lon="12.697807473213656"><ele>1317.0</ele><time>2026-04-29T13:01:37Z</time></trkpt><trkpt lat="43.463406981114694" lon="12.697760418799923"><ele>1317.0</ele><time>2026-04-29T13:01:38Z</time></trkpt><trkpt lat="43.46349970620321" lon="12.69768200557251"><ele>1317.0</ele><time>2026-04-29T13:01:39Z</time></trkpt><trkpt lat="43.463596329173434" lon="12.697590377135082"><ele>1317.0</ele><time>2026-04-29T13:01:40Z</time></trkpt><trkpt lat="43.463685809565234" lon="12.697517533634395"><ele>1317.0</ele><time>2026-04-29T13:01:41Z</time></trkpt><trkpt lat="43.463760901763536" lon="12.697441052175419"><ele>1313.8</ele><time>2026-04-29T13:01:41.999Z</time></trkpt><trkpt lat="43.463830839907594" lon="12.697346068046272"><ele>1310.6</ele><time>2026-04-29T13:01:42.999Z</time></trkpt><trkpt lat="43.463911928881444" lon="12.697269172687726"><ele>1307.3999999999999</ele><time>2026-04-29T13:01:43.999Z</time></trkpt><trkpt lat="43.463983808393465" lon="12.697179505557832"><ele>1304.1999999999998</ele><time>2026-04-29T13:01:44.999Z</time></trkpt><trkpt lat="43.46405025458" lon="12.697086153669016"><ele>1301.0</ele><time>2026-04-29T13:01:45.999Z</time></trkpt><trkpt lat="43.464127875552" lon="12.697015700336424"><ele>1301.0</ele><time>2026-04-29T13:01:46.999Z</time></trkpt><trkpt lat="43.464205493513326" lon="12.696943207587786"><ele>1301.0</ele><time>2026-04-29T13:01:47.999Z</time></trkpt><trkpt lat="43.464273596879295" lon="12.696873746267048"><ele>1301.0</ele><time>2026-04-29T13:01:48.999Z</time></trkpt><trkpt lat="43.46434854166675" lon="12.696814511584464"><ele>1301.0</ele><time>2026-04-29T13:01:49.999Z</time></trkpt><trkpt lat="43.464429512796514" lon="12.696807489192944"><ele>1301.0</ele><time>2026-04-29T13:01:50.999Z</time></trkpt><trkpt lat="43.4645105351146" lon="12.69680293150044"><ele>1301.0</ele><time>2026-04-29T13:01:51.999Z</time></trkpt><trkpt lat="43.46459609963" lon="12.696804598089917"><ele>1301.4</ele><time>2026-04-29T13:01:52.999Z</time></trkpt><trkpt lat="43.464669508254005" lon="12.696808602909648"><ele>1301.8</ele><time>2026-04-29T13:01:53.999Z</time></trkpt><trkpt lat="43.464832782729786" lon="12.696817436603443"><ele>1302.2</ele><time>2026-04-29T13:01:55.999Z</time></trkpt><trkpt lat="43.46491882607282" lon="12.696849610423754"><ele>1302.6000000000001</ele><time>2026-04-29T13:01:56.999Z</time></trkpt><trkpt lat="43.46501124549086" lon="12.696902683576054"><ele>1303.0</ele><time>2026-04-29T13:01:57.999Z</time></trkpt><trkpt lat="43.46511815002504" lon="12.696977581152874"><ele>1303.0</ele><time>2026-04-29T13:01:58.999Z</time></trkpt><trkpt lat="43.46520612696282" lon="12.697008558611497"><ele>1303.0</ele><time>2026-04-29T13:01:59.999Z</time></trkpt><trkpt lat="43.46530927064299" lon="12.697039911739568"><ele>1303.0</ele><time>2026-04-29T13:02:00.999Z</time></trkpt><trkpt lat="43.46540706754197" lon="12.697042991884727"><ele>1303.0</ele><time>2026-04-29T13:02:01.999Z</time></trkpt><trkpt lat="43.46550765713481" lon="12.697055565940971"><ele>1303.0</ele><time>2026-04-29T13:02:02.999Z</time></trkpt><trkpt lat="43.46559000488682" lon="12.697091044417304"><ele>1301.1666666666665</ele><time>2026-04-29T13:02:03.999Z</time></trkpt><trkpt lat="43.465680044649204" lon="12.69710908517989"><ele>1299.3333333333333</ele><time>2026-04-29T13:02:04.999Z</time></trkpt><trkpt lat="43.4657662797677" lon="12.69712636363562"><ele>1297.5</ele><time>2026-04-29T13:02:05.999Z</time></trkpt><trkpt lat="43.465857498024796" lon="12.697138997186906"><ele>1295.6666666666667</ele><time>2026-04-29T13:02:06.999Z</time></trkpt><trkpt lat="43.465924769901946" lon="12.697136279686912"><ele>1293.8333333333335</ele><time>2026-04-29T13:02:07.999Z</time></trkpt><trkpt lat="43.46601483656553" lon="12.697147162247335"><ele>1292.0</ele><time>2026-04-29T13:02:09.999Z</time></trkpt><trkpt lat="43.4660688632817" lon="12.697099278763298"><ele>1292.0</ele><time>2026-04-29T13:02:11.999Z</time></trkpt><trkpt lat="43.46611072586396" lon="12.697016315239546"><ele>1292.0</ele><time>2026-04-29T13:02:22.999Z</time></trkpt><trkpt lat="43.46604448120671" lon="12.697095545199025"><ele>1292.0</ele><time>2026-04-29T13:03:13Z</time></trkpt><trkpt lat="43.466044556686285" lon="12.697008177036508"><ele>1292.0</ele><time>2026-04-29T13:03:17Z</time></trkpt><trkpt lat="43.46586062424629" lon="12.696856969369625"><ele>1292.0</ele><time>2026-04-29T13:03:20Z</time></trkpt><trkpt lat="43.46577368479418" lon="12.696819295398745"><ele>1287.6</ele><time>2026-04-29T13:03:21Z</time></trkpt><trkpt lat="43.46570228116113" lon="12.696778845878702"><ele>1283.1999999999998</ele><time>2026-04-29T13:03:22Z</time></trkpt><trkpt lat="43.46557880937912" lon="12.696669708185334"><ele>1278.8</ele><time>2026-04-29T13:03:24Z</time></trkpt><trkpt lat="43.46550312822742" lon="12.696601773478388"><ele>1274.4</ele><time>2026-04-29T13:03:25Z</time></trkpt><trkpt lat="43.46543893009699" lon="12.696500636862229"><ele>1270.0</ele><time>2026-04-29T13:03:26Z</time></trkpt><trkpt lat="43.465387853619866" lon="12.69641168280258"><ele>1270.0</ele><time>2026-04-29T13:03:27Z</time></trkpt><trkpt lat="43.46532301300817" lon="12.696302526906225"><ele>1270.0</ele><time>2026-04-29T13:03:28Z</time></trkpt><trkpt lat="43.46525910931827" lon="12.696192320683332"><ele>1270.0</ele><time>2026-04-29T13:03:29Z</time></trkpt><trkpt lat="43.4651936552533" lon="12.69607146640372"><ele>1270.0</ele><time>2026-04-29T13:03:30Z</time></trkpt><trkpt lat="43.46513098032998" lon="12.69595890240914"><ele>1270.0</ele><time>2026-04-29T13:03:31Z</time></trkpt><trkpt lat="43.46506979513648" lon="12.695852914394237"><ele>1265.1666666666665</ele><time>2026-04-29T13:03:32Z</time></trkpt><trkpt lat="43.46500654478522" lon="12.695747730794528"><ele>1260.3333333333333</ele><time>2026-04-29T13:03:33Z</time></trkpt><trkpt lat="43.46493031348214" lon="12.695672499774428"><ele>1255.5</ele><time>2026-04-29T13:03:34Z</time></trkpt><trkpt lat="43.46486901147194" lon="12.695589533620748"><ele>1250.6666666666667</ele><time>2026-04-29T13:03:35Z</time></trkpt><trkpt lat="43.46479958508532" lon="12.695527340109523"><ele>1245.8333333333335</ele><time>2026-04-29T13:03:36Z</time></trkpt><trkpt lat="43.46472895512169" lon="12.695480896320785"><ele>1241.0</ele><time>2026-04-29T13:03:37Z</time></trkpt><trkpt lat="43.46465373147176" lon="12.695435850548455"><ele>1242.3999999999999</ele><time>2026-04-29T13:03:38Z</time></trkpt><trkpt lat="43.464569588880416" lon="12.69536949105095"><ele>1243.8</ele><time>2026-04-29T13:03:39Z</time></trkpt><trkpt lat="43.464496031013304" lon="12.695283023582546"><ele>1245.1999999999998</ele><time>2026-04-29T13:03:40Z</time></trkpt><trkpt lat="43.46444550351084" lon="12.695174107887315"><ele>1246.6</ele><time>2026-04-29T13:03:41Z</time></trkpt><trkpt lat="43.46441614038516" lon="12.69504336191791"><ele>1248.0</ele><time>2026-04-29T13:03:42Z</time></trkpt><trkpt lat="43.46441231297913" lon="12.694895201837138"><ele>1244.8333333333333</ele><time>2026-04-29T13:03:43Z</time></trkpt><trkpt lat="43.46436719272008" lon="12.69477512051716"><ele>1241.6666666666667</ele><time>2026-04-29T13:03:44Z</time></trkpt><trkpt lat="43.46433657306031" lon="12.694680255518012"><ele>1238.5</ele><time>2026-04-29T13:03:45Z</time></trkpt><trkpt lat="43.46430659020903" lon="12.69459184302229"><ele>1235.3333333333335</ele><time>2026-04-29T13:03:46Z</time></trkpt><trkpt lat="43.46421719599315" lon="12.69456619144403"><ele>1232.1666666666667</ele><time>2026-04-29T13:03:47Z</time></trkpt><trkpt lat="43.46413632594327" lon="12.694594632442218"><ele>1229.0</ele><time>2026-04-29T13:03:48Z</time></trkpt><trkpt lat="43.46405360601195" lon="12.694637708482723"><ele>1229.0</ele><time>2026-04-29T13:03:49Z</time></trkpt><trkpt lat="43.46399434175173" lon="12.69476254125038"><ele>1229.0</ele><time>2026-04-29T13:03:50Z</time></trkpt><trkpt lat="43.46392510243153" lon="12.694874614990649"><ele>1229.0</ele><time>2026-04-29T13:03:51Z</time></trkpt><trkpt lat="43.46384689268947" lon="12.694992826590898"><ele>1229.0</ele><time>2026-04-29T13:03:52Z</time></trkpt><trkpt lat="43.46377514062565" lon="12.695113670672885"><ele>1229.0</ele><time>2026-04-29T13:03:52.999Z</time></trkpt><trkpt lat="43.46368123980341" lon="12.695179587488207"><ele>1230.4</ele><time>2026-04-29T13:03:53.999Z</time></trkpt><trkpt lat="43.46359052970179" lon="12.695232388622191"><ele>1231.8000000000002</ele><time>2026-04-29T13:03:54.999Z</time></trkpt><trkpt lat="43.46350085305489" lon="12.695255944491157"><ele>1233.1999999999998</ele><time>2026-04-29T13:03:55.999Z</time></trkpt><trkpt lat="43.46340527118246" lon="12.695242709051586"><ele>1234.6</ele><time>2026-04-29T13:03:56.999Z</time></trkpt><trkpt lat="43.46330424226975" lon="12.695225844844726"><ele>1236.0</ele><time>2026-04-29T13:03:57.999Z</time></trkpt><trkpt lat="43.46318849735422" lon="12.695229500963203"><ele>1230.75</ele><time>2026-04-29T13:03:58.999Z</time></trkpt><trkpt lat="43.463065488715614" lon="12.695209743676232"><ele>1225.5</ele><time>2026-04-29T13:03:59.999Z</time></trkpt><trkpt lat="43.46294337715196" lon="12.695215367538612"><ele>1220.25</ele><time>2026-04-29T13:04:00.999Z</time></trkpt><trkpt lat="43.462833047244416" lon="12.695223257174472"><ele>1215.0</ele><time>2026-04-29T13:04:01.999Z</time></trkpt><trkpt lat="43.46272313211602" lon="12.695233732967843"><ele>1217.0</ele><time>2026-04-29T13:04:02.999Z</time></trkpt><trkpt lat="43.46261785245524" lon="12.695249612642163"><ele>1219.0</ele><time>2026-04-29T13:04:03.999Z</time></trkpt><trkpt lat="43.46250367277128" lon="12.695291719721798"><ele>1221.0</ele><time>2026-04-29T13:04:04.999Z</time></trkpt><trkpt lat="43.46238745359494" lon="12.695329173534368"><ele>1223.0</ele><time>2026-04-29T13:04:05.999Z</time></trkpt><trkpt lat="43.462281222446826" lon="12.695360535696105"><ele>1223.0</ele><time>2026-04-29T13:04:06.999Z</time></trkpt><trkpt lat="43.462179082034794" lon="12.695396143272891"><ele>1223.0</ele><time>2026-04-29T13:04:07.999Z</time></trkpt><trkpt lat="43.4620829427761" lon="12.69543321747893"><ele>1223.0</ele><time>2026-04-29T13:04:08.999Z</time></trkpt><trkpt lat="43.46198415435805" lon="12.695455952892576"><ele>1223.0</ele><time>2026-04-29T13:04:09.999Z</time></trkpt><trkpt lat="43.461882002933194" lon="12.69545554760718"><ele>1223.0</ele><time>2026-04-29T13:04:10.999Z</time></trkpt><trkpt lat="43.46178863475274" lon="12.695428414128674"><ele>1225.75</ele><time>2026-04-29T13:04:11.999Z</time></trkpt><trkpt lat="43.4616882443423" lon="12.695367973126984"><ele>1228.5</ele><time>2026-04-29T13:04:12.999Z</time></trkpt><trkpt lat="43.461584528018854" lon="12.695306984776392"><ele>1231.25</ele><time>2026-04-29T13:04:13.999Z</time></trkpt><trkpt lat="43.46146322537174" lon="12.695255289392822"><ele>1234.0</ele><time>2026-04-29T13:04:14.999Z</time></trkpt><trkpt lat="43.461342700692725" lon="12.695191049932811"><ele>1225.25</ele><time>2026-04-29T13:04:15.999Z</time></trkpt><trkpt lat="43.46121967398442" lon="12.695123957052106"><ele>1216.5</ele><time>2026-04-29T13:04:16.999Z</time></trkpt><trkpt lat="43.4610990779129" lon="12.69507792016546"><ele>1207.75</ele><time>2026-04-29T13:04:17.999Z</time></trkpt><trkpt lat="43.46099221929392" lon="12.694998306153163"><ele>1199.0</ele><time>2026-04-29T13:04:18.999Z</time></trkpt><trkpt lat="43.46088366690121" lon="12.694942299974537"><ele>1199.0</ele><time>2026-04-29T13:04:19.999Z</time></trkpt><trkpt lat="43.46077737212948" lon="12.694862281977416"><ele>1199.0</ele><time>2026-04-29T13:04:20.999Z</time></trkpt><trkpt lat="43.46068094418618" lon="12.694799222841164"><ele>1199.0</ele><time>2026-04-29T13:04:21.999Z</time></trkpt><trkpt lat="43.46057960084508" lon="12.694724397178154"><ele>1199.0</ele><time>2026-04-29T13:04:22.999Z</time></trkpt><trkpt lat="43.46048552356071" lon="12.694637573753585"><ele>1199.25</ele><time>2026-04-29T13:04:23.999Z</time></trkpt><trkpt lat="43.460390861920416" lon="12.694542846894167"><ele>1199.5</ele><time>2026-04-29T13:04:24.999Z</time></trkpt><trkpt lat="43.46028902093705" lon="12.694460642948266"><ele>1199.75</ele><time>2026-04-29T13:04:25.999Z</time></trkpt><trkpt lat="43.46017348907582" lon="12.694427632064338"><ele>1200.0</ele><time>2026-04-29T13:04:26.999Z</time></trkpt><trkpt lat="43.46006845017836" lon="12.69439828501282"><ele>1200.0</ele><time>2026-04-29T13:04:27.999Z</time></trkpt><trkpt lat="43.45996441466893" lon="12.694396239446508"><ele>1200.0</ele><time>2026-04-29T13:04:28.999Z</time></trkpt><trkpt lat="43.45986292815466" lon="12.694432285981664"><ele>1200.0</ele><time>2026-04-29T13:04:29.999Z</time></trkpt><trkpt lat="43.459756216855475" lon="12.69445825827651"><ele>1200.0</ele><time>2026-04-29T13:04:30.999Z</time></trkpt><trkpt lat="43.459639787866664" lon="12.6944989027406"><ele>1200.0</ele><time>2026-04-29T13:04:31.999Z</time></trkpt><trkpt lat="43.45953154755141" lon="12.694534681046898"><ele>1202.6666666666667</ele><time>2026-04-29T13:04:32.999Z</time></trkpt><trkpt lat="43.45942833901025" lon="12.694551384563935"><ele>1205.3333333333333</ele><time>2026-04-29T13:04:33.999Z</time></trkpt><trkpt lat="43.45934013225819" lon="12.694538415256204"><ele>1208.0</ele><time>2026-04-29T13:04:34.999Z</time></trkpt><trkpt lat="43.45927001372611" lon="12.694510138296765"><ele>1210.6666666666665</ele><time>2026-04-29T13:04:35.999Z</time></trkpt><trkpt lat="43.45919235000442" lon="12.694450502745633"><ele>1213.3333333333333</ele><time>2026-04-29T13:04:37.999Z</time></trkpt><trkpt lat="43.45923883708997" lon="12.694345263290653"><ele>1216.0</ele><time>2026-04-29T13:04:39.999Z</time></trkpt><trkpt lat="43.45929700990184" lon="12.694307129838673"><ele>1207.0</ele><time>2026-04-29T13:04:40.999Z</time></trkpt><trkpt lat="43.45938576340844" lon="12.694302246946853"><ele>1198.0</ele><time>2026-04-29T13:04:41.999Z</time></trkpt><trkpt lat="43.459476192769614" lon="12.694251268607465"><ele>1189.0</ele><time>2026-04-29T13:04:42.999Z</time></trkpt><trkpt lat="43.45956757849793" lon="12.694193011925531"><ele>1180.0</ele><time>2026-04-29T13:04:43.999Z</time></trkpt><trkpt lat="43.459640033418914" lon="12.6941101731002"><ele>1171.0</ele><time>2026-04-29T13:04:44.999Z</time></trkpt><trkpt lat="43.459721536533195" lon="12.694040370681842"><ele>1170.3999999999999</ele><time>2026-04-29T13:04:45.999Z</time></trkpt><trkpt lat="43.45978051613673" lon="12.693928291464108"><ele>1169.8</ele><time>2026-04-29T13:04:46.999Z</time></trkpt><trkpt lat="43.45985683899456" lon="12.69386318360118"><ele>1169.1999999999998</ele><time>2026-04-29T13:04:47.999Z</time></trkpt><trkpt lat="43.459947003539575" lon="12.693822796500323"><ele>1168.6</ele><time>2026-04-29T13:04:48.999Z</time></trkpt><trkpt lat="43.46003898652484" lon="12.693814036321887"><ele>1168.0</ele><time>2026-04-29T13:04:49.999Z</time></trkpt><trkpt lat="43.46013264766871" lon="12.693821135531573"><ele>1168.0</ele><time>2026-04-29T13:04:50.999Z</time></trkpt><trkpt lat="43.46024394034065" lon="12.693860142514968"><ele>1168.0</ele><time>2026-04-29T13:04:51.999Z</time></trkpt><trkpt lat="43.46035691736721" lon="12.693921882697005"><ele>1168.0</ele><time>2026-04-29T13:04:52.999Z</time></trkpt><trkpt lat="43.46046454233993" lon="12.693961861228956"><ele>1168.0</ele><time>2026-04-29T13:04:53.999Z</time></trkpt><trkpt lat="43.4605644339526" lon="12.693991626983848"><ele>1167.0</ele><time>2026-04-29T13:04:54.999Z</time></trkpt><trkpt lat="43.46067086522043" lon="12.693991834353463"><ele>1166.0</ele><time>2026-04-29T13:04:55.999Z</time></trkpt><trkpt lat="43.46076923559347" lon="12.693959159180595"><ele>1165.0</ele><time>2026-04-29T13:04:56.999Z</time></trkpt><trkpt lat="43.460870399165515" lon="12.693928880616097"><ele>1164.0</ele><time>2026-04-29T13:04:57.998Z</time></trkpt><trkpt lat="43.460978769142166" lon="12.6939378196176"><ele>1163.0</ele><time>2026-04-29T13:04:58.998Z</time></trkpt><trkpt lat="43.46108562101512" lon="12.693958181888162"><ele>1163.0</ele><time>2026-04-29T13:04:59.998Z</time></trkpt><trkpt lat="43.461193863210866" lon="12.69397147349593"><ele>1163.0</ele><time>2026-04-29T13:05:00.998Z</time></trkpt><trkpt lat="43.461296133320054" lon="12.693981441147349"><ele>1163.0</ele><time>2026-04-29T13:05:01.998Z</time></trkpt><trkpt lat="43.46139445177485" lon="12.693986815972924"><ele>1163.0</ele><time>2026-04-29T13:05:02.998Z</time></trkpt><trkpt lat="43.46148022566675" lon="12.693990789682562"><ele>1163.0</ele><time>2026-04-29T13:05:03.998Z</time></trkpt><trkpt lat="43.461567594635575" lon="12.693948576171186"><ele>1163.6</ele><time>2026-04-29T13:05:04.998Z</time></trkpt><trkpt lat="43.461652459107874" lon="12.693848484211198"><ele>1164.1999999999998</ele><time>2026-04-29T13:05:05.998Z</time></trkpt><trkpt lat="43.46172827328926" lon="12.69374982462235"><ele>1164.8</ele><time>2026-04-29T13:05:06.998Z</time></trkpt><trkpt lat="43.461808513950004" lon="12.693646251992263"><ele>1165.3999999999999</ele><time>2026-04-29T13:05:07.998Z</time></trkpt><trkpt lat="43.46187931806202" lon="12.693536486948762"><ele>1166.0</ele><time>2026-04-29T13:05:08.998Z</time></trkpt><trkpt lat="43.46195444730028" lon="12.693438712429392"><ele>1162.3999999999999</ele><time>2026-04-29T13:05:09.998Z</time></trkpt><trkpt lat="43.462033544457114" lon="12.693345305263591"><ele>1158.8</ele><time>2026-04-29T13:05:10.998Z</time></trkpt><trkpt lat="43.462114054158604" lon="12.693255429929446"><ele>1155.1999999999998</ele><time>2026-04-29T13:05:12Z</time></trkpt><trkpt lat="43.46218747108097" lon="12.693173399246147"><ele>1151.6</ele><time>2026-04-29T13:05:13Z</time></trkpt><trkpt lat="43.462268182086746" lon="12.693117192101347"><ele>1148.0</ele><time>2026-04-29T13:05:14Z</time></trkpt><trkpt lat="43.462329000195595" lon="12.693037079192262"><ele>1148.0</ele><time>2026-04-29T13:05:15Z</time></trkpt><trkpt lat="43.4623894938069" lon="12.692957252558772"><ele>1148.0</ele><time>2026-04-29T13:05:16Z</time></trkpt><trkpt lat="43.46242646091688" lon="12.692860542105903"><ele>1148.0</ele><time>2026-04-29T13:05:17Z</time></trkpt><trkpt lat="43.462480954320874" lon="12.692791422180601"><ele>1148.0</ele><time>2026-04-29T13:05:18Z</time></trkpt><trkpt lat="43.462569819119516" lon="12.692764099932205"><ele>1148.0</ele><time>2026-04-29T13:05:19Z</time></trkpt><trkpt lat="43.46265941009854" lon="12.692733441634676"><ele>1148.0</ele><time>2026-04-29T13:05:20Z</time></trkpt><trkpt lat="43.46276352992751" lon="12.692696736438307"><ele>1147.25</ele><time>2026-04-29T13:05:21Z</time></trkpt><trkpt lat="43.462862903786046" lon="12.692593251079936"><ele>1146.5</ele><time>2026-04-29T13:05:22Z</time></trkpt><trkpt lat="43.46295133152164" lon="12.692468933495"><ele>1145.75</ele><time>2026-04-29T13:05:23Z</time></trkpt><trkpt lat="43.463025882436966" lon="12.692342309313721"><ele>1145.0</ele><time>2026-04-29T13:05:24Z</time></trkpt><trkpt lat="43.46308246510625" lon="12.692207128520463"><ele>1145.0</ele><time>2026-04-29T13:05:25Z</time></trkpt><trkpt lat="43.46313810216314" lon="12.692080386261427"><ele>1145.0</ele><time>2026-04-29T13:05:26Z</time></trkpt><trkpt lat="43.46319336134433" lon="12.69193975149599"><ele>1145.0</ele><time>2026-04-29T13:05:27Z</time></trkpt><trkpt lat="43.46325130350095" lon="12.69178598631923"><ele>1145.0</ele><time>2026-04-29T13:05:28Z</time></trkpt><trkpt lat="43.46331539939811" lon="12.691626090429097"><ele>1138.5</ele><time>2026-04-29T13:05:29Z</time></trkpt><trkpt lat="43.463352378243016" lon="12.691453335264395"><ele>1132.0</ele><time>2026-04-29T13:05:30Z</time></trkpt><trkpt lat="43.46340594284555" lon="12.691309979464574"><ele>1125.5</ele><time>2026-04-29T13:05:31Z</time></trkpt><trkpt lat="43.46346538848526" lon="12.691179023141768"><ele>1119.0</ele><time>2026-04-29T13:05:32Z</time></trkpt><trkpt lat="43.46352791408005" lon="12.691072635730063"><ele>1117.2</ele><time>2026-04-29T13:05:33Z</time></trkpt><trkpt lat="43.46360098625167" lon="12.690987865360565"><ele>1115.4</ele><time>2026-04-29T13:05:34Z</time></trkpt><trkpt lat="43.46369299005765" lon="12.690911179060707"><ele>1113.6</ele><time>2026-04-29T13:05:35Z</time></trkpt><trkpt lat="43.4637925711311" lon="12.6908545145497"><ele>1111.8</ele><time>2026-04-29T13:05:36Z</time></trkpt><trkpt lat="43.46389917576555" lon="12.69081218542899"><ele>1110.0</ele><time>2026-04-29T13:05:37Z</time></trkpt><trkpt lat="43.46399707516499" lon="12.690788910692737"><ele>1110.0</ele><time>2026-04-29T13:05:38Z</time></trkpt><trkpt lat="43.46409467877229" lon="12.690798618304118"><ele>1110.0</ele><time>2026-04-29T13:05:39Z</time></trkpt><trkpt lat="43.46418639484609" lon="12.690893182815032"><ele>1110.0</ele><time>2026-04-29T13:05:40Z</time></trkpt><trkpt lat="43.464273616439854" lon="12.69090202156775"><ele>1110.0</ele><time>2026-04-29T13:05:41Z</time></trkpt><trkpt lat="43.464389909886826" lon="12.690923484527435"><ele>1110.0</ele><time>2026-04-29T13:05:43Z</time></trkpt><trkpt lat="43.464460206916" lon="12.690852104436319"><ele>1110.0</ele><time>2026-04-29T13:05:45Z</time></trkpt><trkpt lat="43.46446939777282" lon="12.690675290824645"><ele>1110.0</ele><time>2026-04-29T13:05:47Z</time></trkpt><trkpt lat="43.46445069845672" lon="12.690556033720839"><ele>1110.0</ele><time>2026-04-29T13:05:48Z</time></trkpt><trkpt lat="43.46440784998372" lon="12.690436502965289"><ele>1110.0</ele><time>2026-04-29T13:05:49Z</time></trkpt><trkpt lat="43.46437475551843" lon="12.6903181225747"><ele>1110.0</ele><time>2026-04-29T13:05:50Z</time></trkpt><trkpt lat="43.46434332545026" lon="12.690198249411399"><ele>1112.5</ele><time>2026-04-29T13:05:51Z</time></trkpt><trkpt lat="43.46435719753639" lon="12.690092589889547"><ele>1115.0</ele><time>2026-04-29T13:05:52Z</time></trkpt><trkpt lat="43.46435903616547" lon="12.689998788504738"><ele>1117.5</ele><time>2026-04-29T13:05:53Z</time></trkpt><trkpt lat="43.4644342984891" lon="12.689931345428128"><ele>1120.0</ele><time>2026-04-29T13:05:54Z</time></trkpt><trkpt lat="43.46450531876297" lon="12.689836201344438"><ele>1122.5</ele><time>2026-04-29T13:05:55Z</time></trkpt><trkpt lat="43.46455084724699" lon="12.689708458815911"><ele>1125.0</ele><time>2026-04-29T13:05:56Z</time></trkpt><trkpt lat="43.46462116746284" lon="12.689579544041363"><ele>1121.75</ele><time>2026-04-29T13:05:57Z</time></trkpt><trkpt lat="43.46466704620541" lon="12.689413621805512"><ele>1118.5</ele><time>2026-04-29T13:05:58Z</time></trkpt><trkpt lat="43.46471073458122" lon="12.689243882122224"><ele>1115.25</ele><time>2026-04-29T13:05:59Z</time></trkpt><trkpt lat="43.46474403809098" lon="12.689074866135014"><ele>1112.0</ele><time>2026-04-29T13:05:59.999Z</time></trkpt><trkpt lat="43.46479933809998" lon="12.688923506262286"><ele>1112.0</ele><time>2026-04-29T13:06:00.999Z</time></trkpt><trkpt lat="43.464864607212505" lon="12.688771983825463"><ele>1112.0</ele><time>2026-04-29T13:06:01.999Z</time></trkpt><trkpt lat="43.46491713668367" lon="12.688608269321417"><ele>1112.0</ele><time>2026-04-29T13:06:02.999Z</time></trkpt><trkpt lat="43.464941764854885" lon="12.68844141763815"><ele>1112.0</ele><time>2026-04-29T13:06:03.999Z</time></trkpt><trkpt lat="43.464982786981565" lon="12.688277862754404"><ele>1109.0</ele><time>2026-04-29T13:06:04.999Z</time></trkpt><trkpt lat="43.465010023027595" lon="12.688102259889668"><ele>1106.0</ele><time>2026-04-29T13:06:05.999Z</time></trkpt><trkpt lat="43.46504901902082" lon="12.687937390207386"><ele>1103.0</ele><time>2026-04-29T13:06:06.999Z</time></trkpt><trkpt lat="43.46507608190693" lon="12.687772492149891"><ele>1100.0</ele><time>2026-04-29T13:06:07.999Z</time></trkpt><trkpt lat="43.46510151152733" lon="12.68759714586747"><ele>1097.75</ele><time>2026-04-29T13:06:08.999Z</time></trkpt><trkpt lat="43.46510791356593" lon="12.687403873706504"><ele>1095.5</ele><time>2026-04-29T13:06:09.999Z</time></trkpt><trkpt lat="43.46511827965254" lon="12.687200393651008"><ele>1093.25</ele><time>2026-04-29T13:06:10.999Z</time></trkpt><trkpt lat="43.465114987255376" lon="12.686989092468052"><ele>1091.0</ele><time>2026-04-29T13:06:11.999Z</time></trkpt><trkpt lat="43.465108765106784" lon="12.686788104838989"><ele>1088.5</ele><time>2026-04-29T13:06:12.999Z</time></trkpt><trkpt lat="43.465110603121154" lon="12.686603890901912"><ele>1086.0</ele><time>2026-04-29T13:06:13.999Z</time></trkpt><trkpt lat="43.465110544169605" lon="12.686428789774865"><ele>1083.5</ele><time>2026-04-29T13:06:14.999Z</time></trkpt><trkpt lat="43.4651158670947" lon="12.686279087020644"><ele>1081.0</ele><time>2026-04-29T13:06:15.999Z</time></trkpt><trkpt lat="43.46512868616091" lon="12.686157893878837"><ele>1082.2</ele><time>2026-04-29T13:06:16.999Z</time></trkpt><trkpt lat="43.465173988619526" lon="12.686075318322322"><ele>1083.3999999999999</ele><time>2026-04-29T13:06:17.999Z</time></trkpt><trkpt lat="43.46523464262315" lon="12.686000009884971"><ele>1084.6</ele><time>2026-04-29T13:06:18.999Z</time></trkpt><trkpt lat="43.4653237238157" lon="12.685935255929452"><ele>1085.8</ele><time>2026-04-29T13:06:19.999Z</time></trkpt><trkpt lat="43.465433571954" lon="12.685894424090511"><ele>1087.0</ele><time>2026-04-29T13:06:20.999Z</time></trkpt><trkpt lat="43.465531174912975" lon="12.68580748146071"><ele>1087.0</ele><time>2026-04-29T13:06:21.999Z</time></trkpt><trkpt lat="43.46564214281108" lon="12.685756345623599"><ele>1087.0</ele><time>2026-04-29T13:06:22.999Z</time></trkpt><trkpt lat="43.465745351403285" lon="12.685672800483093"><ele>1087.0</ele><time>2026-04-29T13:06:23.999Z</time></trkpt><trkpt lat="43.46583127631921" lon="12.68556597247875"><ele>1087.0</ele><time>2026-04-29T13:06:24.999Z</time></trkpt><trkpt lat="43.465923729747125" lon="12.685463178295574"><ele>1087.0</ele><time>2026-04-29T13:06:25.999Z</time></trkpt><trkpt lat="43.46600703545504" lon="12.685333190641684"><ele>1087.0</ele><time>2026-04-29T13:06:26.999Z</time></trkpt><trkpt lat="43.4660844429706" lon="12.685187411861248"><ele>1087.0</ele><time>2026-04-29T13:06:27.999Z</time></trkpt><trkpt lat="43.46614947619967" lon="12.685034432281427"><ele>1087.0</ele><time>2026-04-29T13:06:28.999Z</time></trkpt><trkpt lat="43.466199015913865" lon="12.684871193884694"><ele>1088.25</ele><time>2026-04-29T13:06:29.999Z</time></trkpt><trkpt lat="43.466233007932146" lon="12.684698817776734"><ele>1089.5</ele><time>2026-04-29T13:06:30.999Z</time></trkpt><trkpt lat="43.46625513072954" lon="12.68451540719531"><ele>1090.75</ele><time>2026-04-29T13:06:31.999Z</time></trkpt><trkpt lat="43.46628367174841" lon="12.6843512548174"><ele>1092.0</ele><time>2026-04-29T13:06:32.999Z</time></trkpt><trkpt lat="43.466324456465344" lon="12.684198766353832"><ele>1092.0</ele><time>2026-04-29T13:06:33.999Z</time></trkpt><trkpt lat="43.46636891625819" lon="12.68404168648843"><ele>1092.0</ele><time>2026-04-29T13:06:34.999Z</time></trkpt><trkpt lat="43.466417993763045" lon="12.68388703436442"><ele>1092.0</ele><time>2026-04-29T13:06:35.999Z</time></trkpt><trkpt lat="43.4664637353436" lon="12.683745956682644"><ele>1092.0</ele><time>2026-04-29T13:06:36.999Z</time></trkpt><trkpt lat="43.46649334555625" lon="12.683604172790934"><ele>1091.5</ele><time>2026-04-29T13:06:37.999Z</time></trkpt><trkpt lat="43.466498344471155" lon="12.683451222947594"><ele>1091.0</ele><time>2026-04-29T13:06:38.999Z</time></trkpt><trkpt lat="43.466472151883636" lon="12.683286653714285"><ele>1090.5</ele><time>2026-04-29T13:06:39.999Z</time></trkpt><trkpt lat="43.46646829361531" lon="12.683107648301647"><ele>1090.0</ele><time>2026-04-29T13:06:40.999Z</time></trkpt><trkpt lat="43.466456139003796" lon="12.68291224770143"><ele>1090.5</ele><time>2026-04-29T13:06:41.999Z</time></trkpt><trkpt lat="43.466465360465406" lon="12.68272028796621"><ele>1091.0</ele><time>2026-04-29T13:06:42.999Z</time></trkpt><trkpt lat="43.466464625258055" lon="12.68252260804161"><ele>1091.5</ele><time>2026-04-29T13:06:43.999Z</time></trkpt><trkpt lat="43.46644415177043" lon="12.68233853593429"><ele>1092.0</ele><time>2026-04-29T13:06:44.999Z</time></trkpt><trkpt lat="43.466409184819426" lon="12.682165075146246"><ele>1092.0</ele><time>2026-04-29T13:06:45.999Z</time></trkpt><trkpt lat="43.46637209701139" lon="12.682001032098515"><ele>1092.0</ele><time>2026-04-29T13:06:46.999Z</time></trkpt><trkpt lat="43.46634584500417" lon="12.681836518789323"><ele>1092.0</ele><time>2026-04-29T13:06:47.999Z</time></trkpt><trkpt lat="43.466345894495774" lon="12.68167402274306"><ele>1092.0</ele><time>2026-04-29T13:06:48.999Z</time></trkpt><trkpt lat="43.46632260161681" lon="12.681519518016042"><ele>1093.6</ele><time>2026-04-29T13:06:49.999Z</time></trkpt><trkpt lat="43.46628730130894" lon="12.681379694222956"><ele>1095.2</ele><time>2026-04-29T13:06:50.999Z</time></trkpt><trkpt lat="43.46623606663286" lon="12.681259465097659"><ele>1096.8</ele><time>2026-04-29T13:06:51.999Z</time></trkpt><trkpt lat="43.4661646000614" lon="12.681161292748012"><ele>1098.4</ele><time>2026-04-29T13:06:52.999Z</time></trkpt><trkpt lat="43.46607189467198" lon="12.681095243796879"><ele>1100.0</ele><time>2026-04-29T13:06:53.999Z</time></trkpt><trkpt lat="43.46599852496452" lon="12.681049616945996"><ele>1096.0</ele><time>2026-04-29T13:06:54.999Z</time></trkpt><trkpt lat="43.465940873567575" lon="12.68100707793004"><ele>1092.0</ele><time>2026-04-29T13:06:55.999Z</time></trkpt><trkpt lat="43.4658421602981" lon="12.680913451178684"><ele>1088.0</ele><time>2026-04-29T13:06:57.999Z</time></trkpt><trkpt lat="43.46574177848957" lon="12.680879182644254"><ele>1084.0</ele><time>2026-04-29T13:06:59.999Z</time></trkpt><trkpt lat="43.4656663491578" lon="12.680869820618382"><ele>1080.0</ele><time>2026-04-29T13:07:00.999Z</time></trkpt><trkpt lat="43.46559063636792" lon="12.680825221701568"><ele>1076.0</ele><time>2026-04-29T13:07:01.999Z</time></trkpt><trkpt lat="43.46551312531072" lon="12.680777439307438"><ele>1066.0</ele><time>2026-04-29T13:07:02.999Z</time></trkpt><trkpt lat="43.4654350706591" lon="12.680695155569392"><ele>1056.0</ele><time>2026-04-29T13:07:03.998Z</time></trkpt><trkpt lat="43.465337681262746" lon="12.680612121077171"><ele>1046.0</ele><time>2026-04-29T13:07:04.998Z</time></trkpt><trkpt lat="43.4652430314805" lon="12.68050258524644"><ele>1036.0</ele><time>2026-04-29T13:07:05.998Z</time></trkpt><trkpt lat="43.46513493773776" lon="12.680407214825584"><ele>1036.0</ele><time>2026-04-29T13:07:06.998Z</time></trkpt><trkpt lat="43.46503107310896" lon="12.680321375884201"><ele>1036.0</ele><time>2026-04-29T13:07:07.998Z</time></trkpt><trkpt lat="43.46491717343763" lon="12.680241021440281"><ele>1036.0</ele><time>2026-04-29T13:07:08.998Z</time></trkpt><trkpt lat="43.46481627847629" lon="12.680124343091444"><ele>1036.0</ele><time>2026-04-29T13:07:09.998Z</time></trkpt><trkpt lat="43.46471012455151" lon="12.680007878644448"><ele>1032.0</ele><time>2026-04-29T13:07:10.998Z</time></trkpt><trkpt lat="43.464600055417804" lon="12.679884155117286"><ele>1028.0</ele><time>2026-04-29T13:07:11.998Z</time></trkpt><trkpt lat="43.464495952595954" lon="12.679763752739397"><ele>1024.0</ele><time>2026-04-29T13:07:12.998Z</time></trkpt><trkpt lat="43.4643950195208" lon="12.67964539544025"><ele>1020.0</ele><time>2026-04-29T13:07:13.998Z</time></trkpt><trkpt lat="43.46429780283796" lon="12.679528364310212"><ele>1025.75</ele><time>2026-04-29T13:07:14.998Z</time></trkpt><trkpt lat="43.46419439110859" lon="12.67942888482317"><ele>1031.5</ele><time>2026-04-29T13:07:15.998Z</time></trkpt><trkpt lat="43.46410863698428" lon="12.679303977928116"><ele>1037.25</ele><time>2026-04-29T13:07:16.998Z</time></trkpt><trkpt lat="43.464023221464664" lon="12.67918036040118"><ele>1043.0</ele><time>2026-04-29T13:07:18Z</time></trkpt><trkpt lat="43.4639503280024" lon="12.679047082076035"><ele>1043.0</ele><time>2026-04-29T13:07:19Z</time></trkpt><trkpt lat="43.463906175366375" lon="12.678878919877379"><ele>1043.0</ele><time>2026-04-29T13:07:20Z</time></trkpt><trkpt lat="43.463824399970584" lon="12.678724567463183"><ele>1043.0</ele><time>2026-04-29T13:07:21Z</time></trkpt><trkpt lat="43.46375553129803" lon="12.678562479703972"><ele>1043.0</ele><time>2026-04-29T13:07:22Z</time></trkpt><trkpt lat="43.463678976240224" lon="12.678415365601937"><ele>1035.75</ele><time>2026-04-29T13:07:23Z</time></trkpt><trkpt lat="43.46361198155043" lon="12.67826652856892"><ele>1028.5</ele><time>2026-04-29T13:07:24Z</time></trkpt><trkpt lat="43.463546178532376" lon="12.678114977740934"><ele>1021.25</ele><time>2026-04-29T13:07:25Z</time></trkpt><trkpt lat="43.46348212309976" lon="12.677959588111642"><ele>1014.0</ele><time>2026-04-29T13:07:26Z</time></trkpt><trkpt lat="43.46342174127941" lon="12.677807532871148"><ele>1014.75</ele><time>2026-04-29T13:07:27Z</time></trkpt><trkpt lat="43.463389797457765" lon="12.67764694786212"><ele>1015.5</ele><time>2026-04-29T13:07:28Z</time></trkpt><trkpt lat="43.46335469840521" lon="12.677493214532415"><ele>1016.25</ele><time>2026-04-29T13:07:29Z</time></trkpt><trkpt lat="43.46332686890984" lon="12.677326211335103"><ele>1017.0</ele><time>2026-04-29T13:07:30Z</time></trkpt><trkpt lat="43.4633075902616" lon="12.677161740637896"><ele>1017.0</ele><time>2026-04-29T13:07:31Z</time></trkpt><trkpt lat="43.463298193834554" lon="12.67699601807184"><ele>1017.0</ele><time>2026-04-29T13:07:32Z</time></trkpt><trkpt lat="43.46329723202771" lon="12.676826073495835"><ele>1017.0</ele><time>2026-04-29T13:07:33Z</time></trkpt><trkpt lat="43.46330079809434" lon="12.676645447311726"><ele>1017.0</ele><time>2026-04-29T13:07:34Z</time></trkpt><trkpt lat="43.463312774753355" lon="12.676461794908777"><ele>1016.5</ele><time>2026-04-29T13:07:35Z</time></trkpt><trkpt lat="43.463326221620676" lon="12.676284814070373"><ele>1016.0</ele><time>2026-04-29T13:07:36Z</time></trkpt><trkpt lat="43.46332992542201" lon="12.676106492647138"><ele>1015.5</ele><time>2026-04-29T13:07:37Z</time></trkpt><trkpt lat="43.46332783834228" lon="12.675924283884926"><ele>1015.0</ele><time>2026-04-29T13:07:38Z</time></trkpt><trkpt lat="43.46332829754554" lon="12.675750485178433"><ele>1012.0</ele><time>2026-04-29T13:07:39Z</time></trkpt><trkpt lat="43.46334204412262" lon="12.675578523594876"><ele>1009.0</ele><time>2026-04-29T13:07:40Z</time></trkpt><trkpt lat="43.46335460919726" lon="12.67539776562724"><ele>1006.0</ele><time>2026-04-29T13:07:41Z</time></trkpt><trkpt lat="43.46338614165405" lon="12.675209269786055"><ele>1003.0</ele><time>2026-04-29T13:07:42Z</time></trkpt><trkpt lat="43.46341022810054" lon="12.675013688598426"><ele>1000.0</ele><time>2026-04-29T13:07:43Z</time></trkpt><trkpt lat="43.4634504096616" lon="12.674824945144527"><ele>997.0</ele><time>2026-04-29T13:07:44Z</time></trkpt><trkpt lat="43.46347427076252" lon="12.674641340377667"><ele>994.0</ele><time>2026-04-29T13:07:45Z</time></trkpt><trkpt lat="43.46347871456568" lon="12.674470967134411"><ele>991.0</ele><time>2026-04-29T13:07:46Z</time></trkpt><trkpt lat="43.4634984015725" lon="12.674314400216371"><ele>988.8333333333333</ele><time>2026-04-29T13:07:47Z</time></trkpt><trkpt lat="43.4635305313041" lon="12.674165240807472"><ele>986.6666666666666</ele><time>2026-04-29T13:07:48Z</time></trkpt><trkpt lat="43.4635504687477" lon="12.674022401285047"><ele>984.5</ele><time>2026-04-29T13:07:49Z</time></trkpt><trkpt lat="43.46356903579594" lon="12.67390527797842"><ele>982.3333333333333</ele><time>2026-04-29T13:07:50Z</time></trkpt><trkpt lat="43.46359485471967" lon="12.673822230526252"><ele>980.1666666666666</ele><time>2026-04-29T13:07:51Z</time></trkpt><trkpt lat="43.4636416384491" lon="12.673759244565089"><ele>978.0</ele><time>2026-04-29T13:07:52Z</time></trkpt><trkpt lat="43.463729216323564" lon="12.673713249262455"><ele>984.0</ele><time>2026-04-29T13:07:53Z</time></trkpt><trkpt lat="43.46382007806869" lon="12.673665572446055"><ele>990.0</ele><time>2026-04-29T13:07:54Z</time></trkpt><trkpt lat="43.46388043323334" lon="12.67359041723725"><ele>996.0</ele><time>2026-04-29T13:07:55Z</time></trkpt><trkpt lat="43.463922436324815" lon="12.67349025880633"><ele>1002.0</ele><time>2026-04-29T13:07:56Z</time></trkpt><trkpt lat="43.46391728166986" lon="12.673354543586798"><ele>1008.0</ele><time>2026-04-29T13:07:57Z</time></trkpt><trkpt lat="43.463875146949036" lon="12.673207332617524"><ele>1008.0</ele><time>2026-04-29T13:07:58Z</time></trkpt><trkpt lat="43.46380530206279" lon="12.673073543661264"><ele>1008.0</ele><time>2026-04-29T13:07:59Z</time></trkpt><trkpt lat="43.46374167579236" lon="12.672934302118886"><ele>1008.0</ele><time>2026-04-29T13:08:00Z</time></trkpt><trkpt lat="43.463667791605836" lon="12.672811990072448"><ele>1008.0</ele><time>2026-04-29T13:08:01Z</time></trkpt><trkpt lat="43.463617535764456" lon="12.67270760999516"><ele>1008.0</ele><time>2026-04-29T13:08:02Z</time></trkpt><trkpt lat="43.463586063568606" lon="12.672586576571256"><ele>996.5</ele><time>2026-04-29T13:08:03Z</time></trkpt><trkpt lat="43.46358041309175" lon="12.672433947433053"><ele>985.0</ele><time>2026-04-29T13:08:04Z</time></trkpt><trkpt lat="43.463603698909814" lon="12.672266622462287"><ele>973.5</ele><time>2026-04-29T13:08:04.999Z</time></trkpt><trkpt lat="43.463635633206145" lon="12.672083024295516"><ele>962.0</ele><time>2026-04-29T13:08:05.999Z</time></trkpt><trkpt lat="43.463663145267205" lon="12.671892987776024"><ele>959.75</ele><time>2026-04-29T13:08:06.999Z</time></trkpt><trkpt lat="43.46368367990147" lon="12.671703232845715"><ele>957.5</ele><time>2026-04-29T13:08:07.999Z</time></trkpt><trkpt lat="43.46370960767844" lon="12.671522209562244"><ele>955.25</ele><time>2026-04-29T13:08:08.999Z</time></trkpt><trkpt lat="43.46375630762166" lon="12.671357898240148"><ele>953.0</ele><time>2026-04-29T13:08:09.999Z</time></trkpt><trkpt lat="43.46379320553344" lon="12.671189067151715"><ele>960.25</ele><time>2026-04-29T13:08:10.999Z</time></trkpt><trkpt lat="43.46382642253232" lon="12.67100804533919"><ele>967.5</ele><time>2026-04-29T13:08:11.999Z</time></trkpt><trkpt lat="43.46389319027177" lon="12.67084017030018"><ele>974.75</ele><time>2026-04-29T13:08:12.999Z</time></trkpt><trkpt lat="43.46395794155587" lon="12.67067988210593"><ele>982.0</ele><time>2026-04-29T13:08:13.999Z</time></trkpt><trkpt lat="43.46400642078949" lon="12.670517185078667"><ele>982.0</ele><time>2026-04-29T13:08:14.999Z</time></trkpt><trkpt lat="43.46403796080236" lon="12.670333904570965"><ele>982.0</ele><time>2026-04-29T13:08:15.999Z</time></trkpt><trkpt lat="43.46405261059743" lon="12.670139792691598"><ele>982.0</ele><time>2026-04-29T13:08:16.999Z</time></trkpt><trkpt lat="43.464051597474494" lon="12.669950116711659"><ele>982.0</ele><time>2026-04-29T13:08:17.999Z</time></trkpt><trkpt lat="43.46402980151961" lon="12.669774461905227"><ele>980.0</ele><time>2026-04-29T13:08:18.999Z</time></trkpt><trkpt lat="43.463991810885425" lon="12.669600922687735"><ele>978.0</ele><time>2026-04-29T13:08:19.999Z</time></trkpt><trkpt lat="43.46395409698034" lon="12.669425963402215"><ele>976.0</ele><time>2026-04-29T13:08:20.999Z</time></trkpt><trkpt lat="43.46396055557086" lon="12.669238270603422"><ele>974.0</ele><time>2026-04-29T13:08:21.999Z</time></trkpt><trkpt lat="43.46397899087012" lon="12.669044499807507"><ele>971.3333333333334</ele><time>2026-04-29T13:08:22.999Z</time></trkpt><trkpt lat="43.46400258316356" lon="12.668847500511404"><ele>968.6666666666667</ele><time>2026-04-29T13:08:23.999Z</time></trkpt><trkpt lat="43.464042688629235" lon="12.668646460958335"><ele>966.0</ele><time>2026-04-29T13:08:24.999Z</time></trkpt><trkpt lat="43.464085277524056" lon="12.668442257747577"><ele>962.0</ele><time>2026-04-29T13:08:25.999Z</time></trkpt><trkpt lat="43.464132984487534" lon="12.668239228873546"><ele>958.0</ele><time>2026-04-29T13:08:26.999Z</time></trkpt><trkpt lat="43.46418469467505" lon="12.668038065462147"><ele>954.0</ele><time>2026-04-29T13:08:27.999Z</time></trkpt><trkpt lat="43.464237207432355" lon="12.667849296053893"><ele>950.5</ele><time>2026-04-29T13:08:28.999Z</time></trkpt><trkpt lat="43.464285095840594" lon="12.66766662378157"><ele>947.0</ele><time>2026-04-29T13:08:29.999Z</time></trkpt><trkpt lat="43.46432687698719" lon="12.667488654962822"><ele>943.5</ele><time>2026-04-29T13:08:30.999Z</time></trkpt><trkpt lat="43.464361989386916" lon="12.667311179362118"><ele>940.0</ele><time>2026-04-29T13:08:31.999Z</time></trkpt><trkpt lat="43.464400905424654" lon="12.667124161672948"><ele>937.75</ele><time>2026-04-29T13:08:32.999Z</time></trkpt><trkpt lat="43.46443866594923" lon="12.666936058328126"><ele>935.5</ele><time>2026-04-29T13:08:33.999Z</time></trkpt><trkpt lat="43.464475496721356" lon="12.666758326416467"><ele>933.25</ele><time>2026-04-29T13:08:34.999Z</time></trkpt><trkpt lat="43.46451369884727" lon="12.666587271517667"><ele>931.0</ele><time>2026-04-29T13:08:35.999Z</time></trkpt><trkpt lat="43.46456324060809" lon="12.666430701673804"><ele>930.75</ele><time>2026-04-29T13:08:36.999Z</time></trkpt><trkpt lat="43.46465461174992" lon="12.666311917061071"><ele>930.5</ele><time>2026-04-29T13:08:37.999Z</time></trkpt><trkpt lat="43.46475338066369" lon="12.666208990735804"><ele>930.25</ele><time>2026-04-29T13:08:38.999Z</time></trkpt><trkpt lat="43.464862600022435" lon="12.666119494361565"><ele>930.0</ele><time>2026-04-29T13:08:39.999Z</time></trkpt><trkpt lat="43.46494863166665" lon="12.666040283143245"><ele>930.0</ele><time>2026-04-29T13:08:40.999Z</time></trkpt><trkpt lat="43.46503374343519" lon="12.666012677054516"><ele>930.0</ele><time>2026-04-29T13:08:41.999Z</time></trkpt><trkpt lat="43.465099613674795" lon="12.66596791058683"><ele>930.0</ele><time>2026-04-29T13:08:42.999Z</time></trkpt><trkpt lat="43.465199354929254" lon="12.665893858406234"><ele>930.0</ele><time>2026-04-29T13:08:44.999Z</time></trkpt><trkpt lat="43.465254196008345" lon="12.665849528189025"><ele>930.0</ele><time>2026-04-29T13:08:46.999Z</time></trkpt><trkpt lat="43.46531618991433" lon="12.66579306484324"><ele>930.0</ele><time>2026-04-29T13:08:55.999Z</time></trkpt><trkpt lat="43.46538097842033" lon="12.665729651378898"><ele>931.0</ele><time>2026-04-29T13:08:57.999Z</time></trkpt><trkpt lat="43.46545881361913" lon="12.665649569555603"><ele>932.0</ele><time>2026-04-29T13:08:59.999Z</time></trkpt><trkpt lat="43.4655266178976" lon="12.665575589283405"><ele>933.0</ele><time>2026-04-29T13:09:01.999Z</time></trkpt><trkpt lat="43.46558904530363" lon="12.665504111864351"><ele>934.0</ele><time>2026-04-29T13:09:03.999Z</time></trkpt><trkpt lat="43.465633907264625" lon="12.665441137941281"><ele>935.0</ele><time>2026-04-29T13:09:16.998Z</time></trkpt><trkpt lat="43.465686191536555" lon="12.66536273778404"><ele>936.0</ele><time>2026-04-29T13:09:20.998Z</time></trkpt><trkpt lat="43.46574782203515" lon="12.665253731315264"><ele>936.0</ele><time>2026-04-29T13:09:22.998Z</time></trkpt><trkpt lat="43.46578154685308" lon="12.665178414639996"><ele>936.0000000000001</ele><time>2026-04-29T13:09:24Z</time></trkpt><trkpt lat="43.465813292580634" lon="12.665096850032752"><ele>936.0</ele><time>2026-04-29T13:09:25Z</time></trkpt><trkpt lat="43.46582914003262" lon="12.665001860153025"><ele>936.0</ele><time>2026-04-29T13:09:26Z</time></trkpt><trkpt lat="43.4658657525108" lon="12.664915149165962"><ele>936.0000000000001</ele><time>2026-04-29T13:09:27Z</time></trkpt><trkpt lat="43.46588589121973" lon="12.66481787239611"><ele>936.0</ele><time>2026-04-29T13:09:28Z</time></trkpt><trkpt lat="43.46590839774941" lon="12.66471366863763"><ele>936.0</ele><time>2026-04-29T13:09:29Z</time></trkpt><trkpt lat="43.465934448245896" lon="12.664603977502242"><ele>936.0</ele><time>2026-04-29T13:09:30Z</time></trkpt><trkpt lat="43.46595660884656" lon="12.664512910358734"><ele>935.9999999999999</ele><time>2026-04-29T13:09:31Z</time></trkpt><trkpt lat="43.4660159420554" lon="12.6643870480282"><ele>935.9999999999999</ele><time>2026-04-29T13:09:33Z</time></trkpt><trkpt lat="43.46606374754206" lon="12.66430374673209"><ele>936.0</ele><time>2026-04-29T13:09:36Z</time></trkpt><trkpt lat="43.466122777749646" lon="12.66416089726011"><ele>936.0</ele><time>2026-04-29T13:09:38Z</time></trkpt><trkpt lat="43.466169289723524" lon="12.66405720779082"><ele>932.5999999999999</ele><time>2026-04-29T13:09:39Z</time></trkpt><trkpt lat="43.466193450272115" lon="12.663942685633964"><ele>929.1999999999999</ele><time>2026-04-29T13:09:40Z</time></trkpt><trkpt lat="43.4661813721734" lon="12.663808473646228"><ele>925.8000000000001</ele><time>2026-04-29T13:09:41Z</time></trkpt><trkpt lat="43.466139976792384" lon="12.663668898976189"><ele>922.4000000000001</ele><time>2026-04-29T13:09:42Z</time></trkpt><trkpt lat="43.46608985854419" lon="12.663536521970181"><ele>919.0</ele><time>2026-04-29T13:09:43Z</time></trkpt><trkpt lat="43.466063482089524" lon="12.663409839438385"><ele>919.0</ele><time>2026-04-29T13:09:44Z</time></trkpt><trkpt lat="43.466079974915104" lon="12.66328096430513"><ele>919.0000000000001</ele><time>2026-04-29T13:09:45Z</time></trkpt><trkpt lat="43.466098183085386" lon="12.663144460576337"><ele>919.0000000000001</ele><time>2026-04-29T13:09:46Z</time></trkpt><trkpt lat="43.46612174571004" lon="12.662993410489115"><ele>919.0</ele><time>2026-04-29T13:09:47Z</time></trkpt><trkpt lat="43.466165530702014" lon="12.66284052293698"><ele>919.0</ele><time>2026-04-29T13:09:48Z</time></trkpt><trkpt lat="43.466211596194796" lon="12.662680053711226"><ele>918.2</ele><time>2026-04-29T13:09:49Z</time></trkpt><trkpt lat="43.46626419066698" lon="12.662531847976348"><ele>917.4000000000001</ele><time>2026-04-29T13:09:50Z</time></trkpt><trkpt lat="43.46630324507141" lon="12.66239315266254"><ele>916.6</ele><time>2026-04-29T13:09:51Z</time></trkpt><trkpt lat="43.466345545992525" lon="12.662266705241185"><ele>915.8</ele><time>2026-04-29T13:09:52Z</time></trkpt><trkpt lat="43.46638724165386" lon="12.662135380896974"><ele>915.0</ele><time>2026-04-29T13:09:53Z</time></trkpt><trkpt lat="43.46644073897828" lon="12.662011156884036"><ele>916.75</ele><time>2026-04-29T13:09:54Z</time></trkpt><trkpt lat="43.46651328629057" lon="12.661895778451708"><ele>918.5</ele><time>2026-04-29T13:09:55Z</time></trkpt><trkpt lat="43.46659882164694" lon="12.661784770824198"><ele>920.25</ele><time>2026-04-29T13:09:56Z</time></trkpt><trkpt lat="43.466692873696886" lon="12.66167878316756"><ele>922.0</ele><time>2026-04-29T13:09:57Z</time></trkpt><trkpt lat="43.466802325019316" lon="12.661591870709454"><ele>922.0</ele><time>2026-04-29T13:09:58Z</time></trkpt><trkpt lat="43.46689593068699" lon="12.661475049635383"><ele>922.0</ele><time>2026-04-29T13:09:59Z</time></trkpt><trkpt lat="43.46699581439466" lon="12.6613765593732"><ele>922.0</ele><time>2026-04-29T13:10:00Z</time></trkpt><trkpt lat="43.46709004783851" lon="12.661289007594357"><ele>922.0</ele><time>2026-04-29T13:10:01Z</time></trkpt><trkpt lat="43.467181992283784" lon="12.661203207359272"><ele>920.4000000000001</ele><time>2026-04-29T13:10:02Z</time></trkpt><trkpt lat="43.46727500452384" lon="12.661106599312646"><ele>918.8000000000001</ele><time>2026-04-29T13:10:03Z</time></trkpt><trkpt lat="43.46736908017815" lon="12.661019867704884"><ele>917.2</ele><time>2026-04-29T13:10:04Z</time></trkpt><trkpt lat="43.467455449358965" lon="12.66093686738152"><ele>915.6</ele><time>2026-04-29T13:10:05Z</time></trkpt><trkpt lat="43.46753633129229" lon="12.660857714494124"><ele>914.0</ele><time>2026-04-29T13:10:06Z</time></trkpt><trkpt lat="43.46761457874722" lon="12.660785737849476"><ele>914.0000000000001</ele><time>2026-04-29T13:10:07Z</time></trkpt><trkpt lat="43.46768760944111" lon="12.660709043673085"><ele>914.0</ele><time>2026-04-29T13:10:08Z</time></trkpt><trkpt lat="43.46773893988526" lon="12.660623583179847"><ele>914.0</ele><time>2026-04-29T13:10:09Z</time></trkpt><trkpt lat="43.46775638762121" lon="12.660532036680983"><ele>914.0</ele><time>2026-04-29T13:10:10Z</time></trkpt><trkpt lat="43.467736289879966" lon="12.66044669874884"><ele>914.0000000000001</ele><time>2026-04-29T13:10:11Z</time></trkpt><trkpt lat="43.46768734139834" lon="12.660377752982177"><ele>914.0</ele><time>2026-04-29T13:10:11.999Z</time></trkpt><trkpt lat="43.46763024502103" lon="12.660298505486308"><ele>914.0</ele><time>2026-04-29T13:10:12.999Z</time></trkpt><trkpt lat="43.467531083310085" lon="12.660253414353575"><ele>914.0</ele><time>2026-04-29T13:10:13.999Z</time></trkpt><trkpt lat="43.46741011587608" lon="12.660300965459795"><ele>914.0</ele><time>2026-04-29T13:10:14.999Z</time></trkpt><trkpt lat="43.46728232127272" lon="12.660363749986322"><ele>914.0</ele><time>2026-04-29T13:10:15.999Z</time></trkpt><trkpt lat="43.467165061350165" lon="12.660420185404854"><ele>911.25</ele><time>2026-04-29T13:10:16.999Z</time></trkpt><trkpt lat="43.467049775389164" lon="12.660484566376796"><ele>908.5</ele><time>2026-04-29T13:10:17.999Z</time></trkpt><trkpt lat="43.46693658602292" lon="12.660526763997922"><ele>905.75</ele><time>2026-04-29T13:10:18.999Z</time></trkpt><trkpt lat="43.46682768364904" lon="12.660567429479219"><ele>903.0</ele><time>2026-04-29T13:10:19.999Z</time></trkpt><trkpt lat="43.4667289233254" lon="12.660630166807282"><ele>903.0</ele><time>2026-04-29T13:10:20.999Z</time></trkpt><trkpt lat="43.46663236935626" lon="12.66071569904022"><ele>903.0</ele><time>2026-04-29T13:10:21.999Z</time></trkpt><trkpt lat="43.46654431256811" lon="12.660830652499326"><ele>903.0</ele><time>2026-04-29T13:10:22.999Z</time></trkpt><trkpt lat="43.466459686631225" lon="12.660964267317372"><ele>903.0</ele><time>2026-04-29T13:10:23.999Z</time></trkpt><trkpt lat="43.466379808889094" lon="12.661088729385527"><ele>902.4</ele><time>2026-04-29T13:10:24.999Z</time></trkpt><trkpt lat="43.466289489987716" lon="12.661189633278171"><ele>901.8</ele><time>2026-04-29T13:10:25.999Z</time></trkpt><trkpt lat="43.466198138178335" lon="12.66127923887784"><ele>901.2</ele><time>2026-04-29T13:10:26.999Z</time></trkpt><trkpt lat="43.46609165596246" lon="12.661324524505112"><ele>900.6</ele><time>2026-04-29T13:10:27.999Z</time></trkpt><trkpt lat="43.46599175694661" lon="12.66134073654077"><ele>900.0</ele><time>2026-04-29T13:10:28.999Z</time></trkpt><trkpt lat="43.465895807990286" lon="12.661336715360699"><ele>900.0</ele><time>2026-04-29T13:10:29.999Z</time></trkpt><trkpt lat="43.46580012952255" lon="12.661345576279048"><ele>900.0</ele><time>2026-04-29T13:10:30.999Z</time></trkpt><trkpt lat="43.465716259820425" lon="12.661395492829678"><ele>900.0</ele><time>2026-04-29T13:10:31.999Z</time></trkpt><trkpt lat="43.46561768858942" lon="12.66144443904025"><ele>900.0</ele><time>2026-04-29T13:10:32.999Z</time></trkpt><trkpt lat="43.465511813711544" lon="12.661526946019643"><ele>900.0</ele><time>2026-04-29T13:10:33.999Z</time></trkpt><trkpt lat="43.465398925414775" lon="12.66162933636672"><ele>897.25</ele><time>2026-04-29T13:10:34.999Z</time></trkpt><trkpt lat="43.46528700724052" lon="12.6617302810788"><ele>894.5</ele><time>2026-04-29T13:10:35.999Z</time></trkpt><trkpt lat="43.46518160800021" lon="12.661832812708578"><ele>891.75</ele><time>2026-04-29T13:10:36.999Z</time></trkpt><trkpt lat="43.46508143297276" lon="12.661946258468818"><ele>889.0</ele><time>2026-04-29T13:10:37.999Z</time></trkpt><trkpt lat="43.46498552077102" lon="12.662064361958635"><ele>889.0</ele><time>2026-04-29T13:10:38.999Z</time></trkpt><trkpt lat="43.4648928254522" lon="12.662186564556633"><ele>889.0</ele><time>2026-04-29T13:10:39.999Z</time></trkpt><trkpt lat="43.46480224510911" lon="12.662312811937579"><ele>889.0</ele><time>2026-04-29T13:10:40.999Z</time></trkpt><trkpt lat="43.464718600793134" lon="12.66244134803838"><ele>889.0</ele><time>2026-04-29T13:10:41.999Z</time></trkpt><trkpt lat="43.46464507729288" lon="12.662581311615474"><ele>881.5</ele><time>2026-04-29T13:10:42.999Z</time></trkpt><trkpt lat="43.4645911430264" lon="12.662731863300191"><ele>874.0</ele><time>2026-04-29T13:10:43.999Z</time></trkpt><trkpt lat="43.46455693715004" lon="12.662896812320712"><ele>866.5</ele><time>2026-04-29T13:10:44.999Z</time></trkpt><trkpt lat="43.4645196967369" lon="12.66305276800121"><ele>859.0</ele><time>2026-04-29T13:10:45.999Z</time></trkpt><trkpt lat="43.46450193503344" lon="12.66321898638776"><ele>859.0</ele><time>2026-04-29T13:10:46.999Z</time></trkpt><trkpt lat="43.46448109983573" lon="12.663373738354569"><ele>859.0</ele><time>2026-04-29T13:10:47.999Z</time></trkpt><trkpt lat="43.464452321525826" lon="12.663529305857633"><ele>859.0</ele><time>2026-04-29T13:10:48.999Z</time></trkpt><trkpt lat="43.4644116397881" lon="12.663670150344268"><ele>859.0</ele><time>2026-04-29T13:10:49.999Z</time></trkpt><trkpt lat="43.46431994592412" lon="12.663767717119686"><ele>861.75</ele><time>2026-04-29T13:10:50.999Z</time></trkpt><trkpt lat="43.46422400628323" lon="12.663860901539588"><ele>864.5</ele><time>2026-04-29T13:10:51.999Z</time></trkpt><trkpt lat="43.464120275500576" lon="12.663965536099786"><ele>867.25</ele><time>2026-04-29T13:10:52.999Z</time></trkpt><trkpt lat="43.46400945620162" lon="12.664079938944782"><ele>870.0</ele><time>2026-04-29T13:10:53.999Z</time></trkpt><trkpt lat="43.46390318101617" lon="12.664215436472066"><ele>869.25</ele><time>2026-04-29T13:10:54.999Z</time></trkpt><trkpt lat="43.46377813909768" lon="12.664330352276945"><ele>868.5</ele><time>2026-04-29T13:10:55.999Z</time></trkpt><trkpt lat="43.46366180910674" lon="12.664445356965711"><ele>867.75</ele><time>2026-04-29T13:10:56.999Z</time></trkpt><trkpt lat="43.463544558237295" lon="12.66455360189512"><ele>867.0</ele><time>2026-04-29T13:10:57.999Z</time></trkpt><trkpt lat="43.46342893512515" lon="12.664655457815915"><ele>867.0</ele><time>2026-04-29T13:10:58.999Z</time></trkpt><trkpt lat="43.46330999617582" lon="12.66474226118104"><ele>867.0</ele><time>2026-04-29T13:10:59.999Z</time></trkpt><trkpt lat="43.46318234739643" lon="12.664798203342682"><ele>867.0</ele><time>2026-04-29T13:11:00.999Z</time></trkpt><trkpt lat="43.46306233420343" lon="12.664884072260637"><ele>867.0</ele><time>2026-04-29T13:11:01.999Z</time></trkpt><trkpt lat="43.46293893220692" lon="12.664963405098154"><ele>865.25</ele><time>2026-04-29T13:11:02.999Z</time></trkpt><trkpt lat="43.4628101415839" lon="12.665046754225175"><ele>863.5</ele><time>2026-04-29T13:11:03.999Z</time></trkpt><trkpt lat="43.46268803930025" lon="12.66515730391821"><ele>861.75</ele><time>2026-04-29T13:11:04.999Z</time></trkpt><trkpt lat="43.462567247273846" lon="12.66526737799835"><ele>860.0</ele><time>2026-04-29T13:11:05.999Z</time></trkpt><trkpt lat="43.46245332605738" lon="12.66537937118138"><ele>860.0</ele><time>2026-04-29T13:11:06.999Z</time></trkpt><trkpt lat="43.46234336632103" lon="12.665494005173066"><ele>860.0</ele><time>2026-04-29T13:11:07.999Z</time></trkpt><trkpt lat="43.46223223253383" lon="12.665601796709906"><ele>860.0</ele><time>2026-04-29T13:11:08.999Z</time></trkpt><trkpt lat="43.46211831870293" lon="12.665701977053217"><ele>860.0</ele><time>2026-04-29T13:11:09.999Z</time></trkpt><trkpt lat="43.46200262155638" lon="12.66580325319575"><ele>856.0</ele><time>2026-04-29T13:11:10.999Z</time></trkpt><trkpt lat="43.46188511493707" lon="12.66590272475324"><ele>852.0</ele><time>2026-04-29T13:11:11.999Z</time></trkpt><trkpt lat="43.461765930968134" lon="12.665997735704668"><ele>848.0</ele><time>2026-04-29T13:11:12.999Z</time></trkpt><trkpt lat="43.46165026143934" lon="12.666088465904997"><ele>844.0</ele><time>2026-04-29T13:11:13.999Z</time></trkpt><trkpt lat="43.461534691501065" lon="12.666181104990383"><ele>844.0</ele><time>2026-04-29T13:11:14.998Z</time></trkpt><trkpt lat="43.46142250751187" lon="12.666281372005866"><ele>844.0</ele><time>2026-04-29T13:11:15.998Z</time></trkpt><trkpt lat="43.46130940168941" lon="12.666399379308004"><ele>844.0</ele><time>2026-04-29T13:11:16.998Z</time></trkpt><trkpt lat="43.461186993121224" lon="12.666516718452725"><ele>844.0</ele><time>2026-04-29T13:11:17.998Z</time></trkpt><trkpt lat="43.46107955796566" lon="12.66663887567867"><ele>840.75</ele><time>2026-04-29T13:11:18.998Z</time></trkpt><trkpt lat="43.46096314696414" lon="12.666744779843004"><ele>837.5</ele><time>2026-04-29T13:11:19.998Z</time></trkpt><trkpt lat="43.460863357424785" lon="12.666869023850461"><ele>834.25</ele><time>2026-04-29T13:11:20.998Z</time></trkpt><trkpt lat="43.46076203219479" lon="12.66699206906713"><ele>831.0</ele><time>2026-04-29T13:11:21.998Z</time></trkpt><trkpt lat="43.46066217228378" lon="12.667125093927524"><ele>831.0</ele><time>2026-04-29T13:11:22.998Z</time></trkpt><trkpt lat="43.46056764236391" lon="12.667256952136116"><ele>831.0</ele><time>2026-04-29T13:11:23.998Z</time></trkpt><trkpt lat="43.46047526159443" lon="12.667392828259594"><ele>831.0</ele><time>2026-04-29T13:11:24.998Z</time></trkpt><trkpt lat="43.460394506096854" lon="12.66753372079702"><ele>831.0</ele><time>2026-04-29T13:11:25.998Z</time></trkpt><trkpt lat="43.46032736018612" lon="12.667670391063432"><ele>827.0</ele><time>2026-04-29T13:11:26.998Z</time></trkpt><trkpt lat="43.46027273118773" lon="12.667800886239524"><ele>823.0</ele><time>2026-04-29T13:11:27.998Z</time></trkpt><trkpt lat="43.460243148808736" lon="12.667932639226857"><ele>819.0</ele><time>2026-04-29T13:11:28.998Z</time></trkpt><trkpt lat="43.46024094619393" lon="12.66806649552663"><ele>815.0</ele><time>2026-04-29T13:11:30Z</time></trkpt><trkpt lat="43.46023715204476" lon="12.668178362056338"><ele>811.0</ele><time>2026-04-29T13:11:31Z</time></trkpt><trkpt lat="43.46016152532594" lon="12.668270371986853"><ele>811.0</ele><time>2026-04-29T13:11:33Z</time></trkpt><trkpt lat="43.46006977725353" lon="12.668159817285481"><ele>811.0</ele><time>2026-04-29T13:11:35Z</time></trkpt><trkpt lat="43.46006071190465" lon="12.668044109541308"><ele>811.0</ele><time>2026-04-29T13:11:36Z</time></trkpt><trkpt lat="43.460107393757525" lon="12.667912838855813"><ele>811.0</ele><time>2026-04-29T13:11:37Z</time></trkpt><trkpt lat="43.460127642669846" lon="12.66776951639346"><ele>811.0</ele><time>2026-04-29T13:11:38Z</time></trkpt><trkpt lat="43.46014405231992" lon="12.667610521347301"><ele>809.25</ele><time>2026-04-29T13:11:39Z</time></trkpt><trkpt lat="43.460166436736515" lon="12.667438294584299"><ele>807.5</ele><time>2026-04-29T13:11:40Z</time></trkpt><trkpt lat="43.46019838414864" lon="12.66726779242153"><ele>805.75</ele><time>2026-04-29T13:11:41Z</time></trkpt><trkpt lat="43.46023675035678" lon="12.667095353470655"><ele>804.0</ele><time>2026-04-29T13:11:42Z</time></trkpt><trkpt lat="43.46030176573539" lon="12.66693426643252"><ele>807.0</ele><time>2026-04-29T13:11:43Z</time></trkpt><trkpt lat="43.46036325234249" lon="12.666761505672314"><ele>810.0</ele><time>2026-04-29T13:11:44Z</time></trkpt><trkpt lat="43.46043875215767" lon="12.666591457922689"><ele>813.0</ele><time>2026-04-29T13:11:45Z</time></trkpt><trkpt lat="43.46052938328554" lon="12.66642312196157"><ele>816.0</ele><time>2026-04-29T13:11:46Z</time></trkpt><trkpt lat="43.460628637645165" lon="12.666244082653623"><ele>808.6666666666667</ele><time>2026-04-29T13:11:47Z</time></trkpt><trkpt lat="43.46070766153401" lon="12.666046357677256"><ele>801.3333333333334</ele><time>2026-04-29T13:11:48Z</time></trkpt><trkpt lat="43.46080234962285" lon="12.665859814108206"><ele>794.0</ele><time>2026-04-29T13:11:49Z</time></trkpt><trkpt lat="43.46089056401417" lon="12.665674630094227"><ele>794.0</ele><time>2026-04-29T13:11:50Z</time></trkpt><trkpt lat="43.46097995657298" lon="12.665486003036058"><ele>794.0</ele><time>2026-04-29T13:11:51Z</time></trkpt><trkpt lat="43.461075807330786" lon="12.665296576105648"><ele>794.0</ele><time>2026-04-29T13:11:52Z</time></trkpt><trkpt lat="43.46118683461129" lon="12.665123000511777"><ele>797.3333333333334</ele><time>2026-04-29T13:11:53Z</time></trkpt><trkpt lat="43.46128388718907" lon="12.664944765375587"><ele>800.6666666666667</ele><time>2026-04-29T13:11:54Z</time></trkpt><trkpt lat="43.461379187666324" lon="12.66476802900158"><ele>804.0</ele><time>2026-04-29T13:11:55Z</time></trkpt><trkpt lat="43.46147167594639" lon="12.664594605316188"><ele>798.5</ele><time>2026-04-29T13:11:56Z</time></trkpt><trkpt lat="43.46156117460479" lon="12.6644256734211"><ele>793.0</ele><time>2026-04-29T13:11:57Z</time></trkpt><trkpt lat="43.46164946374912" lon="12.664257674151974"><ele>787.5</ele><time>2026-04-29T13:11:58Z</time></trkpt><trkpt lat="43.461734603368285" lon="12.664092303328138"><ele>782.0</ele><time>2026-04-29T13:11:59Z</time></trkpt><trkpt lat="43.4618150549627" lon="12.663929813897736"><ele>782.0</ele><time>2026-04-29T13:12:00Z</time></trkpt><trkpt lat="43.46187888609948" lon="12.66375384658328"><ele>782.0</ele><time>2026-04-29T13:12:01Z</time></trkpt><trkpt lat="43.46195259608168" lon="12.663593618313659"><ele>782.0</ele><time>2026-04-29T13:12:02Z</time></trkpt><trkpt lat="43.4620347867061" lon="12.66344063829225"><ele>782.0</ele><time>2026-04-29T13:12:03Z</time></trkpt><trkpt lat="43.46210524244145" lon="12.663268095027451"><ele>779.75</ele><time>2026-04-29T13:12:04Z</time></trkpt><trkpt lat="43.46214173109624" lon="12.663081100160264"><ele>777.5</ele><time>2026-04-29T13:12:05Z</time></trkpt><trkpt lat="43.46218767118716" lon="12.662914302135016"><ele>775.25</ele><time>2026-04-29T13:12:06Z</time></trkpt><trkpt lat="43.46225086508187" lon="12.66278165170394"><ele>773.0</ele><time>2026-04-29T13:12:07Z</time></trkpt><trkpt lat="43.46229251160051" lon="12.66266187141706"><ele>773.0</ele><time>2026-04-29T13:12:08Z</time></trkpt><trkpt lat="43.46230711925866" lon="12.662556382892344"><ele>773.0</ele><time>2026-04-29T13:12:09Z</time></trkpt><trkpt lat="43.46229950837606" lon="12.662408389911366"><ele>773.0</ele><time>2026-04-29T13:12:11Z</time></trkpt><trkpt lat="43.46222491994376" lon="12.662361330353587"><ele>773.0</ele><time>2026-04-29T13:12:12Z</time></trkpt><trkpt lat="43.46214321440781" lon="12.662434737439291"><ele>773.0</ele><time>2026-04-29T13:12:13Z</time></trkpt><trkpt lat="43.462093976622924" lon="12.662531665388473"><ele>770.75</ele><time>2026-04-29T13:12:14Z</time></trkpt><trkpt lat="43.462057215105" lon="12.662656321530465"><ele>768.5</ele><time>2026-04-29T13:12:15Z</time></trkpt><trkpt lat="43.462009154469825" lon="12.662799116115355"><ele>766.25</ele><time>2026-04-29T13:12:16Z</time></trkpt><trkpt lat="43.46192627506103" lon="12.662927970374616"><ele>764.0</ele><time>2026-04-29T13:12:17Z</time></trkpt><trkpt lat="43.46183264786531" lon="12.663060380751498"><ele>764.0</ele><time>2026-04-29T13:12:17.999Z</time></trkpt><trkpt lat="43.46172549383915" lon="12.663170737890276"><ele>764.0</ele><time>2026-04-29T13:12:18.999Z</time></trkpt><trkpt lat="43.461613416846426" lon="12.663275103107486"><ele>764.0</ele><time>2026-04-29T13:12:19.999Z</time></trkpt><trkpt lat="43.461488813541784" lon="12.663382747586672"><ele>764.0</ele><time>2026-04-29T13:12:20.999Z</time></trkpt><trkpt lat="43.46135648153389" lon="12.663496988797178"><ele>760.0</ele><time>2026-04-29T13:12:21.999Z</time></trkpt><trkpt lat="43.46121918537372" lon="12.663613365718659"><ele>756.0</ele><time>2026-04-29T13:12:22.999Z</time></trkpt><trkpt lat="43.461084458455595" lon="12.66374254662926"><ele>752.0</ele><time>2026-04-29T13:12:23.999Z</time></trkpt><trkpt lat="43.4609367360278" lon="12.663845709934089"><ele>752.0</ele><time>2026-04-29T13:12:24.999Z</time></trkpt><trkpt lat="43.46078989109319" lon="12.663965006144831"><ele>752.0</ele><time>2026-04-29T13:12:25.999Z</time></trkpt><trkpt lat="43.46063927738019" lon="12.664087129230994"><ele>752.0</ele><time>2026-04-29T13:12:26.999Z</time></trkpt><trkpt lat="43.46048251809644" lon="12.664213717144708"><ele>749.3333333333333</ele><time>2026-04-29T13:12:27.999Z</time></trkpt><trkpt lat="43.46033355545739" lon="12.66435793565071"><ele>746.6666666666666</ele><time>2026-04-29T13:12:28.999Z</time></trkpt><trkpt lat="43.46018058140007" lon="12.66447944201394"><ele>744.0</ele><time>2026-04-29T13:12:29.999Z</time></trkpt><trkpt lat="43.460022801024266" lon="12.664604035985324"><ele>744.0</ele><time>2026-04-29T13:12:30.999Z</time></trkpt><trkpt lat="43.459863567552986" lon="12.664728346757434"><ele>744.0</ele><time>2026-04-29T13:12:31.999Z</time></trkpt><trkpt lat="43.45969721205093" lon="12.664854672263205"><ele>744.0</ele><time>2026-04-29T13:12:32.999Z</time></trkpt><trkpt lat="43.459530602931665" lon="12.664980032807831"><ele>743.6666666666666</ele><time>2026-04-29T13:12:33.999Z</time></trkpt><trkpt lat="43.459364856397706" lon="12.665108922381814"><ele>743.3333333333333</ele><time>2026-04-29T13:12:34.999Z</time></trkpt><trkpt lat="43.45919983603884" lon="12.665231777422672"><ele>743.0</ele><time>2026-04-29T13:12:35.999Z</time></trkpt><trkpt lat="43.459029302078726" lon="12.665358648963876"><ele>743.0</ele><time>2026-04-29T13:12:36.999Z</time></trkpt><trkpt lat="43.45885413832569" lon="12.665469831452338"><ele>743.0</ele><time>2026-04-29T13:12:37.999Z</time></trkpt><trkpt lat="43.458692099843496" lon="12.665594468535533"><ele>743.0</ele><time>2026-04-29T13:12:38.999Z</time></trkpt><trkpt lat="43.458538111289364" lon="12.665719701354524"><ele>734.3333333333333</ele><time>2026-04-29T13:12:39.999Z</time></trkpt><trkpt lat="43.45839045878018" lon="12.66585734669466"><ele>725.6666666666666</ele><time>2026-04-29T13:12:40.999Z</time></trkpt><trkpt lat="43.45825324376061" lon="12.665986854024744"><ele>717.0</ele><time>2026-04-29T13:12:41.999Z</time></trkpt><trkpt lat="43.45811903091651" lon="12.666089422805069"><ele>718.0</ele><time>2026-04-29T13:12:42.999Z</time></trkpt><trkpt lat="43.45797966419001" lon="12.66615290595662"><ele>719.0</ele><time>2026-04-29T13:12:43.999Z</time></trkpt><trkpt lat="43.45783041931728" lon="12.666195919774722"><ele>720.0</ele><time>2026-04-29T13:12:44.999Z</time></trkpt><trkpt lat="43.457685510805895" lon="12.666245876955774"><ele>721.0</ele><time>2026-04-29T13:12:45.999Z</time></trkpt><trkpt lat="43.45752685728842" lon="12.666267792317328"><ele>721.0</ele><time>2026-04-29T13:12:46.999Z</time></trkpt><trkpt lat="43.457369435603866" lon="12.666309773546402"><ele>721.0</ele><time>2026-04-29T13:12:47.999Z</time></trkpt><trkpt lat="43.457224302280736" lon="12.666388199355513"><ele>721.0</ele><time>2026-04-29T13:12:48.999Z</time></trkpt><trkpt lat="43.45710385765573" lon="12.666492134893161"><ele>714.4</ele><time>2026-04-29T13:12:49.999Z</time></trkpt><trkpt lat="43.45702013870645" lon="12.666615983856197"><ele>707.8</ele><time>2026-04-29T13:12:50.999Z</time></trkpt><trkpt lat="43.456939643068154" lon="12.666690946101943"><ele>701.1999999999999</ele><time>2026-04-29T13:12:51.999Z</time></trkpt><trkpt lat="43.45688360966446" lon="12.666755870264119"><ele>694.5999999999999</ele><time>2026-04-29T13:12:52.999Z</time></trkpt><trkpt lat="43.4567899314403" lon="12.66675790971398"><ele>688.0</ele><time>2026-04-29T13:12:54.999Z</time></trkpt><trkpt lat="43.45679129433636" lon="12.666586763149759"><ele>688.0</ele><time>2026-04-29T13:12:56.999Z</time></trkpt><trkpt lat="43.45687029741997" lon="12.66652034785704"><ele>688.0</ele><time>2026-04-29T13:12:57.999Z</time></trkpt><trkpt lat="43.456953318068535" lon="12.666386702070353"><ele>688.0</ele><time>2026-04-29T13:12:58.999Z</time></trkpt><trkpt lat="43.457038151480255" lon="12.666263576438444"><ele>688.0</ele><time>2026-04-29T13:12:59.999Z</time></trkpt><trkpt lat="43.45712296499995" lon="12.666121454089144"><ele>689.5</ele><time>2026-04-29T13:13:00.999Z</time></trkpt><trkpt lat="43.45722020335325" lon="12.665977685147064"><ele>691.0</ele><time>2026-04-29T13:13:01.999Z</time></trkpt><trkpt lat="43.45733992481255" lon="12.665875866331659"><ele>692.5</ele><time>2026-04-29T13:13:02.999Z</time></trkpt><trkpt lat="43.457451963442765" lon="12.665763687080412"><ele>694.0</ele><time>2026-04-29T13:13:03.999Z</time></trkpt><trkpt lat="43.457547423775644" lon="12.66563347743257"><ele>694.0</ele><time>2026-04-29T13:13:04.999Z</time></trkpt><trkpt lat="43.45764020031488" lon="12.66550284160127"><ele>694.0</ele><time>2026-04-29T13:13:05.999Z</time></trkpt><trkpt lat="43.457727971747126" lon="12.665356745553568"><ele>694.0</ele><time>2026-04-29T13:13:06.999Z</time></trkpt><trkpt lat="43.45780089537477" lon="12.665182159789474"><ele>694.0</ele><time>2026-04-29T13:13:07.999Z</time></trkpt><trkpt lat="43.45788322359386" lon="12.665011624360982"><ele>694.25</ele><time>2026-04-29T13:13:08.999Z</time></trkpt><trkpt lat="43.45795985239534" lon="12.664848692231962"><ele>694.5</ele><time>2026-04-29T13:13:09.999Z</time></trkpt><trkpt lat="43.45804965722039" lon="12.664704984721874"><ele>694.75</ele><time>2026-04-29T13:13:10.999Z</time></trkpt><trkpt lat="43.45811644739279" lon="12.664538371378093"><ele>695.0</ele><time>2026-04-29T13:13:11.999Z</time></trkpt><trkpt lat="43.458198883515934" lon="12.66439547932148"><ele>689.5</ele><time>2026-04-29T13:13:12.999Z</time></trkpt><trkpt lat="43.45827691055494" lon="12.664251241819148"><ele>684.0</ele><time>2026-04-29T13:13:13.999Z</time></trkpt><trkpt lat="43.45835301623936" lon="12.664107138699553"><ele>678.5</ele><time>2026-04-29T13:13:14.999Z</time></trkpt><trkpt lat="43.458427427582926" lon="12.663967096434751"><ele>673.0</ele><time>2026-04-29T13:13:15.999Z</time></trkpt><trkpt lat="43.45852044944385" lon="12.663841160158242"><ele>673.0</ele><time>2026-04-29T13:13:16.999Z</time></trkpt><trkpt lat="43.4586052548114" lon="12.663675509050968"><ele>673.0</ele><time>2026-04-29T13:13:17.999Z</time></trkpt><trkpt lat="43.45870964926888" lon="12.663525904450822"><ele>673.0</ele><time>2026-04-29T13:13:18.999Z</time></trkpt><trkpt lat="43.45880629225132" lon="12.663374972861362"><ele>673.0</ele><time>2026-04-29T13:13:19.998Z</time></trkpt><trkpt lat="43.458907244329126" lon="12.663232130653489"><ele>674.0</ele><time>2026-04-29T13:13:20.998Z</time></trkpt><trkpt lat="43.45899719639702" lon="12.663084493314676"><ele>675.0</ele><time>2026-04-29T13:13:21.998Z</time></trkpt><trkpt lat="43.459083266875105" lon="12.662931747748628"><ele>676.0</ele><time>2026-04-29T13:13:22.998Z</time></trkpt><trkpt lat="43.4591507982009" lon="12.662757500286313"><ele>677.0</ele><time>2026-04-29T13:13:23.998Z</time></trkpt><trkpt lat="43.459226494881385" lon="12.662567024473532"><ele>670.3333333333333</ele><time>2026-04-29T13:13:24.998Z</time></trkpt><trkpt lat="43.459306839368764" lon="12.662373463727246"><ele>663.6666666666666</ele><time>2026-04-29T13:13:25.998Z</time></trkpt><trkpt lat="43.45938473600464" lon="12.662179154317723"><ele>657.0</ele><time>2026-04-29T13:13:26.998Z</time></trkpt><trkpt lat="43.459460264597126" lon="12.661982184472972"><ele>659.6666666666666</ele><time>2026-04-29T13:13:27.998Z</time></trkpt><trkpt lat="43.45953843383929" lon="12.66177814253064"><ele>662.3333333333333</ele><time>2026-04-29T13:13:28.998Z</time></trkpt><trkpt lat="43.45961561421729" lon="12.661562902739272"><ele>665.0</ele><time>2026-04-29T13:13:29.998Z</time></trkpt><trkpt lat="43.45969109492927" lon="12.66135956495508"><ele>665.0</ele><time>2026-04-29T13:13:30.998Z</time></trkpt><trkpt lat="43.45977004806197" lon="12.661158777797892"><ele>665.0</ele><time>2026-04-29T13:13:31.998Z</time></trkpt><trkpt lat="43.45985194404639" lon="12.660969348160362"><ele>665.0</ele><time>2026-04-29T13:13:32.998Z</time></trkpt><trkpt lat="43.45994165044809" lon="12.66078418659995"><ele>660.8</ele><time>2026-04-29T13:13:33.998Z</time></trkpt><trkpt lat="43.4600347407715" lon="12.660625569398064"><ele>656.6</ele><time>2026-04-29T13:13:34.998Z</time></trkpt><trkpt lat="43.46013257720283" lon="12.660524135062689"><ele>652.4000000000001</ele><time>2026-04-29T13:13:36Z</time></trkpt><trkpt lat="43.4602428064874" lon="12.660515526983833"><ele>648.2</ele><time>2026-04-29T13:13:37Z</time></trkpt><trkpt lat="43.46029784676144" lon="12.66046517755506"><ele>644.0</ele><time>2026-04-29T13:13:38Z</time></trkpt><trkpt lat="43.46029724552548" lon="12.660290394971934"><ele>644.0</ele><time>2026-04-29T13:13:40Z</time></trkpt><trkpt lat="43.46019405113585" lon="12.660264057006877"><ele>644.0</ele><time>2026-04-29T13:13:41Z</time></trkpt><trkpt lat="43.46010642691981" lon="12.660262423016583"><ele>644.0</ele><time>2026-04-29T13:13:42Z</time></trkpt><trkpt lat="43.46000634054536" lon="12.660386127669137"><ele>644.0</ele><time>2026-04-29T13:13:43Z</time></trkpt><trkpt lat="43.45987916278168" lon="12.660482452382016"><ele>644.0</ele><time>2026-04-29T13:13:44Z</time></trkpt><trkpt lat="43.45976212856086" lon="12.66059687801666"><ele>644.0</ele><time>2026-04-29T13:13:45Z</time></trkpt><trkpt lat="43.45964900015033" lon="12.660734755415023"><ele>644.0</ele><time>2026-04-29T13:13:46Z</time></trkpt><trkpt lat="43.45952036022511" lon="12.66086404934312"><ele>641.6666666666666</ele><time>2026-04-29T13:13:47Z</time></trkpt><trkpt lat="43.45937986163872" lon="12.660980399647356"><ele>639.3333333333334</ele><time>2026-04-29T13:13:48Z</time></trkpt><trkpt lat="43.45925337442929" lon="12.661139817544628"><ele>637.0</ele><time>2026-04-29T13:13:49Z</time></trkpt><trkpt lat="43.45911093503828" lon="12.661270861587122"><ele>637.0</ele><time>2026-04-29T13:13:50Z</time></trkpt><trkpt lat="43.45897551515395" lon="12.661425055051177"><ele>637.0</ele><time>2026-04-29T13:13:51Z</time></trkpt><trkpt lat="43.45885009421669" lon="12.661567863420848"><ele>637.0</ele><time>2026-04-29T13:13:52Z</time></trkpt><trkpt lat="43.45871970072786" lon="12.661715081660034"><ele>633.6666666666667</ele><time>2026-04-29T13:13:53Z</time></trkpt><trkpt lat="43.458588065783154" lon="12.66186158445136"><ele>630.3333333333334</ele><time>2026-04-29T13:13:54Z</time></trkpt><trkpt lat="43.45845823468648" lon="12.662004145822394"><ele>627.0</ele><time>2026-04-29T13:13:55Z</time></trkpt><trkpt lat="43.45832631872033" lon="12.662143760788105"><ele>627.0</ele><time>2026-04-29T13:13:56Z</time></trkpt><trkpt lat="43.458201247327445" lon="12.662269902453316"><ele>627.0</ele><time>2026-04-29T13:13:57Z</time></trkpt><trkpt lat="43.45809380877282" lon="12.662394565029851"><ele>627.0</ele><time>2026-04-29T13:13:58Z</time></trkpt><trkpt lat="43.4579714995613" lon="12.662477182766189"><ele>627.0</ele><time>2026-04-29T13:13:59Z</time></trkpt><trkpt lat="43.45785758372804" lon="12.662570467772314"><ele>625.5</ele><time>2026-04-29T13:14:00Z</time></trkpt><trkpt lat="43.457746139059154" lon="12.662662085779099"><ele>624.0</ele><time>2026-04-29T13:14:01Z</time></trkpt><trkpt lat="43.45763133768948" lon="12.662762327329716"><ele>622.5</ele><time>2026-04-29T13:14:02Z</time></trkpt><trkpt lat="43.4575159415377" lon="12.662873346992118"><ele>621.0</ele><time>2026-04-29T13:14:03Z</time></trkpt><trkpt lat="43.457400078404184" lon="12.662989129427544"><ele>621.0</ele><time>2026-04-29T13:14:04Z</time></trkpt><trkpt lat="43.4572992024407" lon="12.663117816398994"><ele>621.0</ele><time>2026-04-29T13:14:05Z</time></trkpt><trkpt lat="43.45718079489504" lon="12.663215689140305"><ele>621.0</ele><time>2026-04-29T13:14:06Z</time></trkpt><trkpt lat="43.45707009799106" lon="12.6633324883695"><ele>621.0</ele><time>2026-04-29T13:14:07Z</time></trkpt><trkpt lat="43.45695705765507" lon="12.663424693185952"><ele>619.5</ele><time>2026-04-29T13:14:08Z</time></trkpt><trkpt lat="43.456845576190325" lon="12.663517436401692"><ele>618.0</ele><time>2026-04-29T13:14:09Z</time></trkpt><trkpt lat="43.45674136379926" lon="12.663613008033192"><ele>616.5</ele><time>2026-04-29T13:14:10Z</time></trkpt><trkpt lat="43.456638118492805" lon="12.663709453130958"><ele>615.0</ele><time>2026-04-29T13:14:11Z</time></trkpt><trkpt lat="43.45654756518059" lon="12.663824081621609"><ele>615.0</ele><time>2026-04-29T13:14:12Z</time></trkpt><trkpt lat="43.45645451220182" lon="12.663938801885537"><ele>615.0</ele><time>2026-04-29T13:14:13Z</time></trkpt><trkpt lat="43.4563580931248" lon="12.664044490398666"><ele>615.0</ele><time>2026-04-29T13:14:14Z</time></trkpt><trkpt lat="43.456247515145975" lon="12.66412662900973"><ele>615.0</ele><time>2026-04-29T13:14:15Z</time></trkpt><trkpt lat="43.456144080464306" lon="12.6642295161815"><ele>611.0</ele><time>2026-04-29T13:14:16Z</time></trkpt><trkpt lat="43.456040316330984" lon="12.664301760721896"><ele>607.0</ele><time>2026-04-29T13:14:17Z</time></trkpt><trkpt lat="43.45593843509202" lon="12.664376029305531"><ele>603.0</ele><time>2026-04-29T13:14:18Z</time></trkpt><trkpt lat="43.455842748139844" lon="12.664465110607582"><ele>599.0</ele><time>2026-04-29T13:14:19Z</time></trkpt><trkpt lat="43.4557616875382" lon="12.664582030400485"><ele>599.0</ele><time>2026-04-29T13:14:20Z</time></trkpt><trkpt lat="43.455685806163316" lon="12.664710984682367"><ele>599.0</ele><time>2026-04-29T13:14:20.999Z</time></trkpt><trkpt lat="43.455609729909504" lon="12.664841599994448"><ele>599.0</ele><time>2026-04-29T13:14:21.999Z</time></trkpt><trkpt lat="43.45553579294309" lon="12.664971178263167"><ele>599.0</ele><time>2026-04-29T13:14:22.999Z</time></trkpt><trkpt lat="43.45544508441468" lon="12.665084505107679"><ele>593.75</ele><time>2026-04-29T13:14:23.999Z</time></trkpt><trkpt lat="43.45537379023245" lon="12.665228303750974"><ele>588.5</ele><time>2026-04-29T13:14:24.999Z</time></trkpt><trkpt lat="43.4552872709784" lon="12.665354343122438"><ele>583.25</ele><time>2026-04-29T13:14:25.999Z</time></trkpt><trkpt lat="43.45521206514593" lon="12.66547692554024"><ele>578.0</ele><time>2026-04-29T13:14:26.999Z</time></trkpt><trkpt lat="43.45513531277882" lon="12.665595499849717"><ele>578.0</ele><time>2026-04-29T13:14:27.999Z</time></trkpt><trkpt lat="43.45506602465819" lon="12.665718797299471"><ele>578.0</ele><time>2026-04-29T13:14:28.999Z</time></trkpt><trkpt lat="43.45500421336776" lon="12.665850433981149"><ele>578.0</ele><time>2026-04-29T13:14:29.999Z</time></trkpt><trkpt lat="43.45494851454723" lon="12.665990011885533"><ele>578.0</ele><time>2026-04-29T13:14:30.999Z</time></trkpt><trkpt lat="43.45491149533558" lon="12.666143154089415"><ele>580.5</ele><time>2026-04-29T13:14:31.999Z</time></trkpt><trkpt lat="43.454874783327895" lon="12.666296300886021"><ele>583.0</ele><time>2026-04-29T13:14:32.999Z</time></trkpt><trkpt lat="43.45484293873441" lon="12.666458283335245"><ele>585.5</ele><time>2026-04-29T13:14:33.999Z</time></trkpt><trkpt lat="43.45482492799772" lon="12.666624533311243"><ele>588.0</ele><time>2026-04-29T13:14:34.999Z</time></trkpt><trkpt lat="43.45478982477447" lon="12.666779236863988"><ele>588.0</ele><time>2026-04-29T13:14:35.999Z</time></trkpt><trkpt lat="43.45476303233779" lon="12.66692480178551"><ele>588.0</ele><time>2026-04-29T13:14:36.999Z</time></trkpt><trkpt lat="43.45474532480309" lon="12.667047412100878"><ele>588.0</ele><time>2026-04-29T13:14:37.999Z</time></trkpt><trkpt lat="43.45475519228013" lon="12.667158697458449"><ele>588.0</ele><time>2026-04-29T13:14:38.999Z</time></trkpt><trkpt lat="43.454805540656366" lon="12.66723538346634"><ele>588.0</ele><time>2026-04-29T13:14:39.999Z</time></trkpt><trkpt lat="43.454881272689704" lon="12.667285584629354"><ele>588.0</ele><time>2026-04-29T13:14:40.999Z</time></trkpt><trkpt lat="43.45495121095674" lon="12.667385004784846"><ele>582.5</ele><time>2026-04-29T13:14:41.999Z</time></trkpt><trkpt lat="43.455012492017914" lon="12.667504926955038"><ele>577.0</ele><time>2026-04-29T13:14:42.999Z</time></trkpt><trkpt lat="43.45507389682475" lon="12.667641507625524"><ele>571.5</ele><time>2026-04-29T13:14:43.999Z</time></trkpt><trkpt lat="43.45512457676332" lon="12.667794093454244"><ele>566.0</ele><time>2026-04-29T13:14:44.999Z</time></trkpt><trkpt lat="43.455158649694454" lon="12.66794580464026"><ele>561.75</ele><time>2026-04-29T13:14:45.999Z</time></trkpt><trkpt lat="43.455194487882046" lon="12.668096406461592"><ele>557.5</ele><time>2026-04-29T13:14:46.999Z</time></trkpt><trkpt lat="43.45518108269542" lon="12.668261143270962"><ele>553.25</ele><time>2026-04-29T13:14:47.999Z</time></trkpt><trkpt lat="43.45518791937631" lon="12.668413481634106"><ele>549.0</ele><time>2026-04-29T13:14:48.999Z</time></trkpt><trkpt lat="43.4552058698541" lon="12.668570445100888"><ele>548.5</ele><time>2026-04-29T13:14:49.999Z</time></trkpt><trkpt lat="43.4552165153698" lon="12.668717658867038"><ele>548.0</ele><time>2026-04-29T13:14:50.999Z</time></trkpt><trkpt lat="43.45520166449629" lon="12.668870448500604"><ele>547.5</ele><time>2026-04-29T13:14:51.999Z</time></trkpt><trkpt lat="43.45515911987737" lon="12.669030703285385"><ele>547.0</ele><time>2026-04-29T13:14:52.999Z</time></trkpt><trkpt lat="43.4551141920772" lon="12.66920788959573"><ele>547.0</ele><time>2026-04-29T13:14:53.999Z</time></trkpt><trkpt lat="43.45506699504697" lon="12.669392607541022"><ele>547.0</ele><time>2026-04-29T13:14:54.999Z</time></trkpt><trkpt lat="43.45502348057706" lon="12.669587416898997"><ele>547.0</ele><time>2026-04-29T13:14:55.999Z</time></trkpt><trkpt lat="43.45499254886932" lon="12.669778084686147"><ele>547.0</ele><time>2026-04-29T13:14:56.999Z</time></trkpt><trkpt lat="43.4549664363724" lon="12.669971949387653"><ele>547.0</ele><time>2026-04-29T13:14:57.999Z</time></trkpt><trkpt lat="43.45494323761346" lon="12.670167565755458"><ele>547.0</ele><time>2026-04-29T13:14:58.999Z</time></trkpt><trkpt lat="43.454947429169806" lon="12.670361328919745"><ele>547.0</ele><time>2026-04-29T13:14:59.999Z</time></trkpt><trkpt lat="43.454929157683544" lon="12.670547358594925"><ele>547.0</ele><time>2026-04-29T13:15:00.999Z</time></trkpt><trkpt lat="43.454899193171656" lon="12.67072578002276"><ele>547.0</ele><time>2026-04-29T13:15:01.999Z</time></trkpt><trkpt lat="43.454850520141626" lon="12.670889517321791"><ele>547.0</ele><time>2026-04-29T13:15:02.999Z</time></trkpt><trkpt lat="43.45480770046405" lon="12.671040267122585"><ele>547.0</ele><time>2026-04-29T13:15:03.999Z</time></trkpt><trkpt lat="43.45479674590122" lon="12.671193305407606"><ele>547.0</ele><time>2026-04-29T13:15:04.999Z</time></trkpt><trkpt lat="43.45482037573933" lon="12.671366388949217"><ele>547.0</ele><time>2026-04-29T13:15:05.999Z</time></trkpt><trkpt lat="43.454882514628245" lon="12.671544920330538"><ele>547.0</ele><time>2026-04-29T13:15:06.999Z</time></trkpt><trkpt lat="43.45495318266616" lon="12.671704720131455"><ele>547.0</ele><time>2026-04-29T13:15:07.999Z</time></trkpt><trkpt lat="43.45502739387844" lon="12.67183715155433"><ele>547.0</ele><time>2026-04-29T13:15:08.999Z</time></trkpt><trkpt lat="43.45511364401897" lon="12.67192595780033"><ele>546.6666666666667</ele><time>2026-04-29T13:15:09.999Z</time></trkpt><trkpt lat="43.45518069958975" lon="12.672016397926035"><ele>546.3333333333334</ele><time>2026-04-29T13:15:10.999Z</time></trkpt><trkpt lat="43.45523457479189" lon="12.672085141360316"><ele>546.0</ele><time>2026-04-29T13:15:11.999Z</time></trkpt><trkpt lat="43.455239758932926" lon="12.672181879281833"><ele>545.6666666666666</ele><time>2026-04-29T13:15:12.999Z</time></trkpt><trkpt lat="43.45517220875825" lon="12.672254199875947"><ele>545.3333333333333</ele><time>2026-04-29T13:15:13.999Z</time></trkpt><trkpt lat="43.45512108026198" lon="12.672323084427383"><ele>545.0</ele><time>2026-04-29T13:15:14.999Z</time></trkpt><trkpt lat="43.45505011528375" lon="12.672416931982717"><ele>545.0</ele><time>2026-04-29T13:15:15.999Z</time></trkpt><trkpt lat="43.45495061022607" lon="12.67250248079415"><ele>545.0</ele><time>2026-04-29T13:15:16.999Z</time></trkpt><trkpt lat="43.45486011580917" lon="12.672589241460877"><ele>545.0</ele><time>2026-04-29T13:15:17.999Z</time></trkpt><trkpt lat="43.45476862656774" lon="12.672684537883228"><ele>545.0</ele><time>2026-04-29T13:15:18.999Z</time></trkpt><trkpt lat="43.454663988786116" lon="12.67273912288488"><ele>544.4</ele><time>2026-04-29T13:15:19.999Z</time></trkpt><trkpt lat="43.45456831264401" lon="12.672792884767004"><ele>543.8</ele><time>2026-04-29T13:15:20.999Z</time></trkpt><trkpt lat="43.45447979213501" lon="12.672810215046745"><ele>543.2</ele><time>2026-04-29T13:15:21.999Z</time></trkpt><trkpt lat="43.45439131386758" lon="12.672773080737178"><ele>542.6</ele><time>2026-04-29T13:15:22.998Z</time></trkpt><trkpt lat="43.454298262268765" lon="12.672698118239108"><ele>542.0</ele><time>2026-04-29T13:15:23.998Z</time></trkpt><trkpt lat="43.454236203998825" lon="12.672601106740075"><ele>538.75</ele><time>2026-04-29T13:15:24.998Z</time></trkpt><trkpt lat="43.45419822274478" lon="12.672500526168715"><ele>535.5</ele><time>2026-04-29T13:15:25.998Z</time></trkpt><trkpt lat="43.454209033533424" lon="12.672347641953342"><ele>532.25</ele><time>2026-04-29T13:15:26.998Z</time></trkpt><trkpt lat="43.4542141638094" lon="12.672171806081579"><ele>529.0</ele><time>2026-04-29T13:15:27.998Z</time></trkpt><trkpt lat="43.45420523653739" lon="12.671987343441256"><ele>528.0</ele><time>2026-04-29T13:15:28.998Z</time></trkpt><trkpt lat="43.454191193970324" lon="12.671809173146189"><ele>527.0</ele><time>2026-04-29T13:15:29.998Z</time></trkpt><trkpt lat="43.454183081943654" lon="12.671646525231694"><ele>526.0</ele><time>2026-04-29T13:15:30.998Z</time></trkpt><trkpt lat="43.454171566136424" lon="12.67148996740665"><ele>525.0</ele><time>2026-04-29T13:15:31.998Z</time></trkpt><trkpt lat="43.45415234487005" lon="12.671339451375115"><ele>525.0</ele><time>2026-04-29T13:15:32.998Z</time></trkpt><trkpt lat="43.45411766964503" lon="12.671195320001692"><ele>525.0</ele><time>2026-04-29T13:15:33.998Z</time></trkpt><trkpt lat="43.45405754797548" lon="12.671066833051553"><ele>525.0</ele><time>2026-04-29T13:15:34.998Z</time></trkpt><trkpt lat="43.45397454430133" lon="12.67094083832277"><ele>525.0</ele><time>2026-04-29T13:15:35.998Z</time></trkpt><trkpt lat="43.453889668149635" lon="12.670822918215137"><ele>524.5</ele><time>2026-04-29T13:15:36.998Z</time></trkpt><trkpt lat="43.453822422430804" lon="12.670704956780186"><ele>524.0</ele><time>2026-04-29T13:15:37.998Z</time></trkpt><trkpt lat="43.45377554396796" lon="12.670567014347649"><ele>523.5</ele><time>2026-04-29T13:15:38.998Z</time></trkpt><trkpt lat="43.45375782873691" lon="12.670421999414234"><ele>523.0</ele><time>2026-04-29T13:15:39.998Z</time></trkpt><trkpt lat="43.453738147091734" lon="12.670247381755626"><ele>520.25</ele><time>2026-04-29T13:15:40.998Z</time></trkpt><trkpt lat="43.453710112662435" lon="12.670065439628006"><ele>517.5</ele><time>2026-04-29T13:15:42Z</time></trkpt><trkpt lat="43.45368192384531" lon="12.669901461266502"><ele>514.75</ele><time>2026-04-29T13:15:43Z</time></trkpt><trkpt lat="43.453661246082184" lon="12.669745576375623"><ele>512.0</ele><time>2026-04-29T13:15:44Z</time></trkpt><trkpt lat="43.45364576596464" lon="12.66959349510922"><ele>512.0</ele><time>2026-04-29T13:15:45Z</time></trkpt><trkpt lat="43.45363323657562" lon="12.669448667027531"><ele>512.0</ele><time>2026-04-29T13:15:46Z</time></trkpt><trkpt lat="43.45360500594926" lon="12.669300548745717"><ele>512.0</ele><time>2026-04-29T13:15:47Z</time></trkpt><trkpt lat="43.45356165547827" lon="12.669152394912441"><ele>512.0</ele><time>2026-04-29T13:15:48Z</time></trkpt><trkpt lat="43.45349282374441" lon="12.669007767952024"><ele>512.2</ele><time>2026-04-29T13:15:49Z</time></trkpt><trkpt lat="43.453423606232214" lon="12.668877957378214"><ele>512.4000000000001</ele><time>2026-04-29T13:15:50Z</time></trkpt><trkpt lat="43.45335766601887" lon="12.668749571597722"><ele>512.5999999999999</ele><time>2026-04-29T13:15:51Z</time></trkpt><trkpt lat="43.45332227124788" lon="12.668613780242225"><ele>512.8</ele><time>2026-04-29T13:15:52Z</time></trkpt><trkpt lat="43.453335887048596" lon="12.668473312600417"><ele>513.0</ele><time>2026-04-29T13:15:53Z</time></trkpt><trkpt lat="43.45332171212085" lon="12.6683689048405"><ele>511.2</ele><time>2026-04-29T13:15:54Z</time></trkpt><trkpt lat="43.453261061865234" lon="12.668237968988459"><ele>509.4</ele><time>2026-04-29T13:15:56Z</time></trkpt><trkpt lat="43.453197116787734" lon="12.668175959236025"><ele>507.59999999999997</ele><time>2026-04-29T13:15:57Z</time></trkpt><trkpt lat="43.45313158325136" lon="12.668099517937021"><ele>505.79999999999995</ele><time>2026-04-29T13:15:58Z</time></trkpt><trkpt lat="43.45307231832979" lon="12.668007967860976"><ele>504.0</ele><time>2026-04-29T13:15:59Z</time></trkpt><trkpt lat="43.45301804262084" lon="12.667903908669176"><ele>504.0</ele><time>2026-04-29T13:16:00Z</time></trkpt><trkpt lat="43.452979175414455" lon="12.667801077090017"><ele>504.0</ele><time>2026-04-29T13:16:01Z</time></trkpt><trkpt lat="43.45293153150887" lon="12.667691084350047"><ele>504.0</ele><time>2026-04-29T13:16:02Z</time></trkpt><trkpt lat="43.45288145392981" lon="12.667573215425636"><ele>504.0</ele><time>2026-04-29T13:16:03Z</time></trkpt><trkpt lat="43.45282607275705" lon="12.667442824422663"><ele>504.0</ele><time>2026-04-29T13:16:04Z</time></trkpt><trkpt lat="43.45276970164797" lon="12.667314117780966"><ele>503.0</ele><time>2026-04-29T13:16:05Z</time></trkpt><trkpt lat="43.452710340923524" lon="12.667198005003499"><ele>502.0</ele><time>2026-04-29T13:16:06Z</time></trkpt><trkpt lat="43.45264082088971" lon="12.667080632221676"><ele>501.0</ele><time>2026-04-29T13:16:07Z</time></trkpt><trkpt lat="43.45255623959562" lon="12.666964532875975"><ele>500.0</ele><time>2026-04-29T13:16:08Z</time></trkpt><trkpt lat="43.45247476000816" lon="12.66684738492116"><ele>499.75</ele><time>2026-04-29T13:16:09Z</time></trkpt><trkpt lat="43.45238421647181" lon="12.666750232733508"><ele>499.5</ele><time>2026-04-29T13:16:10Z</time></trkpt><trkpt lat="43.452291671747886" lon="12.666639551002046"><ele>499.25</ele><time>2026-04-29T13:16:11Z</time></trkpt><trkpt lat="43.4521979173802" lon="12.66651601115403"><ele>499.0</ele><time>2026-04-29T13:16:12Z</time></trkpt><trkpt lat="43.45209661217325" lon="12.666389032638106"><ele>499.0</ele><time>2026-04-29T13:16:13Z</time></trkpt><trkpt lat="43.451992561813725" lon="12.66626406849586"><ele>499.0</ele><time>2026-04-29T13:16:14Z</time></trkpt><trkpt lat="43.45188799703638" lon="12.6661330269774"><ele>499.0</ele><time>2026-04-29T13:16:15Z</time></trkpt><trkpt lat="43.45178205352757" lon="12.666003418607183"><ele>499.0</ele><time>2026-04-29T13:16:16Z</time></trkpt><trkpt lat="43.4516814093718" lon="12.665874988022152"><ele>498.25</ele><time>2026-04-29T13:16:17Z</time></trkpt><trkpt lat="43.45158414990578" lon="12.665730637556706"><ele>497.5</ele><time>2026-04-29T13:16:18Z</time></trkpt><trkpt lat="43.45147998754343" lon="12.665599388658025"><ele>496.75</ele><time>2026-04-29T13:16:19Z</time></trkpt><trkpt lat="43.45137055643427" lon="12.665469215303764"><ele>496.0</ele><time>2026-04-29T13:16:20Z</time></trkpt><trkpt lat="43.451274756957154" lon="12.665344233317018"><ele>495.00000000000006</ele><time>2026-04-29T13:16:21Z</time></trkpt><trkpt lat="43.45119413082211" lon="12.665237676333923"><ele>494.0</ele><time>2026-04-29T13:16:21.999Z</time></trkpt><trkpt lat="43.45112672573199" lon="12.665145493021852"><ele>493.0</ele><time>2026-04-29T13:16:22.999Z</time></trkpt><trkpt lat="43.45107422968918" lon="12.665059502633309"><ele>492.0</ele><time>2026-04-29T13:16:23.999Z</time></trkpt><trkpt lat="43.45103422866478" lon="12.664987553325542"><ele>491.00000000000006</ele><time>2026-04-29T13:16:24.999Z</time></trkpt><trkpt lat="43.45098906889332" lon="12.664916415766678"><ele>490.0</ele><time>2026-04-29T13:16:26.999Z</time></trkpt><trkpt lat="43.45106719396179" lon="12.664711954808896"><ele>490.00000000000006</ele><time>2026-04-29T13:17:58Z</time></trkpt><trkpt lat="43.45111755523679" lon="12.664634709668407"><ele>490.0</ele><time>2026-04-29T13:17:59Z</time></trkpt><trkpt lat="43.45115686182368" lon="12.664544976363533"><ele>490.0</ele><time>2026-04-29T13:18:00Z</time></trkpt><trkpt lat="43.45122378143583" lon="12.664458342573045"><ele>490.0</ele><time>2026-04-29T13:18:01Z</time></trkpt><trkpt lat="43.45129074352893" lon="12.664357151998443"><ele>490.00000000000006</ele><time>2026-04-29T13:18:02Z</time></trkpt><trkpt lat="43.4513565251227" lon="12.664248753898013"><ele>490.0</ele><time>2026-04-29T13:18:03Z</time></trkpt><trkpt lat="43.45142403246344" lon="12.664133627381142"><ele>489.4</ele><time>2026-04-29T13:18:04Z</time></trkpt><trkpt lat="43.451490506693816" lon="12.66401635670735"><ele>488.8</ele><time>2026-04-29T13:18:05Z</time></trkpt><trkpt lat="43.45156914077781" lon="12.663929283315772"><ele>488.20000000000005</ele><time>2026-04-29T13:18:06Z</time></trkpt><trkpt lat="43.45163233646115" lon="12.663832723702901"><ele>487.6</ele><time>2026-04-29T13:18:07Z</time></trkpt><trkpt lat="43.45168897695466" lon="12.663746180043711"><ele>487.0</ele><time>2026-04-29T13:18:08Z</time></trkpt><trkpt lat="43.451742478806466" lon="12.663664432087643"><ele>486.6666666666667</ele><time>2026-04-29T13:18:09Z</time></trkpt><trkpt lat="43.45179526953231" lon="12.663581288347666"><ele>486.33333333333337</ele><time>2026-04-29T13:18:10Z</time></trkpt><trkpt lat="43.45184606034237" lon="12.66349752496257"><ele>486.0</ele><time>2026-04-29T13:18:11Z</time></trkpt><trkpt lat="43.45188713178809" lon="12.663395385943387"><ele>485.66666666666663</ele><time>2026-04-29T13:18:12Z</time></trkpt><trkpt lat="43.451921554284354" lon="12.663290762254421"><ele>485.3333333333333</ele><time>2026-04-29T13:18:13Z</time></trkpt><trkpt lat="43.45193335992956" lon="12.663177888136303"><ele>485.0</ele><time>2026-04-29T13:18:14Z</time></trkpt><trkpt lat="43.45196268911325" lon="12.663084946309988"><ele>485.0</ele><time>2026-04-29T13:18:15Z</time></trkpt><trkpt lat="43.451991602587675" lon="12.662997218968535"><ele>485.0</ele><time>2026-04-29T13:18:16Z</time></trkpt><trkpt lat="43.45202073142867" lon="12.662912262053178"><ele>485.0</ele><time>2026-04-29T13:18:17Z</time></trkpt><trkpt lat="43.4520691099298" lon="12.662756735699695"><ele>485.0</ele><time>2026-04-29T13:18:19Z</time></trkpt><trkpt lat="43.45215448920848" lon="12.66266052550725"><ele>485.0</ele><time>2026-04-29T13:18:21Z</time></trkpt><trkpt lat="43.45225269662313" lon="12.662713456753"><ele>484.8333333333333</ele><time>2026-04-29T13:18:23Z</time></trkpt><trkpt lat="43.45231905101875" lon="12.66275213378655"><ele>484.66666666666663</ele><time>2026-04-29T13:18:23.999Z</time></trkpt><trkpt lat="43.45240409219494" lon="12.662787359393283"><ele>484.5</ele><time>2026-04-29T13:18:24.999Z</time></trkpt><trkpt lat="43.4524935277226" lon="12.66280692822601"><ele>484.33333333333337</ele><time>2026-04-29T13:18:25.999Z</time></trkpt><trkpt lat="43.45256524762471" lon="12.662802155264608"><ele>484.1666666666667</ele><time>2026-04-29T13:18:26.999Z</time></trkpt><trkpt lat="43.45264286170012" lon="12.662751467271107"><ele>484.0</ele><time>2026-04-29T13:18:27.999Z</time></trkpt><trkpt lat="43.45270635561438" lon="12.662692810562412"><ele>483.6</ele><time>2026-04-29T13:18:28.999Z</time></trkpt><trkpt lat="43.45276333928345" lon="12.662622835949394"><ele>483.2</ele><time>2026-04-29T13:18:29.999Z</time></trkpt><trkpt lat="43.452804566880374" lon="12.662542067476043"><ele>482.80000000000007</ele><time>2026-04-29T13:18:30.999Z</time></trkpt><trkpt lat="43.45283581931064" lon="12.662430755467218"><ele>482.40000000000003</ele><time>2026-04-29T13:18:31.999Z</time></trkpt><trkpt lat="43.45287778208289" lon="12.66229994945787"><ele>482.0</ele><time>2026-04-29T13:18:32.999Z</time></trkpt><trkpt lat="43.45293440592927" lon="12.662148665554183"><ele>481.5</ele><time>2026-04-29T13:18:33.999Z</time></trkpt><trkpt lat="43.45299783606271" lon="12.661987895366243"><ele>481.0</ele><time>2026-04-29T13:18:34.999Z</time></trkpt><trkpt lat="43.453061960178786" lon="12.661827843723302"><ele>480.5</ele><time>2026-04-29T13:18:35.999Z</time></trkpt><trkpt lat="43.453123001215886" lon="12.661690803545094"><ele>480.0</ele><time>2026-04-29T13:18:36.999Z</time></trkpt><trkpt lat="43.45317186882008" lon="12.661562157792483"><ele>478.8</ele><time>2026-04-29T13:18:37.999Z</time></trkpt><trkpt lat="43.45321706060903" lon="12.661442856455144"><ele>477.6</ele><time>2026-04-29T13:18:38.999Z</time></trkpt><trkpt lat="43.45326583110926" lon="12.661338415348325"><ele>476.4</ele><time>2026-04-29T13:18:39.999Z</time></trkpt><trkpt lat="43.453325634293606" lon="12.661228031065951"><ele>475.2</ele><time>2026-04-29T13:18:40.999Z</time></trkpt><trkpt lat="43.45340116826232" lon="12.661102023409027"><ele>474.0</ele><time>2026-04-29T13:18:41.999Z</time></trkpt><trkpt lat="43.4534875889469" lon="12.660962301346501"><ele>473.66666666666663</ele><time>2026-04-29T13:18:42.999Z</time></trkpt><trkpt lat="43.45357910728173" lon="12.66080975229845"><ele>473.3333333333333</ele><time>2026-04-29T13:18:43.999Z</time></trkpt><trkpt lat="43.45367617029411" lon="12.660651957105653"><ele>473.0</ele><time>2026-04-29T13:18:44.999Z</time></trkpt><trkpt lat="43.453778980322134" lon="12.660489706029631"><ele>473.66666666666663</ele><time>2026-04-29T13:18:45.999Z</time></trkpt><trkpt lat="43.45387328327546" lon="12.660329552310532"><ele>474.33333333333337</ele><time>2026-04-29T13:18:46.999Z</time></trkpt><trkpt lat="43.45397368031388" lon="12.660165596895522"><ele>475.0</ele><time>2026-04-29T13:18:47.999Z</time></trkpt><trkpt lat="43.45407602211546" lon="12.659996188798933"><ele>473.0</ele><time>2026-04-29T13:18:48.999Z</time></trkpt><trkpt lat="43.45417399999456" lon="12.659820716835831"><ele>471.0</ele><time>2026-04-29T13:18:49.999Z</time></trkpt><trkpt lat="43.454265470792585" lon="12.659631401634142"><ele>469.0</ele><time>2026-04-29T13:18:50.999Z</time></trkpt><trkpt lat="43.454350296692446" lon="12.659432642377206"><ele>467.33333333333337</ele><time>2026-04-29T13:18:51.999Z</time></trkpt><trkpt lat="43.454432953321444" lon="12.659226153874295"><ele>465.66666666666663</ele><time>2026-04-29T13:18:52.999Z</time></trkpt><trkpt lat="43.4545083167102" lon="12.659047671893887"><ele>464.0</ele><time>2026-04-29T13:18:53.999Z</time></trkpt><trkpt lat="43.4545810396379" lon="12.658876488922832"><ele>464.66666666666663</ele><time>2026-04-29T13:18:54.999Z</time></trkpt><trkpt lat="43.454656969650536" lon="12.658697909103092"><ele>465.33333333333337</ele><time>2026-04-29T13:18:55.999Z</time></trkpt><trkpt lat="43.454736590954234" lon="12.658514309832675"><ele>466.0</ele><time>2026-04-29T13:18:56.999Z</time></trkpt><trkpt lat="43.454824510936064" lon="12.658337521476065"><ele>464.5</ele><time>2026-04-29T13:18:57.999Z</time></trkpt><trkpt lat="43.45494046210925" lon="12.658195065110696"><ele>463.0</ele><time>2026-04-29T13:18:58.999Z</time></trkpt><trkpt lat="43.45505050218211" lon="12.658071192677925"><ele>461.5</ele><time>2026-04-29T13:18:59.999Z</time></trkpt><trkpt lat="43.45516957589205" lon="12.657965678851172"><ele>460.0</ele><time>2026-04-29T13:19:00.999Z</time></trkpt><trkpt lat="43.45530350516441" lon="12.657863324551522"><ele>459.5</ele><time>2026-04-29T13:19:01.999Z</time></trkpt><trkpt lat="43.45543340590024" lon="12.657761539161992"><ele>459.0</ele><time>2026-04-29T13:19:02.999Z</time></trkpt><trkpt lat="43.45556885262908" lon="12.65768700722076"><ele>458.5</ele><time>2026-04-29T13:19:03.999Z</time></trkpt><trkpt lat="43.45570743384194" lon="12.657602063383298"><ele>458.0</ele><time>2026-04-29T13:19:04.999Z</time></trkpt><trkpt lat="43.4558482277654" lon="12.657499912896132"><ele>458.0</ele><time>2026-04-29T13:19:05.999Z</time></trkpt><trkpt lat="43.45598615297126" lon="12.657384232434879"><ele>458.0</ele><time>2026-04-29T13:19:06.999Z</time></trkpt><trkpt lat="43.45611366290407" lon="12.657262176188162"><ele>458.0</ele><time>2026-04-29T13:19:07.999Z</time></trkpt><trkpt lat="43.45622646354294" lon="12.657151282748345"><ele>459.25</ele><time>2026-04-29T13:19:08.999Z</time></trkpt><trkpt lat="43.45633265911929" lon="12.657050222461152"><ele>460.5</ele><time>2026-04-29T13:19:09.999Z</time></trkpt><trkpt lat="43.45642523340344" lon="12.656937025628372"><ele>461.75</ele><time>2026-04-29T13:19:10.999Z</time></trkpt><trkpt lat="43.456507695969506" lon="12.656791008528895"><ele>463.0</ele><time>2026-04-29T13:19:11.999Z</time></trkpt><trkpt lat="43.45656445646238" lon="12.656603398363622"><ele>463.0</ele><time>2026-04-29T13:19:12.999Z</time></trkpt><trkpt lat="43.4566107480488" lon="12.656399589747783"><ele>463.0</ele><time>2026-04-29T13:19:13.999Z</time></trkpt><trkpt lat="43.45666801765132" lon="12.656192589836708"><ele>463.0</ele><time>2026-04-29T13:19:14.999Z</time></trkpt><trkpt lat="43.45673674571399" lon="12.655993771258052"><ele>460.6666666666667</ele><time>2026-04-29T13:19:15.999Z</time></trkpt><trkpt lat="43.45680357877882" lon="12.655807158564663"><ele>458.33333333333337</ele><time>2026-04-29T13:19:16.999Z</time></trkpt><trkpt lat="43.45687500732885" lon="12.655627920194611"><ele>456.0</ele><time>2026-04-29T13:19:17.999Z</time></trkpt><trkpt lat="43.45694750351195" lon="12.655445417940639"><ele>456.25</ele><time>2026-04-29T13:19:18.999Z</time></trkpt><trkpt lat="43.45702019839984" lon="12.655275688127622"><ele>456.5</ele><time>2026-04-29T13:19:19.999Z</time></trkpt><trkpt lat="43.45708484442157" lon="12.655111531596551"><ele>456.75</ele><time>2026-04-29T13:19:20.999Z</time></trkpt><trkpt lat="43.45715297176248" lon="12.654969242653717"><ele>457.0</ele><time>2026-04-29T13:19:21.999Z</time></trkpt><trkpt lat="43.45724275756346" lon="12.654863790407704"><ele>457.0</ele><time>2026-04-29T13:19:22.999Z</time></trkpt><trkpt lat="43.45732647689353" lon="12.654754783376063"><ele>457.0</ele><time>2026-04-29T13:19:23.999Z</time></trkpt><trkpt lat="43.4574256785243" lon="12.654662125787132"><ele>457.0</ele><time>2026-04-29T13:19:24.999Z</time></trkpt><trkpt lat="43.457532000977935" lon="12.654548531297975"><ele>457.0</ele><time>2026-04-29T13:19:25.999Z</time></trkpt><trkpt lat="43.457623015628855" lon="12.654408355863158"><ele>456.5</ele><time>2026-04-29T13:19:26.999Z</time></trkpt><trkpt lat="43.4577369869111" lon="12.654285494905494"><ele>456.0</ele><time>2026-04-29T13:19:27.999Z</time></trkpt><trkpt lat="43.45783258930609" lon="12.654133407472342"><ele>455.5</ele><time>2026-04-29T13:19:28.999Z</time></trkpt><trkpt lat="43.45792333899784" lon="12.65397333205291"><ele>455.0</ele><time>2026-04-29T13:19:29.999Z</time></trkpt><trkpt lat="43.45800965504414" lon="12.653802993833377"><ele>455.0</ele><time>2026-04-29T13:19:30.999Z</time></trkpt><trkpt lat="43.458088925496334" lon="12.653622779909538"><ele>455.0</ele><time>2026-04-29T13:19:31.999Z</time></trkpt><trkpt lat="43.45815772285835" lon="12.653429283829393"><ele>455.0</ele><time>2026-04-29T13:19:32.999Z</time></trkpt><trkpt lat="43.45821517195276" lon="12.65321787288516"><ele>452.3333333333333</ele><time>2026-04-29T13:19:33.998Z</time></trkpt><trkpt lat="43.458273813606326" lon="12.652992052090191"><ele>449.66666666666663</ele><time>2026-04-29T13:19:34.998Z</time></trkpt><trkpt lat="43.45833587906777" lon="12.652777914645677"><ele>447.0</ele><time>2026-04-29T13:19:35.998Z</time></trkpt><trkpt lat="43.458396217363514" lon="12.65257643191256"><ele>446.0</ele><time>2026-04-29T13:19:36.998Z</time></trkpt><trkpt lat="43.45845932825503" lon="12.652365064437939"><ele>445.0</ele><time>2026-04-29T13:19:37.998Z</time></trkpt><trkpt lat="43.45852040085439" lon="12.652148619900506"><ele>444.0</ele><time>2026-04-29T13:19:38.998Z</time></trkpt><trkpt lat="43.45858353063988" lon="12.65193007776169"><ele>442.66666666666663</ele><time>2026-04-29T13:19:39.998Z</time></trkpt><trkpt lat="43.4586498239258" lon="12.65171176834936"><ele>441.3333333333333</ele><time>2026-04-29T13:19:40.998Z</time></trkpt><trkpt lat="43.45871915094455" lon="12.651480986705563"><ele>440.0</ele><time>2026-04-29T13:19:41.998Z</time></trkpt><trkpt lat="43.45878643773094" lon="12.651249913040962"><ele>441.3333333333333</ele><time>2026-04-29T13:19:42.998Z</time></trkpt><trkpt lat="43.45885144961196" lon="12.651033700268693"><ele>442.66666666666663</ele><time>2026-04-29T13:19:43.998Z</time></trkpt><trkpt lat="43.458916751396366" lon="12.650833369584904"><ele>444.0</ele><time>2026-04-29T13:19:44.998Z</time></trkpt><trkpt lat="43.45898307249061" lon="12.650647883873399"><ele>444.0</ele><time>2026-04-29T13:19:45.998Z</time></trkpt><trkpt lat="43.4590596777491" lon="12.650479272660359"><ele>444.0</ele><time>2026-04-29T13:19:46.998Z</time></trkpt><trkpt lat="43.45914048584303" lon="12.650305869910829"><ele>444.0</ele><time>2026-04-29T13:19:47.998Z</time></trkpt><trkpt lat="43.45922727182276" lon="12.65012220542433"><ele>442.0</ele><time>2026-04-29T13:19:48.998Z</time></trkpt><trkpt lat="43.459311022848304" lon="12.649927781582287"><ele>440.0</ele><time>2026-04-29T13:19:49.998Z</time></trkpt><trkpt lat="43.459399100582445" lon="12.649731880134384"><ele>438.0</ele><time>2026-04-29T13:19:50.998Z</time></trkpt><trkpt lat="43.45949595995944" lon="12.649532203746233"><ele>438.66666666666663</ele><time>2026-04-29T13:19:51.998Z</time></trkpt><trkpt lat="43.45959479287592" lon="12.649334069965395"><ele>439.3333333333333</ele><time>2026-04-29T13:19:52.998Z</time></trkpt><trkpt lat="43.45969408953395" lon="12.64913195380131"><ele>440.0</ele><time>2026-04-29T13:19:54Z</time></trkpt><trkpt lat="43.45979178251917" lon="12.648920873142087"><ele>440.0</ele><time>2026-04-29T13:19:55Z</time></trkpt><trkpt lat="43.459888004710095" lon="12.648714359506423"><ele>440.0</ele><time>2026-04-29T13:19:56Z</time></trkpt><trkpt lat="43.45998084390566" lon="12.648503602286725"><ele>440.0</ele><time>2026-04-29T13:19:57Z</time></trkpt><trkpt lat="43.460062056789" lon="12.648293641593106"><ele>438.3333333333333</ele><time>2026-04-29T13:19:58Z</time></trkpt><trkpt lat="43.46013105255119" lon="12.64807250126658"><ele>436.66666666666663</ele><time>2026-04-29T13:19:59Z</time></trkpt><trkpt lat="43.46019370719432" lon="12.647845913015981"><ele>435.0</ele><time>2026-04-29T13:20:00Z</time></trkpt><trkpt lat="43.46026538556623" lon="12.64762525035841"><ele>437.33333333333337</ele><time>2026-04-29T13:20:01Z</time></trkpt><trkpt lat="43.46034824367653" lon="12.647415601173567"><ele>439.6666666666667</ele><time>2026-04-29T13:20:02Z</time></trkpt><trkpt lat="43.46043972703184" lon="12.647213297502734"><ele>442.0</ele><time>2026-04-29T13:20:03Z</time></trkpt><trkpt lat="43.46054467010385" lon="12.647049450997972"><ele>437.6666666666667</ele><time>2026-04-29T13:20:04Z</time></trkpt><trkpt lat="43.46064679588231" lon="12.646900469795684"><ele>433.33333333333337</ele><time>2026-04-29T13:20:05Z</time></trkpt><trkpt lat="43.46077022493431" lon="12.646786412286344"><ele>429.0</ele><time>2026-04-29T13:20:06Z</time></trkpt><trkpt lat="43.460904688694654" lon="12.646684671764445"><ele>429.0</ele><time>2026-04-29T13:20:07Z</time></trkpt><trkpt lat="43.46104540130006" lon="12.646569164557398"><ele>429.0</ele><time>2026-04-29T13:20:08Z</time></trkpt><trkpt lat="43.46119058374712" lon="12.646461488574875"><ele>429.0</ele><time>2026-04-29T13:20:09Z</time></trkpt><trkpt lat="43.461319619638665" lon="12.646334048653113"><ele>429.25</ele><time>2026-04-29T13:20:10Z</time></trkpt><trkpt lat="43.46141726109875" lon="12.64618673374246"><ele>429.5</ele><time>2026-04-29T13:20:11Z</time></trkpt><trkpt lat="43.46148815045144" lon="12.646016694953223"><ele>429.75</ele><time>2026-04-29T13:20:12Z</time></trkpt><trkpt lat="43.461539108755815" lon="12.645842419866408"><ele>430.0</ele><time>2026-04-29T13:20:13Z</time></trkpt><trkpt lat="43.46157790702875" lon="12.645669862784539"><ele>430.0</ele><time>2026-04-29T13:20:14Z</time></trkpt><trkpt lat="43.46161465799846" lon="12.64549877976687"><ele>430.0</ele><time>2026-04-29T13:20:15Z</time></trkpt><trkpt lat="43.46166445831749" lon="12.645316774450857"><ele>430.0</ele><time>2026-04-29T13:20:16Z</time></trkpt><trkpt lat="43.46174784945399" lon="12.645146043136222"><ele>430.0</ele><time>2026-04-29T13:20:17Z</time></trkpt><trkpt lat="43.46186999573408" lon="12.645032324721253"><ele>428.6666666666667</ele><time>2026-04-29T13:20:18Z</time></trkpt><trkpt lat="43.46199841942093" lon="12.644920993665849"><ele>427.33333333333337</ele><time>2026-04-29T13:20:19Z</time></trkpt><trkpt lat="43.462134591956385" lon="12.644798045969786"><ele>426.0</ele><time>2026-04-29T13:20:20Z</time></trkpt><trkpt lat="43.46228775916833" lon="12.64470148095935"><ele>426.0</ele><time>2026-04-29T13:20:21Z</time></trkpt><trkpt lat="43.462450443690265" lon="12.644590855629355"><ele>426.0</ele><time>2026-04-29T13:20:22Z</time></trkpt><trkpt lat="43.462617377082225" lon="12.64448018555018"><ele>426.0</ele><time>2026-04-29T13:20:23Z</time></trkpt><trkpt lat="43.462786524438485" lon="12.644374505675957"><ele>424.0</ele><time>2026-04-29T13:20:24Z</time></trkpt><trkpt lat="43.46295739230179" lon="12.644270156807746"><ele>422.0</ele><time>2026-04-29T13:20:25Z</time></trkpt><trkpt lat="43.46311773097129" lon="12.644164422207954"><ele>420.0</ele><time>2026-04-29T13:20:26Z</time></trkpt><trkpt lat="43.46326712093193" lon="12.644050711094229"><ele>420.0</ele><time>2026-04-29T13:20:26.999Z</time></trkpt><trkpt lat="43.46341302496482" lon="12.643917063669015"><ele>420.0</ele><time>2026-04-29T13:20:27.999Z</time></trkpt><trkpt lat="43.463549469497394" lon="12.643765205584717"><ele>420.0</ele><time>2026-04-29T13:20:28.999Z</time></trkpt><trkpt lat="43.46368044821989" lon="12.643609520802045"><ele>418.33333333333337</ele><time>2026-04-29T13:20:29.999Z</time></trkpt><trkpt lat="43.46381428856431" lon="12.643461351416425"><ele>416.6666666666667</ele><time>2026-04-29T13:20:30.999Z</time></trkpt><trkpt lat="43.463949220120924" lon="12.643322079493945"><ele>415.0</ele><time>2026-04-29T13:20:31.999Z</time></trkpt><trkpt lat="43.464086805247966" lon="12.643207299754025"><ele>415.0</ele><time>2026-04-29T13:20:32.999Z</time></trkpt><trkpt lat="43.46423504970182" lon="12.643132580346416"><ele>415.0</ele><time>2026-04-29T13:20:33.999Z</time></trkpt><trkpt lat="43.46438338102136" lon="12.643036264308622"><ele>415.0</ele><time>2026-04-29T13:20:34.999Z</time></trkpt><trkpt lat="43.46453054021035" lon="12.642916012498022"><ele>413.33333333333337</ele><time>2026-04-29T13:20:35.999Z</time></trkpt><trkpt lat="43.46469928297615" lon="12.642833821756946"><ele>411.66666666666663</ele><time>2026-04-29T13:20:36.999Z</time></trkpt><trkpt lat="43.464862991239364" lon="12.642729935897693"><ele>410.0</ele><time>2026-04-29T13:20:37.999Z</time></trkpt><trkpt lat="43.465020587428356" lon="12.642606394882986"><ele>410.0</ele><time>2026-04-29T13:20:38.999Z</time></trkpt><trkpt lat="43.465178584255625" lon="12.642499878539335"><ele>410.0</ele><time>2026-04-29T13:20:39.999Z</time></trkpt><trkpt lat="43.465328389203876" lon="12.64239916484249"><ele>410.0</ele><time>2026-04-29T13:20:40.999Z</time></trkpt><trkpt lat="43.46546843904765" lon="12.642309154579479"><ele>410.3333333333333</ele><time>2026-04-29T13:20:41.999Z</time></trkpt><trkpt lat="43.46561876058173" lon="12.642221948188489"><ele>410.66666666666663</ele><time>2026-04-29T13:20:42.999Z</time></trkpt><trkpt lat="43.46577666514077" lon="12.64215424212617"><ele>411.0</ele><time>2026-04-29T13:20:43.999Z</time></trkpt><trkpt lat="43.46594134692977" lon="12.642133362808295"><ele>411.0</ele><time>2026-04-29T13:20:44.999Z</time></trkpt><trkpt lat="43.46609044943039" lon="12.642073746039069"><ele>411.0</ele><time>2026-04-29T13:20:45.999Z</time></trkpt><trkpt lat="43.4662444715205" lon="12.642033401831775"><ele>411.0</ele><time>2026-04-29T13:20:46.999Z</time></trkpt><trkpt lat="43.466395944208216" lon="12.641945210955807"><ele>408.0</ele><time>2026-04-29T13:20:47.999Z</time></trkpt><trkpt lat="43.46653633233743" lon="12.641808855414551"><ele>405.0</ele><time>2026-04-29T13:20:48.999Z</time></trkpt><trkpt lat="43.466673147990086" lon="12.641640372328139"><ele>402.0</ele><time>2026-04-29T13:20:49.999Z</time></trkpt><trkpt lat="43.46680156963349" lon="12.64145588033631"><ele>402.0</ele><time>2026-04-29T13:20:50.999Z</time></trkpt><trkpt lat="43.46693019341524" lon="12.641258289424348"><ele>402.0</ele><time>2026-04-29T13:20:51.999Z</time></trkpt><trkpt lat="43.46705125537829" lon="12.641038658146368"><ele>402.0</ele><time>2026-04-29T13:20:52.999Z</time></trkpt><trkpt lat="43.46715551740036" lon="12.640811847596238"><ele>401.33333333333337</ele><time>2026-04-29T13:20:53.999Z</time></trkpt><trkpt lat="43.46724823918842" lon="12.640576038616059"><ele>400.6666666666667</ele><time>2026-04-29T13:20:54.999Z</time></trkpt><trkpt lat="43.467350665423766" lon="12.640338440711089"><ele>400.0</ele><time>2026-04-29T13:20:55.999Z</time></trkpt><trkpt lat="43.46745808695557" lon="12.64009335847574"><ele>398.0</ele><time>2026-04-29T13:20:56.999Z</time></trkpt><trkpt lat="43.467562318222605" lon="12.639846522656914"><ele>396.0</ele><time>2026-04-29T13:20:57.999Z</time></trkpt><trkpt lat="43.46766661414476" lon="12.639592687796757"><ele>394.0</ele><time>2026-04-29T13:20:58.999Z</time></trkpt><trkpt lat="43.46777432567676" lon="12.639334709045821"><ele>393.0</ele><time>2026-04-29T13:20:59.999Z</time></trkpt><trkpt lat="43.46788632148553" lon="12.63908159001758"><ele>392.0</ele><time>2026-04-29T13:21:00.999Z</time></trkpt><trkpt lat="43.467996076661876" lon="12.638824629156392"><ele>391.0</ele><time>2026-04-29T13:21:01.999Z</time></trkpt><trkpt lat="43.46810355187953" lon="12.638569451099626"><ele>390.0</ele><time>2026-04-29T13:21:02.999Z</time></trkpt><trkpt lat="43.46820187049899" lon="12.638317026715697"><ele>389.0</ele><time>2026-04-29T13:21:03.999Z</time></trkpt><trkpt lat="43.46830866231667" lon="12.638066593675433"><ele>388.0</ele><time>2026-04-29T13:21:04.999Z</time></trkpt><trkpt lat="43.46840713919218" lon="12.637835318380988"><ele>387.33333333333337</ele><time>2026-04-29T13:21:05.999Z</time></trkpt><trkpt lat="43.468503382581936" lon="12.637595828396671"><ele>386.66666666666663</ele><time>2026-04-29T13:21:06.999Z</time></trkpt><trkpt lat="43.46858989616403" lon="12.637349861819711"><ele>386.0</ele><time>2026-04-29T13:21:07.999Z</time></trkpt><trkpt lat="43.46867374454511" lon="12.637099339354545"><ele>385.3333333333333</ele><time>2026-04-29T13:21:08.999Z</time></trkpt><trkpt lat="43.468762925629804" lon="12.636853997962874"><ele>384.66666666666663</ele><time>2026-04-29T13:21:09.999Z</time></trkpt><trkpt lat="43.46886728902503" lon="12.636633455076863"><ele>384.0</ele><time>2026-04-29T13:21:10.999Z</time></trkpt><trkpt lat="43.46895526563455" lon="12.636398782911954"><ele>383.6666666666667</ele><time>2026-04-29T13:21:11.999Z</time></trkpt><trkpt lat="43.469068487971384" lon="12.636182780777116"><ele>383.33333333333337</ele><time>2026-04-29T13:21:12.999Z</time></trkpt><trkpt lat="43.46918650373452" lon="12.635970861478302"><ele>383.0</ele><time>2026-04-29T13:21:13.999Z</time></trkpt><trkpt lat="43.46929150988971" lon="12.635755881812253"><ele>383.0</ele><time>2026-04-29T13:21:14.999Z</time></trkpt><trkpt lat="43.469379574935544" lon="12.635536243998091"><ele>383.0</ele><time>2026-04-29T13:21:15.999Z</time></trkpt><trkpt lat="43.469454374619886" lon="12.635319361657123"><ele>383.0</ele><time>2026-04-29T13:21:16.999Z</time></trkpt><trkpt lat="43.46951618995502" lon="12.635092910225053"><ele>382.33333333333337</ele><time>2026-04-29T13:21:17.999Z</time></trkpt><trkpt lat="43.46955257306218" lon="12.634853176764482"><ele>381.6666666666667</ele><time>2026-04-29T13:21:18.999Z</time></trkpt><trkpt lat="43.46958121906643" lon="12.634601618806418"><ele>381.0</ele><time>2026-04-29T13:21:19.999Z</time></trkpt><trkpt lat="43.46960553124329" lon="12.634345736516913"><ele>379.6666666666667</ele><time>2026-04-29T13:21:20.999Z</time></trkpt><trkpt lat="43.46962448455683" lon="12.63410137521172"><ele>378.33333333333337</ele><time>2026-04-29T13:21:21.999Z</time></trkpt><trkpt lat="43.469646636269935" lon="12.633872045745708"><ele>377.0</ele><time>2026-04-29T13:21:22.999Z</time></trkpt><trkpt lat="43.46967853772436" lon="12.633643189489511"><ele>377.33333333333337</ele><time>2026-04-29T13:21:23.999Z</time></trkpt><trkpt lat="43.46973390891254" lon="12.63341796625107"><ele>377.6666666666667</ele><time>2026-04-29T13:21:24.999Z</time></trkpt><trkpt lat="43.46983147206772" lon="12.633212574408805"><ele>378.0</ele><time>2026-04-29T13:21:25.999Z</time></trkpt><trkpt lat="43.4699598747825" lon="12.633033194273969"><ele>378.0</ele><time>2026-04-29T13:21:26.999Z</time></trkpt><trkpt lat="43.47011676641778" lon="12.63291590967718"><ele>378.0</ele><time>2026-04-29T13:21:27.999Z</time></trkpt><trkpt lat="43.47027931778972" lon="12.63280116326992"><ele>378.0</ele><time>2026-04-29T13:21:28.999Z</time></trkpt><trkpt lat="43.47043671476584" lon="12.632679013327719"><ele>376.6666666666667</ele><time>2026-04-29T13:21:29.999Z</time></trkpt><trkpt lat="43.47059848927452" lon="12.632570943560216"><ele>375.33333333333337</ele><time>2026-04-29T13:21:30.999Z</time></trkpt><trkpt lat="43.470737126358394" lon="12.632454537650965"><ele>374.0</ele><time>2026-04-29T13:21:31.999Z</time></trkpt><trkpt lat="43.47085669236789" lon="12.632344376454583"><ele>374.0</ele><time>2026-04-29T13:21:32.999Z</time></trkpt><trkpt lat="43.47096066328655" lon="12.63228023221289"><ele>374.0</ele><time>2026-04-29T13:21:33.999Z</time></trkpt><trkpt lat="43.471048462662026" lon="12.632176798378758"><ele>374.0</ele><time>2026-04-29T13:21:34.999Z</time></trkpt><trkpt lat="43.47113593844551" lon="12.632119954375359"><ele>374.0</ele><time>2026-04-29T13:21:35.999Z</time></trkpt><trkpt lat="43.471200549866666" lon="12.632066695973064"><ele>374.0</ele><time>2026-04-29T13:21:36.999Z</time></trkpt><trkpt lat="43.471288890181" lon="12.631985879384372"><ele>373.83333333333337</ele><time>2026-04-29T13:21:38.999Z</time></trkpt><trkpt lat="43.47136613903729" lon="12.631912927210886"><ele>373.6666666666667</ele><time>2026-04-29T13:21:40.998Z</time></trkpt><trkpt lat="43.47142382141555" lon="12.63186201192934"><ele>373.5</ele><time>2026-04-29T13:21:41.998Z</time></trkpt><trkpt lat="43.471488187662736" lon="12.631809765391438"><ele>373.3333333333333</ele><time>2026-04-29T13:21:42.998Z</time></trkpt><trkpt lat="43.47155297510096" lon="12.631751880120976"><ele>373.16666666666663</ele><time>2026-04-29T13:21:43.998Z</time></trkpt><trkpt lat="43.471632047041815" lon="12.631701544864843"><ele>373.0</ele><time>2026-04-29T13:21:44.998Z</time></trkpt><trkpt lat="43.4717038010273" lon="12.631614525035884"><ele>373.0</ele><time>2026-04-29T13:21:45.998Z</time></trkpt><trkpt lat="43.47179903827747" lon="12.631561409745615"><ele>373.0</ele><time>2026-04-29T13:21:46.998Z</time></trkpt><trkpt lat="43.47188681266902" lon="12.63148487443064"><ele>373.0</ele><time>2026-04-29T13:21:47.998Z</time></trkpt><trkpt lat="43.471965655068985" lon="12.631415706238336"><ele>373.0</ele><time>2026-04-29T13:21:48.998Z</time></trkpt><trkpt lat="43.47203280427928" lon="12.631356797406141"><ele>373.0</ele><time>2026-04-29T13:21:49.998Z</time></trkpt><trkpt lat="43.47209260900213" lon="12.63130817228032"><ele>373.0</ele><time>2026-04-29T13:21:50.998Z</time></trkpt><trkpt lat="43.472145112391644" lon="12.631245177933895"><ele>373.4</ele><time>2026-04-29T13:21:51.998Z</time></trkpt><trkpt lat="43.472248705512044" lon="12.631166261319105"><ele>373.79999999999995</ele><time>2026-04-29T13:21:53.998Z</time></trkpt><trkpt lat="43.472357566596266" lon="12.631086625945416"><ele>374.2</ele><time>2026-04-29T13:21:55.998Z</time></trkpt><trkpt lat="43.47241420488972" lon="12.631037918283674"><ele>374.6</ele><time>2026-04-29T13:21:56.998Z</time></trkpt><trkpt lat="43.47247994941807" lon="12.631007754707385"><ele>375.0</ele><time>2026-04-29T13:21:57.998Z</time></trkpt><trkpt lat="43.472546134962435" lon="12.630954954190244"><ele>375.0</ele><time>2026-04-29T13:21:58.998Z</time></trkpt><trkpt lat="43.47261204764056" lon="12.630902371358335"><ele>375.0</ele><time>2026-04-29T13:22:00Z</time></trkpt><trkpt lat="43.47268306864661" lon="12.63084571329747"><ele>375.0</ele><time>2026-04-29T13:22:01Z</time></trkpt><trkpt lat="43.47275279784177" lon="12.630765272200124"><ele>375.0</ele><time>2026-04-29T13:22:02Z</time></trkpt><trkpt lat="43.47283353155934" lon="12.630700946284191"><ele>375.0</ele><time>2026-04-29T13:22:03Z</time></trkpt><trkpt lat="43.47290481084236" lon="12.630641549932895"><ele>375.0</ele><time>2026-04-29T13:22:04Z</time></trkpt><trkpt lat="43.47297700077782" lon="12.630587785664568"><ele>375.0</ele><time>2026-04-29T13:22:05Z</time></trkpt><trkpt lat="43.473056028090646" lon="12.630530088652332"><ele>375.0</ele><time>2026-04-29T13:22:06Z</time></trkpt><trkpt lat="43.47314081324182" lon="12.630509092278105"><ele>375.0</ele><time>2026-04-29T13:22:07Z</time></trkpt><trkpt lat="43.47322409482761" lon="12.630480393034578"><ele>375.0</ele><time>2026-04-29T13:22:08Z</time></trkpt><trkpt lat="43.47330635611224" lon="12.63049024620879"><ele>375.0</ele><time>2026-04-29T13:22:09Z</time></trkpt><trkpt lat="43.473385831056284" lon="12.630515444061276"><ele>375.0</ele><time>2026-04-29T13:22:10Z</time></trkpt><trkpt lat="43.4734702835703" lon="12.630537877883445"><ele>375.0</ele><time>2026-04-29T13:22:11Z</time></trkpt><trkpt lat="43.47355426635644" lon="12.630560119060949"><ele>375.0</ele><time>2026-04-29T13:22:12Z</time></trkpt><trkpt lat="43.473640410520005" lon="12.6305887700427"><ele>375.0</ele><time>2026-04-29T13:22:13Z</time></trkpt><trkpt lat="43.47373036333082" lon="12.630618248139054"><ele>375.0</ele><time>2026-04-29T13:22:14Z</time></trkpt><trkpt lat="43.47383556432277" lon="12.630652723268142"><ele>375.0</ele><time>2026-04-29T13:22:15Z</time></trkpt><trkpt lat="43.47393698952371" lon="12.630683970077802"><ele>374.8</ele><time>2026-04-29T13:22:16Z</time></trkpt><trkpt lat="43.4740380042987" lon="12.630691474893576"><ele>374.6</ele><time>2026-04-29T13:22:17Z</time></trkpt><trkpt lat="43.47413032307357" lon="12.630727427473323"><ele>374.4</ele><time>2026-04-29T13:22:18Z</time></trkpt><trkpt lat="43.47421978708832" lon="12.630750145676263"><ele>374.2</ele><time>2026-04-29T13:22:19Z</time></trkpt><trkpt lat="43.47431150591849" lon="12.630773013226134"><ele>374.0</ele><time>2026-04-29T13:22:20Z</time></trkpt><trkpt lat="43.474389795190426" lon="12.630794402587966"><ele>374.0</ele><time>2026-04-29T13:22:21Z</time></trkpt><trkpt lat="43.47447440571974" lon="12.630699444825092"><ele>374.0</ele><time>2026-04-29T13:22:22Z</time></trkpt><trkpt lat="43.47454586421124" lon="12.630603297918196"><ele>374.0</ele><time>2026-04-29T13:22:23Z</time></trkpt><trkpt lat="43.474585511790075" lon="12.630481570530105"><ele>374.0</ele><time>2026-04-29T13:22:24Z</time></trkpt><trkpt lat="43.474591963941236" lon="12.630338835846342"><ele>374.0</ele><time>2026-04-29T13:22:25Z</time></trkpt><trkpt lat="43.47456513434892" lon="12.630197996964627"><ele>373.2</ele><time>2026-04-29T13:22:26Z</time></trkpt><trkpt lat="43.47452670005625" lon="12.630057678950942"><ele>372.4</ele><time>2026-04-29T13:22:27Z</time></trkpt><trkpt lat="43.47449277659744" lon="12.62992818620834"><ele>371.6</ele><time>2026-04-29T13:22:28Z</time></trkpt><trkpt lat="43.47446114545858" lon="12.629811415027254"><ele>370.8</ele><time>2026-04-29T13:22:29Z</time></trkpt><trkpt lat="43.47443208639176" lon="12.629690426920067"><ele>370.0</ele><time>2026-04-29T13:22:30Z</time></trkpt><trkpt lat="43.474401294395165" lon="12.629573217166284"><ele>370.16666666666663</ele><time>2026-04-29T13:22:31Z</time></trkpt><trkpt lat="43.474373343593385" lon="12.629462730849633"><ele>370.3333333333333</ele><time>2026-04-29T13:22:32Z</time></trkpt><trkpt lat="43.474348983572234" lon="12.629334752277169"><ele>370.5</ele><time>2026-04-29T13:22:33Z</time></trkpt><trkpt lat="43.47432740776704" lon="12.629214879817885"><ele>370.6666666666667</ele><time>2026-04-29T13:22:34Z</time></trkpt><trkpt lat="43.474302971433765" lon="12.62909345072033"><ele>370.83333333333337</ele><time>2026-04-29T13:22:35Z</time></trkpt><trkpt lat="43.47427954302449" lon="12.628992210065345"><ele>371.0</ele><time>2026-04-29T13:22:36Z</time></trkpt><trkpt lat="43.474258083743614" lon="12.628887496558448"><ele>371.0</ele><time>2026-04-29T13:22:37Z</time></trkpt><trkpt lat="43.474232964331776" lon="12.628781154053724"><ele>371.0</ele><time>2026-04-29T13:22:38Z</time></trkpt><trkpt lat="43.474212762513375" lon="12.628679621636199"><ele>371.0</ele><time>2026-04-29T13:22:39Z</time></trkpt><trkpt lat="43.474197864062965" lon="12.628589016125296"><ele>371.0</ele><time>2026-04-29T13:22:39.999Z</time></trkpt><trkpt lat="43.47419260594329" lon="12.628500245030978"><ele>371.0</ele><time>2026-04-29T13:22:40.999Z</time></trkpt><trkpt lat="43.47419171691779" lon="12.628408669075437"><ele>371.0</ele><time>2026-04-29T13:22:41.999Z</time></trkpt><trkpt lat="43.474195434671245" lon="12.628259898317632"><ele>370.33333333333337</ele><time>2026-04-29T13:22:43.999Z</time></trkpt><trkpt lat="43.47419668814861" lon="12.628149933026505"><ele>369.6666666666667</ele><time>2026-04-29T13:23:18.999Z</time></trkpt><trkpt lat="43.47421457458651" lon="12.627988832819145"><ele>369.0</ele><time>2026-04-29T13:23:20.999Z</time></trkpt><trkpt lat="43.47424828917815" lon="12.627905490287112"><ele>368.3333333333333</ele><time>2026-04-29T13:23:21.999Z</time></trkpt><trkpt lat="43.474294892107714" lon="12.627832981344257"><ele>367.66666666666663</ele><time>2026-04-29T13:23:22.999Z</time></trkpt><trkpt lat="43.47436076269264" lon="12.627750009939849"><ele>367.0</ele><time>2026-04-29T13:23:23.999Z</time></trkpt><trkpt lat="43.4744321798272" lon="12.627667733107714"><ele>366.8</ele><time>2026-04-29T13:23:24.999Z</time></trkpt><trkpt lat="43.474501918499755" lon="12.627584321630168"><ele>366.6</ele><time>2026-04-29T13:23:25.999Z</time></trkpt><trkpt lat="43.474577246850956" lon="12.627500200267791"><ele>366.40000000000003</ele><time>2026-04-29T13:23:26.999Z</time></trkpt><trkpt lat="43.47466542317244" lon="12.62743398783068"><ele>366.20000000000005</ele><time>2026-04-29T13:23:27.999Z</time></trkpt><trkpt lat="43.47474122647151" lon="12.627376457854671"><ele>366.0</ele><time>2026-04-29T13:23:28.999Z</time></trkpt><trkpt lat="43.474816294949356" lon="12.627336403990398"><ele>366.0</ele><time>2026-04-29T13:23:29.999Z</time></trkpt><trkpt lat="43.47489166377804" lon="12.62728653020374"><ele>366.0</ele><time>2026-04-29T13:23:30.999Z</time></trkpt><trkpt lat="43.474988384050825" lon="12.627297602801061"><ele>366.0</ele><time>2026-04-29T13:23:31.999Z</time></trkpt><trkpt lat="43.475089008581826" lon="12.627274003619844"><ele>366.0</ele><time>2026-04-29T13:23:32.999Z</time></trkpt><trkpt lat="43.475195015172694" lon="12.627283557395437"><ele>366.0</ele><time>2026-04-29T13:23:33.999Z</time></trkpt><trkpt lat="43.47529575998955" lon="12.627291709146853"><ele>366.0</ele><time>2026-04-29T13:23:34.999Z</time></trkpt><trkpt lat="43.475389247784264" lon="12.62729687408261"><ele>366.0</ele><time>2026-04-29T13:23:35.999Z</time></trkpt><trkpt lat="43.47547430077272" lon="12.62730125549836"><ele>366.0</ele><time>2026-04-29T13:23:36.999Z</time></trkpt><trkpt lat="43.475554501663055" lon="12.627306692702167"><ele>366.0</ele><time>2026-04-29T13:23:37.999Z</time></trkpt><trkpt lat="43.47562556172659" lon="12.627312655980868"><ele>366.0</ele><time>2026-04-29T13:23:38.999Z</time></trkpt><trkpt lat="43.475690319014035" lon="12.627315214868638"><ele>366.0</ele><time>2026-04-29T13:23:39.999Z</time></trkpt><trkpt lat="43.47578289592523" lon="12.627301247793104"><ele>365.20000000000005</ele><time>2026-04-29T13:23:41.999Z</time></trkpt><trkpt lat="43.4757537011829" lon="12.627162048499326"><ele>364.40000000000003</ele><time>2026-04-29T13:23:46.999Z</time></trkpt><trkpt lat="43.475645226880665" lon="12.62708155805984"><ele>363.6</ele><time>2026-04-29T13:23:48.999Z</time></trkpt><trkpt lat="43.475572993950315" lon="12.62703000556693"><ele>362.8</ele><time>2026-04-29T13:23:49.999Z</time></trkpt><trkpt lat="43.47549765763769" lon="12.626976084222818"><ele>362.0</ele><time>2026-04-29T13:23:50.999Z</time></trkpt><trkpt lat="43.47540834120138" lon="12.62691352372893"><ele>361.8</ele><time>2026-04-29T13:23:51.999Z</time></trkpt><trkpt lat="43.475316779530345" lon="12.626843067004645"><ele>361.6</ele><time>2026-04-29T13:23:52.999Z</time></trkpt><trkpt lat="43.475225657711924" lon="12.626774274048433"><ele>361.40000000000003</ele><time>2026-04-29T13:23:53.999Z</time></trkpt><trkpt lat="43.4751353655754" lon="12.626710952247766"><ele>361.20000000000005</ele><time>2026-04-29T13:23:54.998Z</time></trkpt><trkpt lat="43.475042803791155" lon="12.626635982400249"><ele>361.0</ele><time>2026-04-29T13:23:55.998Z</time></trkpt><trkpt lat="43.47493831495286" lon="12.626552906251284"><ele>361.0</ele><time>2026-04-29T13:23:56.998Z</time></trkpt><trkpt lat="43.474833265068035" lon="12.626462031665152"><ele>361.0</ele><time>2026-04-29T13:23:57.998Z</time></trkpt><trkpt lat="43.47471684532497" lon="12.62636845914758"><ele>361.0</ele><time>2026-04-29T13:23:58.998Z</time></trkpt><trkpt lat="43.474598113271355" lon="12.626275917554837"><ele>361.0</ele><time>2026-04-29T13:23:59.998Z</time></trkpt><trkpt lat="43.47447757117378" lon="12.626179420303508"><ele>360.5</ele><time>2026-04-29T13:24:00.998Z</time></trkpt><trkpt lat="43.47437198031213" lon="12.626068402674003"><ele>360.0</ele><time>2026-04-29T13:24:01.998Z</time></trkpt><trkpt lat="43.474256395327586" lon="12.625976906100073"><ele>359.5</ele><time>2026-04-29T13:24:02.998Z</time></trkpt><trkpt lat="43.4741411112643" lon="12.625885647730792"><ele>359.0</ele><time>2026-04-29T13:24:03.998Z</time></trkpt><trkpt lat="43.47402678251049" lon="12.62579514555629"><ele>359.0</ele><time>2026-04-29T13:24:04.998Z</time></trkpt><trkpt lat="43.47391742744297" lon="12.625708126095633"><ele>359.0</ele><time>2026-04-29T13:24:06Z</time></trkpt><trkpt lat="43.473804955446774" lon="12.625627250034244"><ele>359.0</ele><time>2026-04-29T13:24:07Z</time></trkpt><trkpt lat="43.473695787432966" lon="12.625540674904531"><ele>359.0</ele><time>2026-04-29T13:24:08Z</time></trkpt><trkpt lat="43.47359015690955" lon="12.625447232338121"><ele>359.75</ele><time>2026-04-29T13:24:09Z</time></trkpt><trkpt lat="43.47347404047314" lon="12.625354362096132"><ele>360.5</ele><time>2026-04-29T13:24:10Z</time></trkpt><trkpt lat="43.473353158996346" lon="12.625275422111933"><ele>361.25</ele><time>2026-04-29T13:24:11Z</time></trkpt><trkpt lat="43.473220274373205" lon="12.625210027730857"><ele>362.0</ele><time>2026-04-29T13:24:12Z</time></trkpt><trkpt lat="43.47308238296561" lon="12.62517014405652"><ele>362.0</ele><time>2026-04-29T13:24:13Z</time></trkpt><trkpt lat="43.472943338136155" lon="12.62517430513027"><ele>362.0</ele><time>2026-04-29T13:24:14Z</time></trkpt><trkpt lat="43.47281574153883" lon="12.625225646007754"><ele>362.0</ele><time>2026-04-29T13:24:15Z</time></trkpt><trkpt lat="43.47269317235738" lon="12.62531925047736"><ele>362.0</ele><time>2026-04-29T13:24:16Z</time></trkpt><trkpt lat="43.47257539166994" lon="12.625439401126027"><ele>365.33333333333337</ele><time>2026-04-29T13:24:17Z</time></trkpt><trkpt lat="43.47246982729745" lon="12.625594366394491"><ele>368.6666666666667</ele><time>2026-04-29T13:24:18Z</time></trkpt><trkpt lat="43.47238112201537" lon="12.625781056171594"><ele>372.0</ele><time>2026-04-29T13:24:19Z</time></trkpt><trkpt lat="43.47230166379992" lon="12.625976634248156"><ele>371.25</ele><time>2026-04-29T13:24:20Z</time></trkpt><trkpt lat="43.472230596030776" lon="12.62616133854393"><ele>370.5</ele><time>2026-04-29T13:24:21Z</time></trkpt><trkpt lat="43.472161865806605" lon="12.626327999234434"><ele>369.75</ele><time>2026-04-29T13:24:22Z</time></trkpt><trkpt lat="43.47208980366054" lon="12.62648494444906"><ele>369.0</ele><time>2026-04-29T13:24:23Z</time></trkpt><trkpt lat="43.47201463313571" lon="12.626656551645132"><ele>369.0</ele><time>2026-04-29T13:24:24Z</time></trkpt><trkpt lat="43.47194481615213" lon="12.626823941660469"><ele>369.0</ele><time>2026-04-29T13:24:25Z</time></trkpt><trkpt lat="43.47187089907352" lon="12.626972436149043"><ele>369.0</ele><time>2026-04-29T13:24:26Z</time></trkpt><trkpt lat="43.47177797657818" lon="12.627081114933821"><ele>369.0</ele><time>2026-04-29T13:24:27Z</time></trkpt><trkpt lat="43.47165617979782" lon="12.62715052134434"><ele>368.75</ele><time>2026-04-29T13:24:28Z</time></trkpt><trkpt lat="43.471526294990916" lon="12.627183373745474"><ele>368.5</ele><time>2026-04-29T13:24:29Z</time></trkpt><trkpt lat="43.47139561089673" lon="12.627151661817262"><ele>368.25</ele><time>2026-04-29T13:24:30Z</time></trkpt><trkpt lat="43.47126965263902" lon="12.627075772461296"><ele>368.0</ele><time>2026-04-29T13:24:31Z</time></trkpt><trkpt lat="43.471144343046056" lon="12.626980392688559"><ele>370.6666666666667</ele><time>2026-04-29T13:24:32Z</time></trkpt><trkpt lat="43.471013257463014" lon="12.62688122267577"><ele>373.3333333333333</ele><time>2026-04-29T13:24:33Z</time></trkpt><trkpt lat="43.470876307183175" lon="12.626780669687646"><ele>376.0</ele><time>2026-04-29T13:24:34Z</time></trkpt><trkpt lat="43.470738680077524" lon="12.62668454607482"><ele>376.0</ele><time>2026-04-29T13:24:35Z</time></trkpt><trkpt lat="43.47060975153507" lon="12.626599545608915"><ele>376.0</ele><time>2026-04-29T13:24:36Z</time></trkpt><trkpt lat="43.47048799203124" lon="12.626530119052203"><ele>376.0</ele><time>2026-04-29T13:24:37Z</time></trkpt><trkpt lat="43.47035942238492" lon="12.626502236963073"><ele>376.0</ele><time>2026-04-29T13:24:38Z</time></trkpt><trkpt lat="43.470234921648874" lon="12.626542518733705"><ele>376.5</ele><time>2026-04-29T13:24:38.999Z</time></trkpt><trkpt lat="43.470136250264076" lon="12.626630617000645"><ele>377.0</ele><time>2026-04-29T13:24:39.999Z</time></trkpt><trkpt lat="43.47005700951876" lon="12.62675879488257"><ele>377.5</ele><time>2026-04-29T13:24:40.999Z</time></trkpt><trkpt lat="43.46998683488616" lon="12.626913531378463"><ele>378.0</ele><time>2026-04-29T13:24:41.999Z</time></trkpt><trkpt lat="43.46990922708127" lon="12.627081933596711"><ele>375.0</ele><time>2026-04-29T13:24:42.999Z</time></trkpt><trkpt lat="43.46983385748034" lon="12.627255060954358"><ele>372.0</ele><time>2026-04-29T13:24:43.999Z</time></trkpt><trkpt lat="43.4697535872113" lon="12.627433387377897"><ele>369.0</ele><time>2026-04-29T13:24:44.999Z</time></trkpt><trkpt lat="43.46967074208954" lon="12.62762035671975"><ele>372.3333333333333</ele><time>2026-04-29T13:24:45.999Z</time></trkpt><trkpt lat="43.46958726467241" lon="12.627806403489533"><ele>375.66666666666663</ele><time>2026-04-29T13:24:46.999Z</time></trkpt><trkpt lat="43.46950444759147" lon="12.627999775253782"><ele>379.0</ele><time>2026-04-29T13:24:47.999Z</time></trkpt><trkpt lat="43.46942183449356" lon="12.628189895105937"><ele>379.66666666666663</ele><time>2026-04-29T13:24:48.999Z</time></trkpt><trkpt lat="43.46933775450092" lon="12.628382970013888"><ele>380.3333333333333</ele><time>2026-04-29T13:24:49.999Z</time></trkpt><trkpt lat="43.46926442608068" lon="12.628571907371924"><ele>381.0</ele><time>2026-04-29T13:24:50.999Z</time></trkpt><trkpt lat="43.469198152338514" lon="12.628767410166331"><ele>379.75</ele><time>2026-04-29T13:24:51.999Z</time></trkpt><trkpt lat="43.46916649813381" lon="12.628954377425718"><ele>378.5</ele><time>2026-04-29T13:24:52.999Z</time></trkpt><trkpt lat="43.46917388572256" lon="12.629125624253165"><ele>377.25</ele><time>2026-04-29T13:24:53.999Z</time></trkpt><trkpt lat="43.4692251255724" lon="12.629272391743362"><ele>376.0</ele><time>2026-04-29T13:24:54.999Z</time></trkpt><trkpt lat="43.46931610795276" lon="12.629390215797214"><ele>376.0</ele><time>2026-04-29T13:24:55.999Z</time></trkpt><trkpt lat="43.46942870774505" lon="12.629505655501283"><ele>376.0</ele><time>2026-04-29T13:24:56.999Z</time></trkpt><trkpt lat="43.469531761990595" lon="12.629634322319967"><ele>376.0</ele><time>2026-04-29T13:24:57.999Z</time></trkpt><trkpt lat="43.46962126365545" lon="12.629789988092265"><ele>376.0</ele><time>2026-04-29T13:24:58.999Z</time></trkpt><trkpt lat="43.46965339971141" lon="12.629969592519268"><ele>376.0</ele><time>2026-04-29T13:24:59.999Z</time></trkpt><trkpt lat="43.46966364313743" lon="12.630145549329571"><ele>376.0</ele><time>2026-04-29T13:25:00.999Z</time></trkpt><trkpt lat="43.469632208920935" lon="12.63032704712329"><ele>376.0</ele><time>2026-04-29T13:25:01.999Z</time></trkpt><trkpt lat="43.46957020803606" lon="12.630504441700593"><ele>376.0</ele><time>2026-04-29T13:25:02.999Z</time></trkpt><trkpt lat="43.46948212935269" lon="12.630670310990475"><ele>373.3333333333333</ele><time>2026-04-29T13:25:03.999Z</time></trkpt><trkpt lat="43.4693832524521" lon="12.630825063522929"><ele>370.6666666666667</ele><time>2026-04-29T13:25:04.999Z</time></trkpt><trkpt lat="43.4692760608333" lon="12.63098042072339"><ele>368.0</ele><time>2026-04-29T13:25:05.999Z</time></trkpt><trkpt lat="43.46915009289735" lon="12.631106487292413"><ele>371.6666666666667</ele><time>2026-04-29T13:25:06.999Z</time></trkpt><trkpt lat="43.46902400283009" lon="12.63123769896756"><ele>375.3333333333333</ele><time>2026-04-29T13:25:07.999Z</time></trkpt><trkpt lat="43.46887391704905" lon="12.631304660684314"><ele>379.0</ele><time>2026-04-29T13:25:08.999Z</time></trkpt><trkpt lat="43.46872756605868" lon="12.631366359066543"><ele>379.0</ele><time>2026-04-29T13:25:09.999Z</time></trkpt><trkpt lat="43.46856659170786" lon="12.631384914017326"><ele>379.0</ele><time>2026-04-29T13:25:10.999Z</time></trkpt><trkpt lat="43.468407092914184" lon="12.631365916048965"><ele>379.0</ele><time>2026-04-29T13:25:11.999Z</time></trkpt><trkpt lat="43.46824998910268" lon="12.631307097300574"><ele>379.0</ele><time>2026-04-29T13:25:12.999Z</time></trkpt><trkpt lat="43.468091971439144" lon="12.63120628985542"><ele>379.0</ele><time>2026-04-29T13:25:13.999Z</time></trkpt><trkpt lat="43.467949341553926" lon="12.63107929675393"><ele>379.0</ele><time>2026-04-29T13:25:14.999Z</time></trkpt><trkpt lat="43.46780703950186" lon="12.630955807032814"><ele>377.75</ele><time>2026-04-29T13:25:15.999Z</time></trkpt><trkpt lat="43.467684329375615" lon="12.630816866404176"><ele>376.5</ele><time>2026-04-29T13:25:16.999Z</time></trkpt><trkpt lat="43.46757472784698" lon="12.630693069101255"><ele>375.25</ele><time>2026-04-29T13:25:17.999Z</time></trkpt><trkpt lat="43.46746533678879" lon="12.630581951140547"><ele>374.0</ele><time>2026-04-29T13:25:18.999Z</time></trkpt><trkpt lat="43.46736184837423" lon="12.63047390490598"><ele>374.0</ele><time>2026-04-29T13:25:19.999Z</time></trkpt><trkpt lat="43.46730413928574" lon="12.630387147886237"><ele>374.0</ele><time>2026-04-29T13:25:20.999Z</time></trkpt><trkpt lat="43.46724015582434" lon="12.630275470778345"><ele>374.0</ele><time>2026-04-29T13:25:22.999Z</time></trkpt><trkpt lat="43.46722980598754" lon="12.630121384189847"><ele>374.0</ele><time>2026-04-29T13:25:24.999Z</time></trkpt><trkpt lat="43.46719973988477" lon="12.630003385928065"><ele>374.0</ele><time>2026-04-29T13:25:26.999Z</time></trkpt><trkpt lat="43.4671662185983" lon="12.629892202382939"><ele>374.25</ele><time>2026-04-29T13:25:28.999Z</time></trkpt><trkpt lat="43.467115073153074" lon="12.62983017426733"><ele>374.5</ele><time>2026-04-29T13:25:30.999Z</time></trkpt><trkpt lat="43.46709255277561" lon="12.629599974892923"><ele>374.75</ele><time>2026-04-29T13:25:32.999Z</time></trkpt><trkpt lat="43.46705203219231" lon="12.62947010209424"><ele>375.0</ele><time>2026-04-29T13:25:33.999Z</time></trkpt><trkpt lat="43.46699983018527" lon="12.629321641756283"><ele>374.0</ele><time>2026-04-29T13:25:34.999Z</time></trkpt><trkpt lat="43.46693615137056" lon="12.629167101814222"><ele>373.0</ele><time>2026-04-29T13:25:35.999Z</time></trkpt><trkpt lat="43.466866741207234" lon="12.629014889688428"><ele>372.0</ele><time>2026-04-29T13:25:36.999Z</time></trkpt><trkpt lat="43.466780767547974" lon="12.628865128325405"><ele>371.0</ele><time>2026-04-29T13:25:37.999Z</time></trkpt><trkpt lat="43.46669244814365" lon="12.62870481662767"><ele>373.5</ele><time>2026-04-29T13:25:38.999Z</time></trkpt><trkpt lat="43.466594752789305" lon="12.628548400285359"><ele>376.0</ele><time>2026-04-29T13:25:39.999Z</time></trkpt><trkpt lat="43.46649993433051" lon="12.628419084960578"><ele>378.5</ele><time>2026-04-29T13:25:40.999Z</time></trkpt><trkpt lat="43.46638968356642" lon="12.628302942024746"><ele>381.0</ele><time>2026-04-29T13:25:41.999Z</time></trkpt><trkpt lat="43.46628045445289" lon="12.628199081106697"><ele>378.5</ele><time>2026-04-29T13:25:42.999Z</time></trkpt><trkpt lat="43.46617393339381" lon="12.628127560510833"><ele>376.0</ele><time>2026-04-29T13:25:43.999Z</time></trkpt><trkpt lat="43.46606304367044" lon="12.628101397671095"><ele>373.5</ele><time>2026-04-29T13:25:44.999Z</time></trkpt><trkpt lat="43.46594749872201" lon="12.628091586423393"><ele>371.0</ele><time>2026-04-29T13:25:45.999Z</time></trkpt><trkpt lat="43.46583600878193" lon="12.628049116055708"><ele>371.0</ele><time>2026-04-29T13:25:46.999Z</time></trkpt><trkpt lat="43.465731018080376" lon="12.627953074127399"><ele>371.0</ele><time>2026-04-29T13:25:47.999Z</time></trkpt><trkpt lat="43.4656269671558" lon="12.627840837130675"><ele>371.0</ele><time>2026-04-29T13:25:48.999Z</time></trkpt><trkpt lat="43.46553783445675" lon="12.627736304297644"><ele>371.0</ele><time>2026-04-29T13:25:49.999Z</time></trkpt><trkpt lat="43.46543987061003" lon="12.627711907328107"><ele>370.75</ele><time>2026-04-29T13:25:50.999Z</time></trkpt><trkpt lat="43.465304071643686" lon="12.6277327061573"><ele>370.5</ele><time>2026-04-29T13:25:51.999Z</time></trkpt><trkpt lat="43.46516018095267" lon="12.62778806580223"><ele>370.25</ele><time>2026-04-29T13:25:52.999Z</time></trkpt><trkpt lat="43.465006846020444" lon="12.627844468434484"><ele>370.0</ele><time>2026-04-29T13:25:53.999Z</time></trkpt><trkpt lat="43.46484710918982" lon="12.627905729374133"><ele>370.0</ele><time>2026-04-29T13:25:54.999Z</time></trkpt><trkpt lat="43.464684930379" lon="12.627959683256949"><ele>370.0</ele><time>2026-04-29T13:25:55.999Z</time></trkpt><trkpt lat="43.4645103496847" lon="12.628011482039875"><ele>370.0</ele><time>2026-04-29T13:25:56.999Z</time></trkpt><trkpt lat="43.46432874775698" lon="12.628060572796715"><ele>370.3333333333333</ele><time>2026-04-29T13:25:57.999Z</time></trkpt><trkpt lat="43.46412828981988" lon="12.628104830329239"><ele>370.6666666666667</ele><time>2026-04-29T13:25:58.998Z</time></trkpt><trkpt lat="43.46391041595114" lon="12.628146403700438"><ele>371.0</ele><time>2026-04-29T13:25:59.998Z</time></trkpt><trkpt lat="43.46369824717947" lon="12.628181906266258"><ele>373.0</ele><time>2026-04-29T13:26:00.998Z</time></trkpt><trkpt lat="43.46349139758691" lon="12.62820713858988"><ele>375.0</ele><time>2026-04-29T13:26:01.998Z</time></trkpt><trkpt lat="43.4632792466784" lon="12.628220742816666"><ele>377.0</ele><time>2026-04-29T13:26:02.998Z</time></trkpt><trkpt lat="43.4630567571599" lon="12.62821979056138"><ele>380.0</ele><time>2026-04-29T13:26:03.998Z</time></trkpt><trkpt lat="43.46283037826894" lon="12.628206753314888"><ele>383.0</ele><time>2026-04-29T13:26:04.998Z</time></trkpt><trkpt lat="43.462599646239795" lon="12.628186636937357"><ele>383.0</ele><time>2026-04-29T13:26:05.998Z</time></trkpt><trkpt lat="43.46237049667754" lon="12.62815233459208"><ele>383.0</ele><time>2026-04-29T13:26:06.998Z</time></trkpt><trkpt lat="43.462146026389924" lon="12.628113858416688"><ele>381.6666666666667</ele><time>2026-04-29T13:26:07.998Z</time></trkpt><trkpt lat="43.461924066857854" lon="12.628072489261687"><ele>380.3333333333333</ele><time>2026-04-29T13:26:08.998Z</time></trkpt><trkpt lat="43.46170293576724" lon="12.628028719033617"><ele>379.0</ele><time>2026-04-29T13:26:09.998Z</time></trkpt><trkpt lat="43.46147995439804" lon="12.627988720553853"><ele>378.0</ele><time>2026-04-29T13:26:10.998Z</time></trkpt><trkpt lat="43.4612551415732" lon="12.627947758073338"><ele>377.0</ele><time>2026-04-29T13:26:11.999Z</time></trkpt><trkpt lat="43.46103174030639" lon="12.62790680971703"><ele>377.0</ele><time>2026-04-29T13:26:12.999Z</time></trkpt><trkpt lat="43.460804776833676" lon="12.627865232981579"><ele>377.0</ele><time>2026-04-29T13:26:13.999Z</time></trkpt><trkpt lat="43.46057648915262" lon="12.627831879272167"><ele>375.5</ele><time>2026-04-29T13:26:14.999Z</time></trkpt><trkpt lat="43.46034308878436" lon="12.62779725465359"><ele>374.0</ele><time>2026-04-29T13:26:15.999Z</time></trkpt><trkpt lat="43.46011948979732" lon="12.627772343569005"><ele>374.0</ele><time>2026-04-29T13:26:16.999Z</time></trkpt><trkpt lat="43.45989291326056" lon="12.627757881124515"><ele>374.0</ele><time>2026-04-29T13:26:17.999Z</time></trkpt><trkpt lat="43.45967096906062" lon="12.627746563310097"><ele>374.0</ele><time>2026-04-29T13:26:18.999Z</time></trkpt><trkpt lat="43.45945444391875" lon="12.627744218734577"><ele>374.33333333333337</ele><time>2026-04-29T13:26:19.999Z</time></trkpt><trkpt lat="43.45923867073388" lon="12.627751170207427"><ele>374.6666666666667</ele><time>2026-04-29T13:26:20.999Z</time></trkpt><trkpt lat="43.45902810066231" lon="12.627773463323237"><ele>375.0</ele><time>2026-04-29T13:26:22Z</time></trkpt><trkpt lat="43.458816852235" lon="12.627795670542943"><ele>376.3333333333333</ele><time>2026-04-29T13:26:23Z</time></trkpt><trkpt lat="43.4586082072098" lon="12.6278275701785"><ele>377.66666666666663</ele><time>2026-04-29T13:26:24Z</time></trkpt><trkpt lat="43.45839870012307" lon="12.627867978295074"><ele>379.0</ele><time>2026-04-29T13:26:25Z</time></trkpt><trkpt lat="43.45818984496517" lon="12.627918148822964"><ele>379.0</ele><time>2026-04-29T13:26:26Z</time></trkpt><trkpt lat="43.45797986670739" lon="12.627980393924386"><ele>379.0</ele><time>2026-04-29T13:26:27Z</time></trkpt><trkpt lat="43.45777154857644" lon="12.628052544202081"><ele>379.0</ele><time>2026-04-29T13:26:28Z</time></trkpt><trkpt lat="43.45756206345892" lon="12.6281331415843"><ele>380.0</ele><time>2026-04-29T13:26:29Z</time></trkpt><trkpt lat="43.457355068789674" lon="12.628220426762713"><ele>381.0</ele><time>2026-04-29T13:26:30Z</time></trkpt><trkpt lat="43.457148886116954" lon="12.628309340619836"><ele>382.0</ele><time>2026-04-29T13:26:31Z</time></trkpt><trkpt lat="43.456946825233366" lon="12.628418932748302"><ele>382.66666666666663</ele><time>2026-04-29T13:26:32Z</time></trkpt><trkpt lat="43.45674892736486" lon="12.628540855093272"><ele>383.3333333333333</ele><time>2026-04-29T13:26:33Z</time></trkpt><trkpt lat="43.456547783332006" lon="12.628648706847557"><ele>384.0</ele><time>2026-04-29T13:26:34Z</time></trkpt><trkpt lat="43.45635195479685" lon="12.628782525973822"><ele>382.6666666666667</ele><time>2026-04-29T13:26:35Z</time></trkpt><trkpt lat="43.45615945227302" lon="12.628914299108175"><ele>381.33333333333337</ele><time>2026-04-29T13:26:36Z</time></trkpt><trkpt lat="43.45597065640035" lon="12.629054894897012"><ele>380.0</ele><time>2026-04-29T13:26:37Z</time></trkpt><trkpt lat="43.45578773356605" lon="12.629211594417395"><ele>380.0</ele><time>2026-04-29T13:26:38Z</time></trkpt><trkpt lat="43.45560144917084" lon="12.629357277390145"><ele>380.0</ele><time>2026-04-29T13:26:38.999Z</time></trkpt><trkpt lat="43.4554199998417" lon="12.629521420789366"><ele>380.0</ele><time>2026-04-29T13:26:39.999Z</time></trkpt><trkpt lat="43.45524454466178" lon="12.629695557947844"><ele>379.6666666666667</ele><time>2026-04-29T13:26:40.999Z</time></trkpt><trkpt lat="43.455071930672936" lon="12.62987559880086"><ele>379.3333333333333</ele><time>2026-04-29T13:26:41.999Z</time></trkpt><trkpt lat="43.45490221013214" lon="12.630058724257728"><ele>379.0</ele><time>2026-04-29T13:26:42.999Z</time></trkpt><trkpt lat="43.45473354384738" lon="12.630242189590676"><ele>379.66666666666663</ele><time>2026-04-29T13:26:43.999Z</time></trkpt><trkpt lat="43.45456331449669" lon="12.630429379755498"><ele>380.3333333333333</ele><time>2026-04-29T13:26:44.999Z</time></trkpt><trkpt lat="43.45439552786918" lon="12.630617881242262"><ele>381.0</ele><time>2026-04-29T13:26:45.999Z</time></trkpt><trkpt lat="43.454240010997395" lon="12.630800210901233"><ele>381.0</ele><time>2026-04-29T13:26:46.999Z</time></trkpt><trkpt lat="43.454094641083515" lon="12.630976240645392"><ele>381.0</ele><time>2026-04-29T13:26:47.999Z</time></trkpt><trkpt lat="43.453949194376555" lon="12.631149405599755"><ele>381.0</ele><time>2026-04-29T13:26:48.999Z</time></trkpt><trkpt lat="43.45380374750423" lon="12.631317281304588"><ele>382.33333333333337</ele><time>2026-04-29T13:26:49.999Z</time></trkpt><trkpt lat="43.45365574656478" lon="12.631486119217104"><ele>383.6666666666667</ele><time>2026-04-29T13:26:50.999Z</time></trkpt><trkpt lat="43.4535089254389" lon="12.631655647930588"><ele>385.0</ele><time>2026-04-29T13:26:51.999Z</time></trkpt><trkpt lat="43.45336187091078" lon="12.631825407433636"><ele>385.33333333333337</ele><time>2026-04-29T13:26:52.999Z</time></trkpt><trkpt lat="43.45321201631188" lon="12.632000853533295"><ele>385.66666666666663</ele><time>2026-04-29T13:26:53.999Z</time></trkpt><trkpt lat="43.45305782394026" lon="12.63217633481598"><ele>386.0</ele><time>2026-04-29T13:26:54.999Z</time></trkpt><trkpt lat="43.45289907851558" lon="12.632350415901294"><ele>386.0</ele><time>2026-04-29T13:26:55.999Z</time></trkpt><trkpt lat="43.45273670072958" lon="12.632518490449078"><ele>386.0</ele><time>2026-04-29T13:26:56.999Z</time></trkpt><trkpt lat="43.45256696054422" lon="12.632684442659185"><ele>386.0</ele><time>2026-04-29T13:26:57.999Z</time></trkpt><trkpt lat="43.45239571553687" lon="12.632844817945243"><ele>386.0</ele><time>2026-04-29T13:26:58.999Z</time></trkpt><trkpt lat="43.45221852678736" lon="12.633006365271013"><ele>386.0</ele><time>2026-04-29T13:26:59.999Z</time></trkpt><trkpt lat="43.45203839300638" lon="12.633159738848827"><ele>386.0</ele><time>2026-04-29T13:27:00.999Z</time></trkpt><trkpt lat="43.45185475698438" lon="12.633308655531177"><ele>386.0</ele><time>2026-04-29T13:27:01.999Z</time></trkpt><trkpt lat="43.45166623606773" lon="12.633443583455852"><ele>386.0</ele><time>2026-04-29T13:27:02.999Z</time></trkpt><trkpt lat="43.45147336286335" lon="12.633572829911559"><ele>386.0</ele><time>2026-04-29T13:27:03.999Z</time></trkpt><trkpt lat="43.45127535246643" lon="12.633698508932914"><ele>388.0</ele><time>2026-04-29T13:27:04.999Z</time></trkpt><trkpt lat="43.45107369706904" lon="12.633809012984106"><ele>390.0</ele><time>2026-04-29T13:27:05.999Z</time></trkpt><trkpt lat="43.45086993614986" lon="12.633905577954"><ele>392.0</ele><time>2026-04-29T13:27:06.999Z</time></trkpt><trkpt lat="43.45066213426928" lon="12.63399099704129"><ele>392.0</ele><time>2026-04-29T13:27:07.999Z</time></trkpt><trkpt lat="43.450458348223115" lon="12.634067348896448"><ele>392.0</ele><time>2026-04-29T13:27:08.999Z</time></trkpt><trkpt lat="43.45025358762666" lon="12.634132665114398"><ele>392.0</ele><time>2026-04-29T13:27:09.999Z</time></trkpt><trkpt lat="43.45005505839565" lon="12.634180885843591"><ele>390.3333333333333</ele><time>2026-04-29T13:27:10.999Z</time></trkpt><trkpt lat="43.44985743944949" lon="12.634209973707671"><ele>388.66666666666663</ele><time>2026-04-29T13:27:11.999Z</time></trkpt><trkpt lat="43.44965675907897" lon="12.634221543367392"><ele>387.0</ele><time>2026-04-29T13:27:12.999Z</time></trkpt><trkpt lat="43.44945986060901" lon="12.634216326140702"><ele>387.0</ele><time>2026-04-29T13:27:13.999Z</time></trkpt><trkpt lat="43.449267035868196" lon="12.634202212189994"><ele>387.0</ele><time>2026-04-29T13:27:14.999Z</time></trkpt><trkpt lat="43.44907767678303" lon="12.634177852937084"><ele>387.0</ele><time>2026-04-29T13:27:15.999Z</time></trkpt><trkpt lat="43.44888959524557" lon="12.63415415110185"><ele>387.66666666666663</ele><time>2026-04-29T13:27:16.999Z</time></trkpt><trkpt lat="43.44870391727172" lon="12.634144594188287"><ele>388.3333333333333</ele><time>2026-04-29T13:27:17.999Z</time></trkpt><trkpt lat="43.448528471307135" lon="12.634153413111564"><ele>389.0</ele><time>2026-04-29T13:27:18.999Z</time></trkpt><trkpt lat="43.44834959722773" lon="12.634176941925476"><ele>389.0</ele><time>2026-04-29T13:27:19.999Z</time></trkpt><trkpt lat="43.448165429308595" lon="12.63419897301895"><ele>389.0</ele><time>2026-04-29T13:27:20.999Z</time></trkpt><trkpt lat="43.44798200634097" lon="12.634209976177214"><ele>389.0</ele><time>2026-04-29T13:27:21.999Z</time></trkpt><trkpt lat="43.4477957399389" lon="12.634207468169153"><ele>391.3333333333333</ele><time>2026-04-29T13:27:22.999Z</time></trkpt><trkpt lat="43.447605332687054" lon="12.634190415142784"><ele>393.66666666666663</ele><time>2026-04-29T13:27:23.999Z</time></trkpt><trkpt lat="43.447414762701854" lon="12.634160166864463"><ele>396.0</ele><time>2026-04-29T13:27:24.999Z</time></trkpt><trkpt lat="43.44722709945486" lon="12.634113712441902"><ele>397.0</ele><time>2026-04-29T13:27:25.999Z</time></trkpt><trkpt lat="43.447038422123526" lon="12.634056518905325"><ele>398.0</ele><time>2026-04-29T13:27:26.999Z</time></trkpt><trkpt lat="43.44685336296162" lon="12.63399545058806"><ele>399.0</ele><time>2026-04-29T13:27:27.999Z</time></trkpt><trkpt lat="43.44667625062567" lon="12.633940375917357"><ele>399.0</ele><time>2026-04-29T13:27:28.999Z</time></trkpt><trkpt lat="43.4465033399834" lon="12.633890903153457"><ele>399.0</ele><time>2026-04-29T13:27:29.999Z</time></trkpt><trkpt lat="43.44632347784037" lon="12.633851205667538"><ele>399.0</ele><time>2026-04-29T13:27:30.999Z</time></trkpt><trkpt lat="43.44614378477858" lon="12.633830533546599"><ele>399.0</ele><time>2026-04-29T13:27:31.999Z</time></trkpt><trkpt lat="43.44596210627277" lon="12.633830540186837"><ele>399.0</ele><time>2026-04-29T13:27:32.999Z</time></trkpt><trkpt lat="43.44577512892164" lon="12.633860215739865"><ele>399.0</ele><time>2026-04-29T13:27:33.999Z</time></trkpt><trkpt lat="43.44559234923537" lon="12.633913527185758"><ele>398.33333333333337</ele><time>2026-04-29T13:27:34.999Z</time></trkpt><trkpt lat="43.445415974397584" lon="12.633989309442326"><ele>397.6666666666667</ele><time>2026-04-29T13:27:35.999Z</time></trkpt><trkpt lat="43.44524515878479" lon="12.634080452938566"><ele>397.0</ele><time>2026-04-29T13:27:36.999Z</time></trkpt><trkpt lat="43.44508556608946" lon="12.634187934459842"><ele>397.0</ele><time>2026-04-29T13:27:37.999Z</time></trkpt><trkpt lat="43.44492371241628" lon="12.634282496544868"><ele>397.0</ele><time>2026-04-29T13:27:38.999Z</time></trkpt><trkpt lat="43.44475558390146" lon="12.634348715535115"><ele>397.0</ele><time>2026-04-29T13:27:39.999Z</time></trkpt><trkpt lat="43.444582331066506" lon="12.634386912805375"><ele>397.33333333333337</ele><time>2026-04-29T13:27:40.999Z</time></trkpt><trkpt lat="43.444410343271365" lon="12.634410090171333"><ele>397.66666666666663</ele><time>2026-04-29T13:27:41.999Z</time></trkpt><trkpt lat="43.444239209505085" lon="12.634407955228456"><ele>398.0</ele><time>2026-04-29T13:27:42.999Z</time></trkpt><trkpt lat="43.4440680745566" lon="12.634382472363233"><ele>398.0</ele><time>2026-04-29T13:27:43.999Z</time></trkpt><trkpt lat="43.44390047357723" lon="12.634343308455552"><ele>398.0</ele><time>2026-04-29T13:27:44.999Z</time></trkpt><trkpt lat="43.44373995164591" lon="12.634287207875712"><ele>398.0</ele><time>2026-04-29T13:27:45.999Z</time></trkpt><trkpt lat="43.443594698782654" lon="12.63422384857805"><ele>399.5</ele><time>2026-04-29T13:27:46.999Z</time></trkpt><trkpt lat="43.443451966707265" lon="12.634145565930167"><ele>401.0</ele><time>2026-04-29T13:27:47.999Z</time></trkpt><trkpt lat="43.44332160827171" lon="12.63404733278876"><ele>402.5</ele><time>2026-04-29T13:27:48.999Z</time></trkpt><trkpt lat="43.44320651546641" lon="12.633939457607884"><ele>404.0</ele><time>2026-04-29T13:27:49.999Z</time></trkpt><trkpt lat="43.44310082576039" lon="12.63383554438463"><ele>404.0</ele><time>2026-04-29T13:27:50.999Z</time></trkpt><trkpt lat="43.44300683663025" lon="12.633736472302127"><ele>404.0</ele><time>2026-04-29T13:27:51.999Z</time></trkpt><trkpt lat="43.44292135846299" lon="12.633635035624174"><ele>404.0</ele><time>2026-04-29T13:27:52.999Z</time></trkpt><trkpt lat="43.442848662914386" lon="12.633531379091714"><ele>404.0</ele><time>2026-04-29T13:27:53.999Z</time></trkpt><trkpt lat="43.44279210053771" lon="12.633419988202247"><ele>404.0</ele><time>2026-04-29T13:27:54.999Z</time></trkpt><trkpt lat="43.44274988338607" lon="12.633306871243445"><ele>405.79999999999995</ele><time>2026-04-29T13:27:55.999Z</time></trkpt><trkpt lat="43.44270868787986" lon="12.633198688324827"><ele>407.59999999999997</ele><time>2026-04-29T13:27:56.999Z</time></trkpt><trkpt lat="43.44265312692243" lon="12.633117577055254"><ele>409.4</ele><time>2026-04-29T13:27:57.999Z</time></trkpt><trkpt lat="43.44257176693066" lon="12.633060025532314"><ele>411.2</ele><time>2026-04-29T13:27:58.999Z</time></trkpt><trkpt lat="43.44247174855602" lon="12.63301724872178"><ele>413.0</ele><time>2026-04-29T13:27:59.999Z</time></trkpt><trkpt lat="43.442370060232456" lon="12.63293199627315"><ele>412.75</ele><time>2026-04-29T13:28:00.999Z</time></trkpt><trkpt lat="43.44229580382403" lon="12.632782762231498"><ele>412.5</ele><time>2026-04-29T13:28:01.999Z</time></trkpt><trkpt lat="43.44220006835226" lon="12.632643249224408"><ele>412.25</ele><time>2026-04-29T13:28:02.999Z</time></trkpt><trkpt lat="43.44206841888543" lon="12.632526315711694"><ele>412.0</ele><time>2026-04-29T13:28:03.999Z</time></trkpt><trkpt lat="43.44193351720139" lon="12.632410645280222"><ele>412.0</ele><time>2026-04-29T13:28:04.999Z</time></trkpt><trkpt lat="43.4417906107678" lon="12.632336306556642"><ele>412.0</ele><time>2026-04-29T13:28:05.999Z</time></trkpt><trkpt lat="43.44164334109526" lon="12.632277060678872"><ele>412.0</ele><time>2026-04-29T13:28:06.999Z</time></trkpt><trkpt lat="43.441481887615154" lon="12.632250766597824"><ele>412.0</ele><time>2026-04-29T13:28:07.999Z</time></trkpt><trkpt lat="43.44131570013504" lon="12.632258000779876"><ele>412.0</ele><time>2026-04-29T13:28:08.999Z</time></trkpt><trkpt lat="43.44114938786984" lon="12.63229767944761"><ele>412.0</ele><time>2026-04-29T13:28:09.999Z</time></trkpt><trkpt lat="43.44098395066805" lon="12.632370298250379"><ele>411.33333333333337</ele><time>2026-04-29T13:28:10.999Z</time></trkpt><trkpt lat="43.4408115896447" lon="12.632459230755348"><ele>410.66666666666663</ele><time>2026-04-29T13:28:11.999Z</time></trkpt><trkpt lat="43.440642175980464" lon="12.632542426141319"><ele>410.0</ele><time>2026-04-29T13:28:12.998Z</time></trkpt><trkpt lat="43.4404691759158" lon="12.632622118643182"><ele>408.66666666666663</ele><time>2026-04-29T13:28:13.998Z</time></trkpt><trkpt lat="43.44029396973405" lon="12.632704427633886"><ele>407.33333333333337</ele><time>2026-04-29T13:28:14.998Z</time></trkpt><trkpt lat="43.44011820545885" lon="12.632788895091846"><ele>406.0</ele><time>2026-04-29T13:28:15.998Z</time></trkpt><trkpt lat="43.439946298397395" lon="12.632873776596687"><ele>411.33333333333337</ele><time>2026-04-29T13:28:16.998Z</time></trkpt><trkpt lat="43.43978344034219" lon="12.632945741397167"><ele>416.66666666666663</ele><time>2026-04-29T13:28:18Z</time></trkpt><trkpt lat="43.43961564651468" lon="12.633018497045278"><ele>422.0</ele><time>2026-04-29T13:28:19Z</time></trkpt><trkpt lat="43.43944224385038" lon="12.63309440662645"><ele>422.0</ele><time>2026-04-29T13:28:20Z</time></trkpt><trkpt lat="43.43926692120643" lon="12.633168921834734"><ele>422.0</ele><time>2026-04-29T13:28:21Z</time></trkpt><trkpt lat="43.439081920454456" lon="12.63323710064227"><ele>422.0</ele><time>2026-04-29T13:28:22Z</time></trkpt><trkpt lat="43.43889459102646" lon="12.6332892383321"><ele>420.0</ele><time>2026-04-29T13:28:23Z</time></trkpt><trkpt lat="43.43870233664259" lon="12.633330552847742"><ele>418.0</ele><time>2026-04-29T13:28:24Z</time></trkpt><trkpt lat="43.438506316248365" lon="12.633362363964984"><ele>416.0</ele><time>2026-04-29T13:28:25Z</time></trkpt><trkpt lat="43.43830818016811" lon="12.633392420354154"><ele>416.0</ele><time>2026-04-29T13:28:26Z</time></trkpt><trkpt lat="43.438114784243226" lon="12.633424886934046"><ele>416.0</ele><time>2026-04-29T13:28:27Z</time></trkpt><trkpt lat="43.437926621440845" lon="12.633459091947923"><ele>416.0</ele><time>2026-04-29T13:28:28Z</time></trkpt><trkpt lat="43.43773765133619" lon="12.633496826373035"><ele>415.66666666666663</ele><time>2026-04-29T13:28:29Z</time></trkpt><trkpt lat="43.43755411447703" lon="12.633553536557862"><ele>415.33333333333337</ele><time>2026-04-29T13:28:30Z</time></trkpt><trkpt lat="43.43737586191485" lon="12.633640674766733"><ele>415.0</ele><time>2026-04-29T13:28:31Z</time></trkpt><trkpt lat="43.437203234001444" lon="12.633752593422967"><ele>419.0</ele><time>2026-04-29T13:28:32Z</time></trkpt><trkpt lat="43.437035448814484" lon="12.6338781399097"><ele>423.0</ele><time>2026-04-29T13:28:33Z</time></trkpt><trkpt lat="43.43687727785971" lon="12.634030091542659"><ele>427.0</ele><time>2026-04-29T13:28:34Z</time></trkpt><trkpt lat="43.43672457106388" lon="12.634197265276972"><ele>427.0</ele><time>2026-04-29T13:28:35Z</time></trkpt><trkpt lat="43.43658006853423" lon="12.634377744627155"><ele>427.0</ele><time>2026-04-29T13:28:36Z</time></trkpt><trkpt lat="43.43642903682191" lon="12.63455504428421"><ele>427.0</ele><time>2026-04-29T13:28:37Z</time></trkpt><trkpt lat="43.43628092017834" lon="12.634728349635024"><ele>426.33333333333337</ele><time>2026-04-29T13:28:38Z</time></trkpt><trkpt lat="43.43611963112849" lon="12.634897223167425"><ele>425.66666666666663</ele><time>2026-04-29T13:28:39Z</time></trkpt><trkpt lat="43.43595762419665" lon="12.635065896446545"><ele>425.0</ele><time>2026-04-29T13:28:40Z</time></trkpt><trkpt lat="43.43579748961156" lon="12.635234284957582"><ele>425.0</ele><time>2026-04-29T13:28:41Z</time></trkpt><trkpt lat="43.43565140838941" lon="12.635414225468727"><ele>425.0</ele><time>2026-04-29T13:28:42Z</time></trkpt><trkpt lat="43.43550580953921" lon="12.635598480028484"><ele>425.0</ele><time>2026-04-29T13:28:43Z</time></trkpt><trkpt lat="43.43536939433796" lon="12.635765279131165"><ele>425.0</ele><time>2026-04-29T13:28:44Z</time></trkpt><trkpt lat="43.43524569191015" lon="12.63591004121489"><ele>425.0</ele><time>2026-04-29T13:28:45Z</time></trkpt><trkpt lat="43.43512697920829" lon="12.63604562910913"><ele>425.0</ele><time>2026-04-29T13:28:46Z</time></trkpt><trkpt lat="43.43502031257956" lon="12.636168306398261"><ele>427.25</ele><time>2026-04-29T13:28:47Z</time></trkpt><trkpt lat="43.43492704535468" lon="12.636288661838785"><ele>429.5</ele><time>2026-04-29T13:28:48Z</time></trkpt><trkpt lat="43.434854450510954" lon="12.636426506883915"><ele>431.75</ele><time>2026-04-29T13:28:49Z</time></trkpt><trkpt lat="43.434798993431" lon="12.636579050333209"><ele>434.0</ele><time>2026-04-29T13:28:50Z</time></trkpt><trkpt lat="43.43474366005032" lon="12.636726441628635"><ele>434.0</ele><time>2026-04-29T13:28:51Z</time></trkpt><trkpt lat="43.43471968094705" lon="12.636862954517236"><ele>434.0</ele><time>2026-04-29T13:28:52Z</time></trkpt><trkpt lat="43.4347314904802" lon="12.637000395523135"><ele>434.0</ele><time>2026-04-29T13:28:53Z</time></trkpt><trkpt lat="43.43483819002597" lon="12.637096715386054"><ele>434.0</ele><time>2026-04-29T13:28:54Z</time></trkpt><trkpt lat="43.43497404682255" lon="12.637168353913468"><ele>438.25</ele><time>2026-04-29T13:28:55Z</time></trkpt><trkpt lat="43.435100430042525" lon="12.63727909510929"><ele>442.5</ele><time>2026-04-29T13:28:56Z</time></trkpt><trkpt lat="43.4351782018958" lon="12.63738942934725"><ele>446.75</ele><time>2026-04-29T13:28:57Z</time></trkpt><trkpt lat="43.43522763688916" lon="12.637559587941064"><ele>451.0</ele><time>2026-04-29T13:28:58Z</time></trkpt><trkpt lat="43.43526166793576" lon="12.637756453338962"><ele>452.5</ele><time>2026-04-29T13:28:59Z</time></trkpt><trkpt lat="43.43529956221254" lon="12.637942437546169"><ele>454.0</ele><time>2026-04-29T13:29:00Z</time></trkpt><trkpt lat="43.43535537075931" lon="12.638125757998882"><ele>455.5</ele><time>2026-04-29T13:29:01Z</time></trkpt><trkpt lat="43.43537798461377" lon="12.638303085180695"><ele>457.0</ele><time>2026-04-29T13:29:02Z</time></trkpt><trkpt lat="43.43535022498285" lon="12.638453768753031"><ele>457.0</ele><time>2026-04-29T13:29:03Z</time></trkpt><trkpt lat="43.43527074064401" lon="12.638542366489332"><ele>457.0</ele><time>2026-04-29T13:29:04Z</time></trkpt><trkpt lat="43.43516608782196" lon="12.638579335465339"><ele>457.0</ele><time>2026-04-29T13:29:05Z</time></trkpt><trkpt lat="43.43506931698549" lon="12.63865432292841"><ele>457.0</ele><time>2026-04-29T13:29:06Z</time></trkpt><trkpt lat="43.434969536563585" lon="12.63876977969611"><ele>454.0</ele><time>2026-04-29T13:29:07Z</time></trkpt><trkpt lat="43.43488102774354" lon="12.638913026614526"><ele>451.0</ele><time>2026-04-29T13:29:08Z</time></trkpt><trkpt lat="43.4347965875981" lon="12.639064832244026"><ele>448.0</ele><time>2026-04-29T13:29:09Z</time></trkpt><trkpt lat="43.434717734494185" lon="12.639215385348392"><ele>445.0</ele><time>2026-04-29T13:29:10Z</time></trkpt><trkpt lat="43.43464432116882" lon="12.639341967173806"><ele>447.33333333333337</ele><time>2026-04-29T13:29:11Z</time></trkpt><trkpt lat="43.43464286094131" lon="12.639544464114282"><ele>449.66666666666663</ele><time>2026-04-29T13:29:11.999Z</time></trkpt><trkpt lat="43.43446719157979" lon="12.639733539163917"><ele>452.0</ele><time>2026-04-29T13:29:12.999Z</time></trkpt><trkpt lat="43.434243311084536" lon="12.639894268062516"><ele>452.0</ele><time>2026-04-29T13:29:13.999Z</time></trkpt><trkpt lat="43.4340964790318" lon="12.6399816514703"><ele>452.0</ele><time>2026-04-29T13:29:14.999Z</time></trkpt><trkpt lat="43.43395249058724" lon="12.640002882791123"><ele>452.0</ele><time>2026-04-29T13:29:15.999Z</time></trkpt><trkpt lat="43.43381350248012" lon="12.639954282013955"><ele>452.0</ele><time>2026-04-29T13:29:16.999Z</time></trkpt><trkpt lat="43.43366613344035" lon="12.639903823711608"><ele>453.66666666666663</ele><time>2026-04-29T13:29:17.999Z</time></trkpt><trkpt lat="43.433507108719375" lon="12.639901394730616"><ele>455.33333333333337</ele><time>2026-04-29T13:29:18.999Z</time></trkpt><trkpt lat="43.43335681039653" lon="12.639945021661363"><ele>457.0</ele><time>2026-04-29T13:29:19.999Z</time></trkpt><trkpt lat="43.4332259759334" lon="12.640088311889594"><ele>457.0</ele><time>2026-04-29T13:29:20.999Z</time></trkpt><trkpt lat="43.43311815665636" lon="12.640257277012443"><ele>457.0</ele><time>2026-04-29T13:29:21.999Z</time></trkpt><trkpt lat="43.433011137963405" lon="12.640422761832456"><ele>457.0</ele><time>2026-04-29T13:29:22.999Z</time></trkpt><trkpt lat="43.43290218779102" lon="12.640527748995748"><ele>457.75</ele><time>2026-04-29T13:29:23.999Z</time></trkpt><trkpt lat="43.43277685540009" lon="12.640577899075536"><ele>458.5</ele><time>2026-04-29T13:29:24.999Z</time></trkpt><trkpt lat="43.43264022678931" lon="12.640527668370366"><ele>459.25</ele><time>2026-04-29T13:29:25.999Z</time></trkpt><trkpt lat="43.43248494535451" lon="12.640515904026202"><ele>460.0</ele><time>2026-04-29T13:29:26.999Z</time></trkpt><trkpt lat="43.432335882013724" lon="12.640511187307126"><ele>460.0</ele><time>2026-04-29T13:29:27.999Z</time></trkpt><trkpt lat="43.432180773318294" lon="12.640500817542343"><ele>460.0</ele><time>2026-04-29T13:29:28.999Z</time></trkpt><trkpt lat="43.43202864079754" lon="12.640458176104723"><ele>460.0</ele><time>2026-04-29T13:29:29.999Z</time></trkpt><trkpt lat="43.43188173453778" lon="12.640342330504536"><ele>457.33333333333337</ele><time>2026-04-29T13:29:30.999Z</time></trkpt><trkpt lat="43.431767445773545" lon="12.640197298316203"><ele>454.66666666666663</ele><time>2026-04-29T13:29:31.999Z</time></trkpt><trkpt lat="43.43164857366823" lon="12.640032537753989"><ele>452.0</ele><time>2026-04-29T13:29:32.999Z</time></trkpt><trkpt lat="43.43151389611734" lon="12.639910469696517"><ele>452.0</ele><time>2026-04-29T13:29:33.999Z</time></trkpt><trkpt lat="43.43135785793511" lon="12.639830428189235"><ele>452.0</ele><time>2026-04-29T13:29:34.999Z</time></trkpt><trkpt lat="43.431198302380615" lon="12.63976391814124"><ele>452.0</ele><time>2026-04-29T13:29:35.999Z</time></trkpt><trkpt lat="43.43102226550193" lon="12.639695600824837"><ele>450.3333333333333</ele><time>2026-04-29T13:29:36.999Z</time></trkpt><trkpt lat="43.43084244834367" lon="12.639639391647561"><ele>448.66666666666663</ele><time>2026-04-29T13:29:37.999Z</time></trkpt><trkpt lat="43.43066063760576" lon="12.639603409102241"><ele>447.0</ele><time>2026-04-29T13:29:38.999Z</time></trkpt><trkpt lat="43.430483933371384" lon="12.639612340664073"><ele>447.33333333333337</ele><time>2026-04-29T13:29:39.999Z</time></trkpt><trkpt lat="43.43030259982006" lon="12.639609160550215"><ele>447.6666666666667</ele><time>2026-04-29T13:29:40.999Z</time></trkpt><trkpt lat="43.430128069206525" lon="12.63961347406719"><ele>448.0</ele><time>2026-04-29T13:29:41.999Z</time></trkpt><trkpt lat="43.42995838631002" lon="12.6398608643059"><ele>448.0</ele><time>2026-04-29T13:29:42.999Z</time></trkpt><trkpt lat="43.42978005767236" lon="12.639960465964405"><ele>448.0</ele><time>2026-04-29T13:29:43.999Z</time></trkpt><trkpt lat="43.42959475297386" lon="12.640063510275372"><ele>448.0</ele><time>2026-04-29T13:29:44.999Z</time></trkpt><trkpt lat="43.429394970680214" lon="12.640171626478814"><ele>447.33333333333337</ele><time>2026-04-29T13:29:45.999Z</time></trkpt><trkpt lat="43.42919234317747" lon="12.640285126546257"><ele>446.66666666666663</ele><time>2026-04-29T13:29:46.999Z</time></trkpt><trkpt lat="43.428997604291155" lon="12.640397192002474"><ele>446.0</ele><time>2026-04-29T13:29:47.999Z</time></trkpt><trkpt lat="43.42880525447708" lon="12.640512583415235"><ele>447.3333333333333</ele><time>2026-04-29T13:29:48.999Z</time></trkpt><trkpt lat="43.428622879804685" lon="12.640625791584997"><ele>448.66666666666663</ele><time>2026-04-29T13:29:49.999Z</time></trkpt><trkpt lat="43.42845029550787" lon="12.64073661729037"><ele>450.0</ele><time>2026-04-29T13:29:50.999Z</time></trkpt><trkpt lat="43.42827928929165" lon="12.64084864704359"><ele>450.0</ele><time>2026-04-29T13:29:51.999Z</time></trkpt><trkpt lat="43.42811638818506" lon="12.640948659820186"><ele>450.0</ele><time>2026-04-29T13:29:52.999Z</time></trkpt><trkpt lat="43.427966472978966" lon="12.641070879965659"><ele>450.0</ele><time>2026-04-29T13:29:53.999Z</time></trkpt><trkpt lat="43.427814327336485" lon="12.641190566132098"><ele>450.0</ele><time>2026-04-29T13:29:54.999Z</time></trkpt><trkpt lat="43.427655193648945" lon="12.641305705279484"><ele>450.0</ele><time>2026-04-29T13:29:55.999Z</time></trkpt><trkpt lat="43.42747464923219" lon="12.641430878201545"><ele>450.0</ele><time>2026-04-29T13:29:56.999Z</time></trkpt><trkpt lat="43.4272209476297" lon="12.641643201547904"><ele>454.66666666666663</ele><time>2026-04-29T13:29:57.999Z</time></trkpt><trkpt lat="43.427068627905236" lon="12.64181486968112"><ele>459.3333333333333</ele><time>2026-04-29T13:29:58.999Z</time></trkpt><trkpt lat="43.42694084738108" lon="12.641984668933937"><ele>464.0</ele><time>2026-04-29T13:29:59.999Z</time></trkpt><trkpt lat="43.42684521894896" lon="12.642174851796199"><ele>464.0</ele><time>2026-04-29T13:30:00.999Z</time></trkpt><trkpt lat="43.42678485624055" lon="12.642402569211681"><ele>464.0</ele><time>2026-04-29T13:30:01.999Z</time></trkpt><trkpt lat="43.42675173077627" lon="12.642657408151978"><ele>464.0</ele><time>2026-04-29T13:30:02.999Z</time></trkpt><trkpt lat="43.42672896088274" lon="12.64291601575924"><ele>463.66666666666663</ele><time>2026-04-29T13:30:03.999Z</time></trkpt><trkpt lat="43.426715182280745" lon="12.643180028838426"><ele>463.33333333333337</ele><time>2026-04-29T13:30:04.999Z</time></trkpt><trkpt lat="43.42673290379243" lon="12.643447001145205"><ele>463.0</ele><time>2026-04-29T13:30:05.999Z</time></trkpt><trkpt lat="43.42678295302708" lon="12.643719508188536"><ele>464.6666666666667</ele><time>2026-04-29T13:30:06.999Z</time></trkpt><trkpt lat="43.42686502985378" lon="12.643950530102128"><ele>466.33333333333337</ele><time>2026-04-29T13:30:07.999Z</time></trkpt><trkpt lat="43.42696033247756" lon="12.64415905833727"><ele>468.0</ele><time>2026-04-29T13:30:08.999Z</time></trkpt><trkpt lat="43.427054114210186" lon="12.644347967509912"><ele>468.5</ele><time>2026-04-29T13:30:09.999Z</time></trkpt><trkpt lat="43.4270982629962" lon="12.644529698929695"><ele>469.0</ele><time>2026-04-29T13:30:10.999Z</time></trkpt><trkpt lat="43.427058534257206" lon="12.644657441758584"><ele>469.5</ele><time>2026-04-29T13:30:11.999Z</time></trkpt><trkpt lat="43.426998143903646" lon="12.644772793448128"><ele>470.0</ele><time>2026-04-29T13:30:12.999Z</time></trkpt><trkpt lat="43.42688937376651" lon="12.644843846956292"><ele>470.0</ele><time>2026-04-29T13:30:13.999Z</time></trkpt><trkpt lat="43.426761174557576" lon="12.644921199624847"><ele>470.0</ele><time>2026-04-29T13:30:14.999Z</time></trkpt><trkpt lat="43.42660574923217" lon="12.644951971370531"><ele>470.0</ele><time>2026-04-29T13:30:15.999Z</time></trkpt><trkpt lat="43.42642215951772" lon="12.644982285653763"><ele>470.3333333333333</ele><time>2026-04-29T13:30:16.999Z</time></trkpt><trkpt lat="43.4262326647994" lon="12.645009426184258"><ele>470.66666666666663</ele><time>2026-04-29T13:30:17.999Z</time></trkpt><trkpt lat="43.426042659795144" lon="12.645036132078861"><ele>471.0</ele><time>2026-04-29T13:30:18.999Z</time></trkpt><trkpt lat="43.4258646617255" lon="12.64506332968956"><ele>471.0</ele><time>2026-04-29T13:30:19.999Z</time></trkpt><trkpt lat="43.42567652237777" lon="12.645089185014841"><ele>471.0</ele><time>2026-04-29T13:30:20.999Z</time></trkpt><trkpt lat="43.42552304249084" lon="12.645104120278043"><ele>471.0</ele><time>2026-04-29T13:30:21.999Z</time></trkpt><trkpt lat="43.42539158097597" lon="12.645145133641325"><ele>470.75</ele><time>2026-04-29T13:30:22.999Z</time></trkpt><trkpt lat="43.42529160272115" lon="12.645220704479954"><ele>470.5</ele><time>2026-04-29T13:30:24Z</time></trkpt><trkpt lat="43.425213346756415" lon="12.645362276551968"><ele>470.25</ele><time>2026-04-29T13:30:25Z</time></trkpt><trkpt lat="43.42518482931953" lon="12.645534350064603"><ele>470.0</ele><time>2026-04-29T13:30:26Z</time></trkpt><trkpt lat="43.42520395671572" lon="12.64572390562144"><ele>469.25</ele><time>2026-04-29T13:30:27Z</time></trkpt><trkpt lat="43.425246469089004" lon="12.645920818531504"><ele>468.5</ele><time>2026-04-29T13:30:28Z</time></trkpt><trkpt lat="43.42527648113843" lon="12.64610660804937"><ele>467.75</ele><time>2026-04-29T13:30:29Z</time></trkpt><trkpt lat="43.42531053757572" lon="12.646259571168878"><ele>467.0</ele><time>2026-04-29T13:30:30Z</time></trkpt><trkpt lat="43.42538667156528" lon="12.646369244483147"><ele>474.5</ele><time>2026-04-29T13:30:31Z</time></trkpt><trkpt lat="43.42551156419281" lon="12.646414716837851"><ele>482.0</ele><time>2026-04-29T13:30:32Z</time></trkpt><trkpt lat="43.42564845308446" lon="12.646392242476477"><ele>489.5</ele><time>2026-04-29T13:30:33Z</time></trkpt><trkpt lat="43.42578402887269" lon="12.646304968045277"><ele>497.0</ele><time>2026-04-29T13:30:34Z</time></trkpt><trkpt lat="43.425909775502" lon="12.64617924418823"><ele>493.66666666666663</ele><time>2026-04-29T13:30:35Z</time></trkpt><trkpt lat="43.426040982388166" lon="12.646048760276322"><ele>490.33333333333337</ele><time>2026-04-29T13:30:36Z</time></trkpt><trkpt lat="43.426179214865215" lon="12.645921449356265"><ele>487.0</ele><time>2026-04-29T13:30:37Z</time></trkpt><trkpt lat="43.4263203770485" lon="12.645815992642634"><ele>487.0</ele><time>2026-04-29T13:30:38Z</time></trkpt><trkpt lat="43.42648149889771" lon="12.645791239713251"><ele>487.0</ele><time>2026-04-29T13:30:39Z</time></trkpt><trkpt lat="43.42665518254573" lon="12.64576097795069"><ele>487.0</ele><time>2026-04-29T13:30:40Z</time></trkpt><trkpt lat="43.426821632678546" lon="12.645672321990714"><ele>487.0</ele><time>2026-04-29T13:30:41Z</time></trkpt><trkpt lat="43.426985703594084" lon="12.64554227230778"><ele>487.0</ele><time>2026-04-29T13:30:42Z</time></trkpt><trkpt lat="43.42715351094433" lon="12.645427119807398"><ele>487.0</ele><time>2026-04-29T13:30:43Z</time></trkpt><trkpt lat="43.427324734745824" lon="12.645351302635888"><ele>485.6666666666667</ele><time>2026-04-29T13:30:44Z</time></trkpt><trkpt lat="43.427480433172406" lon="12.645259277535482"><ele>484.33333333333337</ele><time>2026-04-29T13:30:45Z</time></trkpt><trkpt lat="43.427597086077355" lon="12.645127276433955"><ele>483.0</ele><time>2026-04-29T13:30:46Z</time></trkpt><trkpt lat="43.42767066533198" lon="12.644959542713357"><ele>483.0</ele><time>2026-04-29T13:30:47Z</time></trkpt><trkpt lat="43.427723924428676" lon="12.644760009544001"><ele>483.0</ele><time>2026-04-29T13:30:48Z</time></trkpt><trkpt lat="43.42780648574087" lon="12.644581879502832"><ele>483.0</ele><time>2026-04-29T13:30:49Z</time></trkpt><trkpt lat="43.427878906564764" lon="12.644403620642482"><ele>483.0</ele><time>2026-04-29T13:30:50Z</time></trkpt><trkpt lat="43.42793924856888" lon="12.644248242806828"><ele>482.99999999999994</ele><time>2026-04-29T13:30:51Z</time></trkpt><trkpt lat="43.42801878470654" lon="12.644156337789672"><ele>482.99999999999994</ele><time>2026-04-29T13:30:52Z</time></trkpt><trkpt lat="43.428097404474585" lon="12.64412226437724"><ele>483.0</ele><time>2026-04-29T13:30:53Z</time></trkpt><trkpt lat="43.42817202269354" lon="12.644155835107801"><ele>483.0</ele><time>2026-04-29T13:30:54Z</time></trkpt><trkpt lat="43.42821575972221" lon="12.644243419493046"><ele>483.0</ele><time>2026-04-29T13:30:55Z</time></trkpt><trkpt lat="43.42822228371338" lon="12.644367124760995"><ele>483.0</ele><time>2026-04-29T13:30:56Z</time></trkpt><trkpt lat="43.42818373232317" lon="12.644485280911573"><ele>483.0</ele><time>2026-04-29T13:30:57Z</time></trkpt><trkpt lat="43.42809212132596" lon="12.64458830657943"><ele>483.0</ele><time>2026-04-29T13:30:58Z</time></trkpt><trkpt lat="43.427963771812365" lon="12.644693226389988"><ele>483.0</ele><time>2026-04-29T13:30:59Z</time></trkpt><trkpt lat="43.42783770619452" lon="12.644830596096599"><ele>483.0</ele><time>2026-04-29T13:31:00Z</time></trkpt><trkpt lat="43.42773985807657" lon="12.644992990347458"><ele>483.0</ele><time>2026-04-29T13:31:01Z</time></trkpt><trkpt lat="43.42765917108267" lon="12.6451739266287"><ele>492.33333333333337</ele><time>2026-04-29T13:31:02Z</time></trkpt><trkpt lat="43.427563933790516" lon="12.645359608310796"><ele>501.6666666666667</ele><time>2026-04-29T13:31:03Z</time></trkpt><trkpt lat="43.42741236606169" lon="12.645480890976428"><ele>511.0</ele><time>2026-04-29T13:31:04Z</time></trkpt><trkpt lat="43.427253142781325" lon="12.645613987875217"><ele>503.0</ele><time>2026-04-29T13:31:05Z</time></trkpt><trkpt lat="43.42710692010702" lon="12.645750976146832"><ele>495.0</ele><time>2026-04-29T13:31:06Z</time></trkpt><trkpt lat="43.42699052680643" lon="12.645927815648362"><ele>487.0</ele><time>2026-04-29T13:31:07Z</time></trkpt><trkpt lat="43.42687242679344" lon="12.646082770243064"><ele>495.0</ele><time>2026-04-29T13:31:08Z</time></trkpt><trkpt lat="43.42671174439504" lon="12.6461611659798"><ele>503.0</ele><time>2026-04-29T13:31:09Z</time></trkpt><trkpt lat="43.4265301245011" lon="12.646131414683126"><ele>511.0</ele><time>2026-04-29T13:31:10Z</time></trkpt><trkpt lat="43.426383283679755" lon="12.646182638961022"><ele>506.33333333333337</ele><time>2026-04-29T13:31:11Z</time></trkpt><trkpt lat="43.42626177094547" lon="12.646290893195369"><ele>501.66666666666663</ele><time>2026-04-29T13:31:12Z</time></trkpt><trkpt lat="43.42613626472455" lon="12.646447408128076"><ele>497.0</ele><time>2026-04-29T13:31:13Z</time></trkpt><trkpt lat="43.42600678863293" lon="12.646623303873735"><ele>497.0</ele><time>2026-04-29T13:31:14Z</time></trkpt><trkpt lat="43.42587595814296" lon="12.646786491621198"><ele>497.0</ele><time>2026-04-29T13:31:15Z</time></trkpt><trkpt lat="43.425727706393474" lon="12.646935004215669"><ele>497.0</ele><time>2026-04-29T13:31:16Z</time></trkpt><trkpt lat="43.42555522358739" lon="12.647052185018754"><ele>505.3333333333333</ele><time>2026-04-29T13:31:17Z</time></trkpt><trkpt lat="43.42537886375957" lon="12.647147576380394"><ele>513.6666666666666</ele><time>2026-04-29T13:31:18Z</time></trkpt><trkpt lat="43.42520011196954" lon="12.647252889090383"><ele>522.0</ele><time>2026-04-29T13:31:19Z</time></trkpt><trkpt lat="43.42501284827233" lon="12.64732194434586"><ele>522.0</ele><time>2026-04-29T13:31:20Z</time></trkpt><trkpt lat="43.424826587727345" lon="12.647334306020156"><ele>522.0</ele><time>2026-04-29T13:31:21Z</time></trkpt><trkpt lat="43.42463357877679" lon="12.647295577954104"><ele>522.0</ele><time>2026-04-29T13:31:22Z</time></trkpt><trkpt lat="43.424442770252675" lon="12.647245395450057"><ele>521.3333333333334</ele><time>2026-04-29T13:31:23Z</time></trkpt><trkpt lat="43.424264095659865" lon="12.647213979378847"><ele>520.6666666666667</ele><time>2026-04-29T13:31:24Z</time></trkpt><trkpt lat="43.42410405913145" lon="12.647214149590985"><ele>520.0</ele><time>2026-04-29T13:31:25Z</time></trkpt><trkpt lat="43.42395898025385" lon="12.647281394115295"><ele>514.0</ele><time>2026-04-29T13:31:26Z</time></trkpt><trkpt lat="43.42380957892557" lon="12.647411266926929"><ele>508.0</ele><time>2026-04-29T13:31:27Z</time></trkpt><trkpt lat="43.42366374978659" lon="12.647584846334347"><ele>502.0</ele><time>2026-04-29T13:31:28Z</time></trkpt><trkpt lat="43.423516122890206" lon="12.647758701458846"><ele>511.33333333333337</ele><time>2026-04-29T13:31:29Z</time></trkpt><trkpt lat="43.4233633557323" lon="12.647925983795364"><ele>520.6666666666666</ele><time>2026-04-29T13:31:29.999Z</time></trkpt><trkpt lat="43.423211184423494" lon="12.64811249954886"><ele>530.0</ele><time>2026-04-29T13:31:30.999Z</time></trkpt><trkpt lat="43.423085407711326" lon="12.648317809673213"><ele>527.3333333333333</ele><time>2026-04-29T13:31:31.999Z</time></trkpt><trkpt lat="43.42297648141899" lon="12.648548605711305"><ele>524.6666666666666</ele><time>2026-04-29T13:31:32.999Z</time></trkpt><trkpt lat="43.4228702227226" lon="12.648804928066461"><ele>522.0</ele><time>2026-04-29T13:31:33.999Z</time></trkpt><trkpt lat="43.422775420333906" lon="12.649063041014069"><ele>522.0</ele><time>2026-04-29T13:31:34.999Z</time></trkpt><trkpt lat="43.422687168932974" lon="12.649326781413768"><ele>522.0</ele><time>2026-04-29T13:31:35.999Z</time></trkpt><trkpt lat="43.42258297434403" lon="12.649577851059659"><ele>522.0</ele><time>2026-04-29T13:31:36.999Z</time></trkpt><trkpt lat="43.422456814235176" lon="12.649795439904093"><ele>522.0</ele><time>2026-04-29T13:31:37.999Z</time></trkpt><trkpt lat="43.42228290798569" lon="12.649950442247018"><ele>522.0</ele><time>2026-04-29T13:31:38.999Z</time></trkpt><trkpt lat="43.4221050202303" lon="12.6500954949958"><ele>522.0</ele><time>2026-04-29T13:31:39.999Z</time></trkpt><trkpt lat="43.42192540834771" lon="12.65025975916933"><ele>531.0</ele><time>2026-04-29T13:31:40.999Z</time></trkpt><trkpt lat="43.42173303936037" lon="12.650397511805462"><ele>540.0</ele><time>2026-04-29T13:31:41.999Z</time></trkpt><trkpt lat="43.42154241157961" lon="12.650549775959778"><ele>549.0</ele><time>2026-04-29T13:31:42.999Z</time></trkpt><trkpt lat="43.42134683522586" lon="12.650704902601735"><ele>550.0</ele><time>2026-04-29T13:31:43.999Z</time></trkpt><trkpt lat="43.42115838657842" lon="12.6508537408299"><ele>551.0</ele><time>2026-04-29T13:31:44.999Z</time></trkpt><trkpt lat="43.420989881997514" lon="12.65101096182704"><ele>552.0</ele><time>2026-04-29T13:31:45.999Z</time></trkpt><trkpt lat="43.42084500802118" lon="12.651201348385687"><ele>552.0</ele><time>2026-04-29T13:31:46.999Z</time></trkpt><trkpt lat="43.420719375463264" lon="12.65141737836167"><ele>552.0</ele><time>2026-04-29T13:31:47.999Z</time></trkpt><trkpt lat="43.420571764034314" lon="12.651606212788847"><ele>552.0</ele><time>2026-04-29T13:31:48.999Z</time></trkpt><trkpt lat="43.42039054009275" lon="12.65176249821699"><ele>554.0</ele><time>2026-04-29T13:31:49.999Z</time></trkpt><trkpt lat="43.42019733834284" lon="12.65188201281798"><ele>556.0</ele><time>2026-04-29T13:31:50.999Z</time></trkpt><trkpt lat="43.42000681371946" lon="12.652001483215704"><ele>558.0</ele><time>2026-04-29T13:31:51.999Z</time></trkpt><trkpt lat="43.41981897993117" lon="12.652142433030384"><ele>549.0</ele><time>2026-04-29T13:31:52.999Z</time></trkpt><trkpt lat="43.41964056486574" lon="12.652293641957394"><ele>540.0</ele><time>2026-04-29T13:31:53.999Z</time></trkpt><trkpt lat="43.41947808727496" lon="12.65248490814021"><ele>531.0</ele><time>2026-04-29T13:31:54.999Z</time></trkpt><trkpt lat="43.419332139419545" lon="12.652697898414765"><ele>539.3333333333334</ele><time>2026-04-29T13:31:55.999Z</time></trkpt><trkpt lat="43.41918220536262" lon="12.652912467837698"><ele>547.6666666666667</ele><time>2026-04-29T13:31:56.999Z</time></trkpt><trkpt lat="43.419059114110055" lon="12.653139728238836"><ele>556.0</ele><time>2026-04-29T13:31:57.999Z</time></trkpt><trkpt lat="43.418950133070176" lon="12.653371057912953"><ele>556.0</ele><time>2026-04-29T13:31:58.999Z</time></trkpt><trkpt lat="43.418841138169086" lon="12.653542778642716"><ele>556.0</ele><time>2026-04-29T13:31:59.999Z</time></trkpt><trkpt lat="43.418716602998444" lon="12.653689806406929"><ele>556.0</ele><time>2026-04-29T13:32:00.999Z</time></trkpt><trkpt lat="43.418588798561814" lon="12.653830009203473"><ele>554.75</ele><time>2026-04-29T13:32:01.999Z</time></trkpt><trkpt lat="43.41846542683355" lon="12.653960167487712"><ele>553.5</ele><time>2026-04-29T13:32:02.999Z</time></trkpt><trkpt lat="43.41835710195195" lon="12.654090637829436"><ele>552.25</ele><time>2026-04-29T13:32:03.999Z</time></trkpt><trkpt lat="43.41828099548618" lon="12.65424993525035"><ele>551.0</ele><time>2026-04-29T13:32:04.999Z</time></trkpt><trkpt lat="43.4182489858362" lon="12.654438731235379"><ele>555.5</ele><time>2026-04-29T13:32:05.999Z</time></trkpt><trkpt lat="43.418230089787386" lon="12.65462231773193"><ele>560.0</ele><time>2026-04-29T13:32:06.999Z</time></trkpt><trkpt lat="43.41818772049748" lon="12.654770003107423"><ele>564.5</ele><time>2026-04-29T13:32:07.999Z</time></trkpt><trkpt lat="43.418156513232404" lon="12.654919780966269"><ele>569.0</ele><time>2026-04-29T13:32:08.999Z</time></trkpt><trkpt lat="43.41808936851824" lon="12.65505509289214"><ele>569.0</ele><time>2026-04-29T13:32:09.999Z</time></trkpt><trkpt lat="43.4180085028578" lon="12.655185340536198"><ele>569.0</ele><time>2026-04-29T13:32:10.999Z</time></trkpt><trkpt lat="43.41792761272082" lon="12.655299221803023"><ele>569.0</ele><time>2026-04-29T13:32:11.999Z</time></trkpt><trkpt lat="43.417844238770364" lon="12.655395060312024"><ele>569.0</ele><time>2026-04-29T13:32:12.999Z</time></trkpt><trkpt lat="43.41775228261034" lon="12.655483709482654"><ele>567.0</ele><time>2026-04-29T13:32:13.999Z</time></trkpt><trkpt lat="43.41764157185308" lon="12.655531162965431"><ele>565.0</ele><time>2026-04-29T13:32:14.999Z</time></trkpt><trkpt lat="43.41753878962348" lon="12.65560241186463"><ele>563.0</ele><time>2026-04-29T13:32:15.999Z</time></trkpt><trkpt lat="43.41742933917485" lon="12.655643339642307"><ele>561.0</ele><time>2026-04-29T13:32:16.999Z</time></trkpt><trkpt lat="43.41731112778459" lon="12.655670292110383"><ele>561.0</ele><time>2026-04-29T13:32:17.999Z</time></trkpt><trkpt lat="43.41719059641782" lon="12.655665167673835"><ele>561.0</ele><time>2026-04-29T13:32:18.999Z</time></trkpt><trkpt lat="43.41708144455031" lon="12.65563148841398"><ele>561.0</ele><time>2026-04-29T13:32:19.999Z</time></trkpt><trkpt lat="43.416997543720214" lon="12.65558354416941"><ele>561.0</ele><time>2026-04-29T13:32:20.999Z</time></trkpt><trkpt lat="43.41693586126533" lon="12.655509016238174"><ele>561.0</ele><time>2026-04-29T13:32:21.999Z</time></trkpt><trkpt lat="43.416904594716286" lon="12.655408277267753"><ele>561.0</ele><time>2026-04-29T13:32:22.999Z</time></trkpt><trkpt lat="43.416889830327335" lon="12.655306644340445"><ele>561.0</ele><time>2026-04-29T13:32:23.999Z</time></trkpt><trkpt lat="43.416851459414154" lon="12.65522148049758"><ele>561.0</ele><time>2026-04-29T13:32:24.999Z</time></trkpt><trkpt lat="43.41677826974523" lon="12.655151685202382"><ele>561.0</ele><time>2026-04-29T13:32:25.999Z</time></trkpt><trkpt lat="43.416675605547375" lon="12.655114392861355"><ele>561.0</ele><time>2026-04-29T13:32:26.999Z</time></trkpt><trkpt lat="43.41654916628467" lon="12.655120180317455"><ele>561.0</ele><time>2026-04-29T13:32:27.999Z</time></trkpt><trkpt lat="43.4164096713769" lon="12.655086921158185"><ele>561.0</ele><time>2026-04-29T13:32:28.999Z</time></trkpt><trkpt lat="43.41625780518562" lon="12.655012555381285"><ele>561.0</ele><time>2026-04-29T13:32:30Z</time></trkpt><trkpt lat="43.416073483783066" lon="12.654951112270632"><ele>566.0</ele><time>2026-04-29T13:32:31Z</time></trkpt><trkpt lat="43.41590599706107" lon="12.654969047197541"><ele>571.0</ele><time>2026-04-29T13:32:32Z</time></trkpt><trkpt lat="43.41573288604649" lon="12.654969568347852"><ele>576.0</ele><time>2026-04-29T13:32:33Z</time></trkpt><trkpt lat="43.41557093104494" lon="12.654908498520298"><ele>579.6666666666666</ele><time>2026-04-29T13:32:34Z</time></trkpt><trkpt lat="43.41543897293457" lon="12.654751496864188"><ele>583.3333333333333</ele><time>2026-04-29T13:32:35Z</time></trkpt><trkpt lat="43.41530500359448" lon="12.654616584418235"><ele>587.0</ele><time>2026-04-29T13:32:36Z</time></trkpt><trkpt lat="43.41517749220437" lon="12.654514219980872"><ele>587.0</ele><time>2026-04-29T13:32:37Z</time></trkpt><trkpt lat="43.415029757447655" lon="12.654488216671648"><ele>587.0</ele><time>2026-04-29T13:32:38Z</time></trkpt><trkpt lat="43.41486626444954" lon="12.654535338503228"><ele>587.0</ele><time>2026-04-29T13:32:39Z</time></trkpt><trkpt lat="43.41469456413358" lon="12.654612977062433"><ele>587.0</ele><time>2026-04-29T13:32:40Z</time></trkpt><trkpt lat="43.414534982828634" lon="12.65470790642663"><ele>587.0</ele><time>2026-04-29T13:32:41Z</time></trkpt><trkpt lat="43.41437382889378" lon="12.654804998961787"><ele>587.0</ele><time>2026-04-29T13:32:42Z</time></trkpt><trkpt lat="43.41420594593277" lon="12.654882203424437"><ele>587.0</ele><time>2026-04-29T13:32:43Z</time></trkpt><trkpt lat="43.41402510907268" lon="12.65490714544709"><ele>587.0</ele><time>2026-04-29T13:32:44Z</time></trkpt><trkpt lat="43.41384589157517" lon="12.654890721010505"><ele>587.0</ele><time>2026-04-29T13:32:45Z</time></trkpt><trkpt lat="43.41368184074924" lon="12.654862868651612"><ele>584.25</ele><time>2026-04-29T13:32:46Z</time></trkpt><trkpt lat="43.41353422943514" lon="12.654863252614517"><ele>581.5</ele><time>2026-04-29T13:32:47Z</time></trkpt><trkpt lat="43.413420185393036" lon="12.654905892918558"><ele>578.75</ele><time>2026-04-29T13:32:48Z</time></trkpt><trkpt lat="43.413344168303425" lon="12.655000741992854"><ele>576.0</ele><time>2026-04-29T13:32:49Z</time></trkpt><trkpt lat="43.413318483168055" lon="12.655133916415895"><ele>576.0</ele><time>2026-04-29T13:32:50Z</time></trkpt><trkpt lat="43.41333876774317" lon="12.655261300468563"><ele>576.0</ele><time>2026-04-29T13:32:51Z</time></trkpt><trkpt lat="43.41340360136807" lon="12.655349227980023"><ele>576.0</ele><time>2026-04-29T13:32:52Z</time></trkpt><trkpt lat="43.41349833401432" lon="12.65538905652345"><ele>576.0</ele><time>2026-04-29T13:32:53Z</time></trkpt><trkpt lat="43.413615151593035" lon="12.655368523648045"><ele>576.0</ele><time>2026-04-29T13:32:54Z</time></trkpt><trkpt lat="43.413735828837424" lon="12.655292852845271"><ele>579.6666666666666</ele><time>2026-04-29T13:32:55Z</time></trkpt><trkpt lat="43.413863006625206" lon="12.655187175255316"><ele>583.3333333333333</ele><time>2026-04-29T13:32:56Z</time></trkpt><trkpt lat="43.41403027655442" lon="12.655157532653666"><ele>587.0</ele><time>2026-04-29T13:32:57Z</time></trkpt><trkpt lat="43.41419743008775" lon="12.655184129223743"><ele>587.0</ele><time>2026-04-29T13:32:58Z</time></trkpt><trkpt lat="43.41438325729272" lon="12.655207569439362"><ele>587.0</ele><time>2026-04-29T13:32:59Z</time></trkpt><trkpt lat="43.41457080471949" lon="12.6552323096548"><ele>587.0</ele><time>2026-04-29T13:33:00Z</time></trkpt><trkpt lat="43.41476052540903" lon="12.655252080784695"><ele>594.6666666666666</ele><time>2026-04-29T13:33:01Z</time></trkpt><trkpt lat="43.4149442077316" lon="12.655287503927235"><ele>602.3333333333334</ele><time>2026-04-29T13:33:02Z</time></trkpt><trkpt lat="43.41511459817241" lon="12.65534931662804"><ele>610.0</ele><time>2026-04-29T13:33:03Z</time></trkpt><trkpt lat="43.41527634145033" lon="12.655425128500164"><ele>610.0</ele><time>2026-04-29T13:33:04Z</time></trkpt><trkpt lat="43.41541560940651" lon="12.65551285231274"><ele>610.0</ele><time>2026-04-29T13:33:05Z</time></trkpt><trkpt lat="43.41552800201303" lon="12.655658741232363"><ele>610.0</ele><time>2026-04-29T13:33:06Z</time></trkpt><trkpt lat="43.41563036500377" lon="12.655819145064347"><ele>612.75</ele><time>2026-04-29T13:33:07Z</time></trkpt><trkpt lat="43.415730325026466" lon="12.6559736517574"><ele>615.5</ele><time>2026-04-29T13:33:08Z</time></trkpt><trkpt lat="43.41578506926422" lon="12.65612755677381"><ele>618.25</ele><time>2026-04-29T13:33:09Z</time></trkpt><trkpt lat="43.41577869243778" lon="12.65626364844203"><ele>621.0</ele><time>2026-04-29T13:33:10Z</time></trkpt><trkpt lat="43.41573216258549" lon="12.65634979586091"><ele>621.0</ele><time>2026-04-29T13:33:11Z</time></trkpt><trkpt lat="43.41565807142817" lon="12.656383940398094"><ele>621.0</ele><time>2026-04-29T13:33:12Z</time></trkpt><trkpt lat="43.4155833018491" lon="12.656354466977549"><ele>621.0</ele><time>2026-04-29T13:33:13Z</time></trkpt><trkpt lat="43.41553673026702" lon="12.656237027155582"><ele>621.0</ele><time>2026-04-29T13:33:14Z</time></trkpt><trkpt lat="43.41546885153968" lon="12.656123453959177"><ele>621.0</ele><time>2026-04-29T13:33:15Z</time></trkpt><trkpt lat="43.41540179766117" lon="12.655942833058887"><ele>617.3333333333334</ele><time>2026-04-29T13:33:16Z</time></trkpt><trkpt lat="43.41529963697875" lon="12.655767059809339"><ele>613.6666666666667</ele><time>2026-04-29T13:33:17Z</time></trkpt><trkpt lat="43.41517302149073" lon="12.655642424118426"><ele>610.0</ele><time>2026-04-29T13:33:18Z</time></trkpt><trkpt lat="43.41503122356608" lon="12.655591161383269"><ele>610.0</ele><time>2026-04-29T13:33:19Z</time></trkpt><trkpt lat="43.41487237781939" lon="12.655608154156383"><ele>610.0</ele><time>2026-04-29T13:33:20Z</time></trkpt><trkpt lat="43.41470687325408" lon="12.655638790650956"><ele>610.0</ele><time>2026-04-29T13:33:21Z</time></trkpt><trkpt lat="43.414541488363135" lon="12.655673347292996"><ele>611.0</ele><time>2026-04-29T13:33:22Z</time></trkpt><trkpt lat="43.41438534684073" lon="12.655735561726978"><ele>612.0</ele><time>2026-04-29T13:33:23Z</time></trkpt><trkpt lat="43.41422604927621" lon="12.65584467965378"><ele>613.0</ele><time>2026-04-29T13:33:24Z</time></trkpt><trkpt lat="43.414073066751236" lon="12.6559717777604"><ele>613.0</ele><time>2026-04-29T13:33:25Z</time></trkpt><trkpt lat="43.4139237087875" lon="12.656106861281728"><ele>613.0</ele><time>2026-04-29T13:33:26Z</time></trkpt><trkpt lat="43.41377291657283" lon="12.656250709507892"><ele>613.0</ele><time>2026-04-29T13:33:27Z</time></trkpt><trkpt lat="43.41362575348756" lon="12.656404479760559"><ele>615.0</ele><time>2026-04-29T13:33:28Z</time></trkpt><trkpt lat="43.413479299201256" lon="12.656562167064184"><ele>617.0</ele><time>2026-04-29T13:33:29Z</time></trkpt><trkpt lat="43.413335953077635" lon="12.656718494688223"><ele>619.0</ele><time>2026-04-29T13:33:30Z</time></trkpt><trkpt lat="43.41319415538778" lon="12.656865793584448"><ele>621.0</ele><time>2026-04-29T13:33:31Z</time></trkpt><trkpt lat="43.41304872173766" lon="12.657017341584913"><ele>623.0</ele><time>2026-04-29T13:33:32Z</time></trkpt><trkpt lat="43.41290055526193" lon="12.657167891334321"><ele>625.0</ele><time>2026-04-29T13:33:33Z</time></trkpt><trkpt lat="43.412750559670954" lon="12.657321173600723"><ele>625.0</ele><time>2026-04-29T13:33:34Z</time></trkpt><trkpt lat="43.412600234846" lon="12.657474647474213"><ele>625.0</ele><time>2026-04-29T13:33:34.999Z</time></trkpt><trkpt lat="43.41245503276735" lon="12.657630927273031"><ele>625.0</ele><time>2026-04-29T13:33:35.999Z</time></trkpt><trkpt lat="43.41230227773565" lon="12.657786672285354"><ele>628.6666666666667</ele><time>2026-04-29T13:33:36.999Z</time></trkpt><trkpt lat="43.41214421615232" lon="12.6579334861348"><ele>632.3333333333334</ele><time>2026-04-29T13:33:37.999Z</time></trkpt><trkpt lat="43.411981406150495" lon="12.658081932601082"><ele>636.0</ele><time>2026-04-29T13:33:38.999Z</time></trkpt><trkpt lat="43.41182188661018" lon="12.658236321160174"><ele>636.0</ele><time>2026-04-29T13:33:39.999Z</time></trkpt><trkpt lat="43.41166782523082" lon="12.65840653061614"><ele>636.0</ele><time>2026-04-29T13:33:40.999Z</time></trkpt><trkpt lat="43.4115276273932" lon="12.658592578547394"><ele>636.0</ele><time>2026-04-29T13:33:41.999Z</time></trkpt><trkpt lat="43.41140019322746" lon="12.658788521326825"><ele>637.6666666666666</ele><time>2026-04-29T13:33:42.999Z</time></trkpt><trkpt lat="43.4112753158061" lon="12.658977379711246"><ele>639.3333333333333</ele><time>2026-04-29T13:33:43.999Z</time></trkpt><trkpt lat="43.411154475161275" lon="12.659158956263648"><ele>641.0</ele><time>2026-04-29T13:33:44.999Z</time></trkpt><trkpt lat="43.41103835412332" lon="12.659331461259262"><ele>640.0</ele><time>2026-04-29T13:33:45.999Z</time></trkpt><trkpt lat="43.41091890438282" lon="12.659506005381626"><ele>639.0</ele><time>2026-04-29T13:33:46.999Z</time></trkpt><trkpt lat="43.41079744597123" lon="12.659686984971882"><ele>638.0</ele><time>2026-04-29T13:33:47.999Z</time></trkpt><trkpt lat="43.41067343736669" lon="12.659871318958933"><ele>638.0</ele><time>2026-04-29T13:33:48.999Z</time></trkpt><trkpt lat="43.41056095067398" lon="12.66004148595945"><ele>638.0</ele><time>2026-04-29T13:33:49.999Z</time></trkpt><trkpt lat="43.41045162128677" lon="12.660208258187756"><ele>638.0</ele><time>2026-04-29T13:33:50.999Z</time></trkpt><trkpt lat="43.41034277082006" lon="12.660350540060927"><ele>638.3333333333333</ele><time>2026-04-29T13:33:51.999Z</time></trkpt><trkpt lat="43.41021357266984" lon="12.660474635322624"><ele>638.6666666666666</ele><time>2026-04-29T13:33:52.999Z</time></trkpt><trkpt lat="43.41006671622092" lon="12.660534742067998"><ele>639.0</ele><time>2026-04-29T13:33:53.999Z</time></trkpt><trkpt lat="43.4099061917077" lon="12.660592883787697"><ele>639.0</ele><time>2026-04-29T13:33:54.999Z</time></trkpt><trkpt lat="43.40974077605949" lon="12.660652293369388"><ele>639.0</ele><time>2026-04-29T13:33:55.999Z</time></trkpt><trkpt lat="43.40957585826272" lon="12.660719043690918"><ele>639.0</ele><time>2026-04-29T13:33:56.999Z</time></trkpt><trkpt lat="43.409402867259246" lon="12.66078107312541"><ele>635.6666666666666</ele><time>2026-04-29T13:33:57.999Z</time></trkpt><trkpt lat="43.40922929632287" lon="12.660844866908333"><ele>632.3333333333333</ele><time>2026-04-29T13:33:58.999Z</time></trkpt><trkpt lat="43.40905432082163" lon="12.660911432422449"><ele>629.0</ele><time>2026-04-29T13:33:59.999Z</time></trkpt><trkpt lat="43.4088894327175" lon="12.660974167828817"><ele>628.3333333333333</ele><time>2026-04-29T13:34:00.999Z</time></trkpt><trkpt lat="43.408719652530316" lon="12.661029770302921"><ele>627.6666666666666</ele><time>2026-04-29T13:34:01.999Z</time></trkpt><trkpt lat="43.408552948604374" lon="12.661097158311573"><ele>627.0</ele><time>2026-04-29T13:34:02.999Z</time></trkpt><trkpt lat="43.40838952832891" lon="12.66115866745539"><ele>627.0</ele><time>2026-04-29T13:34:03.999Z</time></trkpt><trkpt lat="43.40823249061726" lon="12.661214646103335"><ele>627.0</ele><time>2026-04-29T13:34:04.999Z</time></trkpt><trkpt lat="43.40807351073234" lon="12.661272497351044"><ele>627.0</ele><time>2026-04-29T13:34:05.999Z</time></trkpt><trkpt lat="43.40792218249289" lon="12.661328139289886"><ele>625.0</ele><time>2026-04-29T13:34:06.999Z</time></trkpt><trkpt lat="43.407787634846464" lon="12.661380284942357"><ele>623.0</ele><time>2026-04-29T13:34:07.999Z</time></trkpt><trkpt lat="43.40767529440035" lon="12.661436484659786"><ele>621.0</ele><time>2026-04-29T13:34:08.999Z</time></trkpt><trkpt lat="43.40757339952546" lon="12.661496783389888"><ele>619.0</ele><time>2026-04-29T13:34:09.999Z</time></trkpt><trkpt lat="43.40747999004275" lon="12.661563737828661"><ele>619.0</ele><time>2026-04-29T13:34:10.999Z</time></trkpt><trkpt lat="43.40740096068121" lon="12.66161907948162"><ele>619.0</ele><time>2026-04-29T13:34:11.999Z</time></trkpt><trkpt lat="43.40732770529885" lon="12.66166789583159"><ele>619.0</ele><time>2026-04-29T13:34:12.999Z</time></trkpt><trkpt lat="43.40724836691826" lon="12.66172155195268"><ele>619.0</ele><time>2026-04-29T13:34:13.999Z</time></trkpt><trkpt lat="43.40715080859529" lon="12.661792729945187"><ele>619.0</ele><time>2026-04-29T13:34:14.999Z</time></trkpt><trkpt lat="43.40704343691267" lon="12.661883050475417"><ele>618.0</ele><time>2026-04-29T13:34:15.999Z</time></trkpt><trkpt lat="43.40692680161893" lon="12.661985021767581"><ele>617.0</ele><time>2026-04-29T13:34:16.999Z</time></trkpt><trkpt lat="43.40679960640151" lon="12.662092301787597"><ele>616.0</ele><time>2026-04-29T13:34:17.999Z</time></trkpt><trkpt lat="43.40666225521526" lon="12.66220521962595"><ele>615.0</ele><time>2026-04-29T13:34:18.999Z</time></trkpt><trkpt lat="43.406508427984384" lon="12.662328056545022"><ele>615.0</ele><time>2026-04-29T13:34:19.999Z</time></trkpt><trkpt lat="43.4063562382951" lon="12.662456573612396"><ele>615.0</ele><time>2026-04-29T13:34:20.999Z</time></trkpt><trkpt lat="43.406209007161024" lon="12.662582367270737"><ele>615.0</ele><time>2026-04-29T13:34:21.999Z</time></trkpt><trkpt lat="43.40605916629597" lon="12.66270963635779"><ele>615.3333333333334</ele><time>2026-04-29T13:34:22.999Z</time></trkpt><trkpt lat="43.4059005912689" lon="12.66283827681315"><ele>615.6666666666667</ele><time>2026-04-29T13:34:23.999Z</time></trkpt><trkpt lat="43.40573742272852" lon="12.66296886350135"><ele>616.0</ele><time>2026-04-29T13:34:24.999Z</time></trkpt><trkpt lat="43.405573696016596" lon="12.663102543434217"><ele>610.6666666666667</ele><time>2026-04-29T13:34:25.999Z</time></trkpt><trkpt lat="43.40541987256781" lon="12.663230478785701"><ele>605.3333333333334</ele><time>2026-04-29T13:34:26.999Z</time></trkpt><trkpt lat="43.40527244495288" lon="12.663354689722897"><ele>600.0</ele><time>2026-04-29T13:34:27.999Z</time></trkpt><trkpt lat="43.40511645863245" lon="12.663485409651088"><ele>600.0</ele><time>2026-04-29T13:34:28.999Z</time></trkpt><trkpt lat="43.40496122862086" lon="12.66361378678454"><ele>600.0</ele><time>2026-04-29T13:34:29.999Z</time></trkpt><trkpt lat="43.40480395159042" lon="12.66374719945178"><ele>600.0</ele><time>2026-04-29T13:34:30.999Z</time></trkpt><trkpt lat="43.40464894204277" lon="12.663875193919193"><ele>600.0</ele><time>2026-04-29T13:34:31.999Z</time></trkpt><trkpt lat="43.404502912397795" lon="12.663991216842986"><ele>600.0</ele><time>2026-04-29T13:34:32.999Z</time></trkpt><trkpt lat="43.40435696740216" lon="12.664094966646541"><ele>600.0</ele><time>2026-04-29T13:34:33.999Z</time></trkpt><trkpt lat="43.40420768561424" lon="12.66418733476949"><ele>600.0</ele><time>2026-04-29T13:34:34.999Z</time></trkpt><trkpt lat="43.40405513993398" lon="12.664260516556917"><ele>600.0</ele><time>2026-04-29T13:34:36Z</time></trkpt><trkpt lat="43.40390499194713" lon="12.664310782491508"><ele>600.0</ele><time>2026-04-29T13:34:37Z</time></trkpt><trkpt lat="43.40376179052378" lon="12.664346956853946"><ele>600.0</ele><time>2026-04-29T13:34:38Z</time></trkpt><trkpt lat="43.40362494434887" lon="12.6643990509758"><ele>600.0</ele><time>2026-04-29T13:34:39Z</time></trkpt><trkpt lat="43.403498884121575" lon="12.664473662103783"><ele>600.0</ele><time>2026-04-29T13:34:40Z</time></trkpt><trkpt lat="43.403372739987105" lon="12.664582171167629"><ele>600.0</ele><time>2026-04-29T13:34:41Z</time></trkpt><trkpt lat="43.40325877254327" lon="12.664725411634818"><ele>600.0</ele><time>2026-04-29T13:34:42Z</time></trkpt><trkpt lat="43.40316078553678" lon="12.664899534186707"><ele>600.0</ele><time>2026-04-29T13:34:43Z</time></trkpt><trkpt lat="43.403080911410456" lon="12.665105898378199"><ele>600.0</ele><time>2026-04-29T13:34:44Z</time></trkpt><trkpt lat="43.40301651982149" lon="12.66531875545234"><ele>596.0</ele><time>2026-04-29T13:34:45Z</time></trkpt><trkpt lat="43.40296814966829" lon="12.665523378050656"><ele>592.0</ele><time>2026-04-29T13:34:46Z</time></trkpt><trkpt lat="43.40293414657053" lon="12.665715603591856"><ele>588.0</ele><time>2026-04-29T13:34:47Z</time></trkpt><trkpt lat="43.40291893218333" lon="12.665907038113625"><ele>584.0</ele><time>2026-04-29T13:34:48Z</time></trkpt><trkpt lat="43.402922964872424" lon="12.666111532904111"><ele>584.0</ele><time>2026-04-29T13:34:49Z</time></trkpt><trkpt lat="43.40293659826093" lon="12.666327816434947"><ele>584.0</ele><time>2026-04-29T13:34:50Z</time></trkpt><trkpt lat="43.402926885480525" lon="12.666549338411816"><ele>584.0</ele><time>2026-04-29T13:34:51Z</time></trkpt><trkpt lat="43.40292972213738" lon="12.666775161227482"><ele>583.0</ele><time>2026-04-29T13:34:52Z</time></trkpt><trkpt lat="43.40293243366601" lon="12.66699896695205"><ele>582.0</ele><time>2026-04-29T13:34:53Z</time></trkpt><trkpt lat="43.4029550159311" lon="12.667201435909604"><ele>581.0</ele><time>2026-04-29T13:34:54Z</time></trkpt><trkpt lat="43.40295425705395" lon="12.667400723765553"><ele>581.0</ele><time>2026-04-29T13:34:55Z</time></trkpt><trkpt lat="43.40295083987134" lon="12.667596474781693"><ele>581.0</ele><time>2026-04-29T13:34:56Z</time></trkpt><trkpt lat="43.40292771747559" lon="12.667785559098933"><ele>581.0</ele><time>2026-04-29T13:34:57Z</time></trkpt><trkpt lat="43.402879288224064" lon="12.667973137571574"><ele>581.0</ele><time>2026-04-29T13:34:58Z</time></trkpt><trkpt lat="43.402807263735966" lon="12.668164775888776"><ele>580.0</ele><time>2026-04-29T13:34:59Z</time></trkpt><trkpt lat="43.402702251258916" lon="12.66833888795399"><ele>579.0</ele><time>2026-04-29T13:35:00Z</time></trkpt><trkpt lat="43.402618563616414" lon="12.668526026925601"><ele>578.0</ele><time>2026-04-29T13:35:01Z</time></trkpt><trkpt lat="43.40252429276615" lon="12.668689686865068"><ele>578.0</ele><time>2026-04-29T13:35:02Z</time></trkpt><trkpt lat="43.40243338891738" lon="12.668857159285961"><ele>578.0</ele><time>2026-04-29T13:35:03Z</time></trkpt><trkpt lat="43.4023399478232" lon="12.669030048613964"><ele>578.0</ele><time>2026-04-29T13:35:04Z</time></trkpt><trkpt lat="43.40224424415694" lon="12.669213291708529"><ele>577.6666666666666</ele><time>2026-04-29T13:35:05Z</time></trkpt><trkpt lat="43.402142438226726" lon="12.66939056972715"><ele>577.3333333333334</ele><time>2026-04-29T13:35:06Z</time></trkpt><trkpt lat="43.40203112748457" lon="12.669573621845187"><ele>577.0</ele><time>2026-04-29T13:35:07Z</time></trkpt><trkpt lat="43.40189514040686" lon="12.669721516834286"><ele>578.3333333333334</ele><time>2026-04-29T13:35:08Z</time></trkpt><trkpt lat="43.40172539170643" lon="12.669825702230646"><ele>579.6666666666666</ele><time>2026-04-29T13:35:09Z</time></trkpt><trkpt lat="43.40154393319576" lon="12.66988237867366"><ele>581.0</ele><time>2026-04-29T13:35:10Z</time></trkpt><trkpt lat="43.40135779391783" lon="12.669894289088028"><ele>583.0</ele><time>2026-04-29T13:35:11Z</time></trkpt><trkpt lat="43.40117990987001" lon="12.669938228821067"><ele>585.0</ele><time>2026-04-29T13:35:12Z</time></trkpt><trkpt lat="43.40100137440264" lon="12.669943375506652"><ele>587.0</ele><time>2026-04-29T13:35:13Z</time></trkpt><trkpt lat="43.40082790921438" lon="12.669959410084397"><ele>587.0</ele><time>2026-04-29T13:35:14Z</time></trkpt><trkpt lat="43.40065224288554" lon="12.669981277956474"><ele>587.0</ele><time>2026-04-29T13:35:15Z</time></trkpt><trkpt lat="43.40047441258424" lon="12.670000334563088"><ele>587.0</ele><time>2026-04-29T13:35:16Z</time></trkpt><trkpt lat="43.40029998224339" lon="12.670017577950297"><ele>586.6666666666666</ele><time>2026-04-29T13:35:17Z</time></trkpt><trkpt lat="43.400134942829325" lon="12.670039180450106"><ele>586.3333333333334</ele><time>2026-04-29T13:35:18Z</time></trkpt><trkpt lat="43.39998400399091" lon="12.670060080991284"><ele>586.0</ele><time>2026-04-29T13:35:19Z</time></trkpt><trkpt lat="43.39984173356251" lon="12.670087251354861"><ele>586.0</ele><time>2026-04-29T13:35:20Z</time></trkpt><trkpt lat="43.399706068826845" lon="12.67013458374647"><ele>586.0</ele><time>2026-04-29T13:35:21Z</time></trkpt><trkpt lat="43.399572764151564" lon="12.67020517274719"><ele>586.0</ele><time>2026-04-29T13:35:22Z</time></trkpt><trkpt lat="43.39946754274946" lon="12.67033783180754"><ele>586.0</ele><time>2026-04-29T13:35:23Z</time></trkpt><trkpt lat="43.39936881488535" lon="12.670472774716115"><ele>586.5</ele><time>2026-04-29T13:35:24Z</time></trkpt><trkpt lat="43.39928632188748" lon="12.670621625439347"><ele>587.0</ele><time>2026-04-29T13:35:25Z</time></trkpt><trkpt lat="43.39922479147435" lon="12.670795437105644"><ele>587.5</ele><time>2026-04-29T13:35:26Z</time></trkpt><trkpt lat="43.39917962551092" lon="12.670987435146165"><ele>588.0</ele><time>2026-04-29T13:35:27Z</time></trkpt><trkpt lat="43.39915304846575" lon="12.671198613746665"><ele>588.0</ele><time>2026-04-29T13:35:28Z</time></trkpt><trkpt lat="43.399146176765036" lon="12.67142068202441"><ele>588.0</ele><time>2026-04-29T13:35:29Z</time></trkpt><trkpt lat="43.39915839098578" lon="12.671648109849615"><ele>588.0</ele><time>2026-04-29T13:35:30Z</time></trkpt><trkpt lat="43.39914398042906" lon="12.671863223834894"><ele>586.0</ele><time>2026-04-29T13:35:31Z</time></trkpt><trkpt lat="43.39914746422438" lon="12.672082276872311"><ele>584.0</ele><time>2026-04-29T13:35:32Z</time></trkpt><trkpt lat="43.39911390402077" lon="12.672304181690958"><ele>582.0</ele><time>2026-04-29T13:35:33Z</time></trkpt><trkpt lat="43.399062520530464" lon="12.672532281749165"><ele>582.0</ele><time>2026-04-29T13:35:33.999Z</time></trkpt><trkpt lat="43.39899633016162" lon="12.672765142306453"><ele>582.0</ele><time>2026-04-29T13:35:34.999Z</time></trkpt><trkpt lat="43.39892510250236" lon="12.673001165895785"><ele>582.0</ele><time>2026-04-29T13:35:35.999Z</time></trkpt><trkpt lat="43.39885559505369" lon="12.673232619551847"><ele>580.3333333333334</ele><time>2026-04-29T13:35:36.999Z</time></trkpt><trkpt lat="43.39879275158156" lon="12.673435455065587"><ele>578.6666666666667</ele><time>2026-04-29T13:35:37.999Z</time></trkpt><trkpt lat="43.39870651610704" lon="12.67361719488778"><ele>577.0</ele><time>2026-04-29T13:35:38.999Z</time></trkpt><trkpt lat="43.398596854306" lon="12.67376541356271"><ele>577.0</ele><time>2026-04-29T13:35:39.999Z</time></trkpt><trkpt lat="43.398470591966756" lon="12.67390538793601"><ele>577.0</ele><time>2026-04-29T13:35:40.999Z</time></trkpt><trkpt lat="43.39834655986061" lon="12.674056569130638"><ele>577.0</ele><time>2026-04-29T13:35:41.999Z</time></trkpt><trkpt lat="43.39821839374149" lon="12.674217817227072"><ele>577.0</ele><time>2026-04-29T13:35:42.999Z</time></trkpt><trkpt lat="43.39808991658471" lon="12.674387934460894"><ele>577.0</ele><time>2026-04-29T13:35:43.999Z</time></trkpt><trkpt lat="43.39796451754337" lon="12.674568225525265"><ele>577.0</ele><time>2026-04-29T13:35:44.999Z</time></trkpt><trkpt lat="43.397831001837005" lon="12.674748914795115"><ele>575.3333333333334</ele><time>2026-04-29T13:35:45.999Z</time></trkpt><trkpt lat="43.39768790634104" lon="12.674918548138704"><ele>573.6666666666666</ele><time>2026-04-29T13:35:46.999Z</time></trkpt><trkpt lat="43.39753891264041" lon="12.675084747893294"><ele>572.0</ele><time>2026-04-29T13:35:47.999Z</time></trkpt><trkpt lat="43.39739475954638" lon="12.675266237308735"><ele>568.6666666666666</ele><time>2026-04-29T13:35:48.999Z</time></trkpt><trkpt lat="43.39726586584468" lon="12.675454332717027"><ele>565.3333333333334</ele><time>2026-04-29T13:35:49.999Z</time></trkpt><trkpt lat="43.39714131707847" lon="12.675643898665593"><ele>562.0</ele><time>2026-04-29T13:35:50.999Z</time></trkpt><trkpt lat="43.3970206031835" lon="12.675840120312875"><ele>562.0</ele><time>2026-04-29T13:35:51.999Z</time></trkpt><trkpt lat="43.39688872867072" lon="12.676033811229702"><ele>562.0</ele><time>2026-04-29T13:35:52.999Z</time></trkpt><trkpt lat="43.3967665636554" lon="12.676237400207219"><ele>562.0</ele><time>2026-04-29T13:35:53.999Z</time></trkpt><trkpt lat="43.39665082639681" lon="12.676443939368777"><ele>564.3333333333334</ele><time>2026-04-29T13:35:54.999Z</time></trkpt><trkpt lat="43.39654308573219" lon="12.676658229465835"><ele>566.6666666666666</ele><time>2026-04-29T13:35:55.999Z</time></trkpt><trkpt lat="43.396444418294735" lon="12.676884233428861"><ele>569.0</ele><time>2026-04-29T13:35:56.999Z</time></trkpt><trkpt lat="43.39635069150413" lon="12.677114794507085"><ele>568.3333333333333</ele><time>2026-04-29T13:35:57.999Z</time></trkpt><trkpt lat="43.3962635274816" lon="12.677347893909099"><ele>567.6666666666666</ele><time>2026-04-29T13:35:58.999Z</time></trkpt><trkpt lat="43.39617709611267" lon="12.67758049687557"><ele>567.0</ele><time>2026-04-29T13:35:59.999Z</time></trkpt><trkpt lat="43.39608579497393" lon="12.677812275991917"><ele>567.0</ele><time>2026-04-29T13:36:00.999Z</time></trkpt><trkpt lat="43.39597601159171" lon="12.678025493676406"><ele>567.0</ele><time>2026-04-29T13:36:01.999Z</time></trkpt><trkpt lat="43.39585255810474" lon="12.678217639319602"><ele>567.0</ele><time>2026-04-29T13:36:02.999Z</time></trkpt><trkpt lat="43.39570924755739" lon="12.67839944884648"><ele>567.0</ele><time>2026-04-29T13:36:03.999Z</time></trkpt><trkpt lat="43.395562481207115" lon="12.678572548516819"><ele>567.0</ele><time>2026-04-29T13:36:04.999Z</time></trkpt><trkpt lat="43.39542056886413" lon="12.678721300284804"><ele>567.0</ele><time>2026-04-29T13:36:05.999Z</time></trkpt><trkpt lat="43.39528160021145" lon="12.678858190449619"><ele>566.3333333333334</ele><time>2026-04-29T13:36:06.999Z</time></trkpt><trkpt lat="43.395145412985066" lon="12.67898554857575"><ele>565.6666666666667</ele><time>2026-04-29T13:36:07.999Z</time></trkpt><trkpt lat="43.39501815320551" lon="12.679104618155135"><ele>565.0</ele><time>2026-04-29T13:36:08.999Z</time></trkpt><trkpt lat="43.39489619960595" lon="12.679209265590197"><ele>565.0</ele><time>2026-04-29T13:36:09.999Z</time></trkpt><trkpt lat="43.39477908902566" lon="12.679313327011611"><ele>565.0</ele><time>2026-04-29T13:36:10.999Z</time></trkpt><trkpt lat="43.39465894639393" lon="12.679431546824727"><ele>565.0</ele><time>2026-04-29T13:36:11.999Z</time></trkpt><trkpt lat="43.39452523718892" lon="12.679554174018007"><ele>565.0</ele><time>2026-04-29T13:36:12.999Z</time></trkpt><trkpt lat="43.39438064699359" lon="12.679680964376391"><ele>564.3333333333334</ele><time>2026-04-29T13:36:13.999Z</time></trkpt><trkpt lat="43.39424159086649" lon="12.67981245905625"><ele>563.6666666666666</ele><time>2026-04-29T13:36:14.999Z</time></trkpt><trkpt lat="43.39408905667526" lon="12.679945532675408"><ele>563.0</ele><time>2026-04-29T13:36:15.999Z</time></trkpt><trkpt lat="43.39392840876879" lon="12.680092143743305"><ele>561.3333333333333</ele><time>2026-04-29T13:36:16.999Z</time></trkpt><trkpt lat="43.39376959032479" lon="12.680233444608183"><ele>559.6666666666666</ele><time>2026-04-29T13:36:17.999Z</time></trkpt><trkpt lat="43.39361254098305" lon="12.680374933436662"><ele>558.0</ele><time>2026-04-29T13:36:18.999Z</time></trkpt><trkpt lat="43.39345775381911" lon="12.680514384932986"><ele>558.0</ele><time>2026-04-29T13:36:19.999Z</time></trkpt><trkpt lat="43.393297768193904" lon="12.680654579298906"><ele>558.0</ele><time>2026-04-29T13:36:20.999Z</time></trkpt><trkpt lat="43.393141068245356" lon="12.680792988113906"><ele>558.0</ele><time>2026-04-29T13:36:21.999Z</time></trkpt><trkpt lat="43.39298341624688" lon="12.680930464724428"><ele>556.6666666666666</ele><time>2026-04-29T13:36:22.999Z</time></trkpt><trkpt lat="43.39282894637848" lon="12.681068674870394"><ele>555.3333333333333</ele><time>2026-04-29T13:36:23.999Z</time></trkpt><trkpt lat="43.39267472833404" lon="12.681210310179733"><ele>554.0</ele><time>2026-04-29T13:36:24.999Z</time></trkpt><trkpt lat="43.39252285540909" lon="12.681353702880259"><ele>554.0</ele><time>2026-04-29T13:36:25.999Z</time></trkpt><trkpt lat="43.392364318856316" lon="12.681496676195348"><ele>554.0</ele><time>2026-04-29T13:36:26.999Z</time></trkpt><trkpt lat="43.39219840607506" lon="12.681632171119013"><ele>554.0</ele><time>2026-04-29T13:36:27.999Z</time></trkpt><trkpt lat="43.392025165578566" lon="12.681755709595162"><ele>555.0</ele><time>2026-04-29T13:36:28.999Z</time></trkpt><trkpt lat="43.39185144897036" lon="12.681865720076086"><ele>556.0</ele><time>2026-04-29T13:36:29.999Z</time></trkpt><trkpt lat="43.391677141464434" lon="12.681966003881891"><ele>557.0</ele><time>2026-04-29T13:36:30.999Z</time></trkpt><trkpt lat="43.39150721930648" lon="12.6820531513828"><ele>557.0</ele><time>2026-04-29T13:36:31.999Z</time></trkpt><trkpt lat="43.39134303964153" lon="12.682137490382903"><ele>557.0</ele><time>2026-04-29T13:36:32.999Z</time></trkpt><trkpt lat="43.39118414297509" lon="12.682220226871587"><ele>557.0</ele><time>2026-04-29T13:36:33.999Z</time></trkpt><trkpt lat="43.3910257946021" lon="12.682304423719563"><ele>552.6666666666666</ele><time>2026-04-29T13:36:34.999Z</time></trkpt><trkpt lat="43.390873130710894" lon="12.682388581275092"><ele>548.3333333333334</ele><time>2026-04-29T13:36:35.999Z</time></trkpt><trkpt lat="43.390713278291244" lon="12.682467868055308"><ele>544.0</ele><time>2026-04-29T13:36:36.999Z</time></trkpt><trkpt lat="43.39054054317215" lon="12.682503737589661"><ele>541.6666666666667</ele><time>2026-04-29T13:36:37.999Z</time></trkpt><trkpt lat="43.39035617491309" lon="12.682497371258803"><ele>539.3333333333334</ele><time>2026-04-29T13:36:38.999Z</time></trkpt><trkpt lat="43.39017136536516" lon="12.682473870606843"><ele>537.0</ele><time>2026-04-29T13:36:39.999Z</time></trkpt><trkpt lat="43.3899826513679" lon="12.682463134017667"><ele>537.0</ele><time>2026-04-29T13:36:40.999Z</time></trkpt><trkpt lat="43.38978722869365" lon="12.682442541037936"><ele>537.0</ele><time>2026-04-29T13:36:42Z</time></trkpt><trkpt lat="43.38959154284245" lon="12.682411696740171"><ele>537.0</ele><time>2026-04-29T13:36:43Z</time></trkpt><trkpt lat="43.38939746740929" lon="12.682389505896058"><ele>536.6666666666666</ele><time>2026-04-29T13:36:44Z</time></trkpt><trkpt lat="43.389206397376114" lon="12.682368321246265"><ele>536.3333333333333</ele><time>2026-04-29T13:36:45Z</time></trkpt><trkpt lat="43.38901574394452" lon="12.682347272475003"><ele>536.0</ele><time>2026-04-29T13:36:46Z</time></trkpt><trkpt lat="43.38882653608568" lon="12.682325028498346"><ele>536.0</ele><time>2026-04-29T13:36:47Z</time></trkpt><trkpt lat="43.38863976434123" lon="12.682298704439324"><ele>536.0</ele><time>2026-04-29T13:36:48Z</time></trkpt><trkpt lat="43.3884545567951" lon="12.682282966222171"><ele>536.0</ele><time>2026-04-29T13:36:49Z</time></trkpt><trkpt lat="43.38826345987171" lon="12.682264346187246"><ele>536.0</ele><time>2026-04-29T13:36:50Z</time></trkpt><trkpt lat="43.38807247551759" lon="12.682248761981493"><ele>536.0</ele><time>2026-04-29T13:36:51Z</time></trkpt><trkpt lat="43.38787759851195" lon="12.682229330431168"><ele>536.0</ele><time>2026-04-29T13:36:52Z</time></trkpt><trkpt lat="43.38768623949408" lon="12.68221146791"><ele>535.0</ele><time>2026-04-29T13:36:53Z</time></trkpt><trkpt lat="43.387496137264684" lon="12.68218678555418"><ele>534.0</ele><time>2026-04-29T13:36:54Z</time></trkpt><trkpt lat="43.38731124614689" lon="12.682128370369123"><ele>533.0</ele><time>2026-04-29T13:36:55Z</time></trkpt><trkpt lat="43.38715702883588" lon="12.682010129901075"><ele>538.0</ele><time>2026-04-29T13:36:56Z</time></trkpt><trkpt lat="43.3870252546138" lon="12.681846360783249"><ele>543.0</ele><time>2026-04-29T13:36:57Z</time></trkpt><trkpt lat="43.38690630822041" lon="12.68166494883234"><ele>548.0</ele><time>2026-04-29T13:36:58Z</time></trkpt><trkpt lat="43.386783107396816" lon="12.681485162408087"><ele>548.0</ele><time>2026-04-29T13:36:59Z</time></trkpt><trkpt lat="43.386657639061525" lon="12.681301456208287"><ele>548.0</ele><time>2026-04-29T13:37:00Z</time></trkpt><trkpt lat="43.386525733719566" lon="12.681114673066821"><ele>548.0</ele><time>2026-04-29T13:37:01Z</time></trkpt><trkpt lat="43.386390258977535" lon="12.680933382851919"><ele>550.3333333333333</ele><time>2026-04-29T13:37:02Z</time></trkpt><trkpt lat="43.38625322098874" lon="12.68075737563783"><ele>552.6666666666666</ele><time>2026-04-29T13:37:03Z</time></trkpt><trkpt lat="43.386112069701994" lon="12.68058006248727"><ele>555.0</ele><time>2026-04-29T13:37:04Z</time></trkpt><trkpt lat="43.38597345839233" lon="12.680398808439339"><ele>550.3333333333334</ele><time>2026-04-29T13:37:05Z</time></trkpt><trkpt lat="43.38583680628268" lon="12.680219340818647"><ele>545.6666666666667</ele><time>2026-04-29T13:37:06Z</time></trkpt><trkpt lat="43.385707940887244" lon="12.680053686840841"><ele>541.0</ele><time>2026-04-29T13:37:07Z</time></trkpt><trkpt lat="43.38557776857915" lon="12.679890840849874"><ele>545.3333333333334</ele><time>2026-04-29T13:37:08Z</time></trkpt><trkpt lat="43.38544304692288" lon="12.67973758662486"><ele>549.6666666666666</ele><time>2026-04-29T13:37:09Z</time></trkpt><trkpt lat="43.385295276554714" lon="12.679611075505933"><ele>554.0</ele><time>2026-04-29T13:37:10Z</time></trkpt><trkpt lat="43.385129983272" lon="12.67951295370608"><ele>552.0</ele><time>2026-04-29T13:37:11Z</time></trkpt><trkpt lat="43.38495683555021" lon="12.679425974582072"><ele>550.0</ele><time>2026-04-29T13:37:12Z</time></trkpt><trkpt lat="43.384782494921765" lon="12.679334987820422"><ele>548.0</ele><time>2026-04-29T13:37:13Z</time></trkpt><trkpt lat="43.38460446352428" lon="12.679248887331859"><ele>548.0</ele><time>2026-04-29T13:37:14Z</time></trkpt><trkpt lat="43.38442160326242" lon="12.67917723911398"><ele>548.0</ele><time>2026-04-29T13:37:15Z</time></trkpt><trkpt lat="43.3842377077032" lon="12.679097389159695"><ele>548.0</ele><time>2026-04-29T13:37:16Z</time></trkpt><trkpt lat="43.38405590436557" lon="12.67901482439756"><ele>548.0</ele><time>2026-04-29T13:37:17Z</time></trkpt><trkpt lat="43.38387163026703" lon="12.678939707823808"><ele>548.0</ele><time>2026-04-29T13:37:18Z</time></trkpt><trkpt lat="43.38368857344312" lon="12.678865210703748"><ele>548.0</ele><time>2026-04-29T13:37:19Z</time></trkpt><trkpt lat="43.38350885603595" lon="12.678801317765846"><ele>549.3333333333333</ele><time>2026-04-29T13:37:20Z</time></trkpt><trkpt lat="43.38332256752603" lon="12.678759283520359"><ele>550.6666666666666</ele><time>2026-04-29T13:37:21Z</time></trkpt><trkpt lat="43.383139053093096" lon="12.678729108848534"><ele>552.0</ele><time>2026-04-29T13:37:22Z</time></trkpt><trkpt lat="43.3829529290198" lon="12.678701594220156"><ele>552.0</ele><time>2026-04-29T13:37:23Z</time></trkpt><trkpt lat="43.382770963357736" lon="12.678679247905464"><ele>552.0</ele><time>2026-04-29T13:37:24Z</time></trkpt><trkpt lat="43.38259024045301" lon="12.678667375201918"><ele>552.0</ele><time>2026-04-29T13:37:25Z</time></trkpt><trkpt lat="43.38241823746259" lon="12.678666660346883"><ele>552.0</ele><time>2026-04-29T13:37:26Z</time></trkpt><trkpt lat="43.3822630474266" lon="12.678685253138273"><ele>552.0</ele><time>2026-04-29T13:37:27Z</time></trkpt><trkpt lat="43.38213015116857" lon="12.678738303698836"><ele>552.0</ele><time>2026-04-29T13:37:28Z</time></trkpt><trkpt lat="43.382022769820445" lon="12.678835461278863"><ele>552.0</ele><time>2026-04-29T13:37:29Z</time></trkpt><trkpt lat="43.381949309992784" lon="12.678970994409887"><ele>549.25</ele><time>2026-04-29T13:37:30Z</time></trkpt><trkpt lat="43.38190729193054" lon="12.679146249123807"><ele>546.5</ele><time>2026-04-29T13:37:31Z</time></trkpt><trkpt lat="43.38188430235866" lon="12.679335202263024"><ele>543.75</ele><time>2026-04-29T13:37:32Z</time></trkpt><trkpt lat="43.381889237924746" lon="12.67951631085046"><ele>541.0</ele><time>2026-04-29T13:37:33Z</time></trkpt><trkpt lat="43.38192771880985" lon="12.679687958392055"><ele>540.6666666666667</ele><time>2026-04-29T13:37:34Z</time></trkpt><trkpt lat="43.381988912236245" lon="12.679862218068664"><ele>540.3333333333334</ele><time>2026-04-29T13:37:34.999Z</time></trkpt><trkpt lat="43.38207778827801" lon="12.680033499643697"><ele>540.0</ele><time>2026-04-29T13:37:35.999Z</time></trkpt><trkpt lat="43.3821697649066" lon="12.680219277172771"><ele>543.0</ele><time>2026-04-29T13:37:36.999Z</time></trkpt><trkpt lat="43.3822610182251" lon="12.680414746101462"><ele>546.0</ele><time>2026-04-29T13:37:37.999Z</time></trkpt><trkpt lat="43.382349400015634" lon="12.680611048748991"><ele>549.0</ele><time>2026-04-29T13:37:38.999Z</time></trkpt><trkpt lat="43.38240331883502" lon="12.680804530138253"><ele>549.0</ele><time>2026-04-29T13:37:39.999Z</time></trkpt><trkpt lat="43.382401787974516" lon="12.681029446819409"><ele>549.0</ele><time>2026-04-29T13:37:40.999Z</time></trkpt><trkpt lat="43.38237754570375" lon="12.681261589954824"><ele>549.0</ele><time>2026-04-29T13:37:41.999Z</time></trkpt><trkpt lat="43.382360534975184" lon="12.681475181811917"><ele>549.0</ele><time>2026-04-29T13:37:42.999Z</time></trkpt><trkpt lat="43.38231898409684" lon="12.681662212285477"><ele>549.0</ele><time>2026-04-29T13:37:43.999Z</time></trkpt><trkpt lat="43.38227465647568" lon="12.681825146737307"><ele>549.0</ele><time>2026-04-29T13:37:44.999Z</time></trkpt><trkpt lat="43.382217833914744" lon="12.68196686481363"><ele>549.0</ele><time>2026-04-29T13:37:45.999Z</time></trkpt><trkpt lat="43.38215976401243" lon="12.682095647739136"><ele>546.4</ele><time>2026-04-29T13:37:46.999Z</time></trkpt><trkpt lat="43.38210405873096" lon="12.682217644597564"><ele>543.8</ele><time>2026-04-29T13:37:47.999Z</time></trkpt><trkpt lat="43.38205072532196" lon="12.682339816661544"><ele>541.2</ele><time>2026-04-29T13:37:48.999Z</time></trkpt><trkpt lat="43.38199666872706" lon="12.682464674555446"><ele>538.6</ele><time>2026-04-29T13:37:49.999Z</time></trkpt><trkpt lat="43.38193564308495" lon="12.682598996766913"><ele>536.0</ele><time>2026-04-29T13:37:50.999Z</time></trkpt><trkpt lat="43.381874135106" lon="12.68275820702118"><ele>536.6666666666666</ele><time>2026-04-29T13:37:51.999Z</time></trkpt><trkpt lat="43.38179802620737" lon="12.682928881853908"><ele>537.3333333333334</ele><time>2026-04-29T13:37:52.999Z</time></trkpt><trkpt lat="43.38171136533834" lon="12.68311885275508"><ele>538.0</ele><time>2026-04-29T13:37:53.999Z</time></trkpt><trkpt lat="43.381619863066774" lon="12.683324852204175"><ele>538.0</ele><time>2026-04-29T13:37:54.999Z</time></trkpt><trkpt lat="43.381521258719424" lon="12.683545346154698"><ele>538.0</ele><time>2026-04-29T13:37:55.999Z</time></trkpt><trkpt lat="43.38142117029372" lon="12.683775393964288"><ele>538.0</ele><time>2026-04-29T13:37:56.999Z</time></trkpt><trkpt lat="43.38131969356163" lon="12.684008022856819"><ele>536.0</ele><time>2026-04-29T13:37:57.999Z</time></trkpt><trkpt lat="43.38121423656002" lon="12.68424581910905"><ele>534.0</ele><time>2026-04-29T13:37:58.999Z</time></trkpt><trkpt lat="43.38110686979011" lon="12.684474504455173"><ele>532.0</ele><time>2026-04-29T13:37:59.999Z</time></trkpt><trkpt lat="43.381001274154066" lon="12.684712921781548"><ele>532.0</ele><time>2026-04-29T13:38:00.999Z</time></trkpt><trkpt lat="43.380895010821504" lon="12.684948755894203"><ele>532.0</ele><time>2026-04-29T13:38:01.999Z</time></trkpt><trkpt lat="43.38078977386663" lon="12.685179408601345"><ele>532.0</ele><time>2026-04-29T13:38:02.999Z</time></trkpt><trkpt lat="43.380686236405815" lon="12.685412689015457"><ele>532.3333333333334</ele><time>2026-04-29T13:38:03.999Z</time></trkpt><trkpt lat="43.380579933856176" lon="12.685650278110915"><ele>532.6666666666666</ele><time>2026-04-29T13:38:04.999Z</time></trkpt><trkpt lat="43.380476642866164" lon="12.68588616127723"><ele>533.0</ele><time>2026-04-29T13:38:05.999Z</time></trkpt><trkpt lat="43.38037332085056" lon="12.686118232688798"><ele>533.6666666666666</ele><time>2026-04-29T13:38:06.999Z</time></trkpt><trkpt lat="43.38026886691556" lon="12.686347314440017"><ele>534.3333333333334</ele><time>2026-04-29T13:38:07.999Z</time></trkpt><trkpt lat="43.3801668216075" lon="12.68657655646133"><ele>535.0</ele><time>2026-04-29T13:38:08.999Z</time></trkpt><trkpt lat="43.380067411311096" lon="12.686796627825297"><ele>535.6666666666667</ele><time>2026-04-29T13:38:09.999Z</time></trkpt><trkpt lat="43.37996978297803" lon="12.687013560927088"><ele>536.3333333333334</ele><time>2026-04-29T13:38:10.999Z</time></trkpt><trkpt lat="43.37987233189562" lon="12.687227290700127"><ele>537.0</ele><time>2026-04-29T13:38:11.999Z</time></trkpt><trkpt lat="43.37977848902884" lon="12.687438072792615"><ele>537.0</ele><time>2026-04-29T13:38:12.999Z</time></trkpt><trkpt lat="43.37968557155069" lon="12.687647908065342"><ele>537.0</ele><time>2026-04-29T13:38:13.999Z</time></trkpt><trkpt lat="43.37959535810078" lon="12.687855631793289"><ele>537.0</ele><time>2026-04-29T13:38:14.999Z</time></trkpt><trkpt lat="43.37950377602113" lon="12.688070770629395"><ele>537.6666666666666</ele><time>2026-04-29T13:38:15.999Z</time></trkpt><trkpt lat="43.37941084620247" lon="12.68828371300529"><ele>538.3333333333333</ele><time>2026-04-29T13:38:16.999Z</time></trkpt><trkpt lat="43.37931129913779" lon="12.688491593264313"><ele>539.0</ele><time>2026-04-29T13:38:17.999Z</time></trkpt><trkpt lat="43.379195118471536" lon="12.688686732147637"><ele>539.0</ele><time>2026-04-29T13:38:18.999Z</time></trkpt><trkpt lat="43.379062142833234" lon="12.68885687744205"><ele>539.0</ele><time>2026-04-29T13:38:19.999Z</time></trkpt><trkpt lat="43.378916554924466" lon="12.68901230101054"><ele>539.0</ele><time>2026-04-29T13:38:20.999Z</time></trkpt><trkpt lat="43.378770629383176" lon="12.689162712669484"><ele>539.0</ele><time>2026-04-29T13:38:21.999Z</time></trkpt><trkpt lat="43.37862896893136" lon="12.689322190759498"><ele>539.0</ele><time>2026-04-29T13:38:22.999Z</time></trkpt><trkpt lat="43.37849664987491" lon="12.689487711740528"><ele>539.0</ele><time>2026-04-29T13:38:23.999Z</time></trkpt><trkpt lat="43.37836080348919" lon="12.689661695364405"><ele>539.0</ele><time>2026-04-29T13:38:24.999Z</time></trkpt><trkpt lat="43.37823371126805" lon="12.689834670402046"><ele>539.0</ele><time>2026-04-29T13:38:25.999Z</time></trkpt><trkpt lat="43.378111375983664" lon="12.690012973359194"><ele>539.0</ele><time>2026-04-29T13:38:26.999Z</time></trkpt><trkpt lat="43.377986228820774" lon="12.690195404591991"><ele>538.6666666666666</ele><time>2026-04-29T13:38:27.999Z</time></trkpt><trkpt lat="43.37786656424465" lon="12.690383081130157"><ele>538.3333333333334</ele><time>2026-04-29T13:38:28.999Z</time></trkpt><trkpt lat="43.37777328767333" lon="12.690599653941526"><ele>538.0</ele><time>2026-04-29T13:38:29.999Z</time></trkpt><trkpt lat="43.37771642296646" lon="12.690831569548793"><ele>538.0</ele><time>2026-04-29T13:38:30.999Z</time></trkpt><trkpt lat="43.37769003228304" lon="12.691072410063436"><ele>538.0</ele><time>2026-04-29T13:38:31.999Z</time></trkpt><trkpt lat="43.377695255979354" lon="12.691313447554654"><ele>538.0</ele><time>2026-04-29T13:38:32.999Z</time></trkpt><trkpt lat="43.377727089182265" lon="12.691552352229449"><ele>538.6666666666667</ele><time>2026-04-29T13:38:33.999Z</time></trkpt><trkpt lat="43.37777356770839" lon="12.691788425354142"><ele>539.3333333333334</ele><time>2026-04-29T13:38:34.999Z</time></trkpt><trkpt lat="43.377831016293705" lon="12.692025167832496"><ele>540.0</ele><time>2026-04-29T13:38:35.999Z</time></trkpt><trkpt lat="43.37787753823569" lon="12.692264805227689"><ele>540.5</ele><time>2026-04-29T13:38:36.999Z</time></trkpt><trkpt lat="43.37790468472543" lon="12.692471853396086"><ele>541.0</ele><time>2026-04-29T13:38:37.999Z</time></trkpt><trkpt lat="43.377919592447064" lon="12.692643920730012"><ele>541.5</ele><time>2026-04-29T13:38:38.999Z</time></trkpt><trkpt lat="43.37790371060835" lon="12.692800312973596"><ele>542.0</ele><time>2026-04-29T13:38:39.999Z</time></trkpt><trkpt lat="43.377851054016695" lon="12.69294581603726"><ele>544.0</ele><time>2026-04-29T13:38:40.999Z</time></trkpt><trkpt lat="43.377766454605485" lon="12.693061832788331"><ele>546.0</ele><time>2026-04-29T13:38:41.998Z</time></trkpt><trkpt lat="43.37765553956796" lon="12.693138435065155"><ele>548.0</ele><time>2026-04-29T13:38:42.998Z</time></trkpt><trkpt lat="43.377529562431825" lon="12.693162946663984"><ele>550.0</ele><time>2026-04-29T13:38:43.998Z</time></trkpt><trkpt lat="43.37739427856371" lon="12.693155416602533"><ele>550.0</ele><time>2026-04-29T13:38:44.998Z</time></trkpt><trkpt lat="43.3772563282688" lon="12.693169994516202"><ele>550.0</ele><time>2026-04-29T13:38:45.998Z</time></trkpt><trkpt lat="43.37714641181318" lon="12.693235713040014"><ele>550.0</ele><time>2026-04-29T13:38:46.998Z</time></trkpt><trkpt lat="43.37700469250478" lon="12.693302782840348"><ele>550.0</ele><time>2026-04-29T13:38:48Z</time></trkpt><trkpt lat="43.37687624165573" lon="12.693407934585284"><ele>552.3333333333334</ele><time>2026-04-29T13:38:49Z</time></trkpt><trkpt lat="43.37674383590413" lon="12.693520443858677"><ele>554.6666666666666</ele><time>2026-04-29T13:38:50Z</time></trkpt><trkpt lat="43.37661050293514" lon="12.69364137833379"><ele>557.0</ele><time>2026-04-29T13:38:51Z</time></trkpt><trkpt lat="43.37646593823259" lon="12.693758829090795"><ele>555.6666666666666</ele><time>2026-04-29T13:38:52Z</time></trkpt><trkpt lat="43.37632490242656" lon="12.693887348393536"><ele>554.3333333333334</ele><time>2026-04-29T13:38:53Z</time></trkpt><trkpt lat="43.37618262689978" lon="12.6940217783077"><ele>553.0</ele><time>2026-04-29T13:38:54Z</time></trkpt><trkpt lat="43.37603688645965" lon="12.694160072094538"><ele>553.0</ele><time>2026-04-29T13:38:55Z</time></trkpt><trkpt lat="43.375888845626505" lon="12.694286887304115"><ele>553.0</ele><time>2026-04-29T13:38:56Z</time></trkpt><trkpt lat="43.375748837357435" lon="12.694399765809916"><ele>553.0</ele><time>2026-04-29T13:38:57Z</time></trkpt><trkpt lat="43.375609639723486" lon="12.694484330867052"><ele>554.0</ele><time>2026-04-29T13:38:58Z</time></trkpt><trkpt lat="43.37545776692302" lon="12.694555902226822"><ele>555.0</ele><time>2026-04-29T13:38:59Z</time></trkpt><trkpt lat="43.37530367840163" lon="12.694619608134335"><ele>556.0</ele><time>2026-04-29T13:39:00Z</time></trkpt><trkpt lat="43.37514927947332" lon="12.694684966959402"><ele>556.0</ele><time>2026-04-29T13:39:01Z</time></trkpt><trkpt lat="43.37499302315934" lon="12.69475404856487"><ele>556.0</ele><time>2026-04-29T13:39:02Z</time></trkpt><trkpt lat="43.374830024961504" lon="12.69483167800408"><ele>556.0</ele><time>2026-04-29T13:39:03Z</time></trkpt><trkpt lat="43.374656865561725" lon="12.694915430082427"><ele>551.6666666666667</ele><time>2026-04-29T13:39:04Z</time></trkpt><trkpt lat="43.37447689556238" lon="12.694998557791852"><ele>547.3333333333334</ele><time>2026-04-29T13:39:05Z</time></trkpt><trkpt lat="43.37429696894572" lon="12.695081932934377"><ele>543.0</ele><time>2026-04-29T13:39:06Z</time></trkpt><trkpt lat="43.374115710806926" lon="12.695168328736987"><ele>543.0</ele><time>2026-04-29T13:39:07Z</time></trkpt><trkpt lat="43.37393918687729" lon="12.695252615232778"><ele>543.0</ele><time>2026-04-29T13:39:08Z</time></trkpt><trkpt lat="43.37376897271388" lon="12.695345386603496"><ele>543.0</ele><time>2026-04-29T13:39:09Z</time></trkpt><trkpt lat="43.37361429179145" lon="12.695480144952118"><ele>543.3333333333334</ele><time>2026-04-29T13:39:10Z</time></trkpt><trkpt lat="43.373450508304806" lon="12.695634138280782"><ele>543.6666666666667</ele><time>2026-04-29T13:39:11Z</time></trkpt><trkpt lat="43.373292037561406" lon="12.695780648752352"><ele>544.0</ele><time>2026-04-29T13:39:12Z</time></trkpt><trkpt lat="43.373149061907604" lon="12.695920329679222"><ele>544.3333333333334</ele><time>2026-04-29T13:39:13Z</time></trkpt><trkpt lat="43.37299608487264" lon="12.69605400828275"><ele>544.6666666666666</ele><time>2026-04-29T13:39:14Z</time></trkpt><trkpt lat="43.37283458323293" lon="12.69618749961764"><ele>545.0</ele><time>2026-04-29T13:39:15Z</time></trkpt><trkpt lat="43.37267008140574" lon="12.696311350418403"><ele>545.0</ele><time>2026-04-29T13:39:16Z</time></trkpt><trkpt lat="43.372502856812694" lon="12.696427126325549"><ele>545.0</ele><time>2026-04-29T13:39:17Z</time></trkpt><trkpt lat="43.37232680307984" lon="12.696536736336581"><ele>545.0</ele><time>2026-04-29T13:39:18Z</time></trkpt><trkpt lat="43.37215608446786" lon="12.696642394539833"><ele>545.6666666666666</ele><time>2026-04-29T13:39:19Z</time></trkpt><trkpt lat="43.37198912493432" lon="12.696756617671019"><ele>546.3333333333334</ele><time>2026-04-29T13:39:20Z</time></trkpt><trkpt lat="43.37181585040779" lon="12.696874754088157"><ele>547.0</ele><time>2026-04-29T13:39:21Z</time></trkpt><trkpt lat="43.37164326873755" lon="12.696995626971459"><ele>547.0</ele><time>2026-04-29T13:39:22Z</time></trkpt><trkpt lat="43.37147235954576" lon="12.697113046530173"><ele>547.0</ele><time>2026-04-29T13:39:23Z</time></trkpt><trkpt lat="43.37131251344066" lon="12.69723354789609"><ele>547.0</ele><time>2026-04-29T13:39:24Z</time></trkpt><trkpt lat="43.371162415196565" lon="12.697356703731984"><ele>545.6666666666667</ele><time>2026-04-29T13:39:25Z</time></trkpt><trkpt lat="43.371021852353046" lon="12.697501017228989"><ele>544.3333333333334</ele><time>2026-04-29T13:39:26Z</time></trkpt><trkpt lat="43.37088714341294" lon="12.697667824732015"><ele>543.0</ele><time>2026-04-29T13:39:27Z</time></trkpt><trkpt lat="43.37075721084383" lon="12.697843594041085"><ele>543.0</ele><time>2026-04-29T13:39:28Z</time></trkpt><trkpt lat="43.37062564196478" lon="12.698017102318174"><ele>543.0</ele><time>2026-04-29T13:39:29Z</time></trkpt><trkpt lat="43.370485232475616" lon="12.698194680228582"><ele>543.0</ele><time>2026-04-29T13:39:30Z</time></trkpt><trkpt lat="43.370346268235096" lon="12.69837985584368"><ele>541.3333333333334</ele><time>2026-04-29T13:39:31Z</time></trkpt><trkpt lat="43.37020665178228" lon="12.698571801992317"><ele>539.6666666666667</ele><time>2026-04-29T13:39:32Z</time></trkpt><trkpt lat="43.37006364405073" lon="12.698763427846757"><ele>538.0</ele><time>2026-04-29T13:39:33Z</time></trkpt><trkpt lat="43.36991914977409" lon="12.698951142083"><ele>538.0</ele><time>2026-04-29T13:39:34Z</time></trkpt><trkpt lat="43.36978032394105" lon="12.699135801188097"><ele>538.0</ele><time>2026-04-29T13:39:34.999Z</time></trkpt><trkpt lat="43.36964057133388" lon="12.699320840983322"><ele>538.0</ele><time>2026-04-29T13:39:35.999Z</time></trkpt><trkpt lat="43.36949864908808" lon="12.699510790278424"><ele>533.6666666666667</ele><time>2026-04-29T13:39:36.999Z</time></trkpt><trkpt lat="43.36935598344354" lon="12.699706134691615"><ele>529.3333333333334</ele><time>2026-04-29T13:39:37.999Z</time></trkpt><trkpt lat="43.36920702939671" lon="12.699901394574681"><ele>525.0</ele><time>2026-04-29T13:39:38.999Z</time></trkpt><trkpt lat="43.369058599560816" lon="12.700100226376213"><ele>526.0</ele><time>2026-04-29T13:39:39.999Z</time></trkpt><trkpt lat="43.368904969237796" lon="12.700301104131675"><ele>527.0</ele><time>2026-04-29T13:39:40.999Z</time></trkpt><trkpt lat="43.368752207567525" lon="12.700500956822655"><ele>528.0</ele><time>2026-04-29T13:39:41.999Z</time></trkpt><trkpt lat="43.36859642654983" lon="12.700702919410654"><ele>527.6666666666666</ele><time>2026-04-29T13:39:42.999Z</time></trkpt><trkpt lat="43.368441071320305" lon="12.700897977320647"><ele>527.3333333333333</ele><time>2026-04-29T13:39:43.999Z</time></trkpt><trkpt lat="43.368285926345386" lon="12.701090164931752"><ele>527.0</ele><time>2026-04-29T13:39:44.999Z</time></trkpt><trkpt lat="43.368127909254504" lon="12.701277488287262"><ele>525.0</ele><time>2026-04-29T13:39:45.999Z</time></trkpt><trkpt lat="43.36796869446686" lon="12.701450061419392"><ele>523.0</ele><time>2026-04-29T13:39:46.999Z</time></trkpt><trkpt lat="43.36780193965218" lon="12.701610648728813"><ele>521.0</ele><time>2026-04-29T13:39:47.999Z</time></trkpt><trkpt lat="43.367637195427754" lon="12.701766619127989"><ele>522.6666666666666</ele><time>2026-04-29T13:39:48.999Z</time></trkpt><trkpt lat="43.367471925970435" lon="12.701922204554384"><ele>524.3333333333334</ele><time>2026-04-29T13:39:49.999Z</time></trkpt><trkpt lat="43.36731166709828" lon="12.702075531032865"><ele>526.0</ele><time>2026-04-29T13:39:50.999Z</time></trkpt><trkpt lat="43.36714906706602" lon="12.702222897609344"><ele>526.0</ele><time>2026-04-29T13:39:51.999Z</time></trkpt><trkpt lat="43.36699112762178" lon="12.702368300695582"><ele>526.0</ele><time>2026-04-29T13:39:52.999Z</time></trkpt><trkpt lat="43.36683042480373" lon="12.702517957237971"><ele>526.0</ele><time>2026-04-29T13:39:53.999Z</time></trkpt><trkpt lat="43.36667233449663" lon="12.702660870035993"><ele>527.3333333333334</ele><time>2026-04-29T13:39:54.999Z</time></trkpt><trkpt lat="43.36652066126087" lon="12.702799119455412"><ele>528.6666666666666</ele><time>2026-04-29T13:39:55.999Z</time></trkpt><trkpt lat="43.36638155718603" lon="12.70294549166976"><ele>530.0</ele><time>2026-04-29T13:39:56.999Z</time></trkpt><trkpt lat="43.36624873178498" lon="12.703111816946928"><ele>530.0</ele><time>2026-04-29T13:39:57.999Z</time></trkpt><trkpt lat="43.366118984594706" lon="12.703285659656713"><ele>530.0</ele><time>2026-04-29T13:39:58.999Z</time></trkpt><trkpt lat="43.365988397761214" lon="12.703470795342394"><ele>530.0</ele><time>2026-04-29T13:39:59.999Z</time></trkpt><trkpt lat="43.36586229117748" lon="12.703662879352715"><ele>530.3333333333333</ele><time>2026-04-29T13:40:00.999Z</time></trkpt><trkpt lat="43.3657290215925" lon="12.703853822613127"><ele>530.6666666666666</ele><time>2026-04-29T13:40:01.999Z</time></trkpt><trkpt lat="43.36559861694371" lon="12.70405811802241"><ele>531.0</ele><time>2026-04-29T13:40:02.999Z</time></trkpt><trkpt lat="43.365461986303536" lon="12.704258365827078"><ele>529.6666666666666</ele><time>2026-04-29T13:40:03.999Z</time></trkpt><trkpt lat="43.36532595941358" lon="12.704454985658069"><ele>528.3333333333333</ele><time>2026-04-29T13:40:04.999Z</time></trkpt><trkpt lat="43.365179298228426" lon="12.704653137920594"><ele>527.0</ele><time>2026-04-29T13:40:05.999Z</time></trkpt><trkpt lat="43.365040323366195" lon="12.70485576268197"><ele>527.0</ele><time>2026-04-29T13:40:06.999Z</time></trkpt><trkpt lat="43.36489712627324" lon="12.705056308778213"><ele>527.0</ele><time>2026-04-29T13:40:07.999Z</time></trkpt><trkpt lat="43.36475980436982" lon="12.705262466350181"><ele>527.0</ele><time>2026-04-29T13:40:08.999Z</time></trkpt><trkpt lat="43.36462163393049" lon="12.705472009965666"><ele>527.6666666666666</ele><time>2026-04-29T13:40:09.999Z</time></trkpt><trkpt lat="43.36448621660654" lon="12.705683502502193"><ele>528.3333333333334</ele><time>2026-04-29T13:40:10.999Z</time></trkpt><trkpt lat="43.36434805079834" lon="12.705890600162634"><ele>529.0</ele><time>2026-04-29T13:40:11.999Z</time></trkpt><trkpt lat="43.36420724147364" lon="12.706092002964887"><ele>528.6666666666667</ele><time>2026-04-29T13:40:12.999Z</time></trkpt><trkpt lat="43.36406556301161" lon="12.706290716187064"><ele>528.3333333333334</ele><time>2026-04-29T13:40:13.999Z</time></trkpt><trkpt lat="43.36392491491865" lon="12.706491152044952"><ele>528.0</ele><time>2026-04-29T13:40:14.999Z</time></trkpt><trkpt lat="43.36378854101063" lon="12.706694069561804"><ele>528.0</ele><time>2026-04-29T13:40:15.999Z</time></trkpt><trkpt lat="43.36365116798347" lon="12.706892497787571"><ele>528.0</ele><time>2026-04-29T13:40:16.999Z</time></trkpt><trkpt lat="43.36351367159406" lon="12.707091417524136"><ele>528.0</ele><time>2026-04-29T13:40:17.999Z</time></trkpt><trkpt lat="43.36337028673235" lon="12.707281100470198"><ele>531.3333333333334</ele><time>2026-04-29T13:40:18.999Z</time></trkpt><trkpt lat="43.363226797477665" lon="12.7074688357832"><ele>534.6666666666667</ele><time>2026-04-29T13:40:19.999Z</time></trkpt><trkpt lat="43.36308258323642" lon="12.707659002801725"><ele>538.0</ele><time>2026-04-29T13:40:20.999Z</time></trkpt><trkpt lat="43.362935292257426" lon="12.70784517925421"><ele>538.0</ele><time>2026-04-29T13:40:21.999Z</time></trkpt><trkpt lat="43.36278825341206" lon="12.708029906489514"><ele>538.0</ele><time>2026-04-29T13:40:22.999Z</time></trkpt><trkpt lat="43.36264190753186" lon="12.708213231258291"><ele>538.0</ele><time>2026-04-29T13:40:23.999Z</time></trkpt><trkpt lat="43.36249835848009" lon="12.70839331573679"><ele>538.0</ele><time>2026-04-29T13:40:24.999Z</time></trkpt><trkpt lat="43.36235684250495" lon="12.70856745356407"><ele>538.0</ele><time>2026-04-29T13:40:25.999Z</time></trkpt><trkpt lat="43.36221721406021" lon="12.708736195956208"><ele>538.0</ele><time>2026-04-29T13:40:26.999Z</time></trkpt><trkpt lat="43.36208607647584" lon="12.708908280408176"><ele>539.3333333333334</ele><time>2026-04-29T13:40:27.999Z</time></trkpt><trkpt lat="43.361949070839806" lon="12.70907122854771"><ele>540.6666666666666</ele><time>2026-04-29T13:40:28.999Z</time></trkpt><trkpt lat="43.361821830446246" lon="12.709245622868798"><ele>542.0</ele><time>2026-04-29T13:40:29.999Z</time></trkpt><trkpt lat="43.36170064953308" lon="12.709433482566244"><ele>543.6666666666666</ele><time>2026-04-29T13:40:30.999Z</time></trkpt><trkpt lat="43.36159336340832" lon="12.709625100622063"><ele>545.3333333333334</ele><time>2026-04-29T13:40:31.999Z</time></trkpt><trkpt lat="43.361487613310764" lon="12.709822109362065"><ele>547.0</ele><time>2026-04-29T13:40:32.999Z</time></trkpt><trkpt lat="43.36139467379662" lon="12.710013491436904"><ele>543.6666666666667</ele><time>2026-04-29T13:40:33.999Z</time></trkpt><trkpt lat="43.36131342782196" lon="12.710214508147267"><ele>540.3333333333334</ele><time>2026-04-29T13:40:34.999Z</time></trkpt><trkpt lat="43.36125069885482" lon="12.71042798648695"><ele>537.0</ele><time>2026-04-29T13:40:35.999Z</time></trkpt><trkpt lat="43.36120605659639" lon="12.710649044320858"><ele>537.0</ele><time>2026-04-29T13:40:36.999Z</time></trkpt><trkpt lat="43.361165877290574" lon="12.71088814511629"><ele>537.0</ele><time>2026-04-29T13:40:37.999Z</time></trkpt><trkpt lat="43.361131363809506" lon="12.711130758371603"><ele>537.0</ele><time>2026-04-29T13:40:38.999Z</time></trkpt><trkpt lat="43.361095410290595" lon="12.71138169679064"><ele>540.3333333333334</ele><time>2026-04-29T13:40:39.999Z</time></trkpt><trkpt lat="43.36105621862181" lon="12.711619961922331"><ele>543.6666666666667</ele><time>2026-04-29T13:40:40.998Z</time></trkpt><trkpt lat="43.36101910496136" lon="12.71183741621158"><ele>547.0</ele><time>2026-04-29T13:40:41.998Z</time></trkpt><trkpt lat="43.360967251712594" lon="12.71203312170098"><ele>546.75</ele><time>2026-04-29T13:40:42.998Z</time></trkpt><trkpt lat="43.36090864570869" lon="12.712213945683136"><ele>546.5</ele><time>2026-04-29T13:40:43.998Z</time></trkpt><trkpt lat="43.36085601670912" lon="12.712400272874413"><ele>546.25</ele><time>2026-04-29T13:40:44.998Z</time></trkpt><trkpt lat="43.36080321878136" lon="12.71259034049972"><ele>546.0</ele><time>2026-04-29T13:40:45.998Z</time></trkpt><trkpt lat="43.36074453191596" lon="12.712780900366898"><ele>546.0</ele><time>2026-04-29T13:40:46.998Z</time></trkpt><trkpt lat="43.36066289426101" lon="12.712959455459922"><ele>546.0</ele><time>2026-04-29T13:40:47.998Z</time></trkpt><trkpt lat="43.36057342761887" lon="12.71313750149847"><ele>546.0</ele><time>2026-04-29T13:40:48.998Z</time></trkpt><trkpt lat="43.36046825688591" lon="12.713305809261557"><ele>547.6666666666666</ele><time>2026-04-29T13:40:49.998Z</time></trkpt><trkpt lat="43.36035285094125" lon="12.71347308746055"><ele>549.3333333333333</ele><time>2026-04-29T13:40:50.998Z</time></trkpt><trkpt lat="43.36023110911027" lon="12.713646098728532"><ele>551.0</ele><time>2026-04-29T13:40:51.998Z</time></trkpt><trkpt lat="43.36011158652691" lon="12.713823573829067"><ele>545.6666666666666</ele><time>2026-04-29T13:40:52.998Z</time></trkpt><trkpt lat="43.359992057591384" lon="12.714003293492105"><ele>540.3333333333334</ele><time>2026-04-29T13:40:54Z</time></trkpt><trkpt lat="43.359874955450806" lon="12.714179353035188"><ele>535.0</ele><time>2026-04-29T13:40:55Z</time></trkpt><trkpt lat="43.35975245636618" lon="12.714357886471086"><ele>533.3333333333334</ele><time>2026-04-29T13:40:56Z</time></trkpt><trkpt lat="43.359630500386146" lon="12.714525112222876"><ele>531.6666666666666</ele><time>2026-04-29T13:40:57Z</time></trkpt><trkpt lat="43.359512317175835" lon="12.714679702044673"><ele>530.0</ele><time>2026-04-29T13:40:58Z</time></trkpt><trkpt lat="43.359398054758564" lon="12.714830991014514"><ele>530.0</ele><time>2026-04-29T13:40:59Z</time></trkpt><trkpt lat="43.35928224297003" lon="12.714960227982731"><ele>530.0</ele><time>2026-04-29T13:41:00Z</time></trkpt><trkpt lat="43.35916338684931" lon="12.715074451590702"><ele>530.0</ele><time>2026-04-29T13:41:01Z</time></trkpt><trkpt lat="43.3590508426987" lon="12.715172913005485"><ele>530.0</ele><time>2026-04-29T13:41:02Z</time></trkpt><trkpt lat="43.3589414602816" lon="12.715273675052492"><ele>528.75</ele><time>2026-04-29T13:41:03Z</time></trkpt><trkpt lat="43.35883808321165" lon="12.715379773635911"><ele>527.5</ele><time>2026-04-29T13:41:04Z</time></trkpt><trkpt lat="43.35873146896799" lon="12.715493272319305"><ele>526.25</ele><time>2026-04-29T13:41:05Z</time></trkpt><trkpt lat="43.358617452527234" lon="12.715609063975949"><ele>525.0</ele><time>2026-04-29T13:41:06Z</time></trkpt><trkpt lat="43.35849285219429" lon="12.715729174404654"><ele>525.0</ele><time>2026-04-29T13:41:07Z</time></trkpt><trkpt lat="43.35836098610792" lon="12.715851702442809"><ele>525.0</ele><time>2026-04-29T13:41:08Z</time></trkpt><trkpt lat="43.358222620347775" lon="12.715980531902852"><ele>525.0</ele><time>2026-04-29T13:41:09Z</time></trkpt><trkpt lat="43.35807829576754" lon="12.71610321405232"><ele>525.6666666666666</ele><time>2026-04-29T13:41:10Z</time></trkpt><trkpt lat="43.35792522682353" lon="12.716224701391154"><ele>526.3333333333333</ele><time>2026-04-29T13:41:11Z</time></trkpt><trkpt lat="43.35776329013946" lon="12.716341916712082"><ele>527.0</ele><time>2026-04-29T13:41:12Z</time></trkpt><trkpt lat="43.35759442265408" lon="12.716457389794408"><ele>527.0</ele><time>2026-04-29T13:41:13Z</time></trkpt><trkpt lat="43.35742122419456" lon="12.716562509695203"><ele>527.0</ele><time>2026-04-29T13:41:14Z</time></trkpt><trkpt lat="43.357240933912806" lon="12.716660110735921"><ele>527.0</ele><time>2026-04-29T13:41:15Z</time></trkpt><trkpt lat="43.3570686428904" lon="12.716769701690986"><ele>528.3333333333333</ele><time>2026-04-29T13:41:16Z</time></trkpt><trkpt lat="43.35690080434027" lon="12.716902423223795"><ele>529.6666666666666</ele><time>2026-04-29T13:41:17Z</time></trkpt><trkpt lat="43.35673478736916" lon="12.717052284942053"><ele>531.0</ele><time>2026-04-29T13:41:18Z</time></trkpt><trkpt lat="43.35656919731733" lon="12.717204918806448"><ele>531.0</ele><time>2026-04-29T13:41:19Z</time></trkpt><trkpt lat="43.35639863325247" lon="12.717349420544611"><ele>531.0</ele><time>2026-04-29T13:41:20Z</time></trkpt><trkpt lat="43.356228147043794" lon="12.717487377327286"><ele>531.0</ele><time>2026-04-29T13:41:21Z</time></trkpt><trkpt lat="43.35605748116646" lon="12.717619197671214"><ele>530.6666666666666</ele><time>2026-04-29T13:41:22Z</time></trkpt><trkpt lat="43.35588622778311" lon="12.717748360975795"><ele>530.3333333333333</ele><time>2026-04-29T13:41:23Z</time></trkpt><trkpt lat="43.355715932957985" lon="12.717879130749955"><ele>530.0</ele><time>2026-04-29T13:41:24Z</time></trkpt><trkpt lat="43.35553960220225" lon="12.718004471558054"><ele>526.3333333333333</ele><time>2026-04-29T13:41:25Z</time></trkpt><trkpt lat="43.355371544070664" lon="12.718132418794276"><ele>522.6666666666666</ele><time>2026-04-29T13:41:26Z</time></trkpt><trkpt lat="43.35520023446997" lon="12.718259180757984"><ele>519.0</ele><time>2026-04-29T13:41:27Z</time></trkpt><trkpt lat="43.355026411526715" lon="12.718377956364485"><ele>519.0</ele><time>2026-04-29T13:41:28Z</time></trkpt><trkpt lat="43.35485748819131" lon="12.718495411298038"><ele>519.0</ele><time>2026-04-29T13:41:29Z</time></trkpt><trkpt lat="43.354691703923315" lon="12.718628804365842"><ele>519.0</ele><time>2026-04-29T13:41:30Z</time></trkpt><trkpt lat="43.35453821753023" lon="12.718768730611455"><ele>519.3333333333334</ele><time>2026-04-29T13:41:31Z</time></trkpt><trkpt lat="43.35438645591128" lon="12.718910276690377"><ele>519.6666666666667</ele><time>2026-04-29T13:41:32Z</time></trkpt><trkpt lat="43.35423845492396" lon="12.719044276112198"><ele>520.0</ele><time>2026-04-29T13:41:33Z</time></trkpt><trkpt lat="43.354092991797955" lon="12.719169646530558"><ele>520.0</ele><time>2026-04-29T13:41:34Z</time></trkpt><trkpt lat="43.35394189820522" lon="12.719292345018687"><ele>520.0</ele><time>2026-04-29T13:41:35Z</time></trkpt><trkpt lat="43.353793699219516" lon="12.7194240784688"><ele>520.0</ele><time>2026-04-29T13:41:36Z</time></trkpt><trkpt lat="43.35364336434861" lon="12.719557237208011"><ele>517.6666666666667</ele><time>2026-04-29T13:41:37Z</time></trkpt><trkpt lat="43.35349486167567" lon="12.719692457241463"><ele>515.3333333333334</ele><time>2026-04-29T13:41:38Z</time></trkpt><trkpt lat="43.35334295150845" lon="12.719832211997307"><ele>513.0</ele><time>2026-04-29T13:41:39Z</time></trkpt><trkpt lat="43.35318858766945" lon="12.719970693939675"><ele>512.6666666666666</ele><time>2026-04-29T13:41:39.999Z</time></trkpt><trkpt lat="43.353028019767756" lon="12.720106701937253"><ele>512.3333333333333</ele><time>2026-04-29T13:41:40.999Z</time></trkpt><trkpt lat="43.35286446706177" lon="12.720246079837722"><ele>512.0</ele><time>2026-04-29T13:41:41.999Z</time></trkpt><trkpt lat="43.3527001785133" lon="12.720384306175927"><ele>512.0</ele><time>2026-04-29T13:41:42.999Z</time></trkpt><trkpt lat="43.352539372642305" lon="12.720523997612505"><ele>512.0</ele><time>2026-04-29T13:41:43.999Z</time></trkpt><trkpt lat="43.35237744039524" lon="12.72066093360962"><ele>512.0</ele><time>2026-04-29T13:41:44.999Z</time></trkpt><trkpt lat="43.352216150080444" lon="12.720794677439333"><ele>512.3333333333333</ele><time>2026-04-29T13:41:45.999Z</time></trkpt><trkpt lat="43.35205371291051" lon="12.720926427497847"><ele>512.6666666666666</ele><time>2026-04-29T13:41:46.999Z</time></trkpt><trkpt lat="43.35189504579952" lon="12.72105066818024"><ele>513.0</ele><time>2026-04-29T13:41:47.999Z</time></trkpt><trkpt lat="43.351742112926104" lon="12.721169883879696"><ele>513.0</ele><time>2026-04-29T13:41:48.999Z</time></trkpt><trkpt lat="43.35159812995547" lon="12.72127873540195"><ele>513.0</ele><time>2026-04-29T13:41:49.999Z</time></trkpt><trkpt lat="43.351459931259306" lon="12.721382752381055"><ele>513.0</ele><time>2026-04-29T13:41:50.999Z</time></trkpt><trkpt lat="43.351329650512426" lon="12.721502217448963"><ele>509.33333333333337</ele><time>2026-04-29T13:41:51.999Z</time></trkpt><trkpt lat="43.35121136456577" lon="12.721655028612398"><ele>505.6666666666667</ele><time>2026-04-29T13:41:52.999Z</time></trkpt><trkpt lat="43.35111266079568" lon="12.72184414839929"><ele>502.0</ele><time>2026-04-29T13:41:53.999Z</time></trkpt><trkpt lat="43.3510269364539" lon="12.722044348219653"><ele>502.0</ele><time>2026-04-29T13:41:54.999Z</time></trkpt><trkpt lat="43.35094596077864" lon="12.722253479341314"><ele>502.0</ele><time>2026-04-29T13:41:55.999Z</time></trkpt><trkpt lat="43.35086313713818" lon="12.72244606219922"><ele>502.0</ele><time>2026-04-29T13:41:56.999Z</time></trkpt><trkpt lat="43.350769192979975" lon="12.72261778899862"><ele>501.75</ele><time>2026-04-29T13:41:57.999Z</time></trkpt><trkpt lat="43.35066102592095" lon="12.722751903716082"><ele>501.5</ele><time>2026-04-29T13:41:58.999Z</time></trkpt><trkpt lat="43.35053410469215" lon="12.722839924570843"><ele>501.25</ele><time>2026-04-29T13:41:59.999Z</time></trkpt><trkpt lat="43.35038883249893" lon="12.722899594519932"><ele>501.0</ele><time>2026-04-29T13:42:00.999Z</time></trkpt><trkpt lat="43.350228434682315" lon="12.72293616685891"><ele>501.0</ele><time>2026-04-29T13:42:01.999Z</time></trkpt><trkpt lat="43.35006704785504" lon="12.72298304149044"><ele>501.0</ele><time>2026-04-29T13:42:02.999Z</time></trkpt><trkpt lat="43.34989897352028" lon="12.723043385984948"><ele>501.0</ele><time>2026-04-29T13:42:03.999Z</time></trkpt><trkpt lat="43.34973011789742" lon="12.723114844545886"><ele>500.66666666666663</ele><time>2026-04-29T13:42:04.999Z</time></trkpt><trkpt lat="43.34956329023782" lon="12.723202525766116"><ele>500.3333333333333</ele><time>2026-04-29T13:42:05.999Z</time></trkpt><trkpt lat="43.349395489185895" lon="12.72330168601026"><ele>500.0</ele><time>2026-04-29T13:42:06.999Z</time></trkpt><trkpt lat="43.34923070078711" lon="12.723418174584147"><ele>500.0</ele><time>2026-04-29T13:42:07.999Z</time></trkpt><trkpt lat="43.34906991429237" lon="12.7235387952745"><ele>500.0</ele><time>2026-04-29T13:42:08.999Z</time></trkpt><trkpt lat="43.348918422990565" lon="12.723655112752569"><ele>500.0</ele><time>2026-04-29T13:42:09.999Z</time></trkpt><trkpt lat="43.34876488628154" lon="12.723762125956178"><ele>500.3333333333333</ele><time>2026-04-29T13:42:10.999Z</time></trkpt><trkpt lat="43.34861545485964" lon="12.723873774345256"><ele>500.66666666666663</ele><time>2026-04-29T13:42:11.999Z</time></trkpt><trkpt lat="43.34846684922139" lon="12.723987320996002"><ele>501.0</ele><time>2026-04-29T13:42:12.999Z</time></trkpt><trkpt lat="43.348318526636454" lon="12.724098274302822"><ele>501.0</ele><time>2026-04-29T13:42:13.999Z</time></trkpt><trkpt lat="43.34816578169857" lon="12.72421578368036"><ele>501.0</ele><time>2026-04-29T13:42:14.999Z</time></trkpt><trkpt lat="43.348013586614876" lon="12.724333572471915"><ele>501.0</ele><time>2026-04-29T13:42:15.999Z</time></trkpt><trkpt lat="43.34785824761401" lon="12.72444779456194"><ele>499.33333333333337</ele><time>2026-04-29T13:42:16.999Z</time></trkpt><trkpt lat="43.34770447408226" lon="12.724560696136805"><ele>497.6666666666667</ele><time>2026-04-29T13:42:17.999Z</time></trkpt><trkpt lat="43.34754802894727" lon="12.724679619295518"><ele>496.0</ele><time>2026-04-29T13:42:18.999Z</time></trkpt><trkpt lat="43.34739341722824" lon="12.724795544169844"><ele>496.0</ele><time>2026-04-29T13:42:19.999Z</time></trkpt><trkpt lat="43.34723574402664" lon="12.724916860246228"><ele>496.0</ele><time>2026-04-29T13:42:20.999Z</time></trkpt><trkpt lat="43.347074222991914" lon="12.725036033401734"><ele>496.0</ele><time>2026-04-29T13:42:21.999Z</time></trkpt><trkpt lat="43.346912339984236" lon="12.72515727771549"><ele>496.33333333333337</ele><time>2026-04-29T13:42:22.999Z</time></trkpt><trkpt lat="43.346748888910774" lon="12.725281233043598"><ele>496.66666666666663</ele><time>2026-04-29T13:42:23.999Z</time></trkpt><trkpt lat="43.34658234891355" lon="12.725401681188163"><ele>497.0</ele><time>2026-04-29T13:42:24.999Z</time></trkpt><trkpt lat="43.34641571206019" lon="12.725523498205524"><ele>494.3333333333333</ele><time>2026-04-29T13:42:25.999Z</time></trkpt><trkpt lat="43.34624821038803" lon="12.725652428597517"><ele>491.66666666666663</ele><time>2026-04-29T13:42:26.999Z</time></trkpt><trkpt lat="43.34608140983876" lon="12.725782764377374"><ele>489.0</ele><time>2026-04-29T13:42:27.999Z</time></trkpt><trkpt lat="43.34591459989662" lon="12.725911526657137"><ele>489.0</ele><time>2026-04-29T13:42:28.999Z</time></trkpt><trkpt lat="43.34574939729412" lon="12.726038120231854"><ele>489.0</ele><time>2026-04-29T13:42:29.999Z</time></trkpt><trkpt lat="43.34558184581733" lon="12.726164089695107"><ele>489.0</ele><time>2026-04-29T13:42:30.999Z</time></trkpt><trkpt lat="43.34541179112431" lon="12.726282105535569"><ele>489.0</ele><time>2026-04-29T13:42:31.999Z</time></trkpt><trkpt lat="43.34524172774981" lon="12.726404969697237"><ele>489.0</ele><time>2026-04-29T13:42:32.999Z</time></trkpt><trkpt lat="43.34507413371645" lon="12.726528301544452"><ele>489.0</ele><time>2026-04-29T13:42:33.999Z</time></trkpt><trkpt lat="43.34490382300208" lon="12.726653833823265"><ele>489.0</ele><time>2026-04-29T13:42:34.999Z</time></trkpt><trkpt lat="43.344733821801036" lon="12.726780149833509"><ele>489.0</ele><time>2026-04-29T13:42:35.999Z</time></trkpt><trkpt lat="43.344562589188314" lon="12.726906104265323"><ele>489.0</ele><time>2026-04-29T13:42:36.999Z</time></trkpt><trkpt lat="43.344389655556085" lon="12.727031542050803"><ele>488.66666666666663</ele><time>2026-04-29T13:42:37.999Z</time></trkpt><trkpt lat="43.34421499738715" lon="12.727153539490947"><ele>488.3333333333333</ele><time>2026-04-29T13:42:38.999Z</time></trkpt><trkpt lat="43.34404709058924" lon="12.727272230565623"><ele>488.0</ele><time>2026-04-29T13:42:39.999Z</time></trkpt><trkpt lat="43.34387766017073" lon="12.727391817962959"><ele>487.3333333333333</ele><time>2026-04-29T13:42:40.999Z</time></trkpt><trkpt lat="43.343711147458755" lon="12.727510104769257"><ele>486.66666666666663</ele><time>2026-04-29T13:42:41.999Z</time></trkpt><trkpt lat="43.343550270047615" lon="12.72762917825815"><ele>486.0</ele><time>2026-04-29T13:42:42.999Z</time></trkpt><trkpt lat="43.34338676503254" lon="12.72774738251346"><ele>487.0</ele><time>2026-04-29T13:42:43.999Z</time></trkpt><trkpt lat="43.343220922053256" lon="12.727865225304315"><ele>488.0</ele><time>2026-04-29T13:42:44.999Z</time></trkpt><trkpt lat="43.34305744009006" lon="12.727983039026933"><ele>489.0</ele><time>2026-04-29T13:42:45.999Z</time></trkpt><trkpt lat="43.342894129241046" lon="12.728102504633325"><ele>489.0</ele><time>2026-04-29T13:42:46.998Z</time></trkpt><trkpt lat="43.342729144283446" lon="12.728217672224622"><ele>489.0</ele><time>2026-04-29T13:42:47.998Z</time></trkpt><trkpt lat="43.34256731487101" lon="12.728333024305158"><ele>489.0</ele><time>2026-04-29T13:42:48.998Z</time></trkpt><trkpt lat="43.342405148653505" lon="12.728451691859766"><ele>489.0</ele><time>2026-04-29T13:42:49.998Z</time></trkpt><trkpt lat="43.34224271505574" lon="12.728570503987308"><ele>489.0</ele><time>2026-04-29T13:42:50.998Z</time></trkpt><trkpt lat="43.34207747996092" lon="12.72868795819526"><ele>489.0</ele><time>2026-04-29T13:42:51.998Z</time></trkpt><trkpt lat="43.34191320652825" lon="12.728808182721833"><ele>489.0</ele><time>2026-04-29T13:42:52.998Z</time></trkpt><trkpt lat="43.34174708566689" lon="12.728930995920297"><ele>489.0</ele><time>2026-04-29T13:42:53.998Z</time></trkpt><trkpt lat="43.34157742447206" lon="12.72905516686444"><ele>489.0</ele><time>2026-04-29T13:42:54.998Z</time></trkpt><trkpt lat="43.34140668813275" lon="12.729177306689982"><ele>488.66666666666663</ele><time>2026-04-29T13:42:55.998Z</time></trkpt><trkpt lat="43.34123685140644" lon="12.729303389915524"><ele>488.3333333333333</ele><time>2026-04-29T13:42:56.998Z</time></trkpt><trkpt lat="43.34106897599153" lon="12.729427584055006"><ele>488.0</ele><time>2026-04-29T13:42:57.998Z</time></trkpt><trkpt lat="43.34090105228415" lon="12.729550116729934"><ele>488.0</ele><time>2026-04-29T13:42:58.998Z</time></trkpt><trkpt lat="43.340734933107164" lon="12.729671582416026"><ele>488.0</ele><time>2026-04-29T13:43:00Z</time></trkpt><trkpt lat="43.34056937598303" lon="12.729788661722447"><ele>488.0</ele><time>2026-04-29T13:43:01Z</time></trkpt><trkpt lat="43.340402825668" lon="12.729900748442919"><ele>488.66666666666663</ele><time>2026-04-29T13:43:02Z</time></trkpt><trkpt lat="43.34023203370137" lon="12.73000994018414"><ele>489.33333333333337</ele><time>2026-04-29T13:43:03Z</time></trkpt><trkpt lat="43.34005904250556" lon="12.730118677820238"><ele>490.0</ele><time>2026-04-29T13:43:04Z</time></trkpt><trkpt lat="43.33988928979761" lon="12.730227566077492"><ele>490.0</ele><time>2026-04-29T13:43:05Z</time></trkpt><trkpt lat="43.339717690087866" lon="12.730334985533878"><ele>490.0</ele><time>2026-04-29T13:43:06Z</time></trkpt><trkpt lat="43.33954740211168" lon="12.730438481469118"><ele>490.0</ele><time>2026-04-29T13:43:07Z</time></trkpt><trkpt lat="43.33937638483489" lon="12.730545140373954"><ele>489.6666666666667</ele><time>2026-04-29T13:43:08Z</time></trkpt><trkpt lat="43.339208060378" lon="12.730651545769485"><ele>489.33333333333337</ele><time>2026-04-29T13:43:09Z</time></trkpt><trkpt lat="43.33903998526567" lon="12.730761599876177"><ele>489.0</ele><time>2026-04-29T13:43:10Z</time></trkpt><trkpt lat="43.33887655909382" lon="12.730880213837732"><ele>488.0</ele><time>2026-04-29T13:43:11Z</time></trkpt><trkpt lat="43.338721921863694" lon="12.731006771605225"><ele>487.0</ele><time>2026-04-29T13:43:12Z</time></trkpt><trkpt lat="43.33858332937325" lon="12.7311322937656"><ele>486.0</ele><time>2026-04-29T13:43:13Z</time></trkpt><trkpt lat="43.338456484372735" lon="12.731258504168403"><ele>486.0</ele><time>2026-04-29T13:43:14Z</time></trkpt><trkpt lat="43.338341012543665" lon="12.731392162944081"><ele>486.0</ele><time>2026-04-29T13:43:15Z</time></trkpt><trkpt lat="43.33822760906816" lon="12.73153607810122"><ele>486.0</ele><time>2026-04-29T13:43:16Z</time></trkpt><trkpt lat="43.33809948711062" lon="12.73166444880248"><ele>485.0</ele><time>2026-04-29T13:43:17Z</time></trkpt><trkpt lat="43.33798395453638" lon="12.73183262503753"><ele>484.0</ele><time>2026-04-29T13:43:18Z</time></trkpt><trkpt lat="43.33784764823833" lon="12.731991739540273"><ele>483.0</ele><time>2026-04-29T13:43:19Z</time></trkpt><trkpt lat="43.337709442643316" lon="12.732152538842328"><ele>483.0</ele><time>2026-04-29T13:43:20Z</time></trkpt><trkpt lat="43.337573481994006" lon="12.73231316528694"><ele>483.0</ele><time>2026-04-29T13:43:21Z</time></trkpt><trkpt lat="43.337437475353575" lon="12.732473571095113"><ele>483.0</ele><time>2026-04-29T13:43:22Z</time></trkpt><trkpt lat="43.33730640682008" lon="12.732628195485551"><ele>482.0</ele><time>2026-04-29T13:43:23Z</time></trkpt><trkpt lat="43.337191591031356" lon="12.732767886507595"><ele>481.0</ele><time>2026-04-29T13:43:24Z</time></trkpt><trkpt lat="43.33707949114723" lon="12.732901611038143"><ele>480.0</ele><time>2026-04-29T13:43:25Z</time></trkpt><trkpt lat="43.33696621940276" lon="12.733037256840857"><ele>480.0</ele><time>2026-04-29T13:43:26Z</time></trkpt><trkpt lat="43.33685280052945" lon="12.733178057408834"><ele>480.0</ele><time>2026-04-29T13:43:27Z</time></trkpt><trkpt lat="43.33673722093966" lon="12.733325537477397"><ele>480.0</ele><time>2026-04-29T13:43:28Z</time></trkpt><trkpt lat="43.336617357309535" lon="12.733471652145127"><ele>480.33333333333337</ele><time>2026-04-29T13:43:29Z</time></trkpt><trkpt lat="43.33649484050418" lon="12.733618538385473"><ele>480.6666666666667</ele><time>2026-04-29T13:43:30Z</time></trkpt><trkpt lat="43.3363711045845" lon="12.733768805944887"><ele>481.0</ele><time>2026-04-29T13:43:31Z</time></trkpt><trkpt lat="43.33624418975699" lon="12.733923434297864"><ele>480.6666666666667</ele><time>2026-04-29T13:43:32Z</time></trkpt><trkpt lat="43.33611744364391" lon="12.734080371810744"><ele>480.33333333333337</ele><time>2026-04-29T13:43:33Z</time></trkpt><trkpt lat="43.33599275742896" lon="12.734235897986752"><ele>480.0</ele><time>2026-04-29T13:43:34Z</time></trkpt><trkpt lat="43.3358696040005" lon="12.734390143072583"><ele>480.0</ele><time>2026-04-29T13:43:35Z</time></trkpt><trkpt lat="43.33575116182545" lon="12.73453261724982"><ele>480.0</ele><time>2026-04-29T13:43:36Z</time></trkpt><trkpt lat="43.33563339885939" lon="12.73467866505393"><ele>480.0</ele><time>2026-04-29T13:43:37Z</time></trkpt><trkpt lat="43.335514330978675" lon="12.73482871051994"><ele>479.33333333333337</ele><time>2026-04-29T13:43:38Z</time></trkpt><trkpt lat="43.335393215783085" lon="12.734980124226027"><ele>478.6666666666667</ele><time>2026-04-29T13:43:39Z</time></trkpt><trkpt lat="43.33527294451714" lon="12.73512814960504"><ele>478.0</ele><time>2026-04-29T13:43:40Z</time></trkpt><trkpt lat="43.33515114105283" lon="12.735277365445734"><ele>479.6666666666667</ele><time>2026-04-29T13:43:41Z</time></trkpt><trkpt lat="43.335030999007266" lon="12.735421276247198"><ele>481.33333333333337</ele><time>2026-04-29T13:43:42Z</time></trkpt><trkpt lat="43.33491772747106" lon="12.735556672722142"><ele>483.0</ele><time>2026-04-29T13:43:43Z</time></trkpt><trkpt lat="43.33481015671435" lon="12.735685441373727"><ele>482.75</ele><time>2026-04-29T13:43:44Z</time></trkpt><trkpt lat="43.334709402084776" lon="12.735807351535799"><ele>482.5</ele><time>2026-04-29T13:43:45Z</time></trkpt><trkpt lat="43.334619036513544" lon="12.735924182302627"><ele>482.25</ele><time>2026-04-29T13:43:45.999Z</time></trkpt><trkpt lat="43.33453462630508" lon="12.736035705123335"><ele>482.0</ele><time>2026-04-29T13:43:46.999Z</time></trkpt><trkpt lat="43.334443134980376" lon="12.736150191176634"><ele>483.5</ele><time>2026-04-29T13:43:47.999Z</time></trkpt><trkpt lat="43.33434989651678" lon="12.736267566238233"><ele>485.0</ele><time>2026-04-29T13:43:48.999Z</time></trkpt><trkpt lat="43.33425488303642" lon="12.736386586355394"><ele>486.5</ele><time>2026-04-29T13:43:49.999Z</time></trkpt><trkpt lat="43.334157565082805" lon="12.736505893426108"><ele>488.0</ele><time>2026-04-29T13:43:50.999Z</time></trkpt><trkpt lat="43.33405153915925" lon="12.736635715977084"><ele>488.0</ele><time>2026-04-29T13:43:51.999Z</time></trkpt><trkpt lat="43.333925228121" lon="12.73677680002469"><ele>488.0</ele><time>2026-04-29T13:43:52.999Z</time></trkpt><trkpt lat="43.33378523232739" lon="12.7369259180151"><ele>488.0</ele><time>2026-04-29T13:43:53.999Z</time></trkpt><trkpt lat="43.33364253982138" lon="12.737095762158036"><ele>489.3333333333333</ele><time>2026-04-29T13:43:54.999Z</time></trkpt><trkpt lat="43.33349677070064" lon="12.737272476126007"><ele>490.66666666666663</ele><time>2026-04-29T13:43:55.999Z</time></trkpt><trkpt lat="43.33346172929509" lon="12.737437624218735"><ele>492.0</ele><time>2026-04-29T13:43:57.999Z</time></trkpt><trkpt lat="43.33336681295025" lon="12.737583562782506"><ele>492.0</ele><time>2026-04-29T13:43:58.999Z</time></trkpt><trkpt lat="43.33328178253316" lon="12.737715288856073"><ele>492.0</ele><time>2026-04-29T13:43:59.999Z</time></trkpt><trkpt lat="43.33320002025531" lon="12.737842323482958"><ele>492.0</ele><time>2026-04-29T13:44:00.999Z</time></trkpt><trkpt lat="43.33311495949466" lon="12.737974124265492"><ele>492.0</ele><time>2026-04-29T13:44:01.999Z</time></trkpt><trkpt lat="43.33302906827511" lon="12.738105971298902"><ele>492.0</ele><time>2026-04-29T13:44:02.999Z</time></trkpt><trkpt lat="43.332941313903845" lon="12.73824048506463"><ele>492.0</ele><time>2026-04-29T13:44:03.999Z</time></trkpt><trkpt lat="43.33285268575015" lon="12.7383741718307"><ele>492.0</ele><time>2026-04-29T13:44:04.999Z</time></trkpt><trkpt lat="43.3327695519291" lon="12.73850999019467"><ele>492.0</ele><time>2026-04-29T13:44:05.999Z</time></trkpt><trkpt lat="43.33268316598988" lon="12.738648654105548"><ele>492.0</ele><time>2026-04-29T13:44:06.999Z</time></trkpt><trkpt lat="43.33259634636985" lon="12.738788139693453"><ele>492.0</ele><time>2026-04-29T13:44:07.999Z</time></trkpt><trkpt lat="43.33251212797267" lon="12.738928973407104"><ele>492.0</ele><time>2026-04-29T13:44:08.999Z</time></trkpt><trkpt lat="43.332423231938485" lon="12.73906788380528"><ele>492.0</ele><time>2026-04-29T13:44:09.999Z</time></trkpt><trkpt lat="43.33233404118599" lon="12.73920655493733"><ele>492.0</ele><time>2026-04-29T13:44:10.999Z</time></trkpt><trkpt lat="43.332245621235096" lon="12.739337278844182"><ele>492.0</ele><time>2026-04-29T13:44:11.999Z</time></trkpt><trkpt lat="43.33216173945681" lon="12.739466118547625"><ele>492.0</ele><time>2026-04-29T13:44:12.999Z</time></trkpt><trkpt lat="43.33206838171382" lon="12.739597769763572"><ele>492.0</ele><time>2026-04-29T13:44:13.999Z</time></trkpt><trkpt lat="43.331982073262694" lon="12.739726659778915"><ele>491.75</ele><time>2026-04-29T13:44:14.999Z</time></trkpt><trkpt lat="43.33189452620187" lon="12.739848854147716"><ele>491.5</ele><time>2026-04-29T13:44:15.999Z</time></trkpt><trkpt lat="43.33181675958727" lon="12.739975951669766"><ele>491.25</ele><time>2026-04-29T13:44:16.999Z</time></trkpt><trkpt lat="43.33175016936819" lon="12.740094091151748"><ele>491.0</ele><time>2026-04-29T13:44:17.999Z</time></trkpt><trkpt lat="43.33168434720339" lon="12.74021008915719"><ele>491.8333333333333</ele><time>2026-04-29T13:44:18.999Z</time></trkpt><trkpt lat="43.33163940026176" lon="12.740297586987344"><ele>492.66666666666663</ele><time>2026-04-29T13:44:19.999Z</time></trkpt><trkpt lat="43.33158954508181" lon="12.74038563486729"><ele>493.5</ele><time>2026-04-29T13:44:20.999Z</time></trkpt><trkpt lat="43.33153898345631" lon="12.740483797012253"><ele>494.33333333333337</ele><time>2026-04-29T13:44:21.999Z</time></trkpt><trkpt lat="43.331481500120965" lon="12.74058051125514"><ele>495.1666666666667</ele><time>2026-04-29T13:44:22.999Z</time></trkpt><trkpt lat="43.33142513186869" lon="12.740681797507696"><ele>496.0</ele><time>2026-04-29T13:44:23.999Z</time></trkpt><trkpt lat="43.33136805322613" lon="12.740779992067166"><ele>494.0</ele><time>2026-04-29T13:44:24.999Z</time></trkpt><trkpt lat="43.33131493208635" lon="12.740875474803838"><ele>492.0</ele><time>2026-04-29T13:44:25.999Z</time></trkpt><trkpt lat="43.331266174948354" lon="12.740980557302596"><ele>490.0</ele><time>2026-04-29T13:44:26.999Z</time></trkpt><trkpt lat="43.331223416704375" lon="12.741093382223667"><ele>488.0</ele><time>2026-04-29T13:44:27.999Z</time></trkpt><trkpt lat="43.33119758771825" lon="12.74122768990432"><ele>486.0</ele><time>2026-04-29T13:44:28.999Z</time></trkpt><trkpt lat="43.33121055356542" lon="12.741373167799596"><ele>485.6</ele><time>2026-04-29T13:44:29.999Z</time></trkpt><trkpt lat="43.33120820149753" lon="12.741526262307998"><ele>485.20000000000005</ele><time>2026-04-29T13:44:30.999Z</time></trkpt><trkpt lat="43.33119768609398" lon="12.741673996550054"><ele>484.79999999999995</ele><time>2026-04-29T13:44:31.999Z</time></trkpt><trkpt lat="43.33119732602007" lon="12.741818889608622"><ele>484.4</ele><time>2026-04-29T13:44:32.999Z</time></trkpt><trkpt lat="43.331215660362176" lon="12.741963570404343"><ele>484.0</ele><time>2026-04-29T13:44:33.999Z</time></trkpt><trkpt lat="43.33120941131376" lon="12.742096938511326"><ele>483.0</ele><time>2026-04-29T13:44:34.999Z</time></trkpt><trkpt lat="43.331206524470346" lon="12.742231733141105"><ele>482.0</ele><time>2026-04-29T13:44:35.999Z</time></trkpt><trkpt lat="43.33118119755463" lon="12.742381506885323"><ele>481.0</ele><time>2026-04-29T13:44:36.999Z</time></trkpt><trkpt lat="43.33116949602228" lon="12.742519937000361"><ele>480.0</ele><time>2026-04-29T13:44:37.999Z</time></trkpt><trkpt lat="43.33112523304978" lon="12.742649004990767"><ele>479.0</ele><time>2026-04-29T13:44:38.999Z</time></trkpt><trkpt lat="43.33106686969409" lon="12.742777803397882"><ele>478.75</ele><time>2026-04-29T13:44:39.999Z</time></trkpt><trkpt lat="43.3309925678085" lon="12.742897972114429"><ele>478.5</ele><time>2026-04-29T13:44:40.999Z</time></trkpt><trkpt lat="43.330896605236354" lon="12.743006827457993"><ele>478.25</ele><time>2026-04-29T13:44:41.999Z</time></trkpt><trkpt lat="43.330783431542756" lon="12.743104419258065"><ele>478.0</ele><time>2026-04-29T13:44:42.999Z</time></trkpt><trkpt lat="43.330667106081464" lon="12.743205613852352"><ele>477.75</ele><time>2026-04-29T13:44:43.999Z</time></trkpt><trkpt lat="43.330552523016344" lon="12.743315024133636"><ele>477.5</ele><time>2026-04-29T13:44:44.999Z</time></trkpt><trkpt lat="43.33044306248702" lon="12.743423924842649"><ele>477.25</ele><time>2026-04-29T13:44:45.999Z</time></trkpt><trkpt lat="43.33033091933212" lon="12.743544996460614"><ele>477.0</ele><time>2026-04-29T13:44:46.999Z</time></trkpt><trkpt lat="43.330215120514374" lon="12.743672362903038"><ele>478.33333333333337</ele><time>2026-04-29T13:44:47.999Z</time></trkpt><trkpt lat="43.3300955815354" lon="12.743803044317028"><ele>479.6666666666667</ele><time>2026-04-29T13:44:48.999Z</time></trkpt><trkpt lat="43.32997053156878" lon="12.743936945234942"><ele>481.0</ele><time>2026-04-29T13:44:49.999Z</time></trkpt><trkpt lat="43.32983930954865" lon="12.744078024359698"><ele>481.33333333333337</ele><time>2026-04-29T13:44:50.999Z</time></trkpt><trkpt lat="43.32970994050659" lon="12.744213256304876"><ele>481.66666666666663</ele><time>2026-04-29T13:44:51.999Z</time></trkpt><trkpt lat="43.32958464010873" lon="12.744337446686547"><ele>482.0</ele><time>2026-04-29T13:44:52.998Z</time></trkpt><trkpt lat="43.329449807028304" lon="12.744447561404998"><ele>482.0</ele><time>2026-04-29T13:44:53.998Z</time></trkpt><trkpt lat="43.32930851832037" lon="12.744510996611941"><ele>482.0</ele><time>2026-04-29T13:44:54.998Z</time></trkpt><trkpt lat="43.329181284390124" lon="12.744548182696665"><ele>482.0</ele><time>2026-04-29T13:44:55.998Z</time></trkpt><trkpt lat="43.32905282029947" lon="12.74453111645588"><ele>482.0</ele><time>2026-04-29T13:44:56.998Z</time></trkpt><trkpt lat="43.32891176676164" lon="12.744524616504384"><ele>484.75</ele><time>2026-04-29T13:44:57.998Z</time></trkpt><trkpt lat="43.328772273131634" lon="12.744481873030558"><ele>487.5</ele><time>2026-04-29T13:44:58.998Z</time></trkpt><trkpt lat="43.32863787607075" lon="12.744462276632325"><ele>490.25</ele><time>2026-04-29T13:44:59.998Z</time></trkpt><trkpt lat="43.32850117299804" lon="12.744445752127428"><ele>493.0</ele><time>2026-04-29T13:45:00.998Z</time></trkpt><trkpt lat="43.32836707279881" lon="12.744423770953876"><ele>493.0</ele><time>2026-04-29T13:45:01.998Z</time></trkpt><trkpt lat="43.32822904153173" lon="12.744416833841997"><ele>493.0</ele><time>2026-04-29T13:45:02.998Z</time></trkpt><trkpt lat="43.32808829539925" lon="12.744421578780415"><ele>493.0</ele><time>2026-04-29T13:45:03.998Z</time></trkpt><trkpt lat="43.32794673632778" lon="12.744435950599321"><ele>493.0</ele><time>2026-04-29T13:45:04.998Z</time></trkpt><trkpt lat="43.3278003083549" lon="12.744450048813523"><ele>494.0</ele><time>2026-04-29T13:45:06Z</time></trkpt><trkpt lat="43.32765271977325" lon="12.744468283126686"><ele>495.0</ele><time>2026-04-29T13:45:07Z</time></trkpt><trkpt lat="43.32750945166125" lon="12.744493107467196"><ele>496.0</ele><time>2026-04-29T13:45:08Z</time></trkpt><trkpt lat="43.327368212872145" lon="12.744504544243792"><ele>497.0</ele><time>2026-04-29T13:45:09Z</time></trkpt><trkpt lat="43.32723253582976" lon="12.74452539849598"><ele>496.75</ele><time>2026-04-29T13:45:10Z</time></trkpt><trkpt lat="43.32709389122091" lon="12.744549748663255"><ele>496.5</ele><time>2026-04-29T13:45:11Z</time></trkpt><trkpt lat="43.326950680271736" lon="12.744573394876415"><ele>496.25</ele><time>2026-04-29T13:45:12Z</time></trkpt><trkpt lat="43.326802114892985" lon="12.744595428015145"><ele>496.0</ele><time>2026-04-29T13:45:13Z</time></trkpt><trkpt lat="43.32665006722096" lon="12.744616792523546"><ele>496.0</ele><time>2026-04-29T13:45:14Z</time></trkpt><trkpt lat="43.32650828897508" lon="12.744639098020947"><ele>496.0</ele><time>2026-04-29T13:45:15Z</time></trkpt><trkpt lat="43.32638307204583" lon="12.744664427666379"><ele>496.0</ele><time>2026-04-29T13:45:16Z</time></trkpt><trkpt lat="43.32626986758337" lon="12.74469182542395"><ele>496.0</ele><time>2026-04-29T13:45:17Z</time></trkpt><trkpt lat="43.32615708835365" lon="12.744718228654587"><ele>495.0</ele><time>2026-04-29T13:45:18Z</time></trkpt><trkpt lat="43.32604262247218" lon="12.744759648792098"><ele>494.0</ele><time>2026-04-29T13:45:19Z</time></trkpt><trkpt lat="43.32593062021892" lon="12.744840549114496"><ele>493.0</ele><time>2026-04-29T13:45:20Z</time></trkpt><trkpt lat="43.32582420593618" lon="12.744964731219733"><ele>492.0</ele><time>2026-04-29T13:45:21Z</time></trkpt><trkpt lat="43.325736631804524" lon="12.745116257694741"><ele>492.25</ele><time>2026-04-29T13:45:22Z</time></trkpt><trkpt lat="43.32566039924203" lon="12.745276488072802"><ele>492.5</ele><time>2026-04-29T13:45:23Z</time></trkpt><trkpt lat="43.32559024004475" lon="12.74544921933739"><ele>492.75</ele><time>2026-04-29T13:45:24Z</time></trkpt><trkpt lat="43.325520883511956" lon="12.745635663117936"><ele>493.0</ele><time>2026-04-29T13:45:25Z</time></trkpt><trkpt lat="43.32545376481283" lon="12.745836042641862"><ele>489.6666666666667</ele><time>2026-04-29T13:45:26Z</time></trkpt><trkpt lat="43.32538393362733" lon="12.746038928082966"><ele>486.33333333333337</ele><time>2026-04-29T13:45:27Z</time></trkpt><trkpt lat="43.325308070452884" lon="12.746235142929654"><ele>483.0</ele><time>2026-04-29T13:45:28Z</time></trkpt><trkpt lat="43.32522331089648" lon="12.746429483694444"><ele>483.0</ele><time>2026-04-29T13:45:29Z</time></trkpt><trkpt lat="43.32513001388014" lon="12.7466110971869"><ele>483.0</ele><time>2026-04-29T13:45:30Z</time></trkpt><trkpt lat="43.32502662847898" lon="12.746791875573779"><ele>483.0</ele><time>2026-04-29T13:45:31Z</time></trkpt><trkpt lat="43.324922883614455" lon="12.746957424994083"><ele>483.66666666666663</ele><time>2026-04-29T13:45:32Z</time></trkpt><trkpt lat="43.32481859281445" lon="12.747121162277368"><ele>484.3333333333333</ele><time>2026-04-29T13:45:33Z</time></trkpt><trkpt lat="43.324715315157675" lon="12.747286063469083"><ele>485.0</ele><time>2026-04-29T13:45:34Z</time></trkpt><trkpt lat="43.32461554861664" lon="12.74745360115944"><ele>485.0</ele><time>2026-04-29T13:45:35Z</time></trkpt><trkpt lat="43.32452327652777" lon="12.747625135267986"><ele>485.0</ele><time>2026-04-29T13:45:36Z</time></trkpt><trkpt lat="43.3244358369111" lon="12.747801676271942"><ele>485.0</ele><time>2026-04-29T13:45:37Z</time></trkpt><trkpt lat="43.324347378260505" lon="12.747974942677095"><ele>486.25</ele><time>2026-04-29T13:45:38Z</time></trkpt><trkpt lat="43.324263723804265" lon="12.748140970995887"><ele>487.5</ele><time>2026-04-29T13:45:39Z</time></trkpt><trkpt lat="43.32418069715105" lon="12.748289186058617"><ele>488.75</ele><time>2026-04-29T13:45:40Z</time></trkpt><trkpt lat="43.32409482479109" lon="12.748438695338992"><ele>490.0</ele><time>2026-04-29T13:45:41Z</time></trkpt><trkpt lat="43.324013172270924" lon="12.748590535531426"><ele>491.25</ele><time>2026-04-29T13:45:42Z</time></trkpt><trkpt lat="43.32393152526001" lon="12.748751730536547"><ele>492.5</ele><time>2026-04-29T13:45:43Z</time></trkpt><trkpt lat="43.32385121251922" lon="12.748920015646688"><ele>493.75</ele><time>2026-04-29T13:45:44Z</time></trkpt><trkpt lat="43.323766638779546" lon="12.749094266459286"><ele>495.0</ele><time>2026-04-29T13:45:45Z</time></trkpt><trkpt lat="43.323679515397366" lon="12.749267704389434"><ele>496.33333333333337</ele><time>2026-04-29T13:45:46Z</time></trkpt><trkpt lat="43.32359172338544" lon="12.749443022967665"><ele>497.6666666666667</ele><time>2026-04-29T13:45:47Z</time></trkpt><trkpt lat="43.323497788431816" lon="12.749610299631616"><ele>499.0</ele><time>2026-04-29T13:45:48Z</time></trkpt><trkpt lat="43.32339434318465" lon="12.74977493416653"><ele>499.0</ele><time>2026-04-29T13:45:49Z</time></trkpt><trkpt lat="43.32327876127894" lon="12.749933028799054"><ele>499.0</ele><time>2026-04-29T13:45:50Z</time></trkpt><trkpt lat="43.32314951681577" lon="12.750084912509994"><ele>499.0</ele><time>2026-04-29T13:45:51Z</time></trkpt><trkpt lat="43.323014226926155" lon="12.75022786767997"><ele>500.6666666666667</ele><time>2026-04-29T13:45:51.999Z</time></trkpt><trkpt lat="43.32287902904434" lon="12.750340921567044"><ele>502.33333333333337</ele><time>2026-04-29T13:45:52.999Z</time></trkpt><trkpt lat="43.32274041016324" lon="12.7504336849186"><ele>504.0</ele><time>2026-04-29T13:45:53.999Z</time></trkpt><trkpt lat="43.3226035905938" lon="12.750519493900205"><ele>504.0</ele><time>2026-04-29T13:45:54.999Z</time></trkpt><trkpt lat="43.32248472287246" lon="12.750607379165508"><ele>504.0</ele><time>2026-04-29T13:45:55.999Z</time></trkpt><trkpt lat="43.32237354439203" lon="12.750702125364462"><ele>504.0</ele><time>2026-04-29T13:45:56.999Z</time></trkpt><trkpt lat="43.32226207974773" lon="12.750810356083301"><ele>504.0</ele><time>2026-04-29T13:45:57.999Z</time></trkpt><trkpt lat="43.32214736599413" lon="12.750937386252769"><ele>502.66666666666663</ele><time>2026-04-29T13:45:58.999Z</time></trkpt><trkpt lat="43.32203042836256" lon="12.75107760281965"><ele>501.3333333333333</ele><time>2026-04-29T13:45:59.999Z</time></trkpt><trkpt lat="43.32191128365112" lon="12.751225868306971"><ele>500.0</ele><time>2026-04-29T13:46:00.999Z</time></trkpt><trkpt lat="43.32179371497068" lon="12.75138785270469"><ele>500.0</ele><time>2026-04-29T13:46:01.999Z</time></trkpt><trkpt lat="43.32168408662337" lon="12.751568061870566"><ele>500.0</ele><time>2026-04-29T13:46:02.999Z</time></trkpt><trkpt lat="43.321581778023926" lon="12.751755253974208"><ele>500.0</ele><time>2026-04-29T13:46:03.999Z</time></trkpt><trkpt lat="43.321481174105045" lon="12.751930242324239"><ele>499.3333333333333</ele><time>2026-04-29T13:46:04.999Z</time></trkpt><trkpt lat="43.32137839935949" lon="12.752098881328775"><ele>498.66666666666663</ele><time>2026-04-29T13:46:05.999Z</time></trkpt><trkpt lat="43.32128296619474" lon="12.752284633175693"><ele>498.0</ele><time>2026-04-29T13:46:06.999Z</time></trkpt><trkpt lat="43.32117836279014" lon="12.752464221746934"><ele>498.0</ele><time>2026-04-29T13:46:07.999Z</time></trkpt><trkpt lat="43.32105798510507" lon="12.75263441593235"><ele>498.0</ele><time>2026-04-29T13:46:08.999Z</time></trkpt><trkpt lat="43.32092572242699" lon="12.752771665148908"><ele>498.0</ele><time>2026-04-29T13:46:09.999Z</time></trkpt><trkpt lat="43.32079368573297" lon="12.752871030480687"><ele>497.66666666666663</ele><time>2026-04-29T13:46:10.999Z</time></trkpt><trkpt lat="43.32065502357406" lon="12.75296408091926"><ele>497.3333333333333</ele><time>2026-04-29T13:46:11.999Z</time></trkpt><trkpt lat="43.320515153378985" lon="12.753058367424353"><ele>497.0</ele><time>2026-04-29T13:46:12.999Z</time></trkpt><trkpt lat="43.32036763898528" lon="12.753152547796773"><ele>497.0</ele><time>2026-04-29T13:46:13.999Z</time></trkpt><trkpt lat="43.32022305859373" lon="12.753244737603756"><ele>497.0</ele><time>2026-04-29T13:46:14.999Z</time></trkpt><trkpt lat="43.32008678902482" lon="12.753337654926838"><ele>497.0</ele><time>2026-04-29T13:46:15.999Z</time></trkpt><trkpt lat="43.31995510237953" lon="12.753434018114762"><ele>497.0</ele><time>2026-04-29T13:46:16.999Z</time></trkpt><trkpt lat="43.31982467494662" lon="12.753511614939248"><ele>497.0</ele><time>2026-04-29T13:46:17.999Z</time></trkpt><trkpt lat="43.319697800127116" lon="12.753588345495778"><ele>497.0</ele><time>2026-04-29T13:46:18.999Z</time></trkpt><trkpt lat="43.31957751515417" lon="12.753663744878704"><ele>497.0</ele><time>2026-04-29T13:46:19.999Z</time></trkpt><trkpt lat="43.319459783163495" lon="12.753758999170897"><ele>496.25</ele><time>2026-04-29T13:46:20.999Z</time></trkpt><trkpt lat="43.31935120321846" lon="12.753887832070282"><ele>495.5</ele><time>2026-04-29T13:46:21.999Z</time></trkpt><trkpt lat="43.31924733315715" lon="12.754038800936913"><ele>494.75</ele><time>2026-04-29T13:46:22.999Z</time></trkpt><trkpt lat="43.319153151086454" lon="12.754205284855997"><ele>494.0</ele><time>2026-04-29T13:46:23.999Z</time></trkpt><trkpt lat="43.319065960122735" lon="12.754393174815865"><ele>493.0</ele><time>2026-04-29T13:46:24.999Z</time></trkpt><trkpt lat="43.31898546895345" lon="12.754600536930248"><ele>492.0</ele><time>2026-04-29T13:46:25.999Z</time></trkpt><trkpt lat="43.31890181086678" lon="12.754793404690997"><ele>491.0</ele><time>2026-04-29T13:46:26.999Z</time></trkpt><trkpt lat="43.31882479035807" lon="12.754972878816405"><ele>491.0</ele><time>2026-04-29T13:46:27.999Z</time></trkpt><trkpt lat="43.31875236031767" lon="12.755138217095254"><ele>491.0</ele><time>2026-04-29T13:46:28.999Z</time></trkpt><trkpt lat="43.31869103560071" lon="12.755295020896224"><ele>491.0</ele><time>2026-04-29T13:46:29.999Z</time></trkpt><trkpt lat="43.31862872515507" lon="12.755473007306858"><ele>491.0</ele><time>2026-04-29T13:46:30.999Z</time></trkpt><trkpt lat="43.31857769012804" lon="12.755656332145664"><ele>491.25</ele><time>2026-04-29T13:46:31.999Z</time></trkpt><trkpt lat="43.31853158750806" lon="12.75584798773073"><ele>491.5</ele><time>2026-04-29T13:46:32.999Z</time></trkpt><trkpt lat="43.31848697463959" lon="12.756041914295059"><ele>491.75</ele><time>2026-04-29T13:46:33.999Z</time></trkpt><trkpt lat="43.31844772607701" lon="12.756218248520637"><ele>492.0</ele><time>2026-04-29T13:46:34.999Z</time></trkpt><trkpt lat="43.31841023003845" lon="12.756387500692373"><ele>492.5</ele><time>2026-04-29T13:46:35.999Z</time></trkpt><trkpt lat="43.31837962974736" lon="12.756554637302912"><ele>493.0</ele><time>2026-04-29T13:46:36.999Z</time></trkpt><trkpt lat="43.31834597334176" lon="12.756713003503915"><ele>493.5</ele><time>2026-04-29T13:46:37.999Z</time></trkpt><trkpt lat="43.31831250804094" lon="12.756877255869735"><ele>494.0</ele><time>2026-04-29T13:46:38.999Z</time></trkpt><trkpt lat="43.31828162047512" lon="12.757050738161622"><ele>494.5</ele><time>2026-04-29T13:46:39.999Z</time></trkpt><trkpt lat="43.31825378138396" lon="12.757233691793523"><ele>495.0</ele><time>2026-04-29T13:46:40.999Z</time></trkpt><trkpt lat="43.31824184629603" lon="12.757413825485319"><ele>495.5</ele><time>2026-04-29T13:46:41.999Z</time></trkpt><trkpt lat="43.3182198494817" lon="12.75760090195604"><ele>496.0</ele><time>2026-04-29T13:46:42.999Z</time></trkpt><trkpt lat="43.31822409548822" lon="12.757768245748982"><ele>496.25</ele><time>2026-04-29T13:46:43.999Z</time></trkpt><trkpt lat="43.3182284390093" lon="12.757940042439184"><ele>496.5</ele><time>2026-04-29T13:46:44.999Z</time></trkpt><trkpt lat="43.318226836624675" lon="12.758111478927189"><ele>496.75</ele><time>2026-04-29T13:46:45.999Z</time></trkpt><trkpt lat="43.31824116546559" lon="12.758284754292356"><ele>497.0</ele><time>2026-04-29T13:46:46.999Z</time></trkpt><trkpt lat="43.31825634377239" lon="12.758445765524884"><ele>497.40000000000003</ele><time>2026-04-29T13:46:47.999Z</time></trkpt><trkpt lat="43.31826574182917" lon="12.758600637885987"><ele>497.80000000000007</ele><time>2026-04-29T13:46:48.999Z</time></trkpt><trkpt lat="43.318271174870425" lon="12.758751560709719"><ele>498.2</ele><time>2026-04-29T13:46:49.999Z</time></trkpt><trkpt lat="43.31825039056153" lon="12.758896468763309"><ele>498.6</ele><time>2026-04-29T13:46:50.999Z</time></trkpt><trkpt lat="43.31818494349441" lon="12.759023742289564"><ele>499.0</ele><time>2026-04-29T13:46:51.999Z</time></trkpt><trkpt lat="43.318105970354665" lon="12.759108197564286"><ele>498.5</ele><time>2026-04-29T13:46:52.999Z</time></trkpt><trkpt lat="43.31800841927747" lon="12.759173847895688"><ele>498.0</ele><time>2026-04-29T13:46:53.999Z</time></trkpt><trkpt lat="43.31789149532296" lon="12.75923893800813"><ele>497.5</ele><time>2026-04-29T13:46:54.999Z</time></trkpt><trkpt lat="43.317769625101754" lon="12.759282785958737"><ele>497.0</ele><time>2026-04-29T13:46:55.999Z</time></trkpt><trkpt lat="43.31764736744061" lon="12.759261937801702"><ele>497.0</ele><time>2026-04-29T13:46:56.999Z</time></trkpt><trkpt lat="43.317536343375906" lon="12.759180586718617"><ele>497.0</ele><time>2026-04-29T13:46:57.999Z</time></trkpt><trkpt lat="43.31741632663282" lon="12.759097352627412"><ele>497.0</ele><time>2026-04-29T13:46:58.998Z</time></trkpt><trkpt lat="43.31729901251097" lon="12.759026006016203"><ele>497.0</ele><time>2026-04-29T13:46:59.998Z</time></trkpt><trkpt lat="43.317190670983486" lon="12.75894906136341"><ele>499.5</ele><time>2026-04-29T13:47:00.998Z</time></trkpt><trkpt lat="43.317083349840594" lon="12.75886900333189"><ele>502.0</ele><time>2026-04-29T13:47:01.998Z</time></trkpt><trkpt lat="43.31697715519148" lon="12.758789297652044"><ele>504.5</ele><time>2026-04-29T13:47:02.998Z</time></trkpt><trkpt lat="43.31687888404846" lon="12.758713434882502"><ele>507.0</ele><time>2026-04-29T13:47:03.998Z</time></trkpt><trkpt lat="43.31677947164444" lon="12.758641044916322"><ele>507.0</ele><time>2026-04-29T13:47:04.998Z</time></trkpt><trkpt lat="43.316677983104135" lon="12.758566914953489"><ele>507.0</ele><time>2026-04-29T13:47:05.998Z</time></trkpt><trkpt lat="43.3165762038532" lon="12.758499962315302"><ele>507.0</ele><time>2026-04-29T13:47:06.998Z</time></trkpt><trkpt lat="43.3164666901077" lon="12.758448741070518"><ele>507.0</ele><time>2026-04-29T13:47:07.998Z</time></trkpt><trkpt lat="43.316361132710014" lon="12.758374682072379"><ele>506.5</ele><time>2026-04-29T13:47:08.998Z</time></trkpt><trkpt lat="43.31624894472444" lon="12.758314157596608"><ele>506.0</ele><time>2026-04-29T13:47:09.998Z</time></trkpt><trkpt lat="43.31613529934639" lon="12.758259994987187"><ele>505.5</ele><time>2026-04-29T13:47:10.998Z</time></trkpt><trkpt lat="43.31601700086421" lon="12.75820435352821"><ele>505.0</ele><time>2026-04-29T13:47:12Z</time></trkpt><trkpt lat="43.31589819530953" lon="12.758145945413549"><ele>505.0</ele><time>2026-04-29T13:47:13Z</time></trkpt><trkpt lat="43.31577684955303" lon="12.758091598611545"><ele>505.0</ele><time>2026-04-29T13:47:14Z</time></trkpt><trkpt lat="43.31565342957691" lon="12.758040916028849"><ele>505.0</ele><time>2026-04-29T13:47:15Z</time></trkpt><trkpt lat="43.31552411456292" lon="12.758011466222534"><ele>505.0</ele><time>2026-04-29T13:47:16Z</time></trkpt><trkpt lat="43.31539182719961" lon="12.758006473222604"><ele>504.75</ele><time>2026-04-29T13:47:17Z</time></trkpt><trkpt lat="43.31526660775312" lon="12.758005137531246"><ele>504.5</ele><time>2026-04-29T13:47:18Z</time></trkpt><trkpt lat="43.31514623842668" lon="12.758008220184536"><ele>504.25</ele><time>2026-04-29T13:47:19Z</time></trkpt><trkpt lat="43.31502636968744" lon="12.758022176954066"><ele>504.0</ele><time>2026-04-29T13:47:20Z</time></trkpt><trkpt lat="43.314904333969345" lon="12.758034629524603"><ele>504.0</ele><time>2026-04-29T13:47:21Z</time></trkpt><trkpt lat="43.31476922920576" lon="12.75804289946253"><ele>504.0</ele><time>2026-04-29T13:47:22Z</time></trkpt><trkpt lat="43.314642669210976" lon="12.75805113249347"><ele>504.0</ele><time>2026-04-29T13:47:23Z</time></trkpt><trkpt lat="43.31450837764756" lon="12.758071591205487"><ele>504.0</ele><time>2026-04-29T13:47:24Z</time></trkpt><trkpt lat="43.31436421997679" lon="12.758089212177719"><ele>503.33333333333337</ele><time>2026-04-29T13:47:25Z</time></trkpt><trkpt lat="43.31420937867529" lon="12.758117354876202"><ele>502.6666666666667</ele><time>2026-04-29T13:47:26Z</time></trkpt><trkpt lat="43.31405024366585" lon="12.758154119422377"><ele>502.0</ele><time>2026-04-29T13:47:27Z</time></trkpt><trkpt lat="43.313891535209834" lon="12.758193859032728"><ele>500.0</ele><time>2026-04-29T13:47:28Z</time></trkpt><trkpt lat="43.313738725845496" lon="12.758232590927316"><ele>498.0</ele><time>2026-04-29T13:47:29Z</time></trkpt><trkpt lat="43.31358024100622" lon="12.758280470429774"><ele>496.0</ele><time>2026-04-29T13:47:30Z</time></trkpt><trkpt lat="43.313415728976906" lon="12.758327766945458"><ele>496.0</ele><time>2026-04-29T13:47:31Z</time></trkpt><trkpt lat="43.31324301295468" lon="12.758380641376178"><ele>496.0</ele><time>2026-04-29T13:47:32Z</time></trkpt><trkpt lat="43.31307193668064" lon="12.758434963837189"><ele>496.0</ele><time>2026-04-29T13:47:33Z</time></trkpt><trkpt lat="43.31289779560101" lon="12.758488310223152"><ele>495.6666666666667</ele><time>2026-04-29T13:47:34Z</time></trkpt><trkpt lat="43.31272096568903" lon="12.758538502893114"><ele>495.33333333333337</ele><time>2026-04-29T13:47:35Z</time></trkpt><trkpt lat="43.31254184427366" lon="12.758589061274277"><ele>495.0</ele><time>2026-04-29T13:47:36Z</time></trkpt><trkpt lat="43.31235857276241" lon="12.758644021342162"><ele>494.66666666666663</ele><time>2026-04-29T13:47:37Z</time></trkpt><trkpt lat="43.312173678874835" lon="12.75869280551045"><ele>494.3333333333333</ele><time>2026-04-29T13:47:38Z</time></trkpt><trkpt lat="43.31198516257096" lon="12.758735560668635"><ele>494.0</ele><time>2026-04-29T13:47:39Z</time></trkpt><trkpt lat="43.311805974376355" lon="12.758774793461798"><ele>494.0</ele><time>2026-04-29T13:47:40Z</time></trkpt><trkpt lat="43.31162940599316" lon="12.758814365344906"><ele>494.0</ele><time>2026-04-29T13:47:41Z</time></trkpt><trkpt lat="43.311454239799936" lon="12.75885923224554"><ele>494.0</ele><time>2026-04-29T13:47:42Z</time></trkpt><trkpt lat="43.311281881566785" lon="12.75890502745819"><ele>493.0</ele><time>2026-04-29T13:47:43Z</time></trkpt><trkpt lat="43.31110812409435" lon="12.758948117867758"><ele>492.0</ele><time>2026-04-29T13:47:44Z</time></trkpt><trkpt lat="43.31094295294417" lon="12.75898273304008"><ele>491.0</ele><time>2026-04-29T13:47:45Z</time></trkpt><trkpt lat="43.31079025673054" lon="12.759011165807303"><ele>491.0</ele><time>2026-04-29T13:47:46Z</time></trkpt><trkpt lat="43.31064094978081" lon="12.759034165564513"><ele>491.0</ele><time>2026-04-29T13:47:47Z</time></trkpt><trkpt lat="43.31048616502539" lon="12.759050458774633"><ele>491.0</ele><time>2026-04-29T13:47:48Z</time></trkpt><trkpt lat="43.310326781008115" lon="12.759067408782734"><ele>492.0</ele><time>2026-04-29T13:47:49Z</time></trkpt><trkpt lat="43.31016132575242" lon="12.759078601913663"><ele>493.0</ele><time>2026-04-29T13:47:50Z</time></trkpt><trkpt lat="43.30998929834035" lon="12.759088569789578"><ele>494.0</ele><time>2026-04-29T13:47:51Z</time></trkpt><trkpt lat="43.309827792935685" lon="12.75910058597315"><ele>495.0</ele><time>2026-04-29T13:47:52Z</time></trkpt><trkpt lat="43.30967952767708" lon="12.759109661202315"><ele>496.0</ele><time>2026-04-29T13:47:53Z</time></trkpt><trkpt lat="43.309542254212495" lon="12.75912242121566"><ele>497.0</ele><time>2026-04-29T13:47:54Z</time></trkpt><trkpt lat="43.30940975921798" lon="12.75913536146667"><ele>498.0</ele><time>2026-04-29T13:47:55Z</time></trkpt><trkpt lat="43.30927068010814" lon="12.759134099148527"><ele>498.0</ele><time>2026-04-29T13:47:56Z</time></trkpt><trkpt lat="43.30912421496816" lon="12.759125912199092"><ele>498.0</ele><time>2026-04-29T13:47:57Z</time></trkpt><trkpt lat="43.30897326692436" lon="12.759109510781968"><ele>498.0</ele><time>2026-04-29T13:47:58Z</time></trkpt><trkpt lat="43.30882088732189" lon="12.759081510158023"><ele>496.66666666666663</ele><time>2026-04-29T13:47:58.999Z</time></trkpt><trkpt lat="43.308668677326494" lon="12.759039092907239"><ele>495.3333333333333</ele><time>2026-04-29T13:47:59.999Z</time></trkpt><trkpt lat="43.308513517100224" lon="12.759000626888932"><ele>494.0</ele><time>2026-04-29T13:48:00.999Z</time></trkpt><trkpt lat="43.308351256457016" lon="12.758954622882637"><ele>494.0</ele><time>2026-04-29T13:48:01.999Z</time></trkpt><trkpt lat="43.308185220095744" lon="12.758919724756328"><ele>494.0</ele><time>2026-04-29T13:48:02.999Z</time></trkpt><trkpt lat="43.30800671108626" lon="12.758883446389385"><ele>494.0</ele><time>2026-04-29T13:48:03.999Z</time></trkpt><trkpt lat="43.307826865565005" lon="12.758843270530106"><ele>492.0</ele><time>2026-04-29T13:48:04.999Z</time></trkpt><trkpt lat="43.30764676573251" lon="12.758803292699962"><ele>490.0</ele><time>2026-04-29T13:48:05.999Z</time></trkpt><trkpt lat="43.30746605620218" lon="12.758765041491584"><ele>488.0</ele><time>2026-04-29T13:48:06.999Z</time></trkpt><trkpt lat="43.30728211637565" lon="12.758728986612402"><ele>486.3333333333333</ele><time>2026-04-29T13:48:07.999Z</time></trkpt><trkpt lat="43.30709075039676" lon="12.758694698805408"><ele>484.66666666666663</ele><time>2026-04-29T13:48:08.999Z</time></trkpt><trkpt lat="43.306894890893716" lon="12.758675541576366"><ele>483.0</ele><time>2026-04-29T13:48:09.999Z</time></trkpt><trkpt lat="43.306694359266146" lon="12.758682895507286"><ele>483.0</ele><time>2026-04-29T13:48:10.999Z</time></trkpt><trkpt lat="43.30649310062885" lon="12.7587025641833"><ele>483.0</ele><time>2026-04-29T13:48:11.999Z</time></trkpt><trkpt lat="43.30628563858778" lon="12.758716196866688"><ele>483.0</ele><time>2026-04-29T13:48:12.999Z</time></trkpt><trkpt lat="43.30609398039105" lon="12.75872178794879"><ele>481.33333333333337</ele><time>2026-04-29T13:48:13.999Z</time></trkpt><trkpt lat="43.305902354643" lon="12.758727846946904"><ele>479.6666666666667</ele><time>2026-04-29T13:48:14.999Z</time></trkpt><trkpt lat="43.30571879556833" lon="12.758734930379322"><ele>478.0</ele><time>2026-04-29T13:48:15.999Z</time></trkpt><trkpt lat="43.305536983060925" lon="12.758744873645064"><ele>476.6666666666667</ele><time>2026-04-29T13:48:16.999Z</time></trkpt><trkpt lat="43.30535563574856" lon="12.758765525538287"><ele>475.33333333333337</ele><time>2026-04-29T13:48:17.999Z</time></trkpt><trkpt lat="43.305182465562964" lon="12.758780122774006"><ele>474.0</ele><time>2026-04-29T13:48:18.999Z</time></trkpt><trkpt lat="43.305007138468056" lon="12.758786302218734"><ele>474.0</ele><time>2026-04-29T13:48:19.999Z</time></trkpt><trkpt lat="43.30482837589935" lon="12.758795023962099"><ele>474.0</ele><time>2026-04-29T13:48:20.999Z</time></trkpt><trkpt lat="43.30464466872118" lon="12.758807430515745"><ele>474.0</ele><time>2026-04-29T13:48:21.999Z</time></trkpt><trkpt lat="43.304461212557605" lon="12.758814871419652"><ele>473.66666666666663</ele><time>2026-04-29T13:48:22.999Z</time></trkpt><trkpt lat="43.304274406112405" lon="12.758825088341439"><ele>473.3333333333333</ele><time>2026-04-29T13:48:23.999Z</time></trkpt><trkpt lat="43.304082960454906" lon="12.75883554251811"><ele>473.0</ele><time>2026-04-29T13:48:24.999Z</time></trkpt><trkpt lat="43.30389134637568" lon="12.758843960242784"><ele>472.66666666666663</ele><time>2026-04-29T13:48:25.999Z</time></trkpt><trkpt lat="43.30369964634691" lon="12.758855380639103"><ele>472.33333333333337</ele><time>2026-04-29T13:48:26.999Z</time></trkpt><trkpt lat="43.3034994306443" lon="12.758855983167102"><ele>472.0</ele><time>2026-04-29T13:48:27.999Z</time></trkpt><trkpt lat="43.30330834775104" lon="12.758789658605236"><ele>472.0</ele><time>2026-04-29T13:48:28.999Z</time></trkpt><trkpt lat="43.303114174793386" lon="12.758743789314892"><ele>472.0</ele><time>2026-04-29T13:48:29.999Z</time></trkpt><trkpt lat="43.30293104559538" lon="12.758678315935231"><ele>472.0</ele><time>2026-04-29T13:48:30.999Z</time></trkpt><trkpt lat="43.30276296158418" lon="12.758625593072553"><ele>472.25</ele><time>2026-04-29T13:48:31.999Z</time></trkpt><trkpt lat="43.302609363640094" lon="12.758575985010703"><ele>472.5</ele><time>2026-04-29T13:48:32.999Z</time></trkpt><trkpt lat="43.30246971937643" lon="12.75851725171156"><ele>472.75</ele><time>2026-04-29T13:48:33.999Z</time></trkpt><trkpt lat="43.30234615393079" lon="12.758455325612232"><ele>473.0</ele><time>2026-04-29T13:48:34.999Z</time></trkpt><trkpt lat="43.30223862863955" lon="12.7584116895012"><ele>473.0</ele><time>2026-04-29T13:48:35.999Z</time></trkpt><trkpt lat="43.30214447852993" lon="12.7583570534056"><ele>472.99999999999994</ele><time>2026-04-29T13:48:36.999Z</time></trkpt><trkpt lat="43.30204983772115" lon="12.758294414505945"><ele>472.99999999999994</ele><time>2026-04-29T13:48:37.999Z</time></trkpt><trkpt lat="43.301949735702735" lon="12.758231734492599"><ele>473.0</ele><time>2026-04-29T13:48:38.999Z</time></trkpt><trkpt lat="43.30183650852977" lon="12.758166542188688"><ele>473.0</ele><time>2026-04-29T13:48:39.999Z</time></trkpt><trkpt lat="43.30170969662122" lon="12.75809672147954"><ele>473.0</ele><time>2026-04-29T13:48:40.999Z</time></trkpt><trkpt lat="43.301574576625406" lon="12.758024245488167"><ele>473.0</ele><time>2026-04-29T13:48:41.999Z</time></trkpt><trkpt lat="43.30143228844804" lon="12.757947290104681"><ele>473.0</ele><time>2026-04-29T13:48:42.999Z</time></trkpt><trkpt lat="43.30128691575088" lon="12.757864921592791"><ele>471.0</ele><time>2026-04-29T13:48:43.999Z</time></trkpt><trkpt lat="43.301142435200326" lon="12.757781210810299"><ele>469.0</ele><time>2026-04-29T13:48:44.999Z</time></trkpt><trkpt lat="43.300996519748395" lon="12.757696800015346"><ele>467.0</ele><time>2026-04-29T13:48:45.999Z</time></trkpt><trkpt lat="43.300860210849265" lon="12.757614354493858"><ele>467.0</ele><time>2026-04-29T13:48:46.999Z</time></trkpt><trkpt lat="43.30072717036866" lon="12.757526861350575"><ele>467.0</ele><time>2026-04-29T13:48:47.999Z</time></trkpt><trkpt lat="43.30059705230064" lon="12.757443438166643"><ele>467.0</ele><time>2026-04-29T13:48:48.999Z</time></trkpt><trkpt lat="43.300472532433794" lon="12.75736011469309"><ele>467.0</ele><time>2026-04-29T13:48:49.999Z</time></trkpt><trkpt lat="43.30035123515293" lon="12.7572736308166"><ele>465.6</ele><time>2026-04-29T13:48:50.999Z</time></trkpt><trkpt lat="43.30024534524715" lon="12.7571967332921"><ele>464.20000000000005</ele><time>2026-04-29T13:48:51.999Z</time></trkpt><trkpt lat="43.300143919617504" lon="12.757131008734069"><ele>462.8</ele><time>2026-04-29T13:48:52.999Z</time></trkpt><trkpt lat="43.30006332667006" lon="12.757062827294039"><ele>461.4</ele><time>2026-04-29T13:48:53.999Z</time></trkpt><trkpt lat="43.30000478161674" lon="12.75698743194565"><ele>460.0</ele><time>2026-04-29T13:48:54.999Z</time></trkpt><trkpt lat="43.29996174316143" lon="12.756905332210442"><ele>460.6666666666667</ele><time>2026-04-29T13:48:55.999Z</time></trkpt><trkpt lat="43.299924174433585" lon="12.756810692430447"><ele>461.33333333333337</ele><time>2026-04-29T13:48:56.999Z</time></trkpt><trkpt lat="43.29986631359566" lon="12.756744716604274"><ele>462.0</ele><time>2026-04-29T13:48:57.999Z</time></trkpt><trkpt lat="43.29978856038403" lon="12.756715464160031"><ele>462.66666666666663</ele><time>2026-04-29T13:48:58.999Z</time></trkpt><trkpt lat="43.299691249523526" lon="12.756738108130959"><ele>463.3333333333333</ele><time>2026-04-29T13:48:59.999Z</time></trkpt><trkpt lat="43.29958903637456" lon="12.756772790928386"><ele>464.0</ele><time>2026-04-29T13:49:00.999Z</time></trkpt><trkpt lat="43.29947602104085" lon="12.756755342494735"><ele>461.5</ele><time>2026-04-29T13:49:01.999Z</time></trkpt><trkpt lat="43.29934841745167" lon="12.756677268817892"><ele>459.0</ele><time>2026-04-29T13:49:02.999Z</time></trkpt><trkpt lat="43.29921876990547" lon="12.756577707349058"><ele>456.5</ele><time>2026-04-29T13:49:03.999Z</time></trkpt><trkpt lat="43.29908306751846" lon="12.756475148953836"><ele>454.0</ele><time>2026-04-29T13:49:04.999Z</time></trkpt><trkpt lat="43.29894137728881" lon="12.756378712301856"><ele>453.0</ele><time>2026-04-29T13:49:05.999Z</time></trkpt><trkpt lat="43.29879901330333" lon="12.756289106371206"><ele>452.0</ele><time>2026-04-29T13:49:06.998Z</time></trkpt><trkpt lat="43.2986643239672" lon="12.756197297010504"><ele>451.0</ele><time>2026-04-29T13:49:07.998Z</time></trkpt><trkpt lat="43.29854181412584" lon="12.756103304438104"><ele>450.0</ele><time>2026-04-29T13:49:08.998Z</time></trkpt><trkpt lat="43.29842508761578" lon="12.756007352404085"><ele>449.75</ele><time>2026-04-29T13:49:09.998Z</time></trkpt><trkpt lat="43.298307616920475" lon="12.755902727487781"><ele>449.5</ele><time>2026-04-29T13:49:10.998Z</time></trkpt><trkpt lat="43.29819669495753" lon="12.755786086022916"><ele>449.25</ele><time>2026-04-29T13:49:11.998Z</time></trkpt><trkpt lat="43.2980869238198" lon="12.7556504495567"><ele>449.0</ele><time>2026-04-29T13:49:12.998Z</time></trkpt><trkpt lat="43.29799242229301" lon="12.755484177229073"><ele>448.3333333333333</ele><time>2026-04-29T13:49:13.998Z</time></trkpt><trkpt lat="43.29787635276593" lon="12.755334838448956"><ele>447.66666666666663</ele><time>2026-04-29T13:49:14.998Z</time></trkpt><trkpt lat="43.29777350358887" lon="12.75516224682169"><ele>447.0</ele><time>2026-04-29T13:49:15.998Z</time></trkpt><trkpt lat="43.29766460812846" lon="12.754990810901063"><ele>447.0</ele><time>2026-04-29T13:49:16.998Z</time></trkpt><trkpt lat="43.29755360906308" lon="12.754834396072043"><ele>447.0</ele><time>2026-04-29T13:49:18Z</time></trkpt><trkpt lat="43.2974472635107" lon="12.754697710492723"><ele>447.0</ele><time>2026-04-29T13:49:19Z</time></trkpt><trkpt lat="43.29734011870556" lon="12.754571187555285"><ele>447.0</ele><time>2026-04-29T13:49:20Z</time></trkpt><trkpt lat="43.29723152802502" lon="12.754438930806598"><ele>446.25</ele><time>2026-04-29T13:49:21Z</time></trkpt><trkpt lat="43.2971274636287" lon="12.75429352029771"><ele>445.5</ele><time>2026-04-29T13:49:22Z</time></trkpt><trkpt lat="43.29702005709241" lon="12.754143728853034"><ele>444.75</ele><time>2026-04-29T13:49:23Z</time></trkpt><trkpt lat="43.29692757065466" lon="12.753992567755176"><ele>444.0</ele><time>2026-04-29T13:49:24Z</time></trkpt><trkpt lat="43.29684742936916" lon="12.753846552301228"><ele>444.0</ele><time>2026-04-29T13:49:25Z</time></trkpt><trkpt lat="43.296773875244156" lon="12.753712224192336"><ele>444.0</ele><time>2026-04-29T13:49:26Z</time></trkpt><trkpt lat="43.29670426592102" lon="12.753579339742776"><ele>444.0</ele><time>2026-04-29T13:49:27Z</time></trkpt><trkpt lat="43.29662672728282" lon="12.753436131164147"><ele>444.0</ele><time>2026-04-29T13:49:28Z</time></trkpt><trkpt lat="43.2965424246223" lon="12.75327879241707"><ele>444.0</ele><time>2026-04-29T13:49:29Z</time></trkpt><trkpt lat="43.29645410382491" lon="12.753106972315935"><ele>444.0</ele><time>2026-04-29T13:49:30Z</time></trkpt><trkpt lat="43.29635830515746" lon="12.752933631644666"><ele>444.0</ele><time>2026-04-29T13:49:31Z</time></trkpt><trkpt lat="43.29625521964567" lon="12.75275760161388"><ele>443.66666666666663</ele><time>2026-04-29T13:49:32Z</time></trkpt><trkpt lat="43.29614713422425" lon="12.752587783440127"><ele>443.3333333333333</ele><time>2026-04-29T13:49:33Z</time></trkpt><trkpt lat="43.296031058958064" lon="12.752420773095663"><ele>443.0</ele><time>2026-04-29T13:49:34Z</time></trkpt><trkpt lat="43.295914647790646" lon="12.752262470690749"><ele>443.0</ele><time>2026-04-29T13:49:35Z</time></trkpt><trkpt lat="43.295789365966044" lon="12.752111993818229"><ele>443.0</ele><time>2026-04-29T13:49:36Z</time></trkpt><trkpt lat="43.29566760536111" lon="12.751950919473732"><ele>443.0</ele><time>2026-04-29T13:49:37Z</time></trkpt><trkpt lat="43.295544730405986" lon="12.751805027488611"><ele>444.0</ele><time>2026-04-29T13:49:38Z</time></trkpt><trkpt lat="43.295440869161375" lon="12.751636870458094"><ele>445.0</ele><time>2026-04-29T13:49:39Z</time></trkpt><trkpt lat="43.2953324605621" lon="12.751466804854111"><ele>446.0</ele><time>2026-04-29T13:49:40Z</time></trkpt><trkpt lat="43.29521437159919" lon="12.751303028704568"><ele>446.0</ele><time>2026-04-29T13:49:41Z</time></trkpt><trkpt lat="43.29510648761814" lon="12.751125211938215"><ele>446.0</ele><time>2026-04-29T13:49:42Z</time></trkpt><trkpt lat="43.29498941423553" lon="12.75095307139125"><ele>446.0</ele><time>2026-04-29T13:49:43Z</time></trkpt><trkpt lat="43.29487300876212" lon="12.750788216470598"><ele>443.66666666666663</ele><time>2026-04-29T13:49:44Z</time></trkpt><trkpt lat="43.294755642886415" lon="12.750631628989137"><ele>441.33333333333337</ele><time>2026-04-29T13:49:45Z</time></trkpt><trkpt lat="43.29462725187551" lon="12.750505601240167"><ele>439.0</ele><time>2026-04-29T13:49:46Z</time></trkpt><trkpt lat="43.294500854139585" lon="12.750395795317369"><ele>439.0</ele><time>2026-04-29T13:49:47Z</time></trkpt><trkpt lat="43.29437677275441" lon="12.75029581252304"><ele>439.0</ele><time>2026-04-29T13:49:48Z</time></trkpt><trkpt lat="43.29425861434003" lon="12.750204294449706"><ele>439.0</ele><time>2026-04-29T13:49:49Z</time></trkpt><trkpt lat="43.29412734476339" lon="12.750142785649738"><ele>439.0</ele><time>2026-04-29T13:49:50Z</time></trkpt><trkpt lat="43.29397658301832" lon="12.750131171353521"><ele>436.33333333333337</ele><time>2026-04-29T13:49:51Z</time></trkpt><trkpt lat="43.29381616922421" lon="12.750171824107625"><ele>433.66666666666663</ele><time>2026-04-29T13:49:52Z</time></trkpt><trkpt lat="43.29365472608863" lon="12.75023269965773"><ele>431.0</ele><time>2026-04-29T13:49:53Z</time></trkpt><trkpt lat="43.29349343166984" lon="12.750296527102346"><ele>431.0</ele><time>2026-04-29T13:49:54Z</time></trkpt><trkpt lat="43.293329920932216" lon="12.750346074817521"><ele>431.0</ele><time>2026-04-29T13:49:55Z</time></trkpt><trkpt lat="43.293177771508226" lon="12.750394515700606"><ele>431.0</ele><time>2026-04-29T13:49:56Z</time></trkpt><trkpt lat="43.29302686160982" lon="12.750431838995327"><ele>430.3333333333333</ele><time>2026-04-29T13:49:57Z</time></trkpt><trkpt lat="43.29286775709524" lon="12.75045419772316"><ele>429.66666666666663</ele><time>2026-04-29T13:49:58Z</time></trkpt><trkpt lat="43.29270400995468" lon="12.750433180535358"><ele>429.0</ele><time>2026-04-29T13:49:59Z</time></trkpt><trkpt lat="43.29254421920236" lon="12.750381543385727"><ele>429.0</ele><time>2026-04-29T13:50:00Z</time></trkpt><trkpt lat="43.292402109382884" lon="12.750311578140046"><ele>429.0</ele><time>2026-04-29T13:50:01Z</time></trkpt><trkpt lat="43.29227656131821" lon="12.750237651270401"><ele>429.0</ele><time>2026-04-29T13:50:02Z</time></trkpt><trkpt lat="43.29215366187699" lon="12.750185049918885"><ele>429.0</ele><time>2026-04-29T13:50:02.999Z</time></trkpt><trkpt lat="43.29203343849883" lon="12.750149657837854"><ele>427.79999999999995</ele><time>2026-04-29T13:50:03.999Z</time></trkpt><trkpt lat="43.29191828536756" lon="12.750118593591827"><ele>426.59999999999997</ele><time>2026-04-29T13:50:04.999Z</time></trkpt><trkpt lat="43.291815591805914" lon="12.75007952124441"><ele>425.4</ele><time>2026-04-29T13:50:05.999Z</time></trkpt><trkpt lat="43.29171921428413" lon="12.750057923854921"><ele>424.2</ele><time>2026-04-29T13:50:06.999Z</time></trkpt><trkpt lat="43.29163349139052" lon="12.750035053042616"><ele>423.0</ele><time>2026-04-29T13:50:07.999Z</time></trkpt><trkpt lat="43.291559540172535" lon="12.750019830914411"><ele>423.0</ele><time>2026-04-29T13:50:08.999Z</time></trkpt><trkpt lat="43.291456101288226" lon="12.749997716339005"><ele>423.0</ele><time>2026-04-29T13:50:10.999Z</time></trkpt><trkpt lat="43.29138556313943" lon="12.749981298442215"><ele>423.0</ele><time>2026-04-29T13:50:13.999Z</time></trkpt><trkpt lat="43.291309670264255" lon="12.749987112302595"><ele>423.0</ele><time>2026-04-29T13:50:38.999Z</time></trkpt><trkpt lat="43.29122285820553" lon="12.749980713723282"><ele>423.0</ele><time>2026-04-29T13:50:40.999Z</time></trkpt><trkpt lat="43.29115784098754" lon="12.749948462195263"><ele>423.0</ele><time>2026-04-29T13:50:41.999Z</time></trkpt><trkpt lat="43.29104871654718" lon="12.749872516200828"><ele>423.0</ele><time>2026-04-29T13:50:43.999Z</time></trkpt><trkpt lat="43.29101781881894" lon="12.749782765375764"><ele>423.0</ele><time>2026-04-29T13:50:44.999Z</time></trkpt><trkpt lat="43.291018910786086" lon="12.749661107643863"><ele>423.0</ele><time>2026-04-29T13:50:45.999Z</time></trkpt><trkpt lat="43.290991686694454" lon="12.74952795077179"><ele>423.0</ele><time>2026-04-29T13:50:46.999Z</time></trkpt><trkpt lat="43.290992797043245" lon="12.749389325399578"><ele>423.0</ele><time>2026-04-29T13:50:47.999Z</time></trkpt><trkpt lat="43.290988966281695" lon="12.74925930939667"><ele>424.0</ele><time>2026-04-29T13:50:48.999Z</time></trkpt><trkpt lat="43.29097136012712" lon="12.74912981219762"><ele>424.0</ele><time>2026-04-29T13:50:49.999Z</time></trkpt><trkpt lat="43.29094436546942" lon="12.749020497275684"><ele>424.0</ele><time>2026-04-29T13:50:50.999Z</time></trkpt><trkpt lat="43.290923612759045" lon="12.74893519675005"><ele>424.0</ele><time>2026-04-29T13:50:51.999Z</time></trkpt><trkpt lat="43.2909074360709" lon="12.748827418675011"><ele>424.0</ele><time>2026-04-29T13:50:53.999Z</time></trkpt></trkseg></trk></gpx>